<?xml version="1.0" encoding="UTF-8" standalone="no" ?>
<gpx xmlns="http://www.topografix.com/GPX/1/1" xmlns:xsi="http://www.w3.org/2001/XMLSchema-instance" xsi:schemaLocation="http://www.topografix.com/GPX/1/1 http://www.topografix.com/GPX/1/1/gpx.xsd" version="1.1" creator="VisuGPX - https://www.visugpx.com">
  <metadata>
    <name>Pornichet 28/07/2022</name>
    <desc><![CDATA[Sortie jeudi 28 juillet 2022]]></desc>
  </metadata>
  <trk>
    <name><![CDATA[Pornichet Cyclisme]]></name>
    <trkseg>
      <trkpt lat="47.26404" lon="-2.31564">
        <ele>6.1999998092651</ele>
        <time>2022-07-28T06:46:48.000Z</time>
      </trkpt>
      <trkpt lat="47.26406" lon="-2.31583">
        <ele>6.1999998092651</ele>
        <time>2022-07-28T06:46:52.000Z</time>
      </trkpt>
      <trkpt lat="47.26406" lon="-2.31589">
        <ele>6</ele>
        <time>2022-07-28T06:46:53.000Z</time>
      </trkpt>
      <trkpt lat="47.26408" lon="-2.31626">
        <ele>6</ele>
        <time>2022-07-28T06:47:00.000Z</time>
      </trkpt>
      <trkpt lat="47.2641" lon="-2.31657">
        <ele>6</ele>
        <time>2022-07-28T06:47:06.000Z</time>
      </trkpt>
      <trkpt lat="47.26408" lon="-2.31662">
        <ele>6</ele>
        <time>2022-07-28T06:47:08.000Z</time>
      </trkpt>
      <trkpt lat="47.26405" lon="-2.31664">
        <ele>6</ele>
        <time>2022-07-28T06:47:10.000Z</time>
      </trkpt>
      <trkpt lat="47.2639" lon="-2.3167">
        <ele>6</ele>
        <time>2022-07-28T06:47:14.000Z</time>
      </trkpt>
      <trkpt lat="47.26365" lon="-2.31686">
        <ele>5.5999999046326</ele>
        <time>2022-07-28T06:47:19.000Z</time>
      </trkpt>
      <trkpt lat="47.26361" lon="-2.31689">
        <ele>4.8000001907349</ele>
        <time>2022-07-28T06:47:20.000Z</time>
      </trkpt>
      <trkpt lat="47.26356" lon="-2.31691">
        <ele>4.4000000953674</ele>
        <time>2022-07-28T06:47:21.000Z</time>
      </trkpt>
      <trkpt lat="47.26351" lon="-2.31694">
        <ele>4</ele>
        <time>2022-07-28T06:47:22.000Z</time>
      </trkpt>
      <trkpt lat="47.26336" lon="-2.317">
        <ele>4</ele>
        <time>2022-07-28T06:47:25.000Z</time>
      </trkpt>
      <trkpt lat="47.26319" lon="-2.31709">
        <ele>3.4000000953674</ele>
        <time>2022-07-28T06:47:29.000Z</time>
      </trkpt>
      <trkpt lat="47.26316" lon="-2.31711">
        <ele>3</ele>
        <time>2022-07-28T06:47:30.000Z</time>
      </trkpt>
      <trkpt lat="47.26313" lon="-2.31713">
        <ele>2.5999999046326</ele>
        <time>2022-07-28T06:47:31.000Z</time>
      </trkpt>
      <trkpt lat="47.26309" lon="-2.31718">
        <ele>2.2000000476837</ele>
        <time>2022-07-28T06:47:32.000Z</time>
      </trkpt>
      <trkpt lat="47.26305" lon="-2.31722">
        <ele>1.7999999523163</ele>
        <time>2022-07-28T06:47:33.000Z</time>
      </trkpt>
      <trkpt lat="47.26303" lon="-2.31727">
        <ele>1.7999999523163</ele>
        <time>2022-07-28T06:47:34.000Z</time>
      </trkpt>
      <trkpt lat="47.26301" lon="-2.31732">
        <ele>1.7999999523163</ele>
        <time>2022-07-28T06:47:35.000Z</time>
      </trkpt>
      <trkpt lat="47.26295" lon="-2.31759">
        <ele>1.7999999523163</ele>
        <time>2022-07-28T06:47:40.000Z</time>
      </trkpt>
      <trkpt lat="47.26295" lon="-2.31766">
        <ele>1.7999999523163</ele>
        <time>2022-07-28T06:47:41.000Z</time>
      </trkpt>
      <trkpt lat="47.26302" lon="-2.31792">
        <ele>1.7999999523163</ele>
        <time>2022-07-28T06:47:45.000Z</time>
      </trkpt>
      <trkpt lat="47.26304" lon="-2.31823">
        <ele>1.7999999523163</ele>
        <time>2022-07-28T06:47:51.000Z</time>
      </trkpt>
      <trkpt lat="47.26306" lon="-2.31857">
        <ele>1.7999999523163</ele>
        <time>2022-07-28T06:47:56.000Z</time>
      </trkpt>
      <trkpt lat="47.26304" lon="-2.31883">
        <ele>1.7999999523163</ele>
        <time>2022-07-28T06:48:01.000Z</time>
      </trkpt>
      <trkpt lat="47.263" lon="-2.3189">
        <ele>1.7999999523163</ele>
        <time>2022-07-28T06:48:03.000Z</time>
      </trkpt>
      <trkpt lat="47.26295" lon="-2.31897">
        <ele>1.7999999523163</ele>
        <time>2022-07-28T06:48:05.000Z</time>
      </trkpt>
      <trkpt lat="47.26279" lon="-2.31914">
        <ele>1.7999999523163</ele>
        <time>2022-07-28T06:48:09.000Z</time>
      </trkpt>
      <trkpt lat="47.2627" lon="-2.31927">
        <ele>1.3999999761581</ele>
        <time>2022-07-28T06:48:12.000Z</time>
      </trkpt>
      <trkpt lat="47.26268" lon="-2.31932">
        <ele>1</ele>
        <time>2022-07-28T06:48:13.000Z</time>
      </trkpt>
      <trkpt lat="47.26266" lon="-2.31937">
        <ele>0.60000002384186</ele>
        <time>2022-07-28T06:48:14.000Z</time>
      </trkpt>
      <trkpt lat="47.26263" lon="-2.31941">
        <ele>0.20000000298023</ele>
        <time>2022-07-28T06:48:15.000Z</time>
      </trkpt>
      <trkpt lat="47.2626" lon="-2.31946">
        <ele>-0.20000000298023</ele>
        <time>2022-07-28T06:48:16.000Z</time>
      </trkpt>
      <trkpt lat="47.26251" lon="-2.31959">
        <ele>-0.20000000298023</ele>
        <time>2022-07-28T06:48:19.000Z</time>
      </trkpt>
      <trkpt lat="47.26241" lon="-2.31966">
        <ele>-0.20000000298023</ele>
        <time>2022-07-28T06:48:21.000Z</time>
      </trkpt>
      <trkpt lat="47.26231" lon="-2.31977">
        <ele>-0.20000000298023</ele>
        <time>2022-07-28T06:48:24.000Z</time>
      </trkpt>
      <trkpt lat="47.26214" lon="-2.31991">
        <ele>-0.20000000298023</ele>
        <time>2022-07-28T06:48:29.000Z</time>
      </trkpt>
      <trkpt lat="47.26198" lon="-2.31999">
        <ele>-0.20000000298023</ele>
        <time>2022-07-28T06:48:34.000Z</time>
      </trkpt>
      <trkpt lat="47.26196" lon="-2.32008">
        <ele>-0.20000000298023</ele>
        <time>2022-07-28T06:48:36.000Z</time>
      </trkpt>
      <trkpt lat="47.26196" lon="-2.32011">
        <ele>-0.20000000298023</ele>
        <time>2022-07-28T06:48:37.000Z</time>
      </trkpt>
      <trkpt lat="47.26192" lon="-2.32019">
        <ele>-0.20000000298023</ele>
        <time>2022-07-28T06:48:42.000Z</time>
      </trkpt>
      <trkpt lat="47.26189" lon="-2.32021">
        <ele>-0.20000000298023</ele>
        <time>2022-07-28T06:48:43.000Z</time>
      </trkpt>
      <trkpt lat="47.26177" lon="-2.32025">
        <ele>-0.20000000298023</ele>
        <time>2022-07-28T06:48:46.000Z</time>
      </trkpt>
      <trkpt lat="47.2617" lon="-2.32028">
        <ele>-0.20000000298023</ele>
        <time>2022-07-28T06:48:48.000Z</time>
      </trkpt>
      <trkpt lat="47.26159" lon="-2.32039">
        <ele>-0.20000000298023</ele>
        <time>2022-07-28T06:48:51.000Z</time>
      </trkpt>
      <trkpt lat="47.26152" lon="-2.32063">
        <ele>-0.20000000298023</ele>
        <time>2022-07-28T06:48:55.000Z</time>
      </trkpt>
      <trkpt lat="47.26145" lon="-2.3208">
        <ele>-0.20000000298023</ele>
        <time>2022-07-28T06:48:58.000Z</time>
      </trkpt>
      <trkpt lat="47.2614" lon="-2.32097">
        <ele>-0.20000000298023</ele>
        <time>2022-07-28T06:49:01.000Z</time>
      </trkpt>
      <trkpt lat="47.26139" lon="-2.32103">
        <ele>-0.20000000298023</ele>
        <time>2022-07-28T06:49:02.000Z</time>
      </trkpt>
      <trkpt lat="47.2613" lon="-2.32131">
        <ele>-0.20000000298023</ele>
        <time>2022-07-28T06:49:07.000Z</time>
      </trkpt>
      <trkpt lat="47.2612" lon="-2.32163">
        <ele>-0.20000000298023</ele>
        <time>2022-07-28T06:49:13.000Z</time>
      </trkpt>
      <trkpt lat="47.26103" lon="-2.32198">
        <ele>-0.20000000298023</ele>
        <time>2022-07-28T06:49:20.000Z</time>
      </trkpt>
      <trkpt lat="47.26093" lon="-2.32217">
        <ele>-0.20000000298023</ele>
        <time>2022-07-28T06:49:24.000Z</time>
      </trkpt>
      <trkpt lat="47.26087" lon="-2.32227">
        <ele>-0.20000000298023</ele>
        <time>2022-07-28T06:49:26.000Z</time>
      </trkpt>
      <trkpt lat="47.26068" lon="-2.32251">
        <ele>-0.20000000298023</ele>
        <time>2022-07-28T06:49:32.000Z</time>
      </trkpt>
      <trkpt lat="47.26042" lon="-2.32281">
        <ele>-0.20000000298023</ele>
        <time>2022-07-28T06:49:40.000Z</time>
      </trkpt>
      <trkpt lat="47.26037" lon="-2.32289">
        <ele>-0.20000000298023</ele>
        <time>2022-07-28T06:49:44.000Z</time>
      </trkpt>
      <trkpt lat="47.26023" lon="-2.32302">
        <ele>-0.20000000298023</ele>
        <time>2022-07-28T06:49:50.000Z</time>
      </trkpt>
      <trkpt lat="47.26009" lon="-2.32319">
        <ele>-0.20000000298023</ele>
        <time>2022-07-28T06:49:55.000Z</time>
      </trkpt>
      <trkpt lat="47.26006" lon="-2.32324">
        <ele>-0.20000000298023</ele>
        <time>2022-07-28T06:49:56.000Z</time>
      </trkpt>
      <trkpt lat="47.25971" lon="-2.32367">
        <ele>-0.20000000298023</ele>
        <time>2022-07-28T06:50:06.000Z</time>
      </trkpt>
      <trkpt lat="47.25944" lon="-2.32402">
        <ele>-0.20000000298023</ele>
        <time>2022-07-28T06:50:14.000Z</time>
      </trkpt>
      <trkpt lat="47.2592" lon="-2.32432">
        <ele>-0.20000000298023</ele>
        <time>2022-07-28T06:50:21.000Z</time>
      </trkpt>
      <trkpt lat="47.25902" lon="-2.32454">
        <ele>-0.20000000298023</ele>
        <time>2022-07-28T06:50:27.000Z</time>
      </trkpt>
      <trkpt lat="47.259" lon="-2.32466">
        <ele>-0.20000000298023</ele>
        <time>2022-07-28T06:50:30.000Z</time>
      </trkpt>
      <trkpt lat="47.25908" lon="-2.32473">
        <ele>-0.20000000298023</ele>
        <time>2022-07-28T06:50:33.000Z</time>
      </trkpt>
      <trkpt lat="47.25912" lon="-2.32475">
        <ele>-0.20000000298023</ele>
        <time>2022-07-28T06:50:34.000Z</time>
      </trkpt>
      <trkpt lat="47.25923" lon="-2.32493">
        <ele>-0.20000000298023</ele>
        <time>2022-07-28T06:50:38.000Z</time>
      </trkpt>
      <trkpt lat="47.2593" lon="-2.3251">
        <ele>-0.20000000298023</ele>
        <time>2022-07-28T06:50:41.000Z</time>
      </trkpt>
      <trkpt lat="47.25936" lon="-2.32534">
        <ele>-0.20000000298023</ele>
        <time>2022-07-28T06:50:45.000Z</time>
      </trkpt>
      <trkpt lat="47.25946" lon="-2.32565">
        <ele>-0.20000000298023</ele>
        <time>2022-07-28T06:50:50.000Z</time>
      </trkpt>
      <trkpt lat="47.25949" lon="-2.32578">
        <ele>-0.20000000298023</ele>
        <time>2022-07-28T06:50:52.000Z</time>
      </trkpt>
      <trkpt lat="47.25959" lon="-2.3263">
        <ele>-0.20000000298023</ele>
        <time>2022-07-28T06:51:00.000Z</time>
      </trkpt>
      <trkpt lat="47.25962" lon="-2.32655">
        <ele>-0.20000000298023</ele>
        <time>2022-07-28T06:51:05.000Z</time>
      </trkpt>
      <trkpt lat="47.25972" lon="-2.32656">
        <ele>-0.20000000298023</ele>
        <time>2022-07-28T06:51:08.000Z</time>
      </trkpt>
      <trkpt lat="47.25992" lon="-2.32656">
        <ele>-0.20000000298023</ele>
        <time>2022-07-28T06:51:13.000Z</time>
      </trkpt>
      <trkpt lat="47.26007" lon="-2.32654">
        <ele>-0.20000000298023</ele>
        <time>2022-07-28T06:51:17.000Z</time>
      </trkpt>
      <trkpt lat="47.26015" lon="-2.32653">
        <ele>-0.20000000298023</ele>
        <time>2022-07-28T06:51:19.000Z</time>
      </trkpt>
      <trkpt lat="47.26043" lon="-2.32649">
        <ele>-0.20000000298023</ele>
        <time>2022-07-28T06:51:26.000Z</time>
      </trkpt>
      <trkpt lat="47.26074" lon="-2.32641">
        <ele>-0.20000000298023</ele>
        <time>2022-07-28T06:51:34.000Z</time>
      </trkpt>
      <trkpt lat="47.26101" lon="-2.32638">
        <ele>-0.20000000298023</ele>
        <time>2022-07-28T06:51:41.000Z</time>
      </trkpt>
      <trkpt lat="47.26133" lon="-2.32638">
        <ele>-0.20000000298023</ele>
        <time>2022-07-28T06:51:49.000Z</time>
      </trkpt>
      <trkpt lat="47.26162" lon="-2.32648">
        <ele>-0.20000000298023</ele>
        <time>2022-07-28T06:51:56.000Z</time>
      </trkpt>
      <trkpt lat="47.2618" lon="-2.32662">
        <ele>-0.20000000298023</ele>
        <time>2022-07-28T06:52:01.000Z</time>
      </trkpt>
      <trkpt lat="47.26183" lon="-2.32665">
        <ele>-0.20000000298023</ele>
        <time>2022-07-28T06:52:02.000Z</time>
      </trkpt>
      <trkpt lat="47.26197" lon="-2.32679">
        <ele>-0.20000000298023</ele>
        <time>2022-07-28T06:52:06.000Z</time>
      </trkpt>
      <trkpt lat="47.26203" lon="-2.32687">
        <ele>-0.20000000298023</ele>
        <time>2022-07-28T06:52:08.000Z</time>
      </trkpt>
      <trkpt lat="47.26212" lon="-2.32702">
        <ele>-0.20000000298023</ele>
        <time>2022-07-28T06:52:11.000Z</time>
      </trkpt>
      <trkpt lat="47.26222" lon="-2.32717">
        <ele>-0.20000000298023</ele>
        <time>2022-07-28T06:52:14.000Z</time>
      </trkpt>
      <trkpt lat="47.26226" lon="-2.32722">
        <ele>-0.20000000298023</ele>
        <time>2022-07-28T06:52:15.000Z</time>
      </trkpt>
      <trkpt lat="47.26258" lon="-2.32772">
        <ele>-0.20000000298023</ele>
        <time>2022-07-28T06:52:24.000Z</time>
      </trkpt>
      <trkpt lat="47.26277" lon="-2.32819">
        <ele>-0.20000000298023</ele>
        <time>2022-07-28T06:52:31.000Z</time>
      </trkpt>
      <trkpt lat="47.26284" lon="-2.3284">
        <ele>-0.20000000298023</ele>
        <time>2022-07-28T06:52:34.000Z</time>
      </trkpt>
      <trkpt lat="47.26293" lon="-2.32856">
        <ele>-0.20000000298023</ele>
        <time>2022-07-28T06:52:37.000Z</time>
      </trkpt>
      <trkpt lat="47.26312" lon="-2.32867">
        <ele>-0.20000000298023</ele>
        <time>2022-07-28T06:52:41.000Z</time>
      </trkpt>
      <trkpt lat="47.26321" lon="-2.32884">
        <ele>-0.20000000298023</ele>
        <time>2022-07-28T06:52:44.000Z</time>
      </trkpt>
      <trkpt lat="47.2633" lon="-2.3291">
        <ele>-0.20000000298023</ele>
        <time>2022-07-28T06:52:48.000Z</time>
      </trkpt>
      <trkpt lat="47.26339" lon="-2.32936">
        <ele>-0.20000000298023</ele>
        <time>2022-07-28T06:52:52.000Z</time>
      </trkpt>
      <trkpt lat="47.2635" lon="-2.32969">
        <ele>-0.20000000298023</ele>
        <time>2022-07-28T06:52:57.000Z</time>
      </trkpt>
      <trkpt lat="47.26356" lon="-2.32979">
        <ele>-0.20000000298023</ele>
        <time>2022-07-28T06:52:59.000Z</time>
      </trkpt>
      <trkpt lat="47.26365" lon="-2.33002">
        <ele>-0.20000000298023</ele>
        <time>2022-07-28T06:53:03.000Z</time>
      </trkpt>
      <trkpt lat="47.26365" lon="-2.33009">
        <ele>-0.20000000298023</ele>
        <time>2022-07-28T06:53:04.000Z</time>
      </trkpt>
      <trkpt lat="47.26368" lon="-2.33051">
        <ele>-0.20000000298023</ele>
        <time>2022-07-28T06:53:10.000Z</time>
      </trkpt>
      <trkpt lat="47.26373" lon="-2.33122">
        <ele>-0.20000000298023</ele>
        <time>2022-07-28T06:53:20.000Z</time>
      </trkpt>
      <trkpt lat="47.26373" lon="-2.33128">
        <ele>-0.20000000298023</ele>
        <time>2022-07-28T06:53:21.000Z</time>
      </trkpt>
      <trkpt lat="47.26375" lon="-2.33156">
        <ele>-0.20000000298023</ele>
        <time>2022-07-28T06:53:25.000Z</time>
      </trkpt>
      <trkpt lat="47.26377" lon="-2.33212">
        <ele>-0.20000000298023</ele>
        <time>2022-07-28T06:53:33.000Z</time>
      </trkpt>
      <trkpt lat="47.26381" lon="-2.33247">
        <ele>-0.20000000298023</ele>
        <time>2022-07-28T06:53:38.000Z</time>
      </trkpt>
      <trkpt lat="47.26386" lon="-2.33257">
        <ele>-0.20000000298023</ele>
        <time>2022-07-28T06:53:40.000Z</time>
      </trkpt>
      <trkpt lat="47.26398" lon="-2.33265">
        <ele>-0.20000000298023</ele>
        <time>2022-07-28T06:53:43.000Z</time>
      </trkpt>
      <trkpt lat="47.26403" lon="-2.33266">
        <ele>-0.20000000298023</ele>
        <time>2022-07-28T06:53:44.000Z</time>
      </trkpt>
      <trkpt lat="47.26435" lon="-2.3327">
        <ele>-0.20000000298023</ele>
        <time>2022-07-28T06:53:51.000Z</time>
      </trkpt>
      <trkpt lat="47.2647" lon="-2.33277">
        <ele>-0.20000000298023</ele>
        <time>2022-07-28T06:53:59.000Z</time>
      </trkpt>
      <trkpt lat="47.26499" lon="-2.33281">
        <ele>-0.20000000298023</ele>
        <time>2022-07-28T06:54:06.000Z</time>
      </trkpt>
      <trkpt lat="47.26517" lon="-2.33298">
        <ele>-0.20000000298023</ele>
        <time>2022-07-28T06:54:11.000Z</time>
      </trkpt>
      <trkpt lat="47.26526" lon="-2.3332">
        <ele>-0.20000000298023</ele>
        <time>2022-07-28T06:54:15.000Z</time>
      </trkpt>
      <trkpt lat="47.26526" lon="-2.33348">
        <ele>-0.20000000298023</ele>
        <time>2022-07-28T06:54:19.000Z</time>
      </trkpt>
      <trkpt lat="47.26529" lon="-2.33362">
        <ele>-0.20000000298023</ele>
        <time>2022-07-28T06:54:21.000Z</time>
      </trkpt>
      <trkpt lat="47.26531" lon="-2.33369">
        <ele>-0.20000000298023</ele>
        <time>2022-07-28T06:54:22.000Z</time>
      </trkpt>
      <trkpt lat="47.26536" lon="-2.33389">
        <ele>-0.20000000298023</ele>
        <time>2022-07-28T06:54:25.000Z</time>
      </trkpt>
      <trkpt lat="47.26545" lon="-2.33438">
        <ele>-0.20000000298023</ele>
        <time>2022-07-28T06:54:32.000Z</time>
      </trkpt>
      <trkpt lat="47.26554" lon="-2.33493">
        <ele>-0.20000000298023</ele>
        <time>2022-07-28T06:54:40.000Z</time>
      </trkpt>
      <trkpt lat="47.26557" lon="-2.33505">
        <ele>-0.20000000298023</ele>
        <time>2022-07-28T06:54:42.000Z</time>
      </trkpt>
      <trkpt lat="47.2656" lon="-2.33517">
        <ele>-0.20000000298023</ele>
        <time>2022-07-28T06:54:44.000Z</time>
      </trkpt>
      <trkpt lat="47.26562" lon="-2.33523">
        <ele>-0.20000000298023</ele>
        <time>2022-07-28T06:54:45.000Z</time>
      </trkpt>
      <trkpt lat="47.26569" lon="-2.33565">
        <ele>-0.20000000298023</ele>
        <time>2022-07-28T06:54:52.000Z</time>
      </trkpt>
      <trkpt lat="47.26576" lon="-2.33607">
        <ele>-0.20000000298023</ele>
        <time>2022-07-28T06:54:59.000Z</time>
      </trkpt>
      <trkpt lat="47.26581" lon="-2.33646">
        <ele>-0.20000000298023</ele>
        <time>2022-07-28T06:55:06.000Z</time>
      </trkpt>
      <trkpt lat="47.26589" lon="-2.33667">
        <ele>-0.20000000298023</ele>
        <time>2022-07-28T06:55:11.000Z</time>
      </trkpt>
      <trkpt lat="47.26591" lon="-2.33672">
        <ele>0.20000000298023</ele>
        <time>2022-07-28T06:55:12.000Z</time>
      </trkpt>
      <trkpt lat="47.26594" lon="-2.33676">
        <ele>0.60000002384186</ele>
        <time>2022-07-28T06:55:13.000Z</time>
      </trkpt>
      <trkpt lat="47.26596" lon="-2.33681">
        <ele>1</ele>
        <time>2022-07-28T06:55:14.000Z</time>
      </trkpt>
      <trkpt lat="47.26598" lon="-2.33685">
        <ele>1.6000000238419</ele>
        <time>2022-07-28T06:55:15.000Z</time>
      </trkpt>
      <trkpt lat="47.266" lon="-2.33689">
        <ele>2</ele>
        <time>2022-07-28T06:55:16.000Z</time>
      </trkpt>
      <trkpt lat="47.26605" lon="-2.33697">
        <ele>2</ele>
        <time>2022-07-28T06:55:18.000Z</time>
      </trkpt>
      <trkpt lat="47.26612" lon="-2.33711">
        <ele>2</ele>
        <time>2022-07-28T06:55:21.000Z</time>
      </trkpt>
      <trkpt lat="47.26618" lon="-2.33719">
        <ele>2</ele>
        <time>2022-07-28T06:55:23.000Z</time>
      </trkpt>
      <trkpt lat="47.26635" lon="-2.33746">
        <ele>2</ele>
        <time>2022-07-28T06:55:29.000Z</time>
      </trkpt>
      <trkpt lat="47.26657" lon="-2.33785">
        <ele>2</ele>
        <time>2022-07-28T06:55:37.000Z</time>
      </trkpt>
      <trkpt lat="47.26675" lon="-2.33813">
        <ele>2</ele>
        <time>2022-07-28T06:55:43.000Z</time>
      </trkpt>
      <trkpt lat="47.26681" lon="-2.33824">
        <ele>2</ele>
        <time>2022-07-28T06:55:45.000Z</time>
      </trkpt>
      <trkpt lat="47.26693" lon="-2.33844">
        <ele>2</ele>
        <time>2022-07-28T06:55:49.000Z</time>
      </trkpt>
      <trkpt lat="47.26711" lon="-2.3387">
        <ele>2</ele>
        <time>2022-07-28T06:55:55.000Z</time>
      </trkpt>
      <trkpt lat="47.26734" lon="-2.33903">
        <ele>2</ele>
        <time>2022-07-28T06:56:02.000Z</time>
      </trkpt>
      <trkpt lat="47.26742" lon="-2.33918">
        <ele>2.4000000953674</ele>
        <time>2022-07-28T06:56:05.000Z</time>
      </trkpt>
      <trkpt lat="47.26745" lon="-2.33923">
        <ele>2.7999999523163</ele>
        <time>2022-07-28T06:56:06.000Z</time>
      </trkpt>
      <trkpt lat="47.26747" lon="-2.33928">
        <ele>3.2000000476837</ele>
        <time>2022-07-28T06:56:07.000Z</time>
      </trkpt>
      <trkpt lat="47.2675" lon="-2.33933">
        <ele>3.5999999046326</ele>
        <time>2022-07-28T06:56:08.000Z</time>
      </trkpt>
      <trkpt lat="47.26754" lon="-2.33938">
        <ele>4</ele>
        <time>2022-07-28T06:56:09.000Z</time>
      </trkpt>
      <trkpt lat="47.26772" lon="-2.33963">
        <ele>4</ele>
        <time>2022-07-28T06:56:15.000Z</time>
      </trkpt>
      <trkpt lat="47.26792" lon="-2.33995">
        <ele>4</ele>
        <time>2022-07-28T06:56:22.000Z</time>
      </trkpt>
      <trkpt lat="47.26795" lon="-2.34">
        <ele>4</ele>
        <time>2022-07-28T06:56:23.000Z</time>
      </trkpt>
      <trkpt lat="47.26813" lon="-2.34028">
        <ele>4</ele>
        <time>2022-07-28T06:56:29.000Z</time>
      </trkpt>
      <trkpt lat="47.26833" lon="-2.3406">
        <ele>4</ele>
        <time>2022-07-28T06:56:36.000Z</time>
      </trkpt>
      <trkpt lat="47.26836" lon="-2.34064">
        <ele>4</ele>
        <time>2022-07-28T06:56:37.000Z</time>
      </trkpt>
      <trkpt lat="47.26862" lon="-2.34108">
        <ele>4</ele>
        <time>2022-07-28T06:56:46.000Z</time>
      </trkpt>
      <trkpt lat="47.26875" lon="-2.34133">
        <ele>4</ele>
        <time>2022-07-28T06:56:51.000Z</time>
      </trkpt>
      <trkpt lat="47.26879" lon="-2.34137">
        <ele>4</ele>
        <time>2022-07-28T06:56:52.000Z</time>
      </trkpt>
      <trkpt lat="47.269" lon="-2.34166">
        <ele>4</ele>
        <time>2022-07-28T06:56:58.000Z</time>
      </trkpt>
      <trkpt lat="47.26921" lon="-2.342">
        <ele>4</ele>
        <time>2022-07-28T06:57:05.000Z</time>
      </trkpt>
      <trkpt lat="47.26948" lon="-2.34245">
        <ele>4</ele>
        <time>2022-07-28T06:57:14.000Z</time>
      </trkpt>
      <trkpt lat="47.26954" lon="-2.34255">
        <ele>4</ele>
        <time>2022-07-28T06:57:16.000Z</time>
      </trkpt>
      <trkpt lat="47.26965" lon="-2.34274">
        <ele>4</ele>
        <time>2022-07-28T06:57:20.000Z</time>
      </trkpt>
      <trkpt lat="47.26968" lon="-2.34279">
        <ele>4</ele>
        <time>2022-07-28T06:57:21.000Z</time>
      </trkpt>
      <trkpt lat="47.2698" lon="-2.34297">
        <ele>4</ele>
        <time>2022-07-28T06:57:25.000Z</time>
      </trkpt>
      <trkpt lat="47.26982" lon="-2.34302">
        <ele>4</ele>
        <time>2022-07-28T06:57:26.000Z</time>
      </trkpt>
      <trkpt lat="47.2699" lon="-2.34314">
        <ele>4</ele>
        <time>2022-07-28T06:57:29.000Z</time>
      </trkpt>
      <trkpt lat="47.27" lon="-2.34317">
        <ele>4</ele>
        <time>2022-07-28T06:57:32.000Z</time>
      </trkpt>
      <trkpt lat="47.27004" lon="-2.34317">
        <ele>4</ele>
        <time>2022-07-28T06:57:33.000Z</time>
      </trkpt>
      <trkpt lat="47.27023" lon="-2.34322">
        <ele>4</ele>
        <time>2022-07-28T06:57:38.000Z</time>
      </trkpt>
      <trkpt lat="47.27036" lon="-2.34331">
        <ele>4</ele>
        <time>2022-07-28T06:57:42.000Z</time>
      </trkpt>
      <trkpt lat="47.27038" lon="-2.34336">
        <ele>4</ele>
        <time>2022-07-28T06:57:43.000Z</time>
      </trkpt>
      <trkpt lat="47.27042" lon="-2.34355">
        <ele>4</ele>
        <time>2022-07-28T06:57:46.000Z</time>
      </trkpt>
      <trkpt lat="47.27048" lon="-2.34381">
        <ele>4</ele>
        <time>2022-07-28T06:57:50.000Z</time>
      </trkpt>
      <trkpt lat="47.2705" lon="-2.34387">
        <ele>4</ele>
        <time>2022-07-28T06:57:51.000Z</time>
      </trkpt>
      <trkpt lat="47.27059" lon="-2.34423">
        <ele>4</ele>
        <time>2022-07-28T06:57:57.000Z</time>
      </trkpt>
      <trkpt lat="47.2707" lon="-2.34472">
        <ele>4</ele>
        <time>2022-07-28T06:58:05.000Z</time>
      </trkpt>
      <trkpt lat="47.2708" lon="-2.3451">
        <ele>4</ele>
        <time>2022-07-28T06:58:11.000Z</time>
      </trkpt>
      <trkpt lat="47.27087" lon="-2.34541">
        <ele>4</ele>
        <time>2022-07-28T06:58:16.000Z</time>
      </trkpt>
      <trkpt lat="47.2709" lon="-2.34553">
        <ele>4</ele>
        <time>2022-07-28T06:58:18.000Z</time>
      </trkpt>
      <trkpt lat="47.27091" lon="-2.34558">
        <ele>4</ele>
        <time>2022-07-28T06:58:19.000Z</time>
      </trkpt>
      <trkpt lat="47.27097" lon="-2.34583">
        <ele>4.4000000953674</ele>
        <time>2022-07-28T06:58:23.000Z</time>
      </trkpt>
      <trkpt lat="47.27099" lon="-2.34589">
        <ele>4.8000001907349</ele>
        <time>2022-07-28T06:58:24.000Z</time>
      </trkpt>
      <trkpt lat="47.271" lon="-2.34595">
        <ele>5.1999998092651</ele>
        <time>2022-07-28T06:58:25.000Z</time>
      </trkpt>
      <trkpt lat="47.27102" lon="-2.34602">
        <ele>5.5999999046326</ele>
        <time>2022-07-28T06:58:26.000Z</time>
      </trkpt>
      <trkpt lat="47.27103" lon="-2.34609">
        <ele>6</ele>
        <time>2022-07-28T06:58:27.000Z</time>
      </trkpt>
      <trkpt lat="47.2711" lon="-2.34639">
        <ele>6</ele>
        <time>2022-07-28T06:58:31.000Z</time>
      </trkpt>
      <trkpt lat="47.27121" lon="-2.34688">
        <ele>6</ele>
        <time>2022-07-28T06:58:38.000Z</time>
      </trkpt>
      <trkpt lat="47.27123" lon="-2.34695">
        <ele>6</ele>
        <time>2022-07-28T06:58:39.000Z</time>
      </trkpt>
      <trkpt lat="47.27133" lon="-2.34744">
        <ele>6</ele>
        <time>2022-07-28T06:58:46.000Z</time>
      </trkpt>
      <trkpt lat="47.27138" lon="-2.34763">
        <ele>6</ele>
        <time>2022-07-28T06:58:49.000Z</time>
      </trkpt>
      <trkpt lat="47.27142" lon="-2.34783">
        <ele>6</ele>
        <time>2022-07-28T06:58:52.000Z</time>
      </trkpt>
      <trkpt lat="47.27144" lon="-2.3479">
        <ele>6</ele>
        <time>2022-07-28T06:58:53.000Z</time>
      </trkpt>
      <trkpt lat="47.27155" lon="-2.34837">
        <ele>6</ele>
        <time>2022-07-28T06:59:00.000Z</time>
      </trkpt>
      <trkpt lat="47.27157" lon="-2.34844">
        <ele>6</ele>
        <time>2022-07-28T06:59:01.000Z</time>
      </trkpt>
      <trkpt lat="47.27166" lon="-2.34877">
        <ele>6</ele>
        <time>2022-07-28T06:59:06.000Z</time>
      </trkpt>
      <trkpt lat="47.2717" lon="-2.3489">
        <ele>6</ele>
        <time>2022-07-28T06:59:08.000Z</time>
      </trkpt>
      <trkpt lat="47.27176" lon="-2.34909">
        <ele>6</ele>
        <time>2022-07-28T06:59:11.000Z</time>
      </trkpt>
      <trkpt lat="47.27194" lon="-2.34969">
        <ele>6</ele>
        <time>2022-07-28T06:59:20.000Z</time>
      </trkpt>
      <trkpt lat="47.27198" lon="-2.34982">
        <ele>6</ele>
        <time>2022-07-28T06:59:22.000Z</time>
      </trkpt>
      <trkpt lat="47.27207" lon="-2.35006">
        <ele>6</ele>
        <time>2022-07-28T06:59:26.000Z</time>
      </trkpt>
      <trkpt lat="47.27222" lon="-2.35051">
        <ele>6</ele>
        <time>2022-07-28T06:59:33.000Z</time>
      </trkpt>
      <trkpt lat="47.27234" lon="-2.35081">
        <ele>6</ele>
        <time>2022-07-28T06:59:38.000Z</time>
      </trkpt>
      <trkpt lat="47.27237" lon="-2.35086">
        <ele>6</ele>
        <time>2022-07-28T06:59:39.000Z</time>
      </trkpt>
      <trkpt lat="47.27253" lon="-2.35118">
        <ele>6</ele>
        <time>2022-07-28T06:59:45.000Z</time>
      </trkpt>
      <trkpt lat="47.27264" lon="-2.35118">
        <ele>6</ele>
        <time>2022-07-28T06:59:48.000Z</time>
      </trkpt>
      <trkpt lat="47.27267" lon="-2.35116">
        <ele>6</ele>
        <time>2022-07-28T06:59:49.000Z</time>
      </trkpt>
      <trkpt lat="47.27287" lon="-2.35105">
        <ele>6</ele>
        <time>2022-07-28T06:59:55.000Z</time>
      </trkpt>
      <trkpt lat="47.27289" lon="-2.35105">
        <ele>6.4000000953674</ele>
        <time>2022-07-28T06:59:56.000Z</time>
      </trkpt>
      <trkpt lat="47.27291" lon="-2.35105">
        <ele>6.8000001907349</ele>
        <time>2022-07-28T06:59:57.000Z</time>
      </trkpt>
      <trkpt lat="47.27292" lon="-2.35104">
        <ele>7.1999998092651</ele>
        <time>2022-07-28T06:59:58.000Z</time>
      </trkpt>
      <trkpt lat="47.27294" lon="-2.35104">
        <ele>7.5999999046326</ele>
        <time>2022-07-28T06:59:59.000Z</time>
      </trkpt>
      <trkpt lat="47.27295" lon="-2.35104">
        <ele>8</ele>
        <time>2022-07-28T07:00:00.000Z</time>
      </trkpt>
      <trkpt lat="47.27301" lon="-2.3511">
        <ele>8</ele>
        <time>2022-07-28T07:00:05.000Z</time>
      </trkpt>
      <trkpt lat="47.27303" lon="-2.35115">
        <ele>8</ele>
        <time>2022-07-28T07:00:10.000Z</time>
      </trkpt>
      <trkpt lat="47.27304" lon="-2.35111">
        <ele>8</ele>
        <time>2022-07-28T07:00:18.000Z</time>
      </trkpt>
      <trkpt lat="47.27304" lon="-2.35105">
        <ele>8</ele>
        <time>2022-07-28T07:00:20.000Z</time>
      </trkpt>
      <trkpt lat="47.27312" lon="-2.35097">
        <ele>8</ele>
        <time>2022-07-28T07:00:24.000Z</time>
      </trkpt>
      <trkpt lat="47.27328" lon="-2.3509">
        <ele>8.3999996185303</ele>
        <time>2022-07-28T07:00:29.000Z</time>
      </trkpt>
      <trkpt lat="47.27331" lon="-2.35089">
        <ele>8.8000001907349</ele>
        <time>2022-07-28T07:00:30.000Z</time>
      </trkpt>
      <trkpt lat="47.27334" lon="-2.35088">
        <ele>9.1999998092651</ele>
        <time>2022-07-28T07:00:31.000Z</time>
      </trkpt>
      <trkpt lat="47.27337" lon="-2.35086">
        <ele>10</ele>
        <time>2022-07-28T07:00:32.000Z</time>
      </trkpt>
      <trkpt lat="47.27343" lon="-2.35082">
        <ele>10</ele>
        <time>2022-07-28T07:00:34.000Z</time>
      </trkpt>
      <trkpt lat="47.27356" lon="-2.35075">
        <ele>10.60000038147</ele>
        <time>2022-07-28T07:00:38.000Z</time>
      </trkpt>
      <trkpt lat="47.27359" lon="-2.35073">
        <ele>11</ele>
        <time>2022-07-28T07:00:39.000Z</time>
      </trkpt>
      <trkpt lat="47.27362" lon="-2.35071">
        <ele>11.39999961853</ele>
        <time>2022-07-28T07:00:40.000Z</time>
      </trkpt>
      <trkpt lat="47.27366" lon="-2.3507">
        <ele>11.800000190735</ele>
        <time>2022-07-28T07:00:41.000Z</time>
      </trkpt>
      <trkpt lat="47.27369" lon="-2.35069">
        <ele>12.199999809265</ele>
        <time>2022-07-28T07:00:42.000Z</time>
      </trkpt>
      <trkpt lat="47.27378" lon="-2.35064">
        <ele>12.199999809265</ele>
        <time>2022-07-28T07:00:45.000Z</time>
      </trkpt>
      <trkpt lat="47.27397" lon="-2.35057">
        <ele>12.199999809265</ele>
        <time>2022-07-28T07:00:51.000Z</time>
      </trkpt>
      <trkpt lat="47.274" lon="-2.35059">
        <ele>12.199999809265</ele>
        <time>2022-07-28T07:00:52.000Z</time>
      </trkpt>
      <trkpt lat="47.27403" lon="-2.35066">
        <ele>12.199999809265</ele>
        <time>2022-07-28T07:00:54.000Z</time>
      </trkpt>
      <trkpt lat="47.27406" lon="-2.35074">
        <ele>13</ele>
        <time>2022-07-28T07:00:56.000Z</time>
      </trkpt>
      <trkpt lat="47.27407" lon="-2.35078">
        <ele>13.39999961853</ele>
        <time>2022-07-28T07:00:57.000Z</time>
      </trkpt>
      <trkpt lat="47.27408" lon="-2.35083">
        <ele>13.800000190735</ele>
        <time>2022-07-28T07:00:58.000Z</time>
      </trkpt>
      <trkpt lat="47.27409" lon="-2.35088">
        <ele>14.199999809265</ele>
        <time>2022-07-28T07:00:59.000Z</time>
      </trkpt>
      <trkpt lat="47.27418" lon="-2.35116">
        <ele>14.199999809265</ele>
        <time>2022-07-28T07:01:05.000Z</time>
      </trkpt>
      <trkpt lat="47.27426" lon="-2.35145">
        <ele>14.199999809265</ele>
        <time>2022-07-28T07:01:11.000Z</time>
      </trkpt>
      <trkpt lat="47.2743" lon="-2.35166">
        <ele>14.199999809265</ele>
        <time>2022-07-28T07:01:15.000Z</time>
      </trkpt>
      <trkpt lat="47.27433" lon="-2.35169">
        <ele>14.199999809265</ele>
        <time>2022-07-28T07:01:16.000Z</time>
      </trkpt>
      <trkpt lat="47.27441" lon="-2.35166">
        <ele>14.199999809265</ele>
        <time>2022-07-28T07:01:18.000Z</time>
      </trkpt>
      <trkpt lat="47.27447" lon="-2.35162">
        <ele>14.199999809265</ele>
        <time>2022-07-28T07:01:20.000Z</time>
      </trkpt>
      <trkpt lat="47.27458" lon="-2.35157">
        <ele>14.199999809265</ele>
        <time>2022-07-28T07:01:23.000Z</time>
      </trkpt>
      <trkpt lat="47.27477" lon="-2.35148">
        <ele>14.60000038147</ele>
        <time>2022-07-28T07:01:29.000Z</time>
      </trkpt>
      <trkpt lat="47.2748" lon="-2.35146">
        <ele>15</ele>
        <time>2022-07-28T07:01:30.000Z</time>
      </trkpt>
      <trkpt lat="47.27483" lon="-2.35144">
        <ele>15.39999961853</ele>
        <time>2022-07-28T07:01:31.000Z</time>
      </trkpt>
      <trkpt lat="47.27487" lon="-2.35143">
        <ele>15.800000190735</ele>
        <time>2022-07-28T07:01:32.000Z</time>
      </trkpt>
      <trkpt lat="47.2749" lon="-2.35141">
        <ele>16.200000762939</ele>
        <time>2022-07-28T07:01:33.000Z</time>
      </trkpt>
      <trkpt lat="47.27499" lon="-2.35134">
        <ele>16.200000762939</ele>
        <time>2022-07-28T07:01:36.000Z</time>
      </trkpt>
      <trkpt lat="47.27503" lon="-2.35125">
        <ele>16.200000762939</ele>
        <time>2022-07-28T07:01:39.000Z</time>
      </trkpt>
      <trkpt lat="47.27512" lon="-2.35128">
        <ele>16.200000762939</ele>
        <time>2022-07-28T07:01:42.000Z</time>
      </trkpt>
      <trkpt lat="47.2753" lon="-2.35136">
        <ele>16.200000762939</ele>
        <time>2022-07-28T07:01:47.000Z</time>
      </trkpt>
      <trkpt lat="47.27534" lon="-2.35136">
        <ele>16.200000762939</ele>
        <time>2022-07-28T07:01:48.000Z</time>
      </trkpt>
      <trkpt lat="47.27557" lon="-2.35135">
        <ele>16.200000762939</ele>
        <time>2022-07-28T07:01:54.000Z</time>
      </trkpt>
      <trkpt lat="47.27586" lon="-2.35132">
        <ele>16.200000762939</ele>
        <time>2022-07-28T07:02:01.000Z</time>
      </trkpt>
      <trkpt lat="47.27599" lon="-2.35132">
        <ele>16.200000762939</ele>
        <time>2022-07-28T07:02:04.000Z</time>
      </trkpt>
      <trkpt lat="47.27606" lon="-2.35141">
        <ele>16.200000762939</ele>
        <time>2022-07-28T07:02:06.000Z</time>
      </trkpt>
      <trkpt lat="47.27608" lon="-2.3516">
        <ele>16.200000762939</ele>
        <time>2022-07-28T07:02:09.000Z</time>
      </trkpt>
      <trkpt lat="47.27609" lon="-2.35167">
        <ele>16.200000762939</ele>
        <time>2022-07-28T07:02:10.000Z</time>
      </trkpt>
      <trkpt lat="47.27616" lon="-2.35174">
        <ele>16.200000762939</ele>
        <time>2022-07-28T07:02:12.000Z</time>
      </trkpt>
      <trkpt lat="47.27632" lon="-2.35173">
        <ele>16.200000762939</ele>
        <time>2022-07-28T07:02:15.000Z</time>
      </trkpt>
      <trkpt lat="47.27661" lon="-2.3517">
        <ele>16.200000762939</ele>
        <time>2022-07-28T07:02:21.000Z</time>
      </trkpt>
      <trkpt lat="47.27671" lon="-2.35183">
        <ele>16.200000762939</ele>
        <time>2022-07-28T07:02:24.000Z</time>
      </trkpt>
      <trkpt lat="47.27673" lon="-2.3519">
        <ele>15.800000190735</ele>
        <time>2022-07-28T07:02:25.000Z</time>
      </trkpt>
      <trkpt lat="47.27674" lon="-2.35198">
        <ele>15.39999961853</ele>
        <time>2022-07-28T07:02:26.000Z</time>
      </trkpt>
      <trkpt lat="47.27674" lon="-2.35205">
        <ele>15</ele>
        <time>2022-07-28T07:02:27.000Z</time>
      </trkpt>
      <trkpt lat="47.27675" lon="-2.35212">
        <ele>14.60000038147</ele>
        <time>2022-07-28T07:02:28.000Z</time>
      </trkpt>
      <trkpt lat="47.27675" lon="-2.35216">
        <ele>14.199999809265</ele>
        <time>2022-07-28T07:02:29.000Z</time>
      </trkpt>
      <trkpt lat="47.27677" lon="-2.35219">
        <ele>14.199999809265</ele>
        <time>2022-07-28T07:02:30.000Z</time>
      </trkpt>
      <trkpt lat="47.2768" lon="-2.35219">
        <ele>14.199999809265</ele>
        <time>2022-07-28T07:02:31.000Z</time>
      </trkpt>
      <trkpt lat="47.27698" lon="-2.35214">
        <ele>14.199999809265</ele>
        <time>2022-07-28T07:02:35.000Z</time>
      </trkpt>
      <trkpt lat="47.27703" lon="-2.35212">
        <ele>14.199999809265</ele>
        <time>2022-07-28T07:02:36.000Z</time>
      </trkpt>
      <trkpt lat="47.27708" lon="-2.35211">
        <ele>13.800000190735</ele>
        <time>2022-07-28T07:02:37.000Z</time>
      </trkpt>
      <trkpt lat="47.27713" lon="-2.35209">
        <ele>13.39999961853</ele>
        <time>2022-07-28T07:02:38.000Z</time>
      </trkpt>
      <trkpt lat="47.27718" lon="-2.35207">
        <ele>13</ele>
        <time>2022-07-28T07:02:39.000Z</time>
      </trkpt>
      <trkpt lat="47.27723" lon="-2.35206">
        <ele>12.60000038147</ele>
        <time>2022-07-28T07:02:40.000Z</time>
      </trkpt>
      <trkpt lat="47.27729" lon="-2.35204">
        <ele>12</ele>
        <time>2022-07-28T07:02:41.000Z</time>
      </trkpt>
      <trkpt lat="47.27744" lon="-2.35201">
        <ele>12</ele>
        <time>2022-07-28T07:02:44.000Z</time>
      </trkpt>
      <trkpt lat="47.27764" lon="-2.352">
        <ele>12</ele>
        <time>2022-07-28T07:02:48.000Z</time>
      </trkpt>
      <trkpt lat="47.27767" lon="-2.35203">
        <ele>12</ele>
        <time>2022-07-28T07:02:49.000Z</time>
      </trkpt>
      <trkpt lat="47.27771" lon="-2.35213">
        <ele>11.60000038147</ele>
        <time>2022-07-28T07:02:51.000Z</time>
      </trkpt>
      <trkpt lat="47.27773" lon="-2.35219">
        <ele>11.199999809265</ele>
        <time>2022-07-28T07:02:52.000Z</time>
      </trkpt>
      <trkpt lat="47.27774" lon="-2.35226">
        <ele>10.800000190735</ele>
        <time>2022-07-28T07:02:53.000Z</time>
      </trkpt>
      <trkpt lat="47.27776" lon="-2.35232">
        <ele>10.39999961853</ele>
        <time>2022-07-28T07:02:54.000Z</time>
      </trkpt>
      <trkpt lat="47.27778" lon="-2.35239">
        <ele>10</ele>
        <time>2022-07-28T07:02:55.000Z</time>
      </trkpt>
      <trkpt lat="47.27784" lon="-2.35267">
        <ele>10</ele>
        <time>2022-07-28T07:02:59.000Z</time>
      </trkpt>
      <trkpt lat="47.27798" lon="-2.35329">
        <ele>10</ele>
        <time>2022-07-28T07:03:08.000Z</time>
      </trkpt>
      <trkpt lat="47.27806" lon="-2.35354">
        <ele>10</ele>
        <time>2022-07-28T07:03:12.000Z</time>
      </trkpt>
      <trkpt lat="47.27814" lon="-2.3536">
        <ele>10</ele>
        <time>2022-07-28T07:03:14.000Z</time>
      </trkpt>
      <trkpt lat="47.27822" lon="-2.35359">
        <ele>10</ele>
        <time>2022-07-28T07:03:16.000Z</time>
      </trkpt>
      <trkpt lat="47.27831" lon="-2.35359">
        <ele>10</ele>
        <time>2022-07-28T07:03:18.000Z</time>
      </trkpt>
      <trkpt lat="47.27861" lon="-2.35358">
        <ele>10</ele>
        <time>2022-07-28T07:03:25.000Z</time>
      </trkpt>
      <trkpt lat="47.27878" lon="-2.35366">
        <ele>10</ele>
        <time>2022-07-28T07:03:30.000Z</time>
      </trkpt>
      <trkpt lat="47.27893" lon="-2.35388">
        <ele>10</ele>
        <time>2022-07-28T07:03:36.000Z</time>
      </trkpt>
      <trkpt lat="47.27917" lon="-2.35418">
        <ele>10</ele>
        <time>2022-07-28T07:03:44.000Z</time>
      </trkpt>
      <trkpt lat="47.27935" lon="-2.35442">
        <ele>10</ele>
        <time>2022-07-28T07:03:50.000Z</time>
      </trkpt>
      <trkpt lat="47.27942" lon="-2.35451">
        <ele>10</ele>
        <time>2022-07-28T07:03:52.000Z</time>
      </trkpt>
      <trkpt lat="47.2796" lon="-2.35461">
        <ele>10</ele>
        <time>2022-07-28T07:03:57.000Z</time>
      </trkpt>
      <trkpt lat="47.27974" lon="-2.35472">
        <ele>10</ele>
        <time>2022-07-28T07:04:01.000Z</time>
      </trkpt>
      <trkpt lat="47.27977" lon="-2.35477">
        <ele>10</ele>
        <time>2022-07-28T07:04:02.000Z</time>
      </trkpt>
      <trkpt lat="47.27992" lon="-2.35507">
        <ele>10</ele>
        <time>2022-07-28T07:04:08.000Z</time>
      </trkpt>
      <trkpt lat="47.28001" lon="-2.3553">
        <ele>10.39999961853</ele>
        <time>2022-07-28T07:04:13.000Z</time>
      </trkpt>
      <trkpt lat="47.28003" lon="-2.35534">
        <ele>11.199999809265</ele>
        <time>2022-07-28T07:04:14.000Z</time>
      </trkpt>
      <trkpt lat="47.28004" lon="-2.35537">
        <ele>11.60000038147</ele>
        <time>2022-07-28T07:04:15.000Z</time>
      </trkpt>
      <trkpt lat="47.28005" lon="-2.35541">
        <ele>12</ele>
        <time>2022-07-28T07:04:16.000Z</time>
      </trkpt>
      <trkpt lat="47.28009" lon="-2.35549">
        <ele>12</ele>
        <time>2022-07-28T07:04:19.000Z</time>
      </trkpt>
      <trkpt lat="47.28016" lon="-2.3556">
        <ele>12</ele>
        <time>2022-07-28T07:04:23.000Z</time>
      </trkpt>
      <trkpt lat="47.28021" lon="-2.3556">
        <ele>12</ele>
        <time>2022-07-28T07:04:25.000Z</time>
      </trkpt>
      <trkpt lat="47.28035" lon="-2.35567">
        <ele>12.39999961853</ele>
        <time>2022-07-28T07:04:30.000Z</time>
      </trkpt>
      <trkpt lat="47.28037" lon="-2.35569">
        <ele>12.800000190735</ele>
        <time>2022-07-28T07:04:31.000Z</time>
      </trkpt>
      <trkpt lat="47.2804" lon="-2.35572">
        <ele>13.199999809265</ele>
        <time>2022-07-28T07:04:32.000Z</time>
      </trkpt>
      <trkpt lat="47.28042" lon="-2.35573">
        <ele>13.60000038147</ele>
        <time>2022-07-28T07:04:33.000Z</time>
      </trkpt>
      <trkpt lat="47.28045" lon="-2.35574">
        <ele>14</ele>
        <time>2022-07-28T07:04:34.000Z</time>
      </trkpt>
      <trkpt lat="47.2805" lon="-2.35578">
        <ele>14</ele>
        <time>2022-07-28T07:04:36.000Z</time>
      </trkpt>
      <trkpt lat="47.28067" lon="-2.35585">
        <ele>14</ele>
        <time>2022-07-28T07:04:43.000Z</time>
      </trkpt>
      <trkpt lat="47.28078" lon="-2.35598">
        <ele>14</ele>
        <time>2022-07-28T07:04:48.000Z</time>
      </trkpt>
      <trkpt lat="47.28085" lon="-2.35612">
        <ele>14</ele>
        <time>2022-07-28T07:04:54.000Z</time>
      </trkpt>
      <trkpt lat="47.28086" lon="-2.35613">
        <ele>14.39999961853</ele>
        <time>2022-07-28T07:04:57.000Z</time>
      </trkpt>
      <trkpt lat="47.28087" lon="-2.35613">
        <ele>14.800000190735</ele>
        <time>2022-07-28T07:04:58.000Z</time>
      </trkpt>
      <trkpt lat="47.28083" lon="-2.35611">
        <ele>16</ele>
        <time>2022-07-28T07:08:30.000Z</time>
      </trkpt>
      <trkpt lat="47.28081" lon="-2.35608">
        <ele>16</ele>
        <time>2022-07-28T07:08:32.000Z</time>
      </trkpt>
      <trkpt lat="47.28075" lon="-2.35607">
        <ele>16</ele>
        <time>2022-07-28T07:08:36.000Z</time>
      </trkpt>
      <trkpt lat="47.28077" lon="-2.35617">
        <ele>16</ele>
        <time>2022-07-28T07:08:40.000Z</time>
      </trkpt>
      <trkpt lat="47.28084" lon="-2.35633">
        <ele>16</ele>
        <time>2022-07-28T07:08:46.000Z</time>
      </trkpt>
      <trkpt lat="47.28087" lon="-2.35642">
        <ele>16.60000038147</ele>
        <time>2022-07-28T07:08:49.000Z</time>
      </trkpt>
      <trkpt lat="47.28088" lon="-2.35645">
        <ele>17</ele>
        <time>2022-07-28T07:08:50.000Z</time>
      </trkpt>
      <trkpt lat="47.28089" lon="-2.35649">
        <ele>17.60000038147</ele>
        <time>2022-07-28T07:08:51.000Z</time>
      </trkpt>
      <trkpt lat="47.2809" lon="-2.35653">
        <ele>18</ele>
        <time>2022-07-28T07:08:52.000Z</time>
      </trkpt>
      <trkpt lat="47.2809" lon="-2.35657">
        <ele>18.39999961853</ele>
        <time>2022-07-28T07:08:53.000Z</time>
      </trkpt>
      <trkpt lat="47.28095" lon="-2.35675">
        <ele>18.39999961853</ele>
        <time>2022-07-28T07:08:57.000Z</time>
      </trkpt>
      <trkpt lat="47.28096" lon="-2.35678">
        <ele>19</ele>
        <time>2022-07-28T07:08:58.000Z</time>
      </trkpt>
      <trkpt lat="47.28098" lon="-2.35682">
        <ele>19.39999961853</ele>
        <time>2022-07-28T07:08:59.000Z</time>
      </trkpt>
      <trkpt lat="47.28099" lon="-2.35685">
        <ele>19.799999237061</ele>
        <time>2022-07-28T07:09:00.000Z</time>
      </trkpt>
      <trkpt lat="47.28101" lon="-2.35688">
        <ele>20.200000762939</ele>
        <time>2022-07-28T07:09:01.000Z</time>
      </trkpt>
      <trkpt lat="47.28103" lon="-2.3569">
        <ele>20.60000038147</ele>
        <time>2022-07-28T07:09:02.000Z</time>
      </trkpt>
      <trkpt lat="47.28104" lon="-2.35691">
        <ele>20.60000038147</ele>
        <time>2022-07-28T07:09:03.000Z</time>
      </trkpt>
      <trkpt lat="47.28106" lon="-2.35697">
        <ele>20.60000038147</ele>
        <time>2022-07-28T07:09:05.000Z</time>
      </trkpt>
      <trkpt lat="47.28105" lon="-2.35706">
        <ele>20.60000038147</ele>
        <time>2022-07-28T07:09:07.000Z</time>
      </trkpt>
      <trkpt lat="47.281" lon="-2.35733">
        <ele>20.60000038147</ele>
        <time>2022-07-28T07:09:12.000Z</time>
      </trkpt>
      <trkpt lat="47.281" lon="-2.35741">
        <ele>20.60000038147</ele>
        <time>2022-07-28T07:09:13.000Z</time>
      </trkpt>
      <trkpt lat="47.28092" lon="-2.35764">
        <ele>20.60000038147</ele>
        <time>2022-07-28T07:09:16.000Z</time>
      </trkpt>
      <trkpt lat="47.28086" lon="-2.35787">
        <ele>20</ele>
        <time>2022-07-28T07:09:20.000Z</time>
      </trkpt>
      <trkpt lat="47.28086" lon="-2.35796">
        <ele>19.60000038147</ele>
        <time>2022-07-28T07:09:21.000Z</time>
      </trkpt>
      <trkpt lat="47.28087" lon="-2.35805">
        <ele>19</ele>
        <time>2022-07-28T07:09:22.000Z</time>
      </trkpt>
      <trkpt lat="47.28088" lon="-2.35813">
        <ele>18.60000038147</ele>
        <time>2022-07-28T07:09:23.000Z</time>
      </trkpt>
      <trkpt lat="47.28091" lon="-2.35819">
        <ele>18.200000762939</ele>
        <time>2022-07-28T07:09:24.000Z</time>
      </trkpt>
      <trkpt lat="47.281" lon="-2.35836">
        <ele>18.200000762939</ele>
        <time>2022-07-28T07:09:28.000Z</time>
      </trkpt>
      <trkpt lat="47.28102" lon="-2.35839">
        <ele>18.200000762939</ele>
        <time>2022-07-28T07:09:29.000Z</time>
      </trkpt>
      <trkpt lat="47.28112" lon="-2.35855">
        <ele>18.200000762939</ele>
        <time>2022-07-28T07:09:33.000Z</time>
      </trkpt>
      <trkpt lat="47.28128" lon="-2.35878">
        <ele>18.200000762939</ele>
        <time>2022-07-28T07:09:39.000Z</time>
      </trkpt>
      <trkpt lat="47.28143" lon="-2.35895">
        <ele>18.200000762939</ele>
        <time>2022-07-28T07:09:45.000Z</time>
      </trkpt>
      <trkpt lat="47.28154" lon="-2.3592">
        <ele>18.200000762939</ele>
        <time>2022-07-28T07:09:50.000Z</time>
      </trkpt>
      <trkpt lat="47.28167" lon="-2.35937">
        <ele>17.799999237061</ele>
        <time>2022-07-28T07:09:54.000Z</time>
      </trkpt>
      <trkpt lat="47.28169" lon="-2.35941">
        <ele>17.39999961853</ele>
        <time>2022-07-28T07:09:55.000Z</time>
      </trkpt>
      <trkpt lat="47.28172" lon="-2.35947">
        <ele>17</ele>
        <time>2022-07-28T07:09:56.000Z</time>
      </trkpt>
      <trkpt lat="47.28173" lon="-2.35952">
        <ele>16.39999961853</ele>
        <time>2022-07-28T07:09:57.000Z</time>
      </trkpt>
      <trkpt lat="47.28175" lon="-2.35958">
        <ele>16</ele>
        <time>2022-07-28T07:09:58.000Z</time>
      </trkpt>
      <trkpt lat="47.2818" lon="-2.3597">
        <ele>16</ele>
        <time>2022-07-28T07:10:00.000Z</time>
      </trkpt>
      <trkpt lat="47.28193" lon="-2.35998">
        <ele>16</ele>
        <time>2022-07-28T07:10:05.000Z</time>
      </trkpt>
      <trkpt lat="47.28195" lon="-2.36003">
        <ele>15.60000038147</ele>
        <time>2022-07-28T07:10:06.000Z</time>
      </trkpt>
      <trkpt lat="47.28198" lon="-2.36007">
        <ele>15.199999809265</ele>
        <time>2022-07-28T07:10:07.000Z</time>
      </trkpt>
      <trkpt lat="47.28201" lon="-2.36009">
        <ele>14.800000190735</ele>
        <time>2022-07-28T07:10:08.000Z</time>
      </trkpt>
      <trkpt lat="47.28204" lon="-2.36012">
        <ele>14.39999961853</ele>
        <time>2022-07-28T07:10:09.000Z</time>
      </trkpt>
      <trkpt lat="47.28206" lon="-2.36015">
        <ele>14</ele>
        <time>2022-07-28T07:10:10.000Z</time>
      </trkpt>
      <trkpt lat="47.28217" lon="-2.36038">
        <ele>14</ele>
        <time>2022-07-28T07:10:15.000Z</time>
      </trkpt>
      <trkpt lat="47.28225" lon="-2.36073">
        <ele>14</ele>
        <time>2022-07-28T07:10:21.000Z</time>
      </trkpt>
      <trkpt lat="47.28236" lon="-2.36104">
        <ele>14</ele>
        <time>2022-07-28T07:10:27.000Z</time>
      </trkpt>
      <trkpt lat="47.28247" lon="-2.36143">
        <ele>14</ele>
        <time>2022-07-28T07:10:32.000Z</time>
      </trkpt>
      <trkpt lat="47.28249" lon="-2.3615">
        <ele>14</ele>
        <time>2022-07-28T07:10:33.000Z</time>
      </trkpt>
      <trkpt lat="47.28252" lon="-2.36159">
        <ele>14</ele>
        <time>2022-07-28T07:10:35.000Z</time>
      </trkpt>
      <trkpt lat="47.28261" lon="-2.36172">
        <ele>14</ele>
        <time>2022-07-28T07:10:40.000Z</time>
      </trkpt>
      <trkpt lat="47.28266" lon="-2.36183">
        <ele>14</ele>
        <time>2022-07-28T07:10:45.000Z</time>
      </trkpt>
      <trkpt lat="47.28275" lon="-2.36203">
        <ele>14</ele>
        <time>2022-07-28T07:10:53.000Z</time>
      </trkpt>
      <trkpt lat="47.28286" lon="-2.36224">
        <ele>14</ele>
        <time>2022-07-28T07:10:59.000Z</time>
      </trkpt>
      <trkpt lat="47.28296" lon="-2.36235">
        <ele>14</ele>
        <time>2022-07-28T07:11:06.000Z</time>
      </trkpt>
      <trkpt lat="47.283" lon="-2.36238">
        <ele>14</ele>
        <time>2022-07-28T07:11:11.000Z</time>
      </trkpt>
      <trkpt lat="47.283" lon="-2.36239">
        <ele>14</ele>
        <time>2022-07-28T07:11:12.000Z</time>
      </trkpt>
      <trkpt lat="47.28305" lon="-2.36241">
        <ele>14</ele>
        <time>2022-07-28T07:11:23.000Z</time>
      </trkpt>
      <trkpt lat="47.28309" lon="-2.36243">
        <ele>14</ele>
        <time>2022-07-28T07:11:25.000Z</time>
      </trkpt>
      <trkpt lat="47.28323" lon="-2.36246">
        <ele>14</ele>
        <time>2022-07-28T07:11:30.000Z</time>
      </trkpt>
      <trkpt lat="47.2834" lon="-2.36254">
        <ele>14</ele>
        <time>2022-07-28T07:11:36.000Z</time>
      </trkpt>
      <trkpt lat="47.28345" lon="-2.36255">
        <ele>14.39999961853</ele>
        <time>2022-07-28T07:11:38.000Z</time>
      </trkpt>
      <trkpt lat="47.28347" lon="-2.36256">
        <ele>14.800000190735</ele>
        <time>2022-07-28T07:11:39.000Z</time>
      </trkpt>
      <trkpt lat="47.2835" lon="-2.36258">
        <ele>15.39999961853</ele>
        <time>2022-07-28T07:11:40.000Z</time>
      </trkpt>
      <trkpt lat="47.28352" lon="-2.36259">
        <ele>15.800000190735</ele>
        <time>2022-07-28T07:11:41.000Z</time>
      </trkpt>
      <trkpt lat="47.28354" lon="-2.3626">
        <ele>16.200000762939</ele>
        <time>2022-07-28T07:11:42.000Z</time>
      </trkpt>
      <trkpt lat="47.28356" lon="-2.36263">
        <ele>16.200000762939</ele>
        <time>2022-07-28T07:11:43.000Z</time>
      </trkpt>
      <trkpt lat="47.28356" lon="-2.36277">
        <ele>16.200000762939</ele>
        <time>2022-07-28T07:11:47.000Z</time>
      </trkpt>
      <trkpt lat="47.28357" lon="-2.36292">
        <ele>16.200000762939</ele>
        <time>2022-07-28T07:11:52.000Z</time>
      </trkpt>
      <trkpt lat="47.28358" lon="-2.36295">
        <ele>16.200000762939</ele>
        <time>2022-07-28T07:11:53.000Z</time>
      </trkpt>
      <trkpt lat="47.28364" lon="-2.36304">
        <ele>16.60000038147</ele>
        <time>2022-07-28T07:11:57.000Z</time>
      </trkpt>
      <trkpt lat="47.28366" lon="-2.36306">
        <ele>17</ele>
        <time>2022-07-28T07:11:58.000Z</time>
      </trkpt>
      <trkpt lat="47.28369" lon="-2.36308">
        <ele>17.39999961853</ele>
        <time>2022-07-28T07:11:59.000Z</time>
      </trkpt>
      <trkpt lat="47.28371" lon="-2.36309">
        <ele>17.799999237061</ele>
        <time>2022-07-28T07:12:00.000Z</time>
      </trkpt>
      <trkpt lat="47.28374" lon="-2.36311">
        <ele>18.200000762939</ele>
        <time>2022-07-28T07:12:01.000Z</time>
      </trkpt>
      <trkpt lat="47.2838" lon="-2.36317">
        <ele>18.200000762939</ele>
        <time>2022-07-28T07:12:03.000Z</time>
      </trkpt>
      <trkpt lat="47.28398" lon="-2.36334">
        <ele>18.200000762939</ele>
        <time>2022-07-28T07:12:09.000Z</time>
      </trkpt>
      <trkpt lat="47.28403" lon="-2.3634">
        <ele>18.60000038147</ele>
        <time>2022-07-28T07:12:11.000Z</time>
      </trkpt>
      <trkpt lat="47.28406" lon="-2.36345">
        <ele>19</ele>
        <time>2022-07-28T07:12:12.000Z</time>
      </trkpt>
      <trkpt lat="47.28409" lon="-2.36348">
        <ele>19.39999961853</ele>
        <time>2022-07-28T07:12:13.000Z</time>
      </trkpt>
      <trkpt lat="47.28413" lon="-2.36352">
        <ele>19.799999237061</ele>
        <time>2022-07-28T07:12:14.000Z</time>
      </trkpt>
      <trkpt lat="47.28418" lon="-2.36356">
        <ele>20.200000762939</ele>
        <time>2022-07-28T07:12:15.000Z</time>
      </trkpt>
      <trkpt lat="47.28438" lon="-2.36374">
        <ele>20.200000762939</ele>
        <time>2022-07-28T07:12:20.000Z</time>
      </trkpt>
      <trkpt lat="47.28456" lon="-2.36392">
        <ele>20.200000762939</ele>
        <time>2022-07-28T07:12:25.000Z</time>
      </trkpt>
      <trkpt lat="47.28465" lon="-2.36401">
        <ele>20.60000038147</ele>
        <time>2022-07-28T07:12:28.000Z</time>
      </trkpt>
      <trkpt lat="47.28466" lon="-2.36403">
        <ele>21</ele>
        <time>2022-07-28T07:12:29.000Z</time>
      </trkpt>
      <trkpt lat="47.28468" lon="-2.36406">
        <ele>21.60000038147</ele>
        <time>2022-07-28T07:12:30.000Z</time>
      </trkpt>
      <trkpt lat="47.28469" lon="-2.3641">
        <ele>22</ele>
        <time>2022-07-28T07:12:31.000Z</time>
      </trkpt>
      <trkpt lat="47.28471" lon="-2.36414">
        <ele>22.39999961853</ele>
        <time>2022-07-28T07:12:32.000Z</time>
      </trkpt>
      <trkpt lat="47.28478" lon="-2.36425">
        <ele>22.39999961853</ele>
        <time>2022-07-28T07:12:35.000Z</time>
      </trkpt>
      <trkpt lat="47.28495" lon="-2.36442">
        <ele>22.39999961853</ele>
        <time>2022-07-28T07:12:39.000Z</time>
      </trkpt>
      <trkpt lat="47.28511" lon="-2.36453">
        <ele>22.39999961853</ele>
        <time>2022-07-28T07:12:43.000Z</time>
      </trkpt>
      <trkpt lat="47.28516" lon="-2.36464">
        <ele>22.39999961853</ele>
        <time>2022-07-28T07:12:46.000Z</time>
      </trkpt>
      <trkpt lat="47.2852" lon="-2.36477">
        <ele>22.39999961853</ele>
        <time>2022-07-28T07:12:49.000Z</time>
      </trkpt>
      <trkpt lat="47.28522" lon="-2.36497">
        <ele>22.39999961853</ele>
        <time>2022-07-28T07:12:53.000Z</time>
      </trkpt>
      <trkpt lat="47.28521" lon="-2.36505">
        <ele>22.39999961853</ele>
        <time>2022-07-28T07:12:55.000Z</time>
      </trkpt>
      <trkpt lat="47.28518" lon="-2.36511">
        <ele>22</ele>
        <time>2022-07-28T07:12:57.000Z</time>
      </trkpt>
      <trkpt lat="47.28516" lon="-2.36515">
        <ele>21.60000038147</ele>
        <time>2022-07-28T07:12:58.000Z</time>
      </trkpt>
      <trkpt lat="47.28515" lon="-2.36518">
        <ele>21.200000762939</ele>
        <time>2022-07-28T07:12:59.000Z</time>
      </trkpt>
      <trkpt lat="47.28512" lon="-2.36521">
        <ele>20.60000038147</ele>
        <time>2022-07-28T07:13:00.000Z</time>
      </trkpt>
      <trkpt lat="47.2851" lon="-2.36525">
        <ele>20.200000762939</ele>
        <time>2022-07-28T07:13:01.000Z</time>
      </trkpt>
      <trkpt lat="47.28507" lon="-2.36529">
        <ele>20.200000762939</ele>
        <time>2022-07-28T07:13:02.000Z</time>
      </trkpt>
      <trkpt lat="47.28493" lon="-2.36547">
        <ele>20.200000762939</ele>
        <time>2022-07-28T07:13:05.000Z</time>
      </trkpt>
      <trkpt lat="47.28488" lon="-2.36552">
        <ele>20.200000762939</ele>
        <time>2022-07-28T07:13:06.000Z</time>
      </trkpt>
      <trkpt lat="47.28484" lon="-2.3656">
        <ele>19.799999237061</ele>
        <time>2022-07-28T07:13:07.000Z</time>
      </trkpt>
      <trkpt lat="47.28483" lon="-2.36569">
        <ele>19.39999961853</ele>
        <time>2022-07-28T07:13:08.000Z</time>
      </trkpt>
      <trkpt lat="47.28483" lon="-2.36577">
        <ele>19</ele>
        <time>2022-07-28T07:13:09.000Z</time>
      </trkpt>
      <trkpt lat="47.28485" lon="-2.36585">
        <ele>18.60000038147</ele>
        <time>2022-07-28T07:13:10.000Z</time>
      </trkpt>
      <trkpt lat="47.28486" lon="-2.36592">
        <ele>18.200000762939</ele>
        <time>2022-07-28T07:13:11.000Z</time>
      </trkpt>
      <trkpt lat="47.2849" lon="-2.36606">
        <ele>18.200000762939</ele>
        <time>2022-07-28T07:13:13.000Z</time>
      </trkpt>
      <trkpt lat="47.28501" lon="-2.36657">
        <ele>18.200000762939</ele>
        <time>2022-07-28T07:13:20.000Z</time>
      </trkpt>
      <trkpt lat="47.28509" lon="-2.36666">
        <ele>18.200000762939</ele>
        <time>2022-07-28T07:13:23.000Z</time>
      </trkpt>
      <trkpt lat="47.28523" lon="-2.36663">
        <ele>18.200000762939</ele>
        <time>2022-07-28T07:13:28.000Z</time>
      </trkpt>
      <trkpt lat="47.2852" lon="-2.3666">
        <ele>18.200000762939</ele>
        <time>2022-07-28T07:13:31.000Z</time>
      </trkpt>
      <trkpt lat="47.28517" lon="-2.36666">
        <ele>18.200000762939</ele>
        <time>2022-07-28T07:13:35.000Z</time>
      </trkpt>
      <trkpt lat="47.28521" lon="-2.36682">
        <ele>18.200000762939</ele>
        <time>2022-07-28T07:13:38.000Z</time>
      </trkpt>
      <trkpt lat="47.28531" lon="-2.36705">
        <ele>18.200000762939</ele>
        <time>2022-07-28T07:13:41.000Z</time>
      </trkpt>
      <trkpt lat="47.28535" lon="-2.36713">
        <ele>17.799999237061</ele>
        <time>2022-07-28T07:13:42.000Z</time>
      </trkpt>
      <trkpt lat="47.28539" lon="-2.36721">
        <ele>17.39999961853</ele>
        <time>2022-07-28T07:13:43.000Z</time>
      </trkpt>
      <trkpt lat="47.28543" lon="-2.36729">
        <ele>16.799999237061</ele>
        <time>2022-07-28T07:13:44.000Z</time>
      </trkpt>
      <trkpt lat="47.28548" lon="-2.36738">
        <ele>16.39999961853</ele>
        <time>2022-07-28T07:13:45.000Z</time>
      </trkpt>
      <trkpt lat="47.28552" lon="-2.36747">
        <ele>15.800000190735</ele>
        <time>2022-07-28T07:13:46.000Z</time>
      </trkpt>
      <trkpt lat="47.28556" lon="-2.36756">
        <ele>15.39999961853</ele>
        <time>2022-07-28T07:13:47.000Z</time>
      </trkpt>
      <trkpt lat="47.28561" lon="-2.36766">
        <ele>14.800000190735</ele>
        <time>2022-07-28T07:13:48.000Z</time>
      </trkpt>
      <trkpt lat="47.28565" lon="-2.36775">
        <ele>14.39999961853</ele>
        <time>2022-07-28T07:13:49.000Z</time>
      </trkpt>
      <trkpt lat="47.28569" lon="-2.36784">
        <ele>13.800000190735</ele>
        <time>2022-07-28T07:13:50.000Z</time>
      </trkpt>
      <trkpt lat="47.28584" lon="-2.36809">
        <ele>13.39999961853</ele>
        <time>2022-07-28T07:13:53.000Z</time>
      </trkpt>
      <trkpt lat="47.28588" lon="-2.36818">
        <ele>13</ele>
        <time>2022-07-28T07:13:54.000Z</time>
      </trkpt>
      <trkpt lat="47.28593" lon="-2.36827">
        <ele>12.60000038147</ele>
        <time>2022-07-28T07:13:55.000Z</time>
      </trkpt>
      <trkpt lat="47.28597" lon="-2.36834">
        <ele>12.199999809265</ele>
        <time>2022-07-28T07:13:56.000Z</time>
      </trkpt>
      <trkpt lat="47.28602" lon="-2.36839">
        <ele>11.60000038147</ele>
        <time>2022-07-28T07:13:57.000Z</time>
      </trkpt>
      <trkpt lat="47.28608" lon="-2.3684">
        <ele>11.60000038147</ele>
        <time>2022-07-28T07:13:58.000Z</time>
      </trkpt>
      <trkpt lat="47.28623" lon="-2.36832">
        <ele>11.60000038147</ele>
        <time>2022-07-28T07:14:01.000Z</time>
      </trkpt>
      <trkpt lat="47.28641" lon="-2.36812">
        <ele>11.60000038147</ele>
        <time>2022-07-28T07:14:05.000Z</time>
      </trkpt>
      <trkpt lat="47.28645" lon="-2.36808">
        <ele>11.60000038147</ele>
        <time>2022-07-28T07:14:06.000Z</time>
      </trkpt>
      <trkpt lat="47.28659" lon="-2.3679">
        <ele>11.60000038147</ele>
        <time>2022-07-28T07:14:10.000Z</time>
      </trkpt>
      <trkpt lat="47.28669" lon="-2.36795">
        <ele>11.60000038147</ele>
        <time>2022-07-28T07:14:13.000Z</time>
      </trkpt>
      <trkpt lat="47.28679" lon="-2.36809">
        <ele>11.60000038147</ele>
        <time>2022-07-28T07:14:16.000Z</time>
      </trkpt>
      <trkpt lat="47.28686" lon="-2.3682">
        <ele>11.60000038147</ele>
        <time>2022-07-28T07:14:18.000Z</time>
      </trkpt>
      <trkpt lat="47.28689" lon="-2.36827">
        <ele>11.60000038147</ele>
        <time>2022-07-28T07:14:19.000Z</time>
      </trkpt>
      <trkpt lat="47.28705" lon="-2.36861">
        <ele>11.60000038147</ele>
        <time>2022-07-28T07:14:24.000Z</time>
      </trkpt>
      <trkpt lat="47.28713" lon="-2.36878">
        <ele>11.60000038147</ele>
        <time>2022-07-28T07:14:27.000Z</time>
      </trkpt>
      <trkpt lat="47.28715" lon="-2.36883">
        <ele>11.60000038147</ele>
        <time>2022-07-28T07:14:28.000Z</time>
      </trkpt>
      <trkpt lat="47.28719" lon="-2.36898">
        <ele>11.199999809265</ele>
        <time>2022-07-28T07:14:31.000Z</time>
      </trkpt>
      <trkpt lat="47.28722" lon="-2.36902">
        <ele>10.800000190735</ele>
        <time>2022-07-28T07:14:32.000Z</time>
      </trkpt>
      <trkpt lat="47.28725" lon="-2.36904">
        <ele>10.39999961853</ele>
        <time>2022-07-28T07:14:33.000Z</time>
      </trkpt>
      <trkpt lat="47.28728" lon="-2.36906">
        <ele>9.8000001907349</ele>
        <time>2022-07-28T07:14:34.000Z</time>
      </trkpt>
      <trkpt lat="47.28733" lon="-2.3691">
        <ele>9.3999996185303</ele>
        <time>2022-07-28T07:14:35.000Z</time>
      </trkpt>
      <trkpt lat="47.28738" lon="-2.36913">
        <ele>8.8000001907349</ele>
        <time>2022-07-28T07:14:36.000Z</time>
      </trkpt>
      <trkpt lat="47.28742" lon="-2.36915">
        <ele>8.3999996185303</ele>
        <time>2022-07-28T07:14:37.000Z</time>
      </trkpt>
      <trkpt lat="47.28745" lon="-2.36915">
        <ele>7.8000001907349</ele>
        <time>2022-07-28T07:14:38.000Z</time>
      </trkpt>
      <trkpt lat="47.28749" lon="-2.36917">
        <ele>7.4000000953674</ele>
        <time>2022-07-28T07:14:39.000Z</time>
      </trkpt>
      <trkpt lat="47.28751" lon="-2.3693">
        <ele>7.8000001907349</ele>
        <time>2022-07-28T07:14:42.000Z</time>
      </trkpt>
      <trkpt lat="47.28753" lon="-2.36931">
        <ele>8.1999998092651</ele>
        <time>2022-07-28T07:14:43.000Z</time>
      </trkpt>
      <trkpt lat="47.28755" lon="-2.36932">
        <ele>8.6000003814697</ele>
        <time>2022-07-28T07:14:44.000Z</time>
      </trkpt>
      <trkpt lat="47.28756" lon="-2.36936">
        <ele>9</ele>
        <time>2022-07-28T07:14:45.000Z</time>
      </trkpt>
      <trkpt lat="47.28756" lon="-2.3694">
        <ele>9.3999996185303</ele>
        <time>2022-07-28T07:14:46.000Z</time>
      </trkpt>
      <trkpt lat="47.28756" lon="-2.36947">
        <ele>10</ele>
        <time>2022-07-28T07:14:48.000Z</time>
      </trkpt>
      <trkpt lat="47.28756" lon="-2.36951">
        <ele>10.39999961853</ele>
        <time>2022-07-28T07:14:49.000Z</time>
      </trkpt>
      <trkpt lat="47.28756" lon="-2.36955">
        <ele>10.800000190735</ele>
        <time>2022-07-28T07:14:50.000Z</time>
      </trkpt>
      <trkpt lat="47.28756" lon="-2.36958">
        <ele>11.199999809265</ele>
        <time>2022-07-28T07:14:51.000Z</time>
      </trkpt>
      <trkpt lat="47.28757" lon="-2.36961">
        <ele>11.60000038147</ele>
        <time>2022-07-28T07:14:52.000Z</time>
      </trkpt>
      <trkpt lat="47.28758" lon="-2.36964">
        <ele>11.60000038147</ele>
        <time>2022-07-28T07:14:53.000Z</time>
      </trkpt>
      <trkpt lat="47.28759" lon="-2.36969">
        <ele>12</ele>
        <time>2022-07-28T07:14:55.000Z</time>
      </trkpt>
      <trkpt lat="47.2876" lon="-2.36972">
        <ele>13</ele>
        <time>2022-07-28T07:14:56.000Z</time>
      </trkpt>
      <trkpt lat="47.28761" lon="-2.36975">
        <ele>13.39999961853</ele>
        <time>2022-07-28T07:14:57.000Z</time>
      </trkpt>
      <trkpt lat="47.28761" lon="-2.36979">
        <ele>13.800000190735</ele>
        <time>2022-07-28T07:14:58.000Z</time>
      </trkpt>
      <trkpt lat="47.28762" lon="-2.36981">
        <ele>13.800000190735</ele>
        <time>2022-07-28T07:14:59.000Z</time>
      </trkpt>
      <trkpt lat="47.28765" lon="-2.36996">
        <ele>13.800000190735</ele>
        <time>2022-07-28T07:15:04.000Z</time>
      </trkpt>
      <trkpt lat="47.28772" lon="-2.37011">
        <ele>13.800000190735</ele>
        <time>2022-07-28T07:15:07.000Z</time>
      </trkpt>
      <trkpt lat="47.28773" lon="-2.37017">
        <ele>13.800000190735</ele>
        <time>2022-07-28T07:15:08.000Z</time>
      </trkpt>
      <trkpt lat="47.28781" lon="-2.37039">
        <ele>13.800000190735</ele>
        <time>2022-07-28T07:15:11.000Z</time>
      </trkpt>
      <trkpt lat="47.28783" lon="-2.37045">
        <ele>13.39999961853</ele>
        <time>2022-07-28T07:15:12.000Z</time>
      </trkpt>
      <trkpt lat="47.28784" lon="-2.37052">
        <ele>12.800000190735</ele>
        <time>2022-07-28T07:15:13.000Z</time>
      </trkpt>
      <trkpt lat="47.28786" lon="-2.37058">
        <ele>12.39999961853</ele>
        <time>2022-07-28T07:15:14.000Z</time>
      </trkpt>
      <trkpt lat="47.28786" lon="-2.37067">
        <ele>12</ele>
        <time>2022-07-28T07:15:15.000Z</time>
      </trkpt>
      <trkpt lat="47.28787" lon="-2.37077">
        <ele>11.39999961853</ele>
        <time>2022-07-28T07:15:16.000Z</time>
      </trkpt>
      <trkpt lat="47.28788" lon="-2.37087">
        <ele>11</ele>
        <time>2022-07-28T07:15:17.000Z</time>
      </trkpt>
      <trkpt lat="47.2879" lon="-2.37093">
        <ele>10.39999961853</ele>
        <time>2022-07-28T07:15:18.000Z</time>
      </trkpt>
      <trkpt lat="47.28792" lon="-2.37098">
        <ele>10</ele>
        <time>2022-07-28T07:15:19.000Z</time>
      </trkpt>
      <trkpt lat="47.28794" lon="-2.371">
        <ele>9.3999996185303</ele>
        <time>2022-07-28T07:15:20.000Z</time>
      </trkpt>
      <trkpt lat="47.28798" lon="-2.37103">
        <ele>9</ele>
        <time>2022-07-28T07:15:22.000Z</time>
      </trkpt>
      <trkpt lat="47.28799" lon="-2.37103">
        <ele>8.6000003814697</ele>
        <time>2022-07-28T07:15:23.000Z</time>
      </trkpt>
      <trkpt lat="47.288" lon="-2.37105">
        <ele>8</ele>
        <time>2022-07-28T07:15:24.000Z</time>
      </trkpt>
      <trkpt lat="47.28803" lon="-2.37107">
        <ele>7.5999999046326</ele>
        <time>2022-07-28T07:15:25.000Z</time>
      </trkpt>
      <trkpt lat="47.28805" lon="-2.37107">
        <ele>7.1999998092651</ele>
        <time>2022-07-28T07:15:26.000Z</time>
      </trkpt>
      <trkpt lat="47.28807" lon="-2.37108">
        <ele>6.8000001907349</ele>
        <time>2022-07-28T07:15:27.000Z</time>
      </trkpt>
      <trkpt lat="47.28809" lon="-2.37108">
        <ele>6.4000000953674</ele>
        <time>2022-07-28T07:15:28.000Z</time>
      </trkpt>
      <trkpt lat="47.2881" lon="-2.37108">
        <ele>5.8000001907349</ele>
        <time>2022-07-28T07:15:29.000Z</time>
      </trkpt>
      <trkpt lat="47.28812" lon="-2.37109">
        <ele>5.4000000953674</ele>
        <time>2022-07-28T07:15:30.000Z</time>
      </trkpt>
      <trkpt lat="47.28813" lon="-2.37109">
        <ele>5</ele>
        <time>2022-07-28T07:15:31.000Z</time>
      </trkpt>
      <trkpt lat="47.28815" lon="-2.37107">
        <ele>5</ele>
        <time>2022-07-28T07:15:33.000Z</time>
      </trkpt>
      <trkpt lat="47.28817" lon="-2.37107">
        <ele>4.5999999046326</ele>
        <time>2022-07-28T07:15:34.000Z</time>
      </trkpt>
      <trkpt lat="47.28818" lon="-2.37107">
        <ele>4</ele>
        <time>2022-07-28T07:15:35.000Z</time>
      </trkpt>
      <trkpt lat="47.2882" lon="-2.37108">
        <ele>3.5999999046326</ele>
        <time>2022-07-28T07:15:36.000Z</time>
      </trkpt>
      <trkpt lat="47.28821" lon="-2.37112">
        <ele>3.2000000476837</ele>
        <time>2022-07-28T07:15:37.000Z</time>
      </trkpt>
      <trkpt lat="47.28822" lon="-2.37115">
        <ele>2.7999999523163</ele>
        <time>2022-07-28T07:15:38.000Z</time>
      </trkpt>
      <trkpt lat="47.28823" lon="-2.3712">
        <ele>2.7999999523163</ele>
        <time>2022-07-28T07:15:42.000Z</time>
      </trkpt>
      <trkpt lat="47.28824" lon="-2.37126">
        <ele>2.7999999523163</ele>
        <time>2022-07-28T07:15:48.000Z</time>
      </trkpt>
      <trkpt lat="47.28825" lon="-2.37142">
        <ele>2.7999999523163</ele>
        <time>2022-07-28T07:15:53.000Z</time>
      </trkpt>
      <trkpt lat="47.28831" lon="-2.3716">
        <ele>2.4000000953674</ele>
        <time>2022-07-28T07:15:58.000Z</time>
      </trkpt>
      <trkpt lat="47.28831" lon="-2.37163">
        <ele>2</ele>
        <time>2022-07-28T07:15:59.000Z</time>
      </trkpt>
      <trkpt lat="47.28832" lon="-2.37168">
        <ele>1.6000000238419</ele>
        <time>2022-07-28T07:16:00.000Z</time>
      </trkpt>
      <trkpt lat="47.28833" lon="-2.37172">
        <ele>1</ele>
        <time>2022-07-28T07:16:01.000Z</time>
      </trkpt>
      <trkpt lat="47.28834" lon="-2.37177">
        <ele>0.60000002384186</ele>
        <time>2022-07-28T07:16:02.000Z</time>
      </trkpt>
      <trkpt lat="47.2884" lon="-2.37196">
        <ele>0.60000002384186</ele>
        <time>2022-07-28T07:16:06.000Z</time>
      </trkpt>
      <trkpt lat="47.28842" lon="-2.37213">
        <ele>0.60000002384186</ele>
        <time>2022-07-28T07:16:10.000Z</time>
      </trkpt>
      <trkpt lat="47.28849" lon="-2.3723">
        <ele>0.60000002384186</ele>
        <time>2022-07-28T07:16:14.000Z</time>
      </trkpt>
      <trkpt lat="47.28851" lon="-2.37233">
        <ele>0.60000002384186</ele>
        <time>2022-07-28T07:16:15.000Z</time>
      </trkpt>
      <trkpt lat="47.28865" lon="-2.37235">
        <ele>0.60000002384186</ele>
        <time>2022-07-28T07:16:19.000Z</time>
      </trkpt>
      <trkpt lat="47.28881" lon="-2.3723">
        <ele>0.60000002384186</ele>
        <time>2022-07-28T07:16:23.000Z</time>
      </trkpt>
      <trkpt lat="47.28886" lon="-2.37229">
        <ele>0.60000002384186</ele>
        <time>2022-07-28T07:16:24.000Z</time>
      </trkpt>
      <trkpt lat="47.28907" lon="-2.37222">
        <ele>0.60000002384186</ele>
        <time>2022-07-28T07:16:29.000Z</time>
      </trkpt>
      <trkpt lat="47.28911" lon="-2.3722">
        <ele>0.60000002384186</ele>
        <time>2022-07-28T07:16:30.000Z</time>
      </trkpt>
      <trkpt lat="47.28933" lon="-2.3721">
        <ele>0.60000002384186</ele>
        <time>2022-07-28T07:16:36.000Z</time>
      </trkpt>
      <trkpt lat="47.28944" lon="-2.37207">
        <ele>0.60000002384186</ele>
        <time>2022-07-28T07:16:41.000Z</time>
      </trkpt>
      <trkpt lat="47.28952" lon="-2.37206">
        <ele>0.60000002384186</ele>
        <time>2022-07-28T07:16:47.000Z</time>
      </trkpt>
      <trkpt lat="47.28954" lon="-2.37206">
        <ele>0.60000002384186</ele>
        <time>2022-07-28T07:16:50.000Z</time>
      </trkpt>
      <trkpt lat="47.28955" lon="-2.37204">
        <ele>2.5999999046326</ele>
        <time>2022-07-28T07:17:22.000Z</time>
      </trkpt>
      <trkpt lat="47.28957" lon="-2.37203">
        <ele>2.5999999046326</ele>
        <time>2022-07-28T07:17:23.000Z</time>
      </trkpt>
      <trkpt lat="47.2897" lon="-2.37193">
        <ele>2.5999999046326</ele>
        <time>2022-07-28T07:17:28.000Z</time>
      </trkpt>
      <trkpt lat="47.28983" lon="-2.37183">
        <ele>2.5999999046326</ele>
        <time>2022-07-28T07:17:33.000Z</time>
      </trkpt>
      <trkpt lat="47.2899" lon="-2.37179">
        <ele>3.2000000476837</ele>
        <time>2022-07-28T07:17:35.000Z</time>
      </trkpt>
      <trkpt lat="47.28993" lon="-2.37176">
        <ele>3.5999999046326</ele>
        <time>2022-07-28T07:17:36.000Z</time>
      </trkpt>
      <trkpt lat="47.28997" lon="-2.37174">
        <ele>4</ele>
        <time>2022-07-28T07:17:37.000Z</time>
      </trkpt>
      <trkpt lat="47.29" lon="-2.37172">
        <ele>4.4000000953674</ele>
        <time>2022-07-28T07:17:38.000Z</time>
      </trkpt>
      <trkpt lat="47.29003" lon="-2.37172">
        <ele>4.8000001907349</ele>
        <time>2022-07-28T07:17:39.000Z</time>
      </trkpt>
      <trkpt lat="47.29006" lon="-2.37174">
        <ele>4.8000001907349</ele>
        <time>2022-07-28T07:17:40.000Z</time>
      </trkpt>
      <trkpt lat="47.29012" lon="-2.37179">
        <ele>5.1999998092651</ele>
        <time>2022-07-28T07:17:42.000Z</time>
      </trkpt>
      <trkpt lat="47.29015" lon="-2.37182">
        <ele>5.5999999046326</ele>
        <time>2022-07-28T07:17:43.000Z</time>
      </trkpt>
      <trkpt lat="47.29019" lon="-2.37185">
        <ele>6.1999998092651</ele>
        <time>2022-07-28T07:17:44.000Z</time>
      </trkpt>
      <trkpt lat="47.29023" lon="-2.37188">
        <ele>6.5999999046326</ele>
        <time>2022-07-28T07:17:45.000Z</time>
      </trkpt>
      <trkpt lat="47.29026" lon="-2.37191">
        <ele>7</ele>
        <time>2022-07-28T07:17:46.000Z</time>
      </trkpt>
      <trkpt lat="47.29046" lon="-2.3721">
        <ele>7.4000000953674</ele>
        <time>2022-07-28T07:17:52.000Z</time>
      </trkpt>
      <trkpt lat="47.29049" lon="-2.37214">
        <ele>8</ele>
        <time>2022-07-28T07:17:53.000Z</time>
      </trkpt>
      <trkpt lat="47.29052" lon="-2.37217">
        <ele>8.3999996185303</ele>
        <time>2022-07-28T07:17:54.000Z</time>
      </trkpt>
      <trkpt lat="47.29055" lon="-2.3722">
        <ele>8.8000001907349</ele>
        <time>2022-07-28T07:17:55.000Z</time>
      </trkpt>
      <trkpt lat="47.29058" lon="-2.37223">
        <ele>9.1999998092651</ele>
        <time>2022-07-28T07:17:56.000Z</time>
      </trkpt>
      <trkpt lat="47.29071" lon="-2.37236">
        <ele>9.1999998092651</ele>
        <time>2022-07-28T07:18:00.000Z</time>
      </trkpt>
      <trkpt lat="47.29087" lon="-2.37252">
        <ele>9.1999998092651</ele>
        <time>2022-07-28T07:18:05.000Z</time>
      </trkpt>
      <trkpt lat="47.2909" lon="-2.37256">
        <ele>9.6000003814697</ele>
        <time>2022-07-28T07:18:06.000Z</time>
      </trkpt>
      <trkpt lat="47.29094" lon="-2.37259">
        <ele>10</ele>
        <time>2022-07-28T07:18:07.000Z</time>
      </trkpt>
      <trkpt lat="47.29097" lon="-2.37263">
        <ele>10.39999961853</ele>
        <time>2022-07-28T07:18:08.000Z</time>
      </trkpt>
      <trkpt lat="47.29101" lon="-2.37267">
        <ele>10.800000190735</ele>
        <time>2022-07-28T07:18:09.000Z</time>
      </trkpt>
      <trkpt lat="47.29104" lon="-2.3727">
        <ele>11.199999809265</ele>
        <time>2022-07-28T07:18:10.000Z</time>
      </trkpt>
      <trkpt lat="47.29123" lon="-2.37289">
        <ele>11.199999809265</ele>
        <time>2022-07-28T07:18:16.000Z</time>
      </trkpt>
      <trkpt lat="47.29152" lon="-2.37324">
        <ele>11.199999809265</ele>
        <time>2022-07-28T07:18:25.000Z</time>
      </trkpt>
      <trkpt lat="47.29158" lon="-2.37336">
        <ele>11.199999809265</ele>
        <time>2022-07-28T07:18:27.000Z</time>
      </trkpt>
      <trkpt lat="47.29165" lon="-2.37355">
        <ele>11.199999809265</ele>
        <time>2022-07-28T07:18:30.000Z</time>
      </trkpt>
      <trkpt lat="47.29175" lon="-2.37378">
        <ele>11.199999809265</ele>
        <time>2022-07-28T07:18:34.000Z</time>
      </trkpt>
      <trkpt lat="47.29185" lon="-2.37393">
        <ele>11.199999809265</ele>
        <time>2022-07-28T07:18:37.000Z</time>
      </trkpt>
      <trkpt lat="47.2921" lon="-2.37434">
        <ele>11.199999809265</ele>
        <time>2022-07-28T07:18:44.000Z</time>
      </trkpt>
      <trkpt lat="47.29238" lon="-2.37478">
        <ele>10.800000190735</ele>
        <time>2022-07-28T07:18:51.000Z</time>
      </trkpt>
      <trkpt lat="47.29243" lon="-2.37484">
        <ele>10.39999961853</ele>
        <time>2022-07-28T07:18:52.000Z</time>
      </trkpt>
      <trkpt lat="47.29247" lon="-2.37491">
        <ele>10</ele>
        <time>2022-07-28T07:18:53.000Z</time>
      </trkpt>
      <trkpt lat="47.2925" lon="-2.37496">
        <ele>9.6000003814697</ele>
        <time>2022-07-28T07:18:54.000Z</time>
      </trkpt>
      <trkpt lat="47.29254" lon="-2.37502">
        <ele>9.1999998092651</ele>
        <time>2022-07-28T07:18:55.000Z</time>
      </trkpt>
      <trkpt lat="47.29259" lon="-2.37507">
        <ele>9.1999998092651</ele>
        <time>2022-07-28T07:18:56.000Z</time>
      </trkpt>
      <trkpt lat="47.2927" lon="-2.37512">
        <ele>9.1999998092651</ele>
        <time>2022-07-28T07:18:58.000Z</time>
      </trkpt>
      <trkpt lat="47.29279" lon="-2.3753">
        <ele>8.8000001907349</ele>
        <time>2022-07-28T07:19:01.000Z</time>
      </trkpt>
      <trkpt lat="47.29281" lon="-2.37538">
        <ele>8.3999996185303</ele>
        <time>2022-07-28T07:19:02.000Z</time>
      </trkpt>
      <trkpt lat="47.29284" lon="-2.37547">
        <ele>7.5999999046326</ele>
        <time>2022-07-28T07:19:03.000Z</time>
      </trkpt>
      <trkpt lat="47.29288" lon="-2.37554">
        <ele>7.1999998092651</ele>
        <time>2022-07-28T07:19:04.000Z</time>
      </trkpt>
      <trkpt lat="47.29291" lon="-2.3756">
        <ele>7.1999998092651</ele>
        <time>2022-07-28T07:19:05.000Z</time>
      </trkpt>
      <trkpt lat="47.29319" lon="-2.37606">
        <ele>7.1999998092651</ele>
        <time>2022-07-28T07:19:13.000Z</time>
      </trkpt>
      <trkpt lat="47.29325" lon="-2.37619">
        <ele>7.1999998092651</ele>
        <time>2022-07-28T07:19:15.000Z</time>
      </trkpt>
      <trkpt lat="47.29334" lon="-2.37648">
        <ele>7.1999998092651</ele>
        <time>2022-07-28T07:19:19.000Z</time>
      </trkpt>
      <trkpt lat="47.29338" lon="-2.37663">
        <ele>7.1999998092651</ele>
        <time>2022-07-28T07:19:21.000Z</time>
      </trkpt>
      <trkpt lat="47.29337" lon="-2.37678">
        <ele>7.1999998092651</ele>
        <time>2022-07-28T07:19:23.000Z</time>
      </trkpt>
      <trkpt lat="47.29335" lon="-2.37696">
        <ele>7.1999998092651</ele>
        <time>2022-07-28T07:19:25.000Z</time>
      </trkpt>
      <trkpt lat="47.29335" lon="-2.37708">
        <ele>7.1999998092651</ele>
        <time>2022-07-28T07:19:26.000Z</time>
      </trkpt>
      <trkpt lat="47.29336" lon="-2.37718">
        <ele>7.1999998092651</ele>
        <time>2022-07-28T07:19:27.000Z</time>
      </trkpt>
      <trkpt lat="47.29336" lon="-2.37729">
        <ele>6.4000000953674</ele>
        <time>2022-07-28T07:19:28.000Z</time>
      </trkpt>
      <trkpt lat="47.29336" lon="-2.37742">
        <ele>6</ele>
        <time>2022-07-28T07:19:29.000Z</time>
      </trkpt>
      <trkpt lat="47.29337" lon="-2.37755">
        <ele>5.5999999046326</ele>
        <time>2022-07-28T07:19:30.000Z</time>
      </trkpt>
      <trkpt lat="47.29337" lon="-2.37768">
        <ele>5.1999998092651</ele>
        <time>2022-07-28T07:19:31.000Z</time>
      </trkpt>
      <trkpt lat="47.29338" lon="-2.37781">
        <ele>4.8000001907349</ele>
        <time>2022-07-28T07:19:32.000Z</time>
      </trkpt>
      <trkpt lat="47.29339" lon="-2.37794">
        <ele>4.1999998092651</ele>
        <time>2022-07-28T07:19:33.000Z</time>
      </trkpt>
      <trkpt lat="47.2934" lon="-2.37807">
        <ele>3.7999999523163</ele>
        <time>2022-07-28T07:19:34.000Z</time>
      </trkpt>
      <trkpt lat="47.29341" lon="-2.37819">
        <ele>3.4000000953674</ele>
        <time>2022-07-28T07:19:35.000Z</time>
      </trkpt>
      <trkpt lat="47.29342" lon="-2.37832">
        <ele>3</ele>
        <time>2022-07-28T07:19:36.000Z</time>
      </trkpt>
      <trkpt lat="47.29347" lon="-2.37858">
        <ele>2.5999999046326</ele>
        <time>2022-07-28T07:19:38.000Z</time>
      </trkpt>
      <trkpt lat="47.2935" lon="-2.3787">
        <ele>2.2000000476837</ele>
        <time>2022-07-28T07:19:39.000Z</time>
      </trkpt>
      <trkpt lat="47.29354" lon="-2.37882">
        <ele>1.6000000238419</ele>
        <time>2022-07-28T07:19:40.000Z</time>
      </trkpt>
      <trkpt lat="47.29358" lon="-2.37894">
        <ele>1.2000000476837</ele>
        <time>2022-07-28T07:19:41.000Z</time>
      </trkpt>
      <trkpt lat="47.29362" lon="-2.37906">
        <ele>0.80000001192093</ele>
        <time>2022-07-28T07:19:42.000Z</time>
      </trkpt>
      <trkpt lat="47.29374" lon="-2.3794">
        <ele>0.80000001192093</ele>
        <time>2022-07-28T07:19:45.000Z</time>
      </trkpt>
      <trkpt lat="47.29377" lon="-2.37951">
        <ele>0.40000000596046</ele>
        <time>2022-07-28T07:19:46.000Z</time>
      </trkpt>
      <trkpt lat="47.29381" lon="-2.37962">
        <ele>-0.20000000298023</ele>
        <time>2022-07-28T07:19:47.000Z</time>
      </trkpt>
      <trkpt lat="47.29384" lon="-2.37973">
        <ele>-0.60000002384186</ele>
        <time>2022-07-28T07:19:48.000Z</time>
      </trkpt>
      <trkpt lat="47.29388" lon="-2.37984">
        <ele>-1</ele>
        <time>2022-07-28T07:19:49.000Z</time>
      </trkpt>
      <trkpt lat="47.29393" lon="-2.37995">
        <ele>-1.6000000238419</ele>
        <time>2022-07-28T07:19:50.000Z</time>
      </trkpt>
      <trkpt lat="47.29397" lon="-2.38005">
        <ele>-1.6000000238419</ele>
        <time>2022-07-28T07:19:51.000Z</time>
      </trkpt>
      <trkpt lat="47.29415" lon="-2.38056">
        <ele>-2</ele>
        <time>2022-07-28T07:19:56.000Z</time>
      </trkpt>
      <trkpt lat="47.29419" lon="-2.38066">
        <ele>-2.4000000953674</ele>
        <time>2022-07-28T07:19:57.000Z</time>
      </trkpt>
      <trkpt lat="47.29422" lon="-2.38076">
        <ele>-3</ele>
        <time>2022-07-28T07:19:58.000Z</time>
      </trkpt>
      <trkpt lat="47.29425" lon="-2.38086">
        <ele>-3.4000000953674</ele>
        <time>2022-07-28T07:19:59.000Z</time>
      </trkpt>
      <trkpt lat="47.29429" lon="-2.38095">
        <ele>-3.7999999523163</ele>
        <time>2022-07-28T07:20:00.000Z</time>
      </trkpt>
      <trkpt lat="47.29447" lon="-2.38144">
        <ele>-3.7999999523163</ele>
        <time>2022-07-28T07:20:06.000Z</time>
      </trkpt>
      <trkpt lat="47.2945" lon="-2.38149">
        <ele>-3.7999999523163</ele>
        <time>2022-07-28T07:20:07.000Z</time>
      </trkpt>
      <trkpt lat="47.29457" lon="-2.38152">
        <ele>-3.7999999523163</ele>
        <time>2022-07-28T07:20:09.000Z</time>
      </trkpt>
      <trkpt lat="47.29466" lon="-2.38145">
        <ele>-3.7999999523163</ele>
        <time>2022-07-28T07:20:12.000Z</time>
      </trkpt>
      <trkpt lat="47.29476" lon="-2.38135">
        <ele>-3.7999999523163</ele>
        <time>2022-07-28T07:20:15.000Z</time>
      </trkpt>
      <trkpt lat="47.29483" lon="-2.38129">
        <ele>-3.7999999523163</ele>
        <time>2022-07-28T07:20:17.000Z</time>
      </trkpt>
      <trkpt lat="47.29491" lon="-2.38124">
        <ele>-3.7999999523163</ele>
        <time>2022-07-28T07:20:19.000Z</time>
      </trkpt>
      <trkpt lat="47.29502" lon="-2.38124">
        <ele>-3.7999999523163</ele>
        <time>2022-07-28T07:20:21.000Z</time>
      </trkpt>
      <trkpt lat="47.29512" lon="-2.38126">
        <ele>-3.7999999523163</ele>
        <time>2022-07-28T07:20:23.000Z</time>
      </trkpt>
      <trkpt lat="47.29517" lon="-2.38126">
        <ele>-3.4000000953674</ele>
        <time>2022-07-28T07:20:24.000Z</time>
      </trkpt>
      <trkpt lat="47.29522" lon="-2.38126">
        <ele>-3</ele>
        <time>2022-07-28T07:20:25.000Z</time>
      </trkpt>
      <trkpt lat="47.29527" lon="-2.38126">
        <ele>-2.5999999046326</ele>
        <time>2022-07-28T07:20:26.000Z</time>
      </trkpt>
      <trkpt lat="47.29531" lon="-2.38127">
        <ele>-2.2000000476837</ele>
        <time>2022-07-28T07:20:27.000Z</time>
      </trkpt>
      <trkpt lat="47.29537" lon="-2.38127">
        <ele>-1.7999999523163</ele>
        <time>2022-07-28T07:20:28.000Z</time>
      </trkpt>
      <trkpt lat="47.2956" lon="-2.38124">
        <ele>-1.7999999523163</ele>
        <time>2022-07-28T07:20:33.000Z</time>
      </trkpt>
      <trkpt lat="47.29569" lon="-2.38124">
        <ele>-1.3999999761581</ele>
        <time>2022-07-28T07:20:35.000Z</time>
      </trkpt>
      <trkpt lat="47.29573" lon="-2.38123">
        <ele>-1</ele>
        <time>2022-07-28T07:20:36.000Z</time>
      </trkpt>
      <trkpt lat="47.29577" lon="-2.38122">
        <ele>-0.40000000596046</ele>
        <time>2022-07-28T07:20:37.000Z</time>
      </trkpt>
      <trkpt lat="47.29582" lon="-2.3812">
        <ele>10.3</ele>
        <time>2022-07-28T07:20:38.000Z</time>
      </trkpt>
      <trkpt lat="47.29586" lon="-2.38119">
        <ele>0.40000000596046</ele>
        <time>2022-07-28T07:20:39.000Z</time>
      </trkpt>
      <trkpt lat="47.29615" lon="-2.38112">
        <ele>0.40000000596046</ele>
        <time>2022-07-28T07:20:46.000Z</time>
      </trkpt>
      <trkpt lat="47.29619" lon="-2.38111">
        <ele>0.80000001192093</ele>
        <time>2022-07-28T07:20:47.000Z</time>
      </trkpt>
      <trkpt lat="47.29623" lon="-2.38108">
        <ele>1.2000000476837</ele>
        <time>2022-07-28T07:20:48.000Z</time>
      </trkpt>
      <trkpt lat="47.29627" lon="-2.38107">
        <ele>1.6000000238419</ele>
        <time>2022-07-28T07:20:49.000Z</time>
      </trkpt>
      <trkpt lat="47.2963" lon="-2.38105">
        <ele>2</ele>
        <time>2022-07-28T07:20:50.000Z</time>
      </trkpt>
      <trkpt lat="47.29634" lon="-2.38103">
        <ele>2.4000000953674</ele>
        <time>2022-07-28T07:20:51.000Z</time>
      </trkpt>
      <trkpt lat="47.29637" lon="-2.38101">
        <ele>2.4000000953674</ele>
        <time>2022-07-28T07:20:52.000Z</time>
      </trkpt>
      <trkpt lat="47.29659" lon="-2.3809">
        <ele>2.4000000953674</ele>
        <time>2022-07-28T07:20:58.000Z</time>
      </trkpt>
      <trkpt lat="47.29662" lon="-2.38088">
        <ele>2.7999999523163</ele>
        <time>2022-07-28T07:20:59.000Z</time>
      </trkpt>
      <trkpt lat="47.29665" lon="-2.38086">
        <ele>3.2000000476837</ele>
        <time>2022-07-28T07:21:00.000Z</time>
      </trkpt>
      <trkpt lat="47.29668" lon="-2.38084">
        <ele>3.5999999046326</ele>
        <time>2022-07-28T07:21:01.000Z</time>
      </trkpt>
      <trkpt lat="47.29671" lon="-2.38082">
        <ele>4</ele>
        <time>2022-07-28T07:21:02.000Z</time>
      </trkpt>
      <trkpt lat="47.29674" lon="-2.3808">
        <ele>4.4000000953674</ele>
        <time>2022-07-28T07:21:03.000Z</time>
      </trkpt>
      <trkpt lat="47.29677" lon="-2.38079">
        <ele>4.4000000953674</ele>
        <time>2022-07-28T07:21:04.000Z</time>
      </trkpt>
      <trkpt lat="47.29687" lon="-2.38072">
        <ele>5</ele>
        <time>2022-07-28T07:21:08.000Z</time>
      </trkpt>
      <trkpt lat="47.2969" lon="-2.3807">
        <ele>5.4000000953674</ele>
        <time>2022-07-28T07:21:09.000Z</time>
      </trkpt>
      <trkpt lat="47.29692" lon="-2.38069">
        <ele>5.8000001907349</ele>
        <time>2022-07-28T07:21:10.000Z</time>
      </trkpt>
      <trkpt lat="47.29695" lon="-2.38066">
        <ele>6.1999998092651</ele>
        <time>2022-07-28T07:21:11.000Z</time>
      </trkpt>
      <trkpt lat="47.29697" lon="-2.38064">
        <ele>6.5999999046326</ele>
        <time>2022-07-28T07:21:12.000Z</time>
      </trkpt>
      <trkpt lat="47.29703" lon="-2.38059">
        <ele>7.1999998092651</ele>
        <time>2022-07-28T07:21:15.000Z</time>
      </trkpt>
      <trkpt lat="47.29705" lon="-2.38058">
        <ele>7.5999999046326</ele>
        <time>2022-07-28T07:21:16.000Z</time>
      </trkpt>
      <trkpt lat="47.29707" lon="-2.38056">
        <ele>8</ele>
        <time>2022-07-28T07:21:17.000Z</time>
      </trkpt>
      <trkpt lat="47.29709" lon="-2.38055">
        <ele>8.3999996185303</ele>
        <time>2022-07-28T07:21:18.000Z</time>
      </trkpt>
      <trkpt lat="47.29712" lon="-2.38053">
        <ele>8.8000001907349</ele>
        <time>2022-07-28T07:21:19.000Z</time>
      </trkpt>
      <trkpt lat="47.29717" lon="-2.38049">
        <ele>9.1999998092651</ele>
        <time>2022-07-28T07:21:22.000Z</time>
      </trkpt>
      <trkpt lat="47.29719" lon="-2.38047">
        <ele>9.6000003814697</ele>
        <time>2022-07-28T07:21:23.000Z</time>
      </trkpt>
      <trkpt lat="47.29721" lon="-2.38046">
        <ele>10</ele>
        <time>2022-07-28T07:21:24.000Z</time>
      </trkpt>
      <trkpt lat="47.29722" lon="-2.38044">
        <ele>10.39999961853</ele>
        <time>2022-07-28T07:21:25.000Z</time>
      </trkpt>
      <trkpt lat="47.29724" lon="-2.38042">
        <ele>11</ele>
        <time>2022-07-28T07:21:26.000Z</time>
      </trkpt>
      <trkpt lat="47.2973" lon="-2.38037">
        <ele>11.39999961853</ele>
        <time>2022-07-28T07:21:30.000Z</time>
      </trkpt>
      <trkpt lat="47.29731" lon="-2.38035">
        <ele>12.199999809265</ele>
        <time>2022-07-28T07:21:31.000Z</time>
      </trkpt>
      <trkpt lat="47.29732" lon="-2.38033">
        <ele>12.800000190735</ele>
        <time>2022-07-28T07:21:32.000Z</time>
      </trkpt>
      <trkpt lat="47.29732" lon="-2.38031">
        <ele>13.199999809265</ele>
        <time>2022-07-28T07:21:33.000Z</time>
      </trkpt>
      <trkpt lat="47.29732" lon="-2.38029">
        <ele>13.199999809265</ele>
        <time>2022-07-28T07:21:34.000Z</time>
      </trkpt>
      <trkpt lat="47.29731" lon="-2.38024">
        <ele>13.199999809265</ele>
        <time>2022-07-28T07:21:36.000Z</time>
      </trkpt>
      <trkpt lat="47.29731" lon="-2.38023">
        <ele>13.60000038147</ele>
        <time>2022-07-28T07:21:37.000Z</time>
      </trkpt>
      <trkpt lat="47.29731" lon="-2.38021">
        <ele>14</ele>
        <time>2022-07-28T07:21:38.000Z</time>
      </trkpt>
      <trkpt lat="47.2973" lon="-2.38019">
        <ele>14.60000038147</ele>
        <time>2022-07-28T07:21:39.000Z</time>
      </trkpt>
      <trkpt lat="47.2973" lon="-2.38017">
        <ele>15</ele>
        <time>2022-07-28T07:21:40.000Z</time>
      </trkpt>
      <trkpt lat="47.2973" lon="-2.38014">
        <ele>15.39999961853</ele>
        <time>2022-07-28T07:21:41.000Z</time>
      </trkpt>
      <trkpt lat="47.29729" lon="-2.38009">
        <ele>15.39999961853</ele>
        <time>2022-07-28T07:21:43.000Z</time>
      </trkpt>
      <trkpt lat="47.2973" lon="-2.38007">
        <ele>15.800000190735</ele>
        <time>2022-07-28T07:21:44.000Z</time>
      </trkpt>
      <trkpt lat="47.2973" lon="-2.38004">
        <ele>16.200000762939</ele>
        <time>2022-07-28T07:21:45.000Z</time>
      </trkpt>
      <trkpt lat="47.2973" lon="-2.38002">
        <ele>16.60000038147</ele>
        <time>2022-07-28T07:21:46.000Z</time>
      </trkpt>
      <trkpt lat="47.2973" lon="-2.38">
        <ele>17.200000762939</ele>
        <time>2022-07-28T07:21:47.000Z</time>
      </trkpt>
      <trkpt lat="47.2973" lon="-2.37997">
        <ele>17.60000038147</ele>
        <time>2022-07-28T07:21:48.000Z</time>
      </trkpt>
      <trkpt lat="47.29731" lon="-2.37991">
        <ele>18</ele>
        <time>2022-07-28T07:21:50.000Z</time>
      </trkpt>
      <trkpt lat="47.29731" lon="-2.37989">
        <ele>18.39999961853</ele>
        <time>2022-07-28T07:21:51.000Z</time>
      </trkpt>
      <trkpt lat="47.29732" lon="-2.37985">
        <ele>18.799999237061</ele>
        <time>2022-07-28T07:21:52.000Z</time>
      </trkpt>
      <trkpt lat="47.29733" lon="-2.37983">
        <ele>19.200000762939</ele>
        <time>2022-07-28T07:21:53.000Z</time>
      </trkpt>
      <trkpt lat="47.29734" lon="-2.3798">
        <ele>19.60000038147</ele>
        <time>2022-07-28T07:21:54.000Z</time>
      </trkpt>
      <trkpt lat="47.29734" lon="-2.37978">
        <ele>19.60000038147</ele>
        <time>2022-07-28T07:21:55.000Z</time>
      </trkpt>
      <trkpt lat="47.29738" lon="-2.37971">
        <ele>20</ele>
        <time>2022-07-28T07:21:58.000Z</time>
      </trkpt>
      <trkpt lat="47.29739" lon="-2.37967">
        <ele>20.39999961853</ele>
        <time>2022-07-28T07:21:59.000Z</time>
      </trkpt>
      <trkpt lat="47.2974" lon="-2.37965">
        <ele>20.799999237061</ele>
        <time>2022-07-28T07:22:00.000Z</time>
      </trkpt>
      <trkpt lat="47.2974" lon="-2.37962">
        <ele>21.200000762939</ele>
        <time>2022-07-28T07:22:01.000Z</time>
      </trkpt>
      <trkpt lat="47.29741" lon="-2.3796">
        <ele>21.60000038147</ele>
        <time>2022-07-28T07:22:02.000Z</time>
      </trkpt>
      <trkpt lat="47.29749" lon="-2.37946">
        <ele>22</ele>
        <time>2022-07-28T07:22:08.000Z</time>
      </trkpt>
      <trkpt lat="47.2975" lon="-2.37944">
        <ele>22.60000038147</ele>
        <time>2022-07-28T07:22:09.000Z</time>
      </trkpt>
      <trkpt lat="47.29751" lon="-2.37941">
        <ele>23</ele>
        <time>2022-07-28T07:22:10.000Z</time>
      </trkpt>
      <trkpt lat="47.29753" lon="-2.37939">
        <ele>23.39999961853</ele>
        <time>2022-07-28T07:22:11.000Z</time>
      </trkpt>
      <trkpt lat="47.29754" lon="-2.37938">
        <ele>23.799999237061</ele>
        <time>2022-07-28T07:22:12.000Z</time>
      </trkpt>
      <trkpt lat="47.29762" lon="-2.3793">
        <ele>23.799999237061</ele>
        <time>2022-07-28T07:22:16.000Z</time>
      </trkpt>
      <trkpt lat="47.29771" lon="-2.37921">
        <ele>24.200000762939</ele>
        <time>2022-07-28T07:22:21.000Z</time>
      </trkpt>
      <trkpt lat="47.29774" lon="-2.3792">
        <ele>24.60000038147</ele>
        <time>2022-07-28T07:22:22.000Z</time>
      </trkpt>
      <trkpt lat="47.29775" lon="-2.37919">
        <ele>25</ele>
        <time>2022-07-28T07:22:23.000Z</time>
      </trkpt>
      <trkpt lat="47.29777" lon="-2.37916">
        <ele>25.39999961853</ele>
        <time>2022-07-28T07:22:24.000Z</time>
      </trkpt>
      <trkpt lat="47.2978" lon="-2.37914">
        <ele>25.799999237061</ele>
        <time>2022-07-28T07:22:25.000Z</time>
      </trkpt>
      <trkpt lat="47.29786" lon="-2.37911">
        <ele>25.799999237061</ele>
        <time>2022-07-28T07:22:27.000Z</time>
      </trkpt>
      <trkpt lat="47.29789" lon="-2.37908">
        <ele>25.799999237061</ele>
        <time>2022-07-28T07:22:28.000Z</time>
      </trkpt>
      <trkpt lat="47.29806" lon="-2.37897">
        <ele>25.799999237061</ele>
        <time>2022-07-28T07:22:34.000Z</time>
      </trkpt>
      <trkpt lat="47.29826" lon="-2.37884">
        <ele>25.799999237061</ele>
        <time>2022-07-28T07:22:39.000Z</time>
      </trkpt>
      <trkpt lat="47.2983" lon="-2.37881">
        <ele>25.799999237061</ele>
        <time>2022-07-28T07:22:40.000Z</time>
      </trkpt>
      <trkpt lat="47.29843" lon="-2.37868">
        <ele>25.799999237061</ele>
        <time>2022-07-28T07:22:43.000Z</time>
      </trkpt>
      <trkpt lat="47.29847" lon="-2.37863">
        <ele>25.799999237061</ele>
        <time>2022-07-28T07:22:44.000Z</time>
      </trkpt>
      <trkpt lat="47.29859" lon="-2.37834">
        <ele>25.799999237061</ele>
        <time>2022-07-28T07:22:49.000Z</time>
      </trkpt>
      <trkpt lat="47.29861" lon="-2.37829">
        <ele>25.799999237061</ele>
        <time>2022-07-28T07:22:50.000Z</time>
      </trkpt>
      <trkpt lat="47.29868" lon="-2.37816">
        <ele>25.799999237061</ele>
        <time>2022-07-28T07:22:54.000Z</time>
      </trkpt>
      <trkpt lat="47.29869" lon="-2.37814">
        <ele>25.799999237061</ele>
        <time>2022-07-28T07:22:57.000Z</time>
      </trkpt>
      <trkpt lat="47.29872" lon="-2.37814">
        <ele>25.799999237061</ele>
        <time>2022-07-28T07:23:35.000Z</time>
      </trkpt>
      <trkpt lat="47.29879" lon="-2.37819">
        <ele>25.799999237061</ele>
        <time>2022-07-28T07:23:39.000Z</time>
      </trkpt>
      <trkpt lat="47.29886" lon="-2.37827">
        <ele>25.39999961853</ele>
        <time>2022-07-28T07:23:41.000Z</time>
      </trkpt>
      <trkpt lat="47.2989" lon="-2.37832">
        <ele>25</ele>
        <time>2022-07-28T07:23:42.000Z</time>
      </trkpt>
      <trkpt lat="47.29895" lon="-2.37838">
        <ele>24.39999961853</ele>
        <time>2022-07-28T07:23:43.000Z</time>
      </trkpt>
      <trkpt lat="47.299" lon="-2.37845">
        <ele>24</ele>
        <time>2022-07-28T07:23:44.000Z</time>
      </trkpt>
      <trkpt lat="47.29906" lon="-2.37852">
        <ele>23.39999961853</ele>
        <time>2022-07-28T07:23:45.000Z</time>
      </trkpt>
      <trkpt lat="47.29912" lon="-2.3786">
        <ele>22.799999237061</ele>
        <time>2022-07-28T07:23:46.000Z</time>
      </trkpt>
      <trkpt lat="47.29919" lon="-2.37868">
        <ele>22.200000762939</ele>
        <time>2022-07-28T07:23:47.000Z</time>
      </trkpt>
      <trkpt lat="47.29926" lon="-2.37876">
        <ele>21.60000038147</ele>
        <time>2022-07-28T07:23:48.000Z</time>
      </trkpt>
      <trkpt lat="47.29933" lon="-2.37884">
        <ele>20.799999237061</ele>
        <time>2022-07-28T07:23:49.000Z</time>
      </trkpt>
      <trkpt lat="47.2994" lon="-2.37892">
        <ele>20.200000762939</ele>
        <time>2022-07-28T07:23:50.000Z</time>
      </trkpt>
      <trkpt lat="47.29946" lon="-2.379">
        <ele>19.60000038147</ele>
        <time>2022-07-28T07:23:51.000Z</time>
      </trkpt>
      <trkpt lat="47.29953" lon="-2.37907">
        <ele>19</ele>
        <time>2022-07-28T07:23:52.000Z</time>
      </trkpt>
      <trkpt lat="47.29959" lon="-2.37915">
        <ele>18.200000762939</ele>
        <time>2022-07-28T07:23:53.000Z</time>
      </trkpt>
      <trkpt lat="47.29981" lon="-2.37939">
        <ele>18.200000762939</ele>
        <time>2022-07-28T07:23:57.000Z</time>
      </trkpt>
      <trkpt lat="47.29997" lon="-2.3795">
        <ele>18.200000762939</ele>
        <time>2022-07-28T07:24:00.000Z</time>
      </trkpt>
      <trkpt lat="47.30001" lon="-2.37954">
        <ele>18.200000762939</ele>
        <time>2022-07-28T07:24:01.000Z</time>
      </trkpt>
      <trkpt lat="47.30023" lon="-2.37982">
        <ele>18.200000762939</ele>
        <time>2022-07-28T07:24:07.000Z</time>
      </trkpt>
      <trkpt lat="47.3003" lon="-2.37989">
        <ele>18.799999237061</ele>
        <time>2022-07-28T07:24:09.000Z</time>
      </trkpt>
      <trkpt lat="47.30034" lon="-2.37992">
        <ele>19.200000762939</ele>
        <time>2022-07-28T07:24:10.000Z</time>
      </trkpt>
      <trkpt lat="47.30038" lon="-2.37996">
        <ele>19.60000038147</ele>
        <time>2022-07-28T07:24:11.000Z</time>
      </trkpt>
      <trkpt lat="47.30041" lon="-2.38">
        <ele>20</ele>
        <time>2022-07-28T07:24:12.000Z</time>
      </trkpt>
      <trkpt lat="47.30044" lon="-2.38004">
        <ele>20.39999961853</ele>
        <time>2022-07-28T07:24:13.000Z</time>
      </trkpt>
      <trkpt lat="47.30051" lon="-2.38011">
        <ele>21</ele>
        <time>2022-07-28T07:24:15.000Z</time>
      </trkpt>
      <trkpt lat="47.30055" lon="-2.38014">
        <ele>21.39999961853</ele>
        <time>2022-07-28T07:24:16.000Z</time>
      </trkpt>
      <trkpt lat="47.30058" lon="-2.38017">
        <ele>21.799999237061</ele>
        <time>2022-07-28T07:24:17.000Z</time>
      </trkpt>
      <trkpt lat="47.30062" lon="-2.38021">
        <ele>22.200000762939</ele>
        <time>2022-07-28T07:24:18.000Z</time>
      </trkpt>
      <trkpt lat="47.30065" lon="-2.38024">
        <ele>22.799999237061</ele>
        <time>2022-07-28T07:24:19.000Z</time>
      </trkpt>
      <trkpt lat="47.30073" lon="-2.38029">
        <ele>22.799999237061</ele>
        <time>2022-07-28T07:24:21.000Z</time>
      </trkpt>
      <trkpt lat="47.30077" lon="-2.38031">
        <ele>23.200000762939</ele>
        <time>2022-07-28T07:24:22.000Z</time>
      </trkpt>
      <trkpt lat="47.30081" lon="-2.38033">
        <ele>23.60000038147</ele>
        <time>2022-07-28T07:24:23.000Z</time>
      </trkpt>
      <trkpt lat="47.30085" lon="-2.38035">
        <ele>24</ele>
        <time>2022-07-28T07:24:24.000Z</time>
      </trkpt>
      <trkpt lat="47.3009" lon="-2.38037">
        <ele>25</ele>
        <time>2022-07-28T07:24:25.000Z</time>
      </trkpt>
      <trkpt lat="47.30106" lon="-2.38046">
        <ele>25</ele>
        <time>2022-07-28T07:24:29.000Z</time>
      </trkpt>
      <trkpt lat="47.30114" lon="-2.3805">
        <ele>25.39999961853</ele>
        <time>2022-07-28T07:24:31.000Z</time>
      </trkpt>
      <trkpt lat="47.30118" lon="-2.38052">
        <ele>25.799999237061</ele>
        <time>2022-07-28T07:24:32.000Z</time>
      </trkpt>
      <trkpt lat="47.30122" lon="-2.38054">
        <ele>26.200000762939</ele>
        <time>2022-07-28T07:24:33.000Z</time>
      </trkpt>
      <trkpt lat="47.30126" lon="-2.38056">
        <ele>26.60000038147</ele>
        <time>2022-07-28T07:24:34.000Z</time>
      </trkpt>
      <trkpt lat="47.3013" lon="-2.38058">
        <ele>27</ele>
        <time>2022-07-28T07:24:35.000Z</time>
      </trkpt>
      <trkpt lat="47.30142" lon="-2.38064">
        <ele>27</ele>
        <time>2022-07-28T07:24:38.000Z</time>
      </trkpt>
      <trkpt lat="47.30151" lon="-2.38069">
        <ele>27</ele>
        <time>2022-07-28T07:24:40.000Z</time>
      </trkpt>
      <trkpt lat="47.30163" lon="-2.38075">
        <ele>27</ele>
        <time>2022-07-28T07:24:43.000Z</time>
      </trkpt>
      <trkpt lat="47.30167" lon="-2.38077">
        <ele>27.39999961853</ele>
        <time>2022-07-28T07:24:44.000Z</time>
      </trkpt>
      <trkpt lat="47.30171" lon="-2.38079">
        <ele>27.799999237061</ele>
        <time>2022-07-28T07:24:45.000Z</time>
      </trkpt>
      <trkpt lat="47.30175" lon="-2.38081">
        <ele>28.200000762939</ele>
        <time>2022-07-28T07:24:46.000Z</time>
      </trkpt>
      <trkpt lat="47.3018" lon="-2.38083">
        <ele>28.60000038147</ele>
        <time>2022-07-28T07:24:47.000Z</time>
      </trkpt>
      <trkpt lat="47.30184" lon="-2.38085">
        <ele>29</ele>
        <time>2022-07-28T07:24:48.000Z</time>
      </trkpt>
      <trkpt lat="47.30188" lon="-2.38087">
        <ele>29</ele>
        <time>2022-07-28T07:24:49.000Z</time>
      </trkpt>
      <trkpt lat="47.30212" lon="-2.38098">
        <ele>29</ele>
        <time>2022-07-28T07:24:55.000Z</time>
      </trkpt>
      <trkpt lat="47.30223" lon="-2.38105">
        <ele>29.60000038147</ele>
        <time>2022-07-28T07:24:58.000Z</time>
      </trkpt>
      <trkpt lat="47.30226" lon="-2.38109">
        <ele>30</ele>
        <time>2022-07-28T07:24:59.000Z</time>
      </trkpt>
      <trkpt lat="47.30229" lon="-2.38113">
        <ele>30.39999961853</ele>
        <time>2022-07-28T07:25:00.000Z</time>
      </trkpt>
      <trkpt lat="47.30232" lon="-2.38118">
        <ele>30.799999237061</ele>
        <time>2022-07-28T07:25:01.000Z</time>
      </trkpt>
      <trkpt lat="47.30234" lon="-2.38123">
        <ele>31.200000762939</ele>
        <time>2022-07-28T07:25:02.000Z</time>
      </trkpt>
      <trkpt lat="47.30245" lon="-2.38155">
        <ele>31.200000762939</ele>
        <time>2022-07-28T07:25:08.000Z</time>
      </trkpt>
      <trkpt lat="47.30246" lon="-2.38161">
        <ele>31.200000762939</ele>
        <time>2022-07-28T07:25:09.000Z</time>
      </trkpt>
      <trkpt lat="47.30246" lon="-2.38192">
        <ele>31.200000762939</ele>
        <time>2022-07-28T07:25:14.000Z</time>
      </trkpt>
      <trkpt lat="47.30253" lon="-2.38233">
        <ele>31.200000762939</ele>
        <time>2022-07-28T07:25:21.000Z</time>
      </trkpt>
      <trkpt lat="47.30258" lon="-2.38257">
        <ele>31.200000762939</ele>
        <time>2022-07-28T07:25:25.000Z</time>
      </trkpt>
      <trkpt lat="47.3026" lon="-2.38268">
        <ele>31.200000762939</ele>
        <time>2022-07-28T07:25:27.000Z</time>
      </trkpt>
      <trkpt lat="47.30269" lon="-2.38322">
        <ele>31.200000762939</ele>
        <time>2022-07-28T07:25:35.000Z</time>
      </trkpt>
      <trkpt lat="47.30279" lon="-2.38373">
        <ele>31.200000762939</ele>
        <time>2022-07-28T07:25:42.000Z</time>
      </trkpt>
      <trkpt lat="47.30295" lon="-2.38421">
        <ele>31.200000762939</ele>
        <time>2022-07-28T07:25:49.000Z</time>
      </trkpt>
      <trkpt lat="47.30308" lon="-2.38473">
        <ele>31.200000762939</ele>
        <time>2022-07-28T07:25:56.000Z</time>
      </trkpt>
      <trkpt lat="47.30323" lon="-2.38517">
        <ele>30.799999237061</ele>
        <time>2022-07-28T07:26:02.000Z</time>
      </trkpt>
      <trkpt lat="47.30325" lon="-2.38524">
        <ele>30.39999961853</ele>
        <time>2022-07-28T07:26:03.000Z</time>
      </trkpt>
      <trkpt lat="47.30328" lon="-2.3853">
        <ele>29.39999961853</ele>
        <time>2022-07-28T07:26:04.000Z</time>
      </trkpt>
      <trkpt lat="47.3033" lon="-2.38536">
        <ele>29</ele>
        <time>2022-07-28T07:26:05.000Z</time>
      </trkpt>
      <trkpt lat="47.30334" lon="-2.38549">
        <ele>29</ele>
        <time>2022-07-28T07:26:07.000Z</time>
      </trkpt>
      <trkpt lat="47.30337" lon="-2.38562">
        <ele>29</ele>
        <time>2022-07-28T07:26:09.000Z</time>
      </trkpt>
      <trkpt lat="47.30346" lon="-2.38586">
        <ele>29</ele>
        <time>2022-07-28T07:26:13.000Z</time>
      </trkpt>
      <trkpt lat="47.30349" lon="-2.3859">
        <ele>29.39999961853</ele>
        <time>2022-07-28T07:26:14.000Z</time>
      </trkpt>
      <trkpt lat="47.30352" lon="-2.38595">
        <ele>30</ele>
        <time>2022-07-28T07:26:15.000Z</time>
      </trkpt>
      <trkpt lat="47.30355" lon="-2.386">
        <ele>30.39999961853</ele>
        <time>2022-07-28T07:26:16.000Z</time>
      </trkpt>
      <trkpt lat="47.30357" lon="-2.38605">
        <ele>30.799999237061</ele>
        <time>2022-07-28T07:26:17.000Z</time>
      </trkpt>
      <trkpt lat="47.30359" lon="-2.38611">
        <ele>31.200000762939</ele>
        <time>2022-07-28T07:26:18.000Z</time>
      </trkpt>
      <trkpt lat="47.30365" lon="-2.38629">
        <ele>31.200000762939</ele>
        <time>2022-07-28T07:26:21.000Z</time>
      </trkpt>
      <trkpt lat="47.30381" lon="-2.38671">
        <ele>31.200000762939</ele>
        <time>2022-07-28T07:26:28.000Z</time>
      </trkpt>
      <trkpt lat="47.30388" lon="-2.38688">
        <ele>31.200000762939</ele>
        <time>2022-07-28T07:26:31.000Z</time>
      </trkpt>
      <trkpt lat="47.30389" lon="-2.38693">
        <ele>31.200000762939</ele>
        <time>2022-07-28T07:26:32.000Z</time>
      </trkpt>
      <trkpt lat="47.3039" lon="-2.38699">
        <ele>31.60000038147</ele>
        <time>2022-07-28T07:26:33.000Z</time>
      </trkpt>
      <trkpt lat="47.30391" lon="-2.38705">
        <ele>32</ele>
        <time>2022-07-28T07:26:34.000Z</time>
      </trkpt>
      <trkpt lat="47.30393" lon="-2.38711">
        <ele>32.400001525879</ele>
        <time>2022-07-28T07:26:35.000Z</time>
      </trkpt>
      <trkpt lat="47.30395" lon="-2.38717">
        <ele>32.799999237061</ele>
        <time>2022-07-28T07:26:36.000Z</time>
      </trkpt>
      <trkpt lat="47.30397" lon="-2.38724">
        <ele>33.200000762939</ele>
        <time>2022-07-28T07:26:37.000Z</time>
      </trkpt>
      <trkpt lat="47.30399" lon="-2.38731">
        <ele>33.200000762939</ele>
        <time>2022-07-28T07:26:38.000Z</time>
      </trkpt>
      <trkpt lat="47.30412" lon="-2.38761">
        <ele>33.200000762939</ele>
        <time>2022-07-28T07:26:43.000Z</time>
      </trkpt>
      <trkpt lat="47.30419" lon="-2.38787">
        <ele>33.200000762939</ele>
        <time>2022-07-28T07:26:47.000Z</time>
      </trkpt>
      <trkpt lat="47.3041" lon="-2.38817">
        <ele>33.200000762939</ele>
        <time>2022-07-28T07:26:52.000Z</time>
      </trkpt>
      <trkpt lat="47.30392" lon="-2.38851">
        <ele>33.200000762939</ele>
        <time>2022-07-28T07:26:57.000Z</time>
      </trkpt>
      <trkpt lat="47.30361" lon="-2.38901">
        <ele>32.799999237061</ele>
        <time>2022-07-28T07:27:03.000Z</time>
      </trkpt>
      <trkpt lat="47.30356" lon="-2.38909">
        <ele>32.400001525879</ele>
        <time>2022-07-28T07:27:04.000Z</time>
      </trkpt>
      <trkpt lat="47.3035" lon="-2.38918">
        <ele>31.799999237061</ele>
        <time>2022-07-28T07:27:05.000Z</time>
      </trkpt>
      <trkpt lat="47.30344" lon="-2.38926">
        <ele>31.39999961853</ele>
        <time>2022-07-28T07:27:06.000Z</time>
      </trkpt>
      <trkpt lat="47.30339" lon="-2.38934">
        <ele>31</ele>
        <time>2022-07-28T07:27:07.000Z</time>
      </trkpt>
      <trkpt lat="47.30334" lon="-2.38944">
        <ele>31</ele>
        <time>2022-07-28T07:27:08.000Z</time>
      </trkpt>
      <trkpt lat="47.30331" lon="-2.38954">
        <ele>30.60000038147</ele>
        <time>2022-07-28T07:27:09.000Z</time>
      </trkpt>
      <trkpt lat="47.3033" lon="-2.38965">
        <ele>30</ele>
        <time>2022-07-28T07:27:10.000Z</time>
      </trkpt>
      <trkpt lat="47.3033" lon="-2.38976">
        <ele>29.60000038147</ele>
        <time>2022-07-28T07:27:11.000Z</time>
      </trkpt>
      <trkpt lat="47.30332" lon="-2.38986">
        <ele>29.200000762939</ele>
        <time>2022-07-28T07:27:12.000Z</time>
      </trkpt>
      <trkpt lat="47.30335" lon="-2.38994">
        <ele>28.799999237061</ele>
        <time>2022-07-28T07:27:13.000Z</time>
      </trkpt>
      <trkpt lat="47.30338" lon="-2.39003">
        <ele>28.799999237061</ele>
        <time>2022-07-28T07:27:14.000Z</time>
      </trkpt>
      <trkpt lat="47.30346" lon="-2.39026">
        <ele>28.799999237061</ele>
        <time>2022-07-28T07:27:17.000Z</time>
      </trkpt>
      <trkpt lat="47.30357" lon="-2.39074">
        <ele>28.799999237061</ele>
        <time>2022-07-28T07:27:23.000Z</time>
      </trkpt>
      <trkpt lat="47.30359" lon="-2.39082">
        <ele>28.799999237061</ele>
        <time>2022-07-28T07:27:24.000Z</time>
      </trkpt>
      <trkpt lat="47.30368" lon="-2.39117">
        <ele>28.799999237061</ele>
        <time>2022-07-28T07:27:28.000Z</time>
      </trkpt>
      <trkpt lat="47.30386" lon="-2.39158">
        <ele>28.799999237061</ele>
        <time>2022-07-28T07:27:33.000Z</time>
      </trkpt>
      <trkpt lat="47.30402" lon="-2.39171">
        <ele>28.799999237061</ele>
        <time>2022-07-28T07:27:36.000Z</time>
      </trkpt>
      <trkpt lat="47.30426" lon="-2.39167">
        <ele>28.799999237061</ele>
        <time>2022-07-28T07:27:40.000Z</time>
      </trkpt>
      <trkpt lat="47.30446" lon="-2.39151">
        <ele>28.799999237061</ele>
        <time>2022-07-28T07:27:44.000Z</time>
      </trkpt>
      <trkpt lat="47.3045" lon="-2.39147">
        <ele>28.799999237061</ele>
        <time>2022-07-28T07:27:45.000Z</time>
      </trkpt>
      <trkpt lat="47.30478" lon="-2.39112">
        <ele>28.799999237061</ele>
        <time>2022-07-28T07:27:52.000Z</time>
      </trkpt>
      <trkpt lat="47.30493" lon="-2.39095">
        <ele>28.799999237061</ele>
        <time>2022-07-28T07:27:56.000Z</time>
      </trkpt>
      <trkpt lat="47.30512" lon="-2.39078">
        <ele>29.200000762939</ele>
        <time>2022-07-28T07:28:00.000Z</time>
      </trkpt>
      <trkpt lat="47.30516" lon="-2.39074">
        <ele>29.60000038147</ele>
        <time>2022-07-28T07:28:01.000Z</time>
      </trkpt>
      <trkpt lat="47.3052" lon="-2.39069">
        <ele>30</ele>
        <time>2022-07-28T07:28:02.000Z</time>
      </trkpt>
      <trkpt lat="47.30524" lon="-2.39066">
        <ele>30.39999961853</ele>
        <time>2022-07-28T07:28:03.000Z</time>
      </trkpt>
      <trkpt lat="47.30528" lon="-2.39062">
        <ele>30.799999237061</ele>
        <time>2022-07-28T07:28:04.000Z</time>
      </trkpt>
      <trkpt lat="47.30551" lon="-2.39038">
        <ele>30.799999237061</ele>
        <time>2022-07-28T07:28:10.000Z</time>
      </trkpt>
      <trkpt lat="47.30577" lon="-2.39009">
        <ele>31.200000762939</ele>
        <time>2022-07-28T07:28:16.000Z</time>
      </trkpt>
      <trkpt lat="47.30581" lon="-2.39003">
        <ele>31.60000038147</ele>
        <time>2022-07-28T07:28:17.000Z</time>
      </trkpt>
      <trkpt lat="47.30585" lon="-2.38998">
        <ele>32</ele>
        <time>2022-07-28T07:28:18.000Z</time>
      </trkpt>
      <trkpt lat="47.30589" lon="-2.38994">
        <ele>32.400001525879</ele>
        <time>2022-07-28T07:28:19.000Z</time>
      </trkpt>
      <trkpt lat="47.30593" lon="-2.3899">
        <ele>32.799999237061</ele>
        <time>2022-07-28T07:28:20.000Z</time>
      </trkpt>
      <trkpt lat="47.30601" lon="-2.38981">
        <ele>32.799999237061</ele>
        <time>2022-07-28T07:28:22.000Z</time>
      </trkpt>
      <trkpt lat="47.30608" lon="-2.38973">
        <ele>32.799999237061</ele>
        <time>2022-07-28T07:28:24.000Z</time>
      </trkpt>
      <trkpt lat="47.3062" lon="-2.38961">
        <ele>32.799999237061</ele>
        <time>2022-07-28T07:28:27.000Z</time>
      </trkpt>
      <trkpt lat="47.30636" lon="-2.38946">
        <ele>33.200000762939</ele>
        <time>2022-07-28T07:28:31.000Z</time>
      </trkpt>
      <trkpt lat="47.3064" lon="-2.38942">
        <ele>34</ele>
        <time>2022-07-28T07:28:32.000Z</time>
      </trkpt>
      <trkpt lat="47.30644" lon="-2.38939">
        <ele>34.400001525879</ele>
        <time>2022-07-28T07:28:33.000Z</time>
      </trkpt>
      <trkpt lat="47.30648" lon="-2.38936">
        <ele>34.799999237061</ele>
        <time>2022-07-28T07:28:34.000Z</time>
      </trkpt>
      <trkpt lat="47.30668" lon="-2.38917">
        <ele>34.799999237061</ele>
        <time>2022-07-28T07:28:40.000Z</time>
      </trkpt>
      <trkpt lat="47.30682" lon="-2.38907">
        <ele>34.799999237061</ele>
        <time>2022-07-28T07:28:45.000Z</time>
      </trkpt>
      <trkpt lat="47.30694" lon="-2.38907">
        <ele>34.799999237061</ele>
        <time>2022-07-28T07:28:51.000Z</time>
      </trkpt>
      <trkpt lat="47.30697" lon="-2.38907">
        <ele>34.799999237061</ele>
        <time>2022-07-28T07:28:54.000Z</time>
      </trkpt>
      <trkpt lat="47.30701" lon="-2.38916">
        <ele>34.799999237061</ele>
        <time>2022-07-28T07:29:33.000Z</time>
      </trkpt>
      <trkpt lat="47.30701" lon="-2.38919">
        <ele>34.799999237061</ele>
        <time>2022-07-28T07:29:34.000Z</time>
      </trkpt>
      <trkpt lat="47.30701" lon="-2.38933">
        <ele>34.799999237061</ele>
        <time>2022-07-28T07:29:37.000Z</time>
      </trkpt>
      <trkpt lat="47.307" lon="-2.38939">
        <ele>34.799999237061</ele>
        <time>2022-07-28T07:29:38.000Z</time>
      </trkpt>
      <trkpt lat="47.30704" lon="-2.38959">
        <ele>34.799999237061</ele>
        <time>2022-07-28T07:29:41.000Z</time>
      </trkpt>
      <trkpt lat="47.30712" lon="-2.38962">
        <ele>34.799999237061</ele>
        <time>2022-07-28T07:29:43.000Z</time>
      </trkpt>
      <trkpt lat="47.30726" lon="-2.38955">
        <ele>34.799999237061</ele>
        <time>2022-07-28T07:29:46.000Z</time>
      </trkpt>
      <trkpt lat="47.30731" lon="-2.38953">
        <ele>34.799999237061</ele>
        <time>2022-07-28T07:29:47.000Z</time>
      </trkpt>
      <trkpt lat="47.30752" lon="-2.38954">
        <ele>34.799999237061</ele>
        <time>2022-07-28T07:29:51.000Z</time>
      </trkpt>
      <trkpt lat="47.3077" lon="-2.38946">
        <ele>34.400001525879</ele>
        <time>2022-07-28T07:29:54.000Z</time>
      </trkpt>
      <trkpt lat="47.30777" lon="-2.38941">
        <ele>34</ele>
        <time>2022-07-28T07:29:55.000Z</time>
      </trkpt>
      <trkpt lat="47.30783" lon="-2.38936">
        <ele>33.599998474121</ele>
        <time>2022-07-28T07:29:56.000Z</time>
      </trkpt>
      <trkpt lat="47.3079" lon="-2.38931">
        <ele>33.200000762939</ele>
        <time>2022-07-28T07:29:57.000Z</time>
      </trkpt>
      <trkpt lat="47.30796" lon="-2.38926">
        <ele>32.799999237061</ele>
        <time>2022-07-28T07:29:58.000Z</time>
      </trkpt>
      <trkpt lat="47.30809" lon="-2.38916">
        <ele>32.799999237061</ele>
        <time>2022-07-28T07:30:00.000Z</time>
      </trkpt>
      <trkpt lat="47.30839" lon="-2.38894">
        <ele>32.799999237061</ele>
        <time>2022-07-28T07:30:05.000Z</time>
      </trkpt>
      <trkpt lat="47.3086" lon="-2.38874">
        <ele>32.799999237061</ele>
        <time>2022-07-28T07:30:10.000Z</time>
      </trkpt>
      <trkpt lat="47.30869" lon="-2.38853">
        <ele>32.799999237061</ele>
        <time>2022-07-28T07:30:14.000Z</time>
      </trkpt>
      <trkpt lat="47.30875" lon="-2.38842">
        <ele>33.200000762939</ele>
        <time>2022-07-28T07:30:16.000Z</time>
      </trkpt>
      <trkpt lat="47.30879" lon="-2.38838">
        <ele>33.599998474121</ele>
        <time>2022-07-28T07:30:17.000Z</time>
      </trkpt>
      <trkpt lat="47.30884" lon="-2.38836">
        <ele>34</ele>
        <time>2022-07-28T07:30:18.000Z</time>
      </trkpt>
      <trkpt lat="47.30889" lon="-2.38837">
        <ele>34.400001525879</ele>
        <time>2022-07-28T07:30:19.000Z</time>
      </trkpt>
      <trkpt lat="47.30893" lon="-2.38838">
        <ele>34.799999237061</ele>
        <time>2022-07-28T07:30:20.000Z</time>
      </trkpt>
      <trkpt lat="47.30897" lon="-2.38842">
        <ele>34.799999237061</ele>
        <time>2022-07-28T07:30:21.000Z</time>
      </trkpt>
      <trkpt lat="47.30909" lon="-2.38866">
        <ele>34.799999237061</ele>
        <time>2022-07-28T07:30:25.000Z</time>
      </trkpt>
      <trkpt lat="47.30923" lon="-2.38892">
        <ele>34.799999237061</ele>
        <time>2022-07-28T07:30:29.000Z</time>
      </trkpt>
      <trkpt lat="47.30931" lon="-2.38903">
        <ele>34.799999237061</ele>
        <time>2022-07-28T07:30:31.000Z</time>
      </trkpt>
      <trkpt lat="47.30934" lon="-2.38918">
        <ele>34.799999237061</ele>
        <time>2022-07-28T07:30:33.000Z</time>
      </trkpt>
      <trkpt lat="47.30928" lon="-2.38941">
        <ele>34.799999237061</ele>
        <time>2022-07-28T07:30:36.000Z</time>
      </trkpt>
      <trkpt lat="47.30917" lon="-2.38961">
        <ele>34.799999237061</ele>
        <time>2022-07-28T07:30:39.000Z</time>
      </trkpt>
      <trkpt lat="47.30914" lon="-2.38968">
        <ele>34.799999237061</ele>
        <time>2022-07-28T07:30:40.000Z</time>
      </trkpt>
      <trkpt lat="47.30911" lon="-2.38976">
        <ele>34.799999237061</ele>
        <time>2022-07-28T07:30:41.000Z</time>
      </trkpt>
      <trkpt lat="47.30906" lon="-2.39">
        <ele>34.799999237061</ele>
        <time>2022-07-28T07:30:44.000Z</time>
      </trkpt>
      <trkpt lat="47.30906" lon="-2.39008">
        <ele>34.799999237061</ele>
        <time>2022-07-28T07:30:45.000Z</time>
      </trkpt>
      <trkpt lat="47.30902" lon="-2.39077">
        <ele>34.799999237061</ele>
        <time>2022-07-28T07:30:53.000Z</time>
      </trkpt>
      <trkpt lat="47.30904" lon="-2.39086">
        <ele>34.799999237061</ele>
        <time>2022-07-28T07:30:54.000Z</time>
      </trkpt>
      <trkpt lat="47.30911" lon="-2.3911">
        <ele>34.799999237061</ele>
        <time>2022-07-28T07:30:57.000Z</time>
      </trkpt>
      <trkpt lat="47.30928" lon="-2.39158">
        <ele>34.799999237061</ele>
        <time>2022-07-28T07:31:03.000Z</time>
      </trkpt>
      <trkpt lat="47.30959" lon="-2.39229">
        <ele>34.799999237061</ele>
        <time>2022-07-28T07:31:12.000Z</time>
      </trkpt>
      <trkpt lat="47.30988" lon="-2.39303">
        <ele>34.799999237061</ele>
        <time>2022-07-28T07:31:21.000Z</time>
      </trkpt>
      <trkpt lat="47.31013" lon="-2.39375">
        <ele>34.799999237061</ele>
        <time>2022-07-28T07:31:30.000Z</time>
      </trkpt>
      <trkpt lat="47.31035" lon="-2.39445">
        <ele>34.799999237061</ele>
        <time>2022-07-28T07:31:39.000Z</time>
      </trkpt>
      <trkpt lat="47.31045" lon="-2.39477">
        <ele>34.799999237061</ele>
        <time>2022-07-28T07:31:43.000Z</time>
      </trkpt>
      <trkpt lat="47.31049" lon="-2.39491">
        <ele>34.799999237061</ele>
        <time>2022-07-28T07:31:45.000Z</time>
      </trkpt>
      <trkpt lat="47.31061" lon="-2.39528">
        <ele>34.799999237061</ele>
        <time>2022-07-28T07:31:51.000Z</time>
      </trkpt>
      <trkpt lat="47.31068" lon="-2.39547">
        <ele>34.799999237061</ele>
        <time>2022-07-28T07:31:56.000Z</time>
      </trkpt>
      <trkpt lat="47.31079" lon="-2.39576">
        <ele>34.799999237061</ele>
        <time>2022-07-28T07:32:03.000Z</time>
      </trkpt>
      <trkpt lat="47.31085" lon="-2.39595">
        <ele>34.799999237061</ele>
        <time>2022-07-28T07:32:09.000Z</time>
      </trkpt>
      <trkpt lat="47.31092" lon="-2.39616">
        <ele>34.799999237061</ele>
        <time>2022-07-28T07:32:18.000Z</time>
      </trkpt>
      <trkpt lat="47.31095" lon="-2.39628">
        <ele>35.200000762939</ele>
        <time>2022-07-28T07:32:24.000Z</time>
      </trkpt>
      <trkpt lat="47.31097" lon="-2.39631">
        <ele>37</ele>
        <time>2022-07-28T07:32:28.000Z</time>
      </trkpt>
      <trkpt lat="47.31102" lon="-2.39648">
        <ele>37</ele>
        <time>2022-07-28T07:32:32.000Z</time>
      </trkpt>
      <trkpt lat="47.31119" lon="-2.397">
        <ele>37</ele>
        <time>2022-07-28T07:32:41.000Z</time>
      </trkpt>
      <trkpt lat="47.31138" lon="-2.39752">
        <ele>37</ele>
        <time>2022-07-28T07:32:49.000Z</time>
      </trkpt>
      <trkpt lat="47.31141" lon="-2.39759">
        <ele>36.400001525879</ele>
        <time>2022-07-28T07:32:50.000Z</time>
      </trkpt>
      <trkpt lat="47.31144" lon="-2.39766">
        <ele>36</ele>
        <time>2022-07-28T07:32:51.000Z</time>
      </trkpt>
      <trkpt lat="47.31146" lon="-2.39773">
        <ele>35.599998474121</ele>
        <time>2022-07-28T07:32:52.000Z</time>
      </trkpt>
      <trkpt lat="47.31148" lon="-2.3978">
        <ele>35.200000762939</ele>
        <time>2022-07-28T07:32:53.000Z</time>
      </trkpt>
      <trkpt lat="47.3115" lon="-2.39788">
        <ele>34.799999237061</ele>
        <time>2022-07-28T07:32:54.000Z</time>
      </trkpt>
      <trkpt lat="47.31158" lon="-2.39809">
        <ele>34.799999237061</ele>
        <time>2022-07-28T07:32:57.000Z</time>
      </trkpt>
      <trkpt lat="47.3117" lon="-2.39834">
        <ele>34.799999237061</ele>
        <time>2022-07-28T07:33:01.000Z</time>
      </trkpt>
      <trkpt lat="47.31176" lon="-2.39844">
        <ele>34.799999237061</ele>
        <time>2022-07-28T07:33:03.000Z</time>
      </trkpt>
      <trkpt lat="47.31182" lon="-2.39866">
        <ele>34.799999237061</ele>
        <time>2022-07-28T07:33:07.000Z</time>
      </trkpt>
      <trkpt lat="47.31187" lon="-2.39883">
        <ele>34.799999237061</ele>
        <time>2022-07-28T07:33:11.000Z</time>
      </trkpt>
      <trkpt lat="47.31191" lon="-2.39898">
        <ele>34.799999237061</ele>
        <time>2022-07-28T07:33:15.000Z</time>
      </trkpt>
      <trkpt lat="47.31192" lon="-2.39901">
        <ele>34.400001525879</ele>
        <time>2022-07-28T07:33:16.000Z</time>
      </trkpt>
      <trkpt lat="47.31194" lon="-2.39905">
        <ele>34</ele>
        <time>2022-07-28T07:33:17.000Z</time>
      </trkpt>
      <trkpt lat="47.31195" lon="-2.39909">
        <ele>33.599998474121</ele>
        <time>2022-07-28T07:33:18.000Z</time>
      </trkpt>
      <trkpt lat="47.31198" lon="-2.39911">
        <ele>33.200000762939</ele>
        <time>2022-07-28T07:33:19.000Z</time>
      </trkpt>
      <trkpt lat="47.312" lon="-2.39914">
        <ele>32.599998474121</ele>
        <time>2022-07-28T07:33:20.000Z</time>
      </trkpt>
      <trkpt lat="47.3121" lon="-2.39935">
        <ele>32.599998474121</ele>
        <time>2022-07-28T07:33:25.000Z</time>
      </trkpt>
      <trkpt lat="47.31215" lon="-2.39948">
        <ele>32.599998474121</ele>
        <time>2022-07-28T07:33:29.000Z</time>
      </trkpt>
      <trkpt lat="47.31216" lon="-2.39952">
        <ele>32.200000762939</ele>
        <time>2022-07-28T07:33:30.000Z</time>
      </trkpt>
      <trkpt lat="47.31216" lon="-2.39955">
        <ele>31.799999237061</ele>
        <time>2022-07-28T07:33:31.000Z</time>
      </trkpt>
      <trkpt lat="47.31217" lon="-2.39959">
        <ele>31.39999961853</ele>
        <time>2022-07-28T07:33:32.000Z</time>
      </trkpt>
      <trkpt lat="47.31219" lon="-2.39963">
        <ele>31</ele>
        <time>2022-07-28T07:33:33.000Z</time>
      </trkpt>
      <trkpt lat="47.31221" lon="-2.39967">
        <ele>30.60000038147</ele>
        <time>2022-07-28T07:33:34.000Z</time>
      </trkpt>
      <trkpt lat="47.31227" lon="-2.39993">
        <ele>30.60000038147</ele>
        <time>2022-07-28T07:33:40.000Z</time>
      </trkpt>
      <trkpt lat="47.31228" lon="-2.39997">
        <ele>30.200000762939</ele>
        <time>2022-07-28T07:33:41.000Z</time>
      </trkpt>
      <trkpt lat="47.31229" lon="-2.40001">
        <ele>29.799999237061</ele>
        <time>2022-07-28T07:33:42.000Z</time>
      </trkpt>
      <trkpt lat="47.31231" lon="-2.40006">
        <ele>29.39999961853</ele>
        <time>2022-07-28T07:33:43.000Z</time>
      </trkpt>
      <trkpt lat="47.31232" lon="-2.40011">
        <ele>29</ele>
        <time>2022-07-28T07:33:44.000Z</time>
      </trkpt>
      <trkpt lat="47.31234" lon="-2.40017">
        <ele>28.60000038147</ele>
        <time>2022-07-28T07:33:45.000Z</time>
      </trkpt>
      <trkpt lat="47.31236" lon="-2.40026">
        <ele>28.60000038147</ele>
        <time>2022-07-28T07:33:48.000Z</time>
      </trkpt>
      <trkpt lat="47.31237" lon="-2.40027">
        <ele>28.60000038147</ele>
        <time>2022-07-28T07:34:18.000Z</time>
      </trkpt>
      <trkpt lat="47.31239" lon="-2.40033">
        <ele>28.60000038147</ele>
        <time>2022-07-28T07:34:20.000Z</time>
      </trkpt>
      <trkpt lat="47.31243" lon="-2.40037">
        <ele>28.60000038147</ele>
        <time>2022-07-28T07:34:22.000Z</time>
      </trkpt>
      <trkpt lat="47.31246" lon="-2.40038">
        <ele>28.60000038147</ele>
        <time>2022-07-28T07:34:24.000Z</time>
      </trkpt>
      <trkpt lat="47.3125" lon="-2.40046">
        <ele>28.60000038147</ele>
        <time>2022-07-28T07:34:28.000Z</time>
      </trkpt>
      <trkpt lat="47.31252" lon="-2.40049">
        <ele>28.60000038147</ele>
        <time>2022-07-28T07:34:29.000Z</time>
      </trkpt>
      <trkpt lat="47.31256" lon="-2.40052">
        <ele>28.60000038147</ele>
        <time>2022-07-28T07:34:30.000Z</time>
      </trkpt>
      <trkpt lat="47.31266" lon="-2.40058">
        <ele>28.60000038147</ele>
        <time>2022-07-28T07:34:32.000Z</time>
      </trkpt>
      <trkpt lat="47.31279" lon="-2.4006">
        <ele>28.60000038147</ele>
        <time>2022-07-28T07:34:35.000Z</time>
      </trkpt>
      <trkpt lat="47.31286" lon="-2.40062">
        <ele>28.60000038147</ele>
        <time>2022-07-28T07:34:37.000Z</time>
      </trkpt>
      <trkpt lat="47.31309" lon="-2.40072">
        <ele>28.60000038147</ele>
        <time>2022-07-28T07:34:43.000Z</time>
      </trkpt>
      <trkpt lat="47.3133" lon="-2.40082">
        <ele>28.60000038147</ele>
        <time>2022-07-28T07:34:48.000Z</time>
      </trkpt>
      <trkpt lat="47.31358" lon="-2.40095">
        <ele>28.60000038147</ele>
        <time>2022-07-28T07:34:54.000Z</time>
      </trkpt>
      <trkpt lat="47.31379" lon="-2.40104">
        <ele>28.60000038147</ele>
        <time>2022-07-28T07:34:59.000Z</time>
      </trkpt>
      <trkpt lat="47.31398" lon="-2.40115">
        <ele>28.60000038147</ele>
        <time>2022-07-28T07:35:04.000Z</time>
      </trkpt>
      <trkpt lat="47.31418" lon="-2.4013">
        <ele>28.60000038147</ele>
        <time>2022-07-28T07:35:09.000Z</time>
      </trkpt>
      <trkpt lat="47.31439" lon="-2.40146">
        <ele>28.60000038147</ele>
        <time>2022-07-28T07:35:14.000Z</time>
      </trkpt>
      <trkpt lat="47.31444" lon="-2.40148">
        <ele>28.60000038147</ele>
        <time>2022-07-28T07:35:15.000Z</time>
      </trkpt>
      <trkpt lat="47.31466" lon="-2.40166">
        <ele>29</ele>
        <time>2022-07-28T07:35:21.000Z</time>
      </trkpt>
      <trkpt lat="47.31469" lon="-2.40167">
        <ele>29.39999961853</ele>
        <time>2022-07-28T07:35:22.000Z</time>
      </trkpt>
      <trkpt lat="47.31472" lon="-2.40168">
        <ele>29.799999237061</ele>
        <time>2022-07-28T07:35:23.000Z</time>
      </trkpt>
      <trkpt lat="47.31476" lon="-2.4017">
        <ele>30.200000762939</ele>
        <time>2022-07-28T07:35:24.000Z</time>
      </trkpt>
      <trkpt lat="47.31479" lon="-2.40172">
        <ele>30.60000038147</ele>
        <time>2022-07-28T07:35:25.000Z</time>
      </trkpt>
      <trkpt lat="47.31481" lon="-2.40173">
        <ele>30.60000038147</ele>
        <time>2022-07-28T07:35:26.000Z</time>
      </trkpt>
      <trkpt lat="47.31492" lon="-2.40182">
        <ele>30.60000038147</ele>
        <time>2022-07-28T07:35:30.000Z</time>
      </trkpt>
      <trkpt lat="47.3151" lon="-2.40195">
        <ele>30.60000038147</ele>
        <time>2022-07-28T07:35:35.000Z</time>
      </trkpt>
      <trkpt lat="47.31536" lon="-2.40216">
        <ele>30.60000038147</ele>
        <time>2022-07-28T07:35:42.000Z</time>
      </trkpt>
      <trkpt lat="47.31556" lon="-2.40234">
        <ele>30.60000038147</ele>
        <time>2022-07-28T07:35:47.000Z</time>
      </trkpt>
      <trkpt lat="47.3156" lon="-2.40237">
        <ele>30.60000038147</ele>
        <time>2022-07-28T07:35:48.000Z</time>
      </trkpt>
      <trkpt lat="47.31577" lon="-2.4025">
        <ele>30.60000038147</ele>
        <time>2022-07-28T07:35:52.000Z</time>
      </trkpt>
      <trkpt lat="47.31597" lon="-2.40265">
        <ele>31.39999961853</ele>
        <time>2022-07-28T07:35:57.000Z</time>
      </trkpt>
      <trkpt lat="47.31601" lon="-2.40267">
        <ele>31.799999237061</ele>
        <time>2022-07-28T07:35:58.000Z</time>
      </trkpt>
      <trkpt lat="47.31605" lon="-2.40269">
        <ele>32.200000762939</ele>
        <time>2022-07-28T07:35:59.000Z</time>
      </trkpt>
      <trkpt lat="47.31608" lon="-2.40271">
        <ele>32.599998474121</ele>
        <time>2022-07-28T07:36:00.000Z</time>
      </trkpt>
      <trkpt lat="47.31624" lon="-2.40282">
        <ele>32.599998474121</ele>
        <time>2022-07-28T07:36:04.000Z</time>
      </trkpt>
      <trkpt lat="47.31628" lon="-2.40285">
        <ele>32.599998474121</ele>
        <time>2022-07-28T07:36:05.000Z</time>
      </trkpt>
      <trkpt lat="47.31655" lon="-2.40307">
        <ele>32.599998474121</ele>
        <time>2022-07-28T07:36:12.000Z</time>
      </trkpt>
      <trkpt lat="47.31666" lon="-2.40318">
        <ele>32.599998474121</ele>
        <time>2022-07-28T07:36:16.000Z</time>
      </trkpt>
      <trkpt lat="47.31671" lon="-2.40323">
        <ele>33</ele>
        <time>2022-07-28T07:36:18.000Z</time>
      </trkpt>
      <trkpt lat="47.31673" lon="-2.40324">
        <ele>33.400001525879</ele>
        <time>2022-07-28T07:36:19.000Z</time>
      </trkpt>
      <trkpt lat="47.31674" lon="-2.40326">
        <ele>33.799999237061</ele>
        <time>2022-07-28T07:36:20.000Z</time>
      </trkpt>
      <trkpt lat="47.31676" lon="-2.40327">
        <ele>34.400001525879</ele>
        <time>2022-07-28T07:36:21.000Z</time>
      </trkpt>
      <trkpt lat="47.31677" lon="-2.40327">
        <ele>34.799999237061</ele>
        <time>2022-07-28T07:36:22.000Z</time>
      </trkpt>
      <trkpt lat="47.31677" lon="-2.40328">
        <ele>34.799999237061</ele>
        <time>2022-07-28T07:36:23.000Z</time>
      </trkpt>
      <trkpt lat="47.31681" lon="-2.40331">
        <ele>34.799999237061</ele>
        <time>2022-07-28T07:38:29.000Z</time>
      </trkpt>
      <trkpt lat="47.31684" lon="-2.40334">
        <ele>34.799999237061</ele>
        <time>2022-07-28T07:38:31.000Z</time>
      </trkpt>
      <trkpt lat="47.31701" lon="-2.40347">
        <ele>34.799999237061</ele>
        <time>2022-07-28T07:38:36.000Z</time>
      </trkpt>
      <trkpt lat="47.31705" lon="-2.4035">
        <ele>34.799999237061</ele>
        <time>2022-07-28T07:38:37.000Z</time>
      </trkpt>
      <trkpt lat="47.31717" lon="-2.40358">
        <ele>34.799999237061</ele>
        <time>2022-07-28T07:38:40.000Z</time>
      </trkpt>
      <trkpt lat="47.31721" lon="-2.4036">
        <ele>34.799999237061</ele>
        <time>2022-07-28T07:38:41.000Z</time>
      </trkpt>
      <trkpt lat="47.31742" lon="-2.40376">
        <ele>34.799999237061</ele>
        <time>2022-07-28T07:38:46.000Z</time>
      </trkpt>
      <trkpt lat="47.3176" lon="-2.40387">
        <ele>34.799999237061</ele>
        <time>2022-07-28T07:38:50.000Z</time>
      </trkpt>
      <trkpt lat="47.31767" lon="-2.40392">
        <ele>34.799999237061</ele>
        <time>2022-07-28T07:38:52.000Z</time>
      </trkpt>
      <trkpt lat="47.31796" lon="-2.40416">
        <ele>34.799999237061</ele>
        <time>2022-07-28T07:38:59.000Z</time>
      </trkpt>
      <trkpt lat="47.31822" lon="-2.40435">
        <ele>34.799999237061</ele>
        <time>2022-07-28T07:39:05.000Z</time>
      </trkpt>
      <trkpt lat="47.31827" lon="-2.40438">
        <ele>35.200000762939</ele>
        <time>2022-07-28T07:39:06.000Z</time>
      </trkpt>
      <trkpt lat="47.31831" lon="-2.40441">
        <ele>35.599998474121</ele>
        <time>2022-07-28T07:39:07.000Z</time>
      </trkpt>
      <trkpt lat="47.31835" lon="-2.40444">
        <ele>36</ele>
        <time>2022-07-28T07:39:08.000Z</time>
      </trkpt>
      <trkpt lat="47.3184" lon="-2.40446">
        <ele>36.400001525879</ele>
        <time>2022-07-28T07:39:09.000Z</time>
      </trkpt>
      <trkpt lat="47.31843" lon="-2.4045">
        <ele>36.799999237061</ele>
        <time>2022-07-28T07:39:10.000Z</time>
      </trkpt>
      <trkpt lat="47.31868" lon="-2.40471">
        <ele>36.799999237061</ele>
        <time>2022-07-28T07:39:16.000Z</time>
      </trkpt>
      <trkpt lat="47.31894" lon="-2.40491">
        <ele>36.799999237061</ele>
        <time>2022-07-28T07:39:22.000Z</time>
      </trkpt>
      <trkpt lat="47.31898" lon="-2.40495">
        <ele>36.799999237061</ele>
        <time>2022-07-28T07:39:23.000Z</time>
      </trkpt>
      <trkpt lat="47.31912" lon="-2.40505">
        <ele>36.799999237061</ele>
        <time>2022-07-28T07:39:26.000Z</time>
      </trkpt>
      <trkpt lat="47.31926" lon="-2.40516">
        <ele>37.200000762939</ele>
        <time>2022-07-28T07:39:29.000Z</time>
      </trkpt>
      <trkpt lat="47.3193" lon="-2.40519">
        <ele>37.599998474121</ele>
        <time>2022-07-28T07:39:30.000Z</time>
      </trkpt>
      <trkpt lat="47.31934" lon="-2.40522">
        <ele>38</ele>
        <time>2022-07-28T07:39:31.000Z</time>
      </trkpt>
      <trkpt lat="47.31938" lon="-2.40525">
        <ele>38.400001525879</ele>
        <time>2022-07-28T07:39:32.000Z</time>
      </trkpt>
      <trkpt lat="47.31942" lon="-2.40528">
        <ele>38.799999237061</ele>
        <time>2022-07-28T07:39:33.000Z</time>
      </trkpt>
      <trkpt lat="47.3195" lon="-2.40535">
        <ele>38.799999237061</ele>
        <time>2022-07-28T07:39:35.000Z</time>
      </trkpt>
      <trkpt lat="47.31961" lon="-2.40546">
        <ele>38.799999237061</ele>
        <time>2022-07-28T07:39:38.000Z</time>
      </trkpt>
      <trkpt lat="47.31986" lon="-2.40564">
        <ele>38.799999237061</ele>
        <time>2022-07-28T07:39:43.000Z</time>
      </trkpt>
      <trkpt lat="47.31991" lon="-2.40567">
        <ele>38.799999237061</ele>
        <time>2022-07-28T07:39:44.000Z</time>
      </trkpt>
      <trkpt lat="47.32" lon="-2.40573">
        <ele>38.799999237061</ele>
        <time>2022-07-28T07:39:46.000Z</time>
      </trkpt>
      <trkpt lat="47.3201" lon="-2.40581">
        <ele>38.799999237061</ele>
        <time>2022-07-28T07:39:48.000Z</time>
      </trkpt>
      <trkpt lat="47.32033" lon="-2.40599">
        <ele>38.799999237061</ele>
        <time>2022-07-28T07:39:53.000Z</time>
      </trkpt>
      <trkpt lat="47.32052" lon="-2.40614">
        <ele>39.200000762939</ele>
        <time>2022-07-28T07:39:57.000Z</time>
      </trkpt>
      <trkpt lat="47.32056" lon="-2.40617">
        <ele>39.599998474121</ele>
        <time>2022-07-28T07:39:58.000Z</time>
      </trkpt>
      <trkpt lat="47.32061" lon="-2.40621">
        <ele>40</ele>
        <time>2022-07-28T07:39:59.000Z</time>
      </trkpt>
      <trkpt lat="47.32066" lon="-2.40626">
        <ele>40.599998474121</ele>
        <time>2022-07-28T07:40:00.000Z</time>
      </trkpt>
      <trkpt lat="47.3207" lon="-2.40631">
        <ele>41</ele>
        <time>2022-07-28T07:40:01.000Z</time>
      </trkpt>
      <trkpt lat="47.32093" lon="-2.40653">
        <ele>41</ele>
        <time>2022-07-28T07:40:06.000Z</time>
      </trkpt>
      <trkpt lat="47.32122" lon="-2.40683">
        <ele>41</ele>
        <time>2022-07-28T07:40:12.000Z</time>
      </trkpt>
      <trkpt lat="47.32147" lon="-2.40711">
        <ele>41</ele>
        <time>2022-07-28T07:40:18.000Z</time>
      </trkpt>
      <trkpt lat="47.32179" lon="-2.40751">
        <ele>41</ele>
        <time>2022-07-28T07:40:26.000Z</time>
      </trkpt>
      <trkpt lat="47.32197" lon="-2.4078">
        <ele>41</ele>
        <time>2022-07-28T07:40:32.000Z</time>
      </trkpt>
      <trkpt lat="47.32207" lon="-2.40796">
        <ele>41</ele>
        <time>2022-07-28T07:40:37.000Z</time>
      </trkpt>
      <trkpt lat="47.32221" lon="-2.40817">
        <ele>41</ele>
        <time>2022-07-28T07:40:42.000Z</time>
      </trkpt>
      <trkpt lat="47.32224" lon="-2.40821">
        <ele>41</ele>
        <time>2022-07-28T07:40:43.000Z</time>
      </trkpt>
      <trkpt lat="47.32234" lon="-2.40838">
        <ele>41</ele>
        <time>2022-07-28T07:40:46.000Z</time>
      </trkpt>
      <trkpt lat="47.32248" lon="-2.40859">
        <ele>41</ele>
        <time>2022-07-28T07:40:50.000Z</time>
      </trkpt>
      <trkpt lat="47.32254" lon="-2.40868">
        <ele>41</ele>
        <time>2022-07-28T07:40:52.000Z</time>
      </trkpt>
      <trkpt lat="47.32257" lon="-2.40873">
        <ele>41.400001525879</ele>
        <time>2022-07-28T07:40:53.000Z</time>
      </trkpt>
      <trkpt lat="47.3226" lon="-2.40879">
        <ele>41.799999237061</ele>
        <time>2022-07-28T07:40:54.000Z</time>
      </trkpt>
      <trkpt lat="47.32262" lon="-2.40884">
        <ele>42.200000762939</ele>
        <time>2022-07-28T07:40:55.000Z</time>
      </trkpt>
      <trkpt lat="47.32264" lon="-2.40889">
        <ele>42.599998474121</ele>
        <time>2022-07-28T07:40:56.000Z</time>
      </trkpt>
      <trkpt lat="47.32267" lon="-2.40895">
        <ele>43</ele>
        <time>2022-07-28T07:40:57.000Z</time>
      </trkpt>
      <trkpt lat="47.32281" lon="-2.40923">
        <ele>43</ele>
        <time>2022-07-28T07:41:02.000Z</time>
      </trkpt>
      <trkpt lat="47.32306" lon="-2.40965">
        <ele>43</ele>
        <time>2022-07-28T07:41:09.000Z</time>
      </trkpt>
      <trkpt lat="47.32319" lon="-2.40987">
        <ele>43</ele>
        <time>2022-07-28T07:41:13.000Z</time>
      </trkpt>
      <trkpt lat="47.32326" lon="-2.40998">
        <ele>43</ele>
        <time>2022-07-28T07:41:15.000Z</time>
      </trkpt>
      <trkpt lat="47.32334" lon="-2.41015">
        <ele>43.799999237061</ele>
        <time>2022-07-28T07:41:18.000Z</time>
      </trkpt>
      <trkpt lat="47.32338" lon="-2.41021">
        <ele>44.200000762939</ele>
        <time>2022-07-28T07:41:19.000Z</time>
      </trkpt>
      <trkpt lat="47.3234" lon="-2.41027">
        <ele>44.599998474121</ele>
        <time>2022-07-28T07:41:20.000Z</time>
      </trkpt>
      <trkpt lat="47.32343" lon="-2.41033">
        <ele>45</ele>
        <time>2022-07-28T07:41:21.000Z</time>
      </trkpt>
      <trkpt lat="47.32349" lon="-2.41045">
        <ele>45</ele>
        <time>2022-07-28T07:41:23.000Z</time>
      </trkpt>
      <trkpt lat="47.32365" lon="-2.4107">
        <ele>45</ele>
        <time>2022-07-28T07:41:28.000Z</time>
      </trkpt>
      <trkpt lat="47.32369" lon="-2.41074">
        <ele>45</ele>
        <time>2022-07-28T07:41:29.000Z</time>
      </trkpt>
      <trkpt lat="47.32372" lon="-2.41079">
        <ele>45</ele>
        <time>2022-07-28T07:41:30.000Z</time>
      </trkpt>
      <trkpt lat="47.32378" lon="-2.41097">
        <ele>45</ele>
        <time>2022-07-28T07:41:33.000Z</time>
      </trkpt>
      <trkpt lat="47.32394" lon="-2.41129">
        <ele>45</ele>
        <time>2022-07-28T07:41:39.000Z</time>
      </trkpt>
      <trkpt lat="47.32406" lon="-2.41155">
        <ele>45</ele>
        <time>2022-07-28T07:41:45.000Z</time>
      </trkpt>
      <trkpt lat="47.32419" lon="-2.4118">
        <ele>45</ele>
        <time>2022-07-28T07:41:50.000Z</time>
      </trkpt>
      <trkpt lat="47.32427" lon="-2.41195">
        <ele>45</ele>
        <time>2022-07-28T07:41:53.000Z</time>
      </trkpt>
      <trkpt lat="47.32434" lon="-2.41205">
        <ele>45</ele>
        <time>2022-07-28T07:41:55.000Z</time>
      </trkpt>
      <trkpt lat="47.32437" lon="-2.41211">
        <ele>45</ele>
        <time>2022-07-28T07:41:56.000Z</time>
      </trkpt>
      <trkpt lat="47.32454" lon="-2.41242">
        <ele>45</ele>
        <time>2022-07-28T07:42:01.000Z</time>
      </trkpt>
      <trkpt lat="47.32474" lon="-2.41282">
        <ele>45</ele>
        <time>2022-07-28T07:42:07.000Z</time>
      </trkpt>
      <trkpt lat="47.32484" lon="-2.41302">
        <ele>45</ele>
        <time>2022-07-28T07:42:10.000Z</time>
      </trkpt>
      <trkpt lat="47.32499" lon="-2.41327">
        <ele>45</ele>
        <time>2022-07-28T07:42:14.000Z</time>
      </trkpt>
      <trkpt lat="47.32519" lon="-2.41367">
        <ele>45</ele>
        <time>2022-07-28T07:42:20.000Z</time>
      </trkpt>
      <trkpt lat="47.32544" lon="-2.41417">
        <ele>45</ele>
        <time>2022-07-28T07:42:27.000Z</time>
      </trkpt>
      <trkpt lat="47.32566" lon="-2.41457">
        <ele>45</ele>
        <time>2022-07-28T07:42:34.000Z</time>
      </trkpt>
      <trkpt lat="47.32571" lon="-2.41471">
        <ele>45</ele>
        <time>2022-07-28T07:42:37.000Z</time>
      </trkpt>
      <trkpt lat="47.32573" lon="-2.4149">
        <ele>45</ele>
        <time>2022-07-28T07:42:40.000Z</time>
      </trkpt>
      <trkpt lat="47.32573" lon="-2.41496">
        <ele>45</ele>
        <time>2022-07-28T07:42:41.000Z</time>
      </trkpt>
      <trkpt lat="47.32575" lon="-2.4151">
        <ele>45</ele>
        <time>2022-07-28T07:42:43.000Z</time>
      </trkpt>
      <trkpt lat="47.32582" lon="-2.4152">
        <ele>45</ele>
        <time>2022-07-28T07:42:45.000Z</time>
      </trkpt>
      <trkpt lat="47.32595" lon="-2.41524">
        <ele>45</ele>
        <time>2022-07-28T07:42:48.000Z</time>
      </trkpt>
      <trkpt lat="47.32601" lon="-2.41525">
        <ele>45</ele>
        <time>2022-07-28T07:42:49.000Z</time>
      </trkpt>
      <trkpt lat="47.32633" lon="-2.41528">
        <ele>44.599998474121</ele>
        <time>2022-07-28T07:42:55.000Z</time>
      </trkpt>
      <trkpt lat="47.32638" lon="-2.41528">
        <ele>44.200000762939</ele>
        <time>2022-07-28T07:42:56.000Z</time>
      </trkpt>
      <trkpt lat="47.32644" lon="-2.41529">
        <ele>43.400001525879</ele>
        <time>2022-07-28T07:42:57.000Z</time>
      </trkpt>
      <trkpt lat="47.32649" lon="-2.41531">
        <ele>43</ele>
        <time>2022-07-28T07:42:58.000Z</time>
      </trkpt>
      <trkpt lat="47.32664" lon="-2.41535">
        <ele>43</ele>
        <time>2022-07-28T07:43:01.000Z</time>
      </trkpt>
      <trkpt lat="47.32694" lon="-2.41541">
        <ele>43</ele>
        <time>2022-07-28T07:43:07.000Z</time>
      </trkpt>
      <trkpt lat="47.32697" lon="-2.41541">
        <ele>42.599998474121</ele>
        <time>2022-07-28T07:43:08.000Z</time>
      </trkpt>
      <trkpt lat="47.32699" lon="-2.41544">
        <ele>42.200000762939</ele>
        <time>2022-07-28T07:43:09.000Z</time>
      </trkpt>
      <trkpt lat="47.32701" lon="-2.41547">
        <ele>41.799999237061</ele>
        <time>2022-07-28T07:43:10.000Z</time>
      </trkpt>
      <trkpt lat="47.32702" lon="-2.4155">
        <ele>41.200000762939</ele>
        <time>2022-07-28T07:43:11.000Z</time>
      </trkpt>
      <trkpt lat="47.32702" lon="-2.41553">
        <ele>40.799999237061</ele>
        <time>2022-07-28T07:43:12.000Z</time>
      </trkpt>
      <trkpt lat="47.32702" lon="-2.41559">
        <ele>40.799999237061</ele>
        <time>2022-07-28T07:43:15.000Z</time>
      </trkpt>
      <trkpt lat="47.32702" lon="-2.41562">
        <ele>40.799999237061</ele>
        <time>2022-07-28T07:43:16.000Z</time>
      </trkpt>
      <trkpt lat="47.327" lon="-2.41576">
        <ele>40.799999237061</ele>
        <time>2022-07-28T07:43:20.000Z</time>
      </trkpt>
      <trkpt lat="47.32701" lon="-2.41578">
        <ele>40.799999237061</ele>
        <time>2022-07-28T07:43:21.000Z</time>
      </trkpt>
      <trkpt lat="47.32702" lon="-2.41591">
        <ele>40.799999237061</ele>
        <time>2022-07-28T07:43:25.000Z</time>
      </trkpt>
      <trkpt lat="47.32697" lon="-2.41608">
        <ele>40.799999237061</ele>
        <time>2022-07-28T07:43:29.000Z</time>
      </trkpt>
      <trkpt lat="47.32687" lon="-2.41623">
        <ele>40.799999237061</ele>
        <time>2022-07-28T07:43:33.000Z</time>
      </trkpt>
      <trkpt lat="47.32674" lon="-2.41624">
        <ele>40.799999237061</ele>
        <time>2022-07-28T07:43:36.000Z</time>
      </trkpt>
      <trkpt lat="47.32662" lon="-2.41618">
        <ele>40.799999237061</ele>
        <time>2022-07-28T07:43:39.000Z</time>
      </trkpt>
      <trkpt lat="47.32652" lon="-2.41615">
        <ele>40.799999237061</ele>
        <time>2022-07-28T07:43:41.000Z</time>
      </trkpt>
      <trkpt lat="47.32648" lon="-2.41614">
        <ele>40.799999237061</ele>
        <time>2022-07-28T07:43:42.000Z</time>
      </trkpt>
      <trkpt lat="47.32627" lon="-2.41606">
        <ele>40.799999237061</ele>
        <time>2022-07-28T07:43:47.000Z</time>
      </trkpt>
      <trkpt lat="47.32623" lon="-2.41604">
        <ele>41.400001525879</ele>
        <time>2022-07-28T07:43:48.000Z</time>
      </trkpt>
      <trkpt lat="47.32618" lon="-2.41602">
        <ele>41.799999237061</ele>
        <time>2022-07-28T07:43:49.000Z</time>
      </trkpt>
      <trkpt lat="47.32614" lon="-2.41601">
        <ele>42.200000762939</ele>
        <time>2022-07-28T07:43:50.000Z</time>
      </trkpt>
      <trkpt lat="47.3261" lon="-2.41601">
        <ele>42.599998474121</ele>
        <time>2022-07-28T07:43:51.000Z</time>
      </trkpt>
      <trkpt lat="47.32606" lon="-2.41602">
        <ele>43</ele>
        <time>2022-07-28T07:43:52.000Z</time>
      </trkpt>
      <trkpt lat="47.32589" lon="-2.41605">
        <ele>43</ele>
        <time>2022-07-28T07:43:57.000Z</time>
      </trkpt>
      <trkpt lat="47.32578" lon="-2.41598">
        <ele>43</ele>
        <time>2022-07-28T07:44:00.000Z</time>
      </trkpt>
      <trkpt lat="47.32575" lon="-2.41594">
        <ele>43</ele>
        <time>2022-07-28T07:44:01.000Z</time>
      </trkpt>
      <trkpt lat="47.32555" lon="-2.41577">
        <ele>43</ele>
        <time>2022-07-28T07:44:06.000Z</time>
      </trkpt>
      <trkpt lat="47.32551" lon="-2.41576">
        <ele>43</ele>
        <time>2022-07-28T07:44:07.000Z</time>
      </trkpt>
      <trkpt lat="47.32537" lon="-2.41577">
        <ele>43.400001525879</ele>
        <time>2022-07-28T07:44:10.000Z</time>
      </trkpt>
      <trkpt lat="47.32533" lon="-2.41579">
        <ele>44.200000762939</ele>
        <time>2022-07-28T07:44:11.000Z</time>
      </trkpt>
      <trkpt lat="47.32528" lon="-2.4158">
        <ele>44.599998474121</ele>
        <time>2022-07-28T07:44:12.000Z</time>
      </trkpt>
      <trkpt lat="47.32524" lon="-2.41583">
        <ele>45</ele>
        <time>2022-07-28T07:44:13.000Z</time>
      </trkpt>
      <trkpt lat="47.32509" lon="-2.41588">
        <ele>45</ele>
        <time>2022-07-28T07:44:16.000Z</time>
      </trkpt>
      <trkpt lat="47.32503" lon="-2.41588">
        <ele>45</ele>
        <time>2022-07-28T07:44:17.000Z</time>
      </trkpt>
      <trkpt lat="47.32482" lon="-2.41582">
        <ele>45</ele>
        <time>2022-07-28T07:44:21.000Z</time>
      </trkpt>
      <trkpt lat="47.32477" lon="-2.41579">
        <ele>45</ele>
        <time>2022-07-28T07:44:22.000Z</time>
      </trkpt>
      <trkpt lat="47.32438" lon="-2.41566">
        <ele>45</ele>
        <time>2022-07-28T07:44:29.000Z</time>
      </trkpt>
      <trkpt lat="47.32405" lon="-2.41565">
        <ele>45</ele>
        <time>2022-07-28T07:44:35.000Z</time>
      </trkpt>
      <trkpt lat="47.32399" lon="-2.41563">
        <ele>45</ele>
        <time>2022-07-28T07:44:36.000Z</time>
      </trkpt>
      <trkpt lat="47.32383" lon="-2.41552">
        <ele>45</ele>
        <time>2022-07-28T07:44:39.000Z</time>
      </trkpt>
      <trkpt lat="47.32372" lon="-2.41547">
        <ele>45</ele>
        <time>2022-07-28T07:44:41.000Z</time>
      </trkpt>
      <trkpt lat="47.32354" lon="-2.41545">
        <ele>45</ele>
        <time>2022-07-28T07:44:44.000Z</time>
      </trkpt>
      <trkpt lat="47.32333" lon="-2.41558">
        <ele>45</ele>
        <time>2022-07-28T07:44:48.000Z</time>
      </trkpt>
      <trkpt lat="47.32319" lon="-2.41584">
        <ele>45</ele>
        <time>2022-07-28T07:44:52.000Z</time>
      </trkpt>
      <trkpt lat="47.32315" lon="-2.416">
        <ele>45</ele>
        <time>2022-07-28T07:44:54.000Z</time>
      </trkpt>
      <trkpt lat="47.32308" lon="-2.41625">
        <ele>45</ele>
        <time>2022-07-28T07:44:57.000Z</time>
      </trkpt>
      <trkpt lat="47.32299" lon="-2.41651">
        <ele>45</ele>
        <time>2022-07-28T07:45:01.000Z</time>
      </trkpt>
      <trkpt lat="47.32298" lon="-2.41659">
        <ele>45</ele>
        <time>2022-07-28T07:45:02.000Z</time>
      </trkpt>
      <trkpt lat="47.32299" lon="-2.41681">
        <ele>45</ele>
        <time>2022-07-28T07:45:05.000Z</time>
      </trkpt>
      <trkpt lat="47.32299" lon="-2.41697">
        <ele>45</ele>
        <time>2022-07-28T07:45:07.000Z</time>
      </trkpt>
      <trkpt lat="47.32298" lon="-2.41707">
        <ele>45</ele>
        <time>2022-07-28T07:45:08.000Z</time>
      </trkpt>
      <trkpt lat="47.32291" lon="-2.41732">
        <ele>45</ele>
        <time>2022-07-28T07:45:11.000Z</time>
      </trkpt>
      <trkpt lat="47.32287" lon="-2.41739">
        <ele>44.599998474121</ele>
        <time>2022-07-28T07:45:12.000Z</time>
      </trkpt>
      <trkpt lat="47.32284" lon="-2.41747">
        <ele>44.200000762939</ele>
        <time>2022-07-28T07:45:13.000Z</time>
      </trkpt>
      <trkpt lat="47.32282" lon="-2.41754">
        <ele>43.599998474121</ele>
        <time>2022-07-28T07:45:14.000Z</time>
      </trkpt>
      <trkpt lat="47.32281" lon="-2.41762">
        <ele>43.200000762939</ele>
        <time>2022-07-28T07:45:15.000Z</time>
      </trkpt>
      <trkpt lat="47.32282" lon="-2.41769">
        <ele>42.799999237061</ele>
        <time>2022-07-28T07:45:16.000Z</time>
      </trkpt>
      <trkpt lat="47.32286" lon="-2.41781">
        <ele>42.799999237061</ele>
        <time>2022-07-28T07:45:18.000Z</time>
      </trkpt>
      <trkpt lat="47.32293" lon="-2.41792">
        <ele>42.799999237061</ele>
        <time>2022-07-28T07:45:20.000Z</time>
      </trkpt>
      <trkpt lat="47.32295" lon="-2.41798">
        <ele>42.799999237061</ele>
        <time>2022-07-28T07:45:21.000Z</time>
      </trkpt>
      <trkpt lat="47.32299" lon="-2.41809">
        <ele>42.799999237061</ele>
        <time>2022-07-28T07:45:23.000Z</time>
      </trkpt>
      <trkpt lat="47.32295" lon="-2.4182">
        <ele>42.400001525879</ele>
        <time>2022-07-28T07:45:26.000Z</time>
      </trkpt>
      <trkpt lat="47.32292" lon="-2.41824">
        <ele>42</ele>
        <time>2022-07-28T07:45:27.000Z</time>
      </trkpt>
      <trkpt lat="47.32288" lon="-2.41828">
        <ele>41.599998474121</ele>
        <time>2022-07-28T07:45:28.000Z</time>
      </trkpt>
      <trkpt lat="47.32285" lon="-2.41833">
        <ele>41.200000762939</ele>
        <time>2022-07-28T07:45:29.000Z</time>
      </trkpt>
      <trkpt lat="47.32281" lon="-2.41839">
        <ele>40.799999237061</ele>
        <time>2022-07-28T07:45:30.000Z</time>
      </trkpt>
      <trkpt lat="47.32259" lon="-2.4187">
        <ele>40.799999237061</ele>
        <time>2022-07-28T07:45:36.000Z</time>
      </trkpt>
      <trkpt lat="47.32252" lon="-2.41885">
        <ele>40.799999237061</ele>
        <time>2022-07-28T07:45:40.000Z</time>
      </trkpt>
      <trkpt lat="47.32259" lon="-2.41896">
        <ele>40.799999237061</ele>
        <time>2022-07-28T07:45:43.000Z</time>
      </trkpt>
      <trkpt lat="47.32262" lon="-2.419">
        <ele>40.799999237061</ele>
        <time>2022-07-28T07:45:44.000Z</time>
      </trkpt>
      <trkpt lat="47.32274" lon="-2.41917">
        <ele>40.799999237061</ele>
        <time>2022-07-28T07:45:48.000Z</time>
      </trkpt>
      <trkpt lat="47.32292" lon="-2.41941">
        <ele>40.799999237061</ele>
        <time>2022-07-28T07:45:53.000Z</time>
      </trkpt>
      <trkpt lat="47.32296" lon="-2.41946">
        <ele>40.799999237061</ele>
        <time>2022-07-28T07:45:54.000Z</time>
      </trkpt>
      <trkpt lat="47.32318" lon="-2.41976">
        <ele>40.799999237061</ele>
        <time>2022-07-28T07:46:00.000Z</time>
      </trkpt>
      <trkpt lat="47.3233" lon="-2.41988">
        <ele>40.799999237061</ele>
        <time>2022-07-28T07:46:03.000Z</time>
      </trkpt>
      <trkpt lat="47.32347" lon="-2.42003">
        <ele>41.200000762939</ele>
        <time>2022-07-28T07:46:07.000Z</time>
      </trkpt>
      <trkpt lat="47.32351" lon="-2.42007">
        <ele>41.599998474121</ele>
        <time>2022-07-28T07:46:08.000Z</time>
      </trkpt>
      <trkpt lat="47.32355" lon="-2.42012">
        <ele>42.200000762939</ele>
        <time>2022-07-28T07:46:09.000Z</time>
      </trkpt>
      <trkpt lat="47.32359" lon="-2.42016">
        <ele>42.599998474121</ele>
        <time>2022-07-28T07:46:10.000Z</time>
      </trkpt>
      <trkpt lat="47.32363" lon="-2.4202">
        <ele>43</ele>
        <time>2022-07-28T07:46:11.000Z</time>
      </trkpt>
      <trkpt lat="47.3238" lon="-2.42038">
        <ele>43</ele>
        <time>2022-07-28T07:46:15.000Z</time>
      </trkpt>
      <trkpt lat="47.32397" lon="-2.42055">
        <ele>43</ele>
        <time>2022-07-28T07:46:19.000Z</time>
      </trkpt>
      <trkpt lat="47.32404" lon="-2.42063">
        <ele>43</ele>
        <time>2022-07-28T07:46:21.000Z</time>
      </trkpt>
      <trkpt lat="47.32408" lon="-2.42067">
        <ele>43.400001525879</ele>
        <time>2022-07-28T07:46:22.000Z</time>
      </trkpt>
      <trkpt lat="47.32412" lon="-2.42071">
        <ele>43.799999237061</ele>
        <time>2022-07-28T07:46:23.000Z</time>
      </trkpt>
      <trkpt lat="47.32415" lon="-2.42076">
        <ele>44.200000762939</ele>
        <time>2022-07-28T07:46:24.000Z</time>
      </trkpt>
      <trkpt lat="47.32418" lon="-2.4208">
        <ele>44.599998474121</ele>
        <time>2022-07-28T07:46:25.000Z</time>
      </trkpt>
      <trkpt lat="47.32421" lon="-2.42083">
        <ele>45.200000762939</ele>
        <time>2022-07-28T07:46:26.000Z</time>
      </trkpt>
      <trkpt lat="47.32425" lon="-2.42087">
        <ele>45.200000762939</ele>
        <time>2022-07-28T07:46:27.000Z</time>
      </trkpt>
      <trkpt lat="47.32439" lon="-2.42105">
        <ele>45.200000762939</ele>
        <time>2022-07-28T07:46:33.000Z</time>
      </trkpt>
      <trkpt lat="47.32443" lon="-2.42116">
        <ele>45.200000762939</ele>
        <time>2022-07-28T07:46:36.000Z</time>
      </trkpt>
      <trkpt lat="47.3244" lon="-2.42122">
        <ele>45.200000762939</ele>
        <time>2022-07-28T07:46:37.000Z</time>
      </trkpt>
      <trkpt lat="47.32431" lon="-2.42139">
        <ele>45.200000762939</ele>
        <time>2022-07-28T07:46:40.000Z</time>
      </trkpt>
      <trkpt lat="47.32424" lon="-2.42151">
        <ele>45.200000762939</ele>
        <time>2022-07-28T07:46:42.000Z</time>
      </trkpt>
      <trkpt lat="47.32416" lon="-2.42162">
        <ele>45.200000762939</ele>
        <time>2022-07-28T07:46:44.000Z</time>
      </trkpt>
      <trkpt lat="47.32399" lon="-2.42182">
        <ele>45.200000762939</ele>
        <time>2022-07-28T07:46:48.000Z</time>
      </trkpt>
      <trkpt lat="47.32374" lon="-2.42213">
        <ele>45.200000762939</ele>
        <time>2022-07-28T07:46:54.000Z</time>
      </trkpt>
      <trkpt lat="47.32348" lon="-2.42248">
        <ele>45.200000762939</ele>
        <time>2022-07-28T07:47:01.000Z</time>
      </trkpt>
      <trkpt lat="47.32325" lon="-2.42287">
        <ele>45.200000762939</ele>
        <time>2022-07-28T07:47:08.000Z</time>
      </trkpt>
      <trkpt lat="47.3232" lon="-2.42301">
        <ele>45.200000762939</ele>
        <time>2022-07-28T07:47:10.000Z</time>
      </trkpt>
      <trkpt lat="47.3232" lon="-2.42318">
        <ele>45.200000762939</ele>
        <time>2022-07-28T07:47:12.000Z</time>
      </trkpt>
      <trkpt lat="47.32324" lon="-2.42368">
        <ele>45.200000762939</ele>
        <time>2022-07-28T07:47:18.000Z</time>
      </trkpt>
      <trkpt lat="47.32326" lon="-2.42404">
        <ele>45.200000762939</ele>
        <time>2022-07-28T07:47:22.000Z</time>
      </trkpt>
      <trkpt lat="47.32321" lon="-2.4242">
        <ele>45.200000762939</ele>
        <time>2022-07-28T07:47:24.000Z</time>
      </trkpt>
      <trkpt lat="47.32312" lon="-2.42432">
        <ele>44.799999237061</ele>
        <time>2022-07-28T07:47:26.000Z</time>
      </trkpt>
      <trkpt lat="47.32309" lon="-2.42438">
        <ele>44.200000762939</ele>
        <time>2022-07-28T07:47:27.000Z</time>
      </trkpt>
      <trkpt lat="47.32305" lon="-2.42445">
        <ele>43.799999237061</ele>
        <time>2022-07-28T07:47:28.000Z</time>
      </trkpt>
      <trkpt lat="47.32302" lon="-2.42453">
        <ele>43</ele>
        <time>2022-07-28T07:47:29.000Z</time>
      </trkpt>
      <trkpt lat="47.323" lon="-2.42461">
        <ele>43</ele>
        <time>2022-07-28T07:47:30.000Z</time>
      </trkpt>
      <trkpt lat="47.32287" lon="-2.42493">
        <ele>43</ele>
        <time>2022-07-28T07:47:34.000Z</time>
      </trkpt>
      <trkpt lat="47.32279" lon="-2.42511">
        <ele>43</ele>
        <time>2022-07-28T07:47:36.000Z</time>
      </trkpt>
      <trkpt lat="47.32269" lon="-2.42528">
        <ele>42.599998474121</ele>
        <time>2022-07-28T07:47:38.000Z</time>
      </trkpt>
      <trkpt lat="47.32265" lon="-2.42538">
        <ele>42.200000762939</ele>
        <time>2022-07-28T07:47:39.000Z</time>
      </trkpt>
      <trkpt lat="47.3226" lon="-2.42549">
        <ele>41.799999237061</ele>
        <time>2022-07-28T07:47:40.000Z</time>
      </trkpt>
      <trkpt lat="47.32255" lon="-2.42559">
        <ele>41.200000762939</ele>
        <time>2022-07-28T07:47:41.000Z</time>
      </trkpt>
      <trkpt lat="47.32249" lon="-2.4257">
        <ele>40.799999237061</ele>
        <time>2022-07-28T07:47:42.000Z</time>
      </trkpt>
      <trkpt lat="47.32243" lon="-2.4258">
        <ele>40.200000762939</ele>
        <time>2022-07-28T07:47:43.000Z</time>
      </trkpt>
      <trkpt lat="47.32237" lon="-2.42591">
        <ele>39.599998474121</ele>
        <time>2022-07-28T07:47:44.000Z</time>
      </trkpt>
      <trkpt lat="47.3223" lon="-2.42601">
        <ele>39</ele>
        <time>2022-07-28T07:47:45.000Z</time>
      </trkpt>
      <trkpt lat="47.32223" lon="-2.42612">
        <ele>38.400001525879</ele>
        <time>2022-07-28T07:47:46.000Z</time>
      </trkpt>
      <trkpt lat="47.32216" lon="-2.42622">
        <ele>38</ele>
        <time>2022-07-28T07:47:47.000Z</time>
      </trkpt>
      <trkpt lat="47.32209" lon="-2.42632">
        <ele>37.400001525879</ele>
        <time>2022-07-28T07:47:48.000Z</time>
      </trkpt>
      <trkpt lat="47.32202" lon="-2.42641">
        <ele>36.799999237061</ele>
        <time>2022-07-28T07:47:49.000Z</time>
      </trkpt>
      <trkpt lat="47.32195" lon="-2.42651">
        <ele>36.400001525879</ele>
        <time>2022-07-28T07:47:50.000Z</time>
      </trkpt>
      <trkpt lat="47.32187" lon="-2.42661">
        <ele>36</ele>
        <time>2022-07-28T07:47:51.000Z</time>
      </trkpt>
      <trkpt lat="47.3218" lon="-2.42671">
        <ele>35.400001525879</ele>
        <time>2022-07-28T07:47:52.000Z</time>
      </trkpt>
      <trkpt lat="47.32173" lon="-2.42682">
        <ele>34.599998474121</ele>
        <time>2022-07-28T07:47:53.000Z</time>
      </trkpt>
      <trkpt lat="47.32165" lon="-2.42692">
        <ele>34</ele>
        <time>2022-07-28T07:47:54.000Z</time>
      </trkpt>
      <trkpt lat="47.32158" lon="-2.42703">
        <ele>33.599998474121</ele>
        <time>2022-07-28T07:47:55.000Z</time>
      </trkpt>
      <trkpt lat="47.3215" lon="-2.42713">
        <ele>33</ele>
        <time>2022-07-28T07:47:56.000Z</time>
      </trkpt>
      <trkpt lat="47.32143" lon="-2.42723">
        <ele>32.400001525879</ele>
        <time>2022-07-28T07:47:57.000Z</time>
      </trkpt>
      <trkpt lat="47.32135" lon="-2.42733">
        <ele>32</ele>
        <time>2022-07-28T07:47:58.000Z</time>
      </trkpt>
      <trkpt lat="47.3212" lon="-2.42752">
        <ele>31.60000038147</ele>
        <time>2022-07-28T07:48:00.000Z</time>
      </trkpt>
      <trkpt lat="47.32111" lon="-2.4276">
        <ele>31</ele>
        <time>2022-07-28T07:48:01.000Z</time>
      </trkpt>
      <trkpt lat="47.32102" lon="-2.42766">
        <ele>30.60000038147</ele>
        <time>2022-07-28T07:48:02.000Z</time>
      </trkpt>
      <trkpt lat="47.32093" lon="-2.42772">
        <ele>30.200000762939</ele>
        <time>2022-07-28T07:48:03.000Z</time>
      </trkpt>
      <trkpt lat="47.32083" lon="-2.42777">
        <ele>29.60000038147</ele>
        <time>2022-07-28T07:48:04.000Z</time>
      </trkpt>
      <trkpt lat="47.32064" lon="-2.42786">
        <ele>29.60000038147</ele>
        <time>2022-07-28T07:48:06.000Z</time>
      </trkpt>
      <trkpt lat="47.32055" lon="-2.42791">
        <ele>29.200000762939</ele>
        <time>2022-07-28T07:48:07.000Z</time>
      </trkpt>
      <trkpt lat="47.32048" lon="-2.42795">
        <ele>28.799999237061</ele>
        <time>2022-07-28T07:48:08.000Z</time>
      </trkpt>
      <trkpt lat="47.32042" lon="-2.42799">
        <ele>28.200000762939</ele>
        <time>2022-07-28T07:48:09.000Z</time>
      </trkpt>
      <trkpt lat="47.32037" lon="-2.42804">
        <ele>27.799999237061</ele>
        <time>2022-07-28T07:48:10.000Z</time>
      </trkpt>
      <trkpt lat="47.32032" lon="-2.42809">
        <ele>27.39999961853</ele>
        <time>2022-07-28T07:48:11.000Z</time>
      </trkpt>
      <trkpt lat="47.32022" lon="-2.42828">
        <ele>27.39999961853</ele>
        <time>2022-07-28T07:48:14.000Z</time>
      </trkpt>
      <trkpt lat="47.32018" lon="-2.42839">
        <ele>27.39999961853</ele>
        <time>2022-07-28T07:48:16.000Z</time>
      </trkpt>
      <trkpt lat="47.32012" lon="-2.42854">
        <ele>26.39999961853</ele>
        <time>2022-07-28T07:48:18.000Z</time>
      </trkpt>
      <trkpt lat="47.32009" lon="-2.42864">
        <ele>26</ele>
        <time>2022-07-28T07:48:19.000Z</time>
      </trkpt>
      <trkpt lat="47.32006" lon="-2.42873">
        <ele>25.60000038147</ele>
        <time>2022-07-28T07:48:20.000Z</time>
      </trkpt>
      <trkpt lat="47.32005" lon="-2.42882">
        <ele>25.200000762939</ele>
        <time>2022-07-28T07:48:21.000Z</time>
      </trkpt>
      <trkpt lat="47.32002" lon="-2.42909">
        <ele>25.200000762939</ele>
        <time>2022-07-28T07:48:24.000Z</time>
      </trkpt>
      <trkpt lat="47.32001" lon="-2.42926">
        <ele>25.200000762939</ele>
        <time>2022-07-28T07:48:26.000Z</time>
      </trkpt>
      <trkpt lat="47.31999" lon="-2.42949">
        <ele>25.200000762939</ele>
        <time>2022-07-28T07:48:29.000Z</time>
      </trkpt>
      <trkpt lat="47.31998" lon="-2.42971">
        <ele>25.200000762939</ele>
        <time>2022-07-28T07:48:32.000Z</time>
      </trkpt>
      <trkpt lat="47.31997" lon="-2.42986">
        <ele>25.200000762939</ele>
        <time>2022-07-28T07:48:34.000Z</time>
      </trkpt>
      <trkpt lat="47.31997" lon="-2.42994">
        <ele>25.200000762939</ele>
        <time>2022-07-28T07:48:35.000Z</time>
      </trkpt>
      <trkpt lat="47.32" lon="-2.43031">
        <ele>25.200000762939</ele>
        <time>2022-07-28T07:48:39.000Z</time>
      </trkpt>
      <trkpt lat="47.32012" lon="-2.43091">
        <ele>25.200000762939</ele>
        <time>2022-07-28T07:48:45.000Z</time>
      </trkpt>
      <trkpt lat="47.32014" lon="-2.43101">
        <ele>24.60000038147</ele>
        <time>2022-07-28T07:48:46.000Z</time>
      </trkpt>
      <trkpt lat="47.32016" lon="-2.43111">
        <ele>24.200000762939</ele>
        <time>2022-07-28T07:48:47.000Z</time>
      </trkpt>
      <trkpt lat="47.32019" lon="-2.43122">
        <ele>23.799999237061</ele>
        <time>2022-07-28T07:48:48.000Z</time>
      </trkpt>
      <trkpt lat="47.32021" lon="-2.43133">
        <ele>23.39999961853</ele>
        <time>2022-07-28T07:48:49.000Z</time>
      </trkpt>
      <trkpt lat="47.32023" lon="-2.43144">
        <ele>23</ele>
        <time>2022-07-28T07:48:50.000Z</time>
      </trkpt>
      <trkpt lat="47.32033" lon="-2.43186">
        <ele>23</ele>
        <time>2022-07-28T07:48:54.000Z</time>
      </trkpt>
      <trkpt lat="47.3204" lon="-2.43218">
        <ele>23</ele>
        <time>2022-07-28T07:48:58.000Z</time>
      </trkpt>
      <trkpt lat="47.32042" lon="-2.43236">
        <ele>23</ele>
        <time>2022-07-28T07:49:02.000Z</time>
      </trkpt>
      <trkpt lat="47.3203" lon="-2.43245">
        <ele>23</ele>
        <time>2022-07-28T07:49:05.000Z</time>
      </trkpt>
      <trkpt lat="47.32026" lon="-2.43249">
        <ele>22.39999961853</ele>
        <time>2022-07-28T07:49:06.000Z</time>
      </trkpt>
      <trkpt lat="47.32021" lon="-2.43252">
        <ele>22</ele>
        <time>2022-07-28T07:49:07.000Z</time>
      </trkpt>
      <trkpt lat="47.32016" lon="-2.43256">
        <ele>21.200000762939</ele>
        <time>2022-07-28T07:49:08.000Z</time>
      </trkpt>
      <trkpt lat="47.32011" lon="-2.4326">
        <ele>20.799999237061</ele>
        <time>2022-07-28T07:49:09.000Z</time>
      </trkpt>
      <trkpt lat="47.32006" lon="-2.43264">
        <ele>20.799999237061</ele>
        <time>2022-07-28T07:49:10.000Z</time>
      </trkpt>
      <trkpt lat="47.31984" lon="-2.43275">
        <ele>20.39999961853</ele>
        <time>2022-07-28T07:49:14.000Z</time>
      </trkpt>
      <trkpt lat="47.31981" lon="-2.43279">
        <ele>20</ele>
        <time>2022-07-28T07:49:15.000Z</time>
      </trkpt>
      <trkpt lat="47.31979" lon="-2.43286">
        <ele>19.39999961853</ele>
        <time>2022-07-28T07:49:16.000Z</time>
      </trkpt>
      <trkpt lat="47.31977" lon="-2.43294">
        <ele>19</ele>
        <time>2022-07-28T07:49:17.000Z</time>
      </trkpt>
      <trkpt lat="47.31977" lon="-2.43302">
        <ele>18.60000038147</ele>
        <time>2022-07-28T07:49:18.000Z</time>
      </trkpt>
      <trkpt lat="47.31976" lon="-2.4331">
        <ele>18.60000038147</ele>
        <time>2022-07-28T07:49:19.000Z</time>
      </trkpt>
      <trkpt lat="47.3197" lon="-2.43348">
        <ele>18.200000762939</ele>
        <time>2022-07-28T07:49:23.000Z</time>
      </trkpt>
      <trkpt lat="47.31968" lon="-2.43358">
        <ele>17.799999237061</ele>
        <time>2022-07-28T07:49:24.000Z</time>
      </trkpt>
      <trkpt lat="47.31965" lon="-2.43368">
        <ele>17.39999961853</ele>
        <time>2022-07-28T07:49:25.000Z</time>
      </trkpt>
      <trkpt lat="47.31962" lon="-2.43377">
        <ele>17</ele>
        <time>2022-07-28T07:49:26.000Z</time>
      </trkpt>
      <trkpt lat="47.3196" lon="-2.43387">
        <ele>16.60000038147</ele>
        <time>2022-07-28T07:49:27.000Z</time>
      </trkpt>
      <trkpt lat="47.31953" lon="-2.43406">
        <ele>16.60000038147</ele>
        <time>2022-07-28T07:49:29.000Z</time>
      </trkpt>
      <trkpt lat="47.3195" lon="-2.43416">
        <ele>16.200000762939</ele>
        <time>2022-07-28T07:49:30.000Z</time>
      </trkpt>
      <trkpt lat="47.31947" lon="-2.43426">
        <ele>15.800000190735</ele>
        <time>2022-07-28T07:49:31.000Z</time>
      </trkpt>
      <trkpt lat="47.31944" lon="-2.43437">
        <ele>14.800000190735</ele>
        <time>2022-07-28T07:49:32.000Z</time>
      </trkpt>
      <trkpt lat="47.3194" lon="-2.43447">
        <ele>14.39999961853</ele>
        <time>2022-07-28T07:49:33.000Z</time>
      </trkpt>
      <trkpt lat="47.31933" lon="-2.43468">
        <ele>14</ele>
        <time>2022-07-28T07:49:35.000Z</time>
      </trkpt>
      <trkpt lat="47.3193" lon="-2.43479">
        <ele>13.60000038147</ele>
        <time>2022-07-28T07:49:36.000Z</time>
      </trkpt>
      <trkpt lat="47.31928" lon="-2.43491">
        <ele>13.199999809265</ele>
        <time>2022-07-28T07:49:37.000Z</time>
      </trkpt>
      <trkpt lat="47.31927" lon="-2.43502">
        <ele>12.800000190735</ele>
        <time>2022-07-28T07:49:38.000Z</time>
      </trkpt>
      <trkpt lat="47.31926" lon="-2.43514">
        <ele>12.39999961853</ele>
        <time>2022-07-28T07:49:39.000Z</time>
      </trkpt>
      <trkpt lat="47.31926" lon="-2.43525">
        <ele>12.39999961853</ele>
        <time>2022-07-28T07:49:40.000Z</time>
      </trkpt>
      <trkpt lat="47.31928" lon="-2.43557">
        <ele>12.39999961853</ele>
        <time>2022-07-28T07:49:43.000Z</time>
      </trkpt>
      <trkpt lat="47.31927" lon="-2.43578">
        <ele>12</ele>
        <time>2022-07-28T07:49:45.000Z</time>
      </trkpt>
      <trkpt lat="47.31925" lon="-2.43588">
        <ele>11.39999961853</ele>
        <time>2022-07-28T07:49:46.000Z</time>
      </trkpt>
      <trkpt lat="47.31921" lon="-2.43597">
        <ele>11</ele>
        <time>2022-07-28T07:49:47.000Z</time>
      </trkpt>
      <trkpt lat="47.31916" lon="-2.43604">
        <ele>10.60000038147</ele>
        <time>2022-07-28T07:49:48.000Z</time>
      </trkpt>
      <trkpt lat="47.31911" lon="-2.4361">
        <ele>10.199999809265</ele>
        <time>2022-07-28T07:49:49.000Z</time>
      </trkpt>
      <trkpt lat="47.31905" lon="-2.43615">
        <ele>9.8000001907349</ele>
        <time>2022-07-28T07:49:50.000Z</time>
      </trkpt>
      <trkpt lat="47.31899" lon="-2.43619">
        <ele>9.3999996185303</ele>
        <time>2022-07-28T07:49:51.000Z</time>
      </trkpt>
      <trkpt lat="47.31894" lon="-2.43625">
        <ele>9</ele>
        <time>2022-07-28T07:49:52.000Z</time>
      </trkpt>
      <trkpt lat="47.3189" lon="-2.43632">
        <ele>8.3999996185303</ele>
        <time>2022-07-28T07:49:53.000Z</time>
      </trkpt>
      <trkpt lat="47.31887" lon="-2.4364">
        <ele>8</ele>
        <time>2022-07-28T07:49:54.000Z</time>
      </trkpt>
      <trkpt lat="47.31887" lon="-2.43655">
        <ele>7.5999999046326</ele>
        <time>2022-07-28T07:49:56.000Z</time>
      </trkpt>
      <trkpt lat="47.31889" lon="-2.43662">
        <ele>6.8000001907349</ele>
        <time>2022-07-28T07:49:57.000Z</time>
      </trkpt>
      <trkpt lat="47.31891" lon="-2.43669">
        <ele>6.4000000953674</ele>
        <time>2022-07-28T07:49:58.000Z</time>
      </trkpt>
      <trkpt lat="47.31895" lon="-2.43676">
        <ele>5.8000001907349</ele>
        <time>2022-07-28T07:49:59.000Z</time>
      </trkpt>
      <trkpt lat="47.31902" lon="-2.4369">
        <ele>5.8000001907349</ele>
        <time>2022-07-28T07:50:01.000Z</time>
      </trkpt>
      <trkpt lat="47.31905" lon="-2.43696">
        <ele>5.8000001907349</ele>
        <time>2022-07-28T07:50:02.000Z</time>
      </trkpt>
      <trkpt lat="47.31924" lon="-2.43736">
        <ele>5.8000001907349</ele>
        <time>2022-07-28T07:50:08.000Z</time>
      </trkpt>
      <trkpt lat="47.31946" lon="-2.43791">
        <ele>5.8000001907349</ele>
        <time>2022-07-28T07:50:16.000Z</time>
      </trkpt>
      <trkpt lat="47.31959" lon="-2.43816">
        <ele>5.8000001907349</ele>
        <time>2022-07-28T07:50:20.000Z</time>
      </trkpt>
      <trkpt lat="47.31965" lon="-2.43827">
        <ele>5.8000001907349</ele>
        <time>2022-07-28T07:50:22.000Z</time>
      </trkpt>
      <trkpt lat="47.31971" lon="-2.43836">
        <ele>6.1999998092651</ele>
        <time>2022-07-28T07:50:24.000Z</time>
      </trkpt>
      <trkpt lat="47.31975" lon="-2.43839">
        <ele>6.5999999046326</ele>
        <time>2022-07-28T07:50:25.000Z</time>
      </trkpt>
      <trkpt lat="47.31979" lon="-2.43841">
        <ele>7.1999998092651</ele>
        <time>2022-07-28T07:50:26.000Z</time>
      </trkpt>
      <trkpt lat="47.31983" lon="-2.43841">
        <ele>7.5999999046326</ele>
        <time>2022-07-28T07:50:27.000Z</time>
      </trkpt>
      <trkpt lat="47.31987" lon="-2.43839">
        <ele>8</ele>
        <time>2022-07-28T07:50:28.000Z</time>
      </trkpt>
      <trkpt lat="47.31996" lon="-2.4383">
        <ele>8</ele>
        <time>2022-07-28T07:50:30.000Z</time>
      </trkpt>
      <trkpt lat="47.32006" lon="-2.43819">
        <ele>8.3999996185303</ele>
        <time>2022-07-28T07:50:33.000Z</time>
      </trkpt>
      <trkpt lat="47.3201" lon="-2.43816">
        <ele>8.8000001907349</ele>
        <time>2022-07-28T07:50:34.000Z</time>
      </trkpt>
      <trkpt lat="47.32013" lon="-2.43813">
        <ele>9.1999998092651</ele>
        <time>2022-07-28T07:50:35.000Z</time>
      </trkpt>
      <trkpt lat="47.32016" lon="-2.4381">
        <ele>9.6000003814697</ele>
        <time>2022-07-28T07:50:36.000Z</time>
      </trkpt>
      <trkpt lat="47.32019" lon="-2.43807">
        <ele>10</ele>
        <time>2022-07-28T07:50:37.000Z</time>
      </trkpt>
      <trkpt lat="47.32029" lon="-2.43801">
        <ele>10.39999961853</ele>
        <time>2022-07-28T07:50:40.000Z</time>
      </trkpt>
      <trkpt lat="47.32032" lon="-2.43801">
        <ele>11</ele>
        <time>2022-07-28T07:50:41.000Z</time>
      </trkpt>
      <trkpt lat="47.32035" lon="-2.43804">
        <ele>11.39999961853</ele>
        <time>2022-07-28T07:50:42.000Z</time>
      </trkpt>
      <trkpt lat="47.32037" lon="-2.43807">
        <ele>11.800000190735</ele>
        <time>2022-07-28T07:50:43.000Z</time>
      </trkpt>
      <trkpt lat="47.3204" lon="-2.43811">
        <ele>12.39999961853</ele>
        <time>2022-07-28T07:50:44.000Z</time>
      </trkpt>
      <trkpt lat="47.32044" lon="-2.43819">
        <ele>12.39999961853</ele>
        <time>2022-07-28T07:50:46.000Z</time>
      </trkpt>
      <trkpt lat="47.32047" lon="-2.43824">
        <ele>12.800000190735</ele>
        <time>2022-07-28T07:50:47.000Z</time>
      </trkpt>
      <trkpt lat="47.32049" lon="-2.43828">
        <ele>13.199999809265</ele>
        <time>2022-07-28T07:50:48.000Z</time>
      </trkpt>
      <trkpt lat="47.32052" lon="-2.43833">
        <ele>13.60000038147</ele>
        <time>2022-07-28T07:50:49.000Z</time>
      </trkpt>
      <trkpt lat="47.32054" lon="-2.43838">
        <ele>14</ele>
        <time>2022-07-28T07:50:50.000Z</time>
      </trkpt>
      <trkpt lat="47.32057" lon="-2.43843">
        <ele>14.39999961853</ele>
        <time>2022-07-28T07:50:51.000Z</time>
      </trkpt>
      <trkpt lat="47.32067" lon="-2.43863">
        <ele>14.39999961853</ele>
        <time>2022-07-28T07:50:55.000Z</time>
      </trkpt>
      <trkpt lat="47.3207" lon="-2.43868">
        <ele>14.39999961853</ele>
        <time>2022-07-28T07:50:56.000Z</time>
      </trkpt>
      <trkpt lat="47.32086" lon="-2.43891">
        <ele>14.39999961853</ele>
        <time>2022-07-28T07:51:01.000Z</time>
      </trkpt>
      <trkpt lat="47.32102" lon="-2.43902">
        <ele>14.800000190735</ele>
        <time>2022-07-28T07:51:06.000Z</time>
      </trkpt>
      <trkpt lat="47.32105" lon="-2.43904">
        <ele>15.199999809265</ele>
        <time>2022-07-28T07:51:07.000Z</time>
      </trkpt>
      <trkpt lat="47.32109" lon="-2.43906">
        <ele>15.60000038147</ele>
        <time>2022-07-28T07:51:08.000Z</time>
      </trkpt>
      <trkpt lat="47.32113" lon="-2.43907">
        <ele>16</ele>
        <time>2022-07-28T07:51:09.000Z</time>
      </trkpt>
      <trkpt lat="47.32117" lon="-2.4391">
        <ele>16.39999961853</ele>
        <time>2022-07-28T07:51:10.000Z</time>
      </trkpt>
      <trkpt lat="47.32121" lon="-2.43912">
        <ele>16.39999961853</ele>
        <time>2022-07-28T07:51:11.000Z</time>
      </trkpt>
      <trkpt lat="47.32135" lon="-2.43928">
        <ele>17</ele>
        <time>2022-07-28T07:51:16.000Z</time>
      </trkpt>
      <trkpt lat="47.32138" lon="-2.43931">
        <ele>17.39999961853</ele>
        <time>2022-07-28T07:51:17.000Z</time>
      </trkpt>
      <trkpt lat="47.32141" lon="-2.43935">
        <ele>17.799999237061</ele>
        <time>2022-07-28T07:51:18.000Z</time>
      </trkpt>
      <trkpt lat="47.32143" lon="-2.43939">
        <ele>18.200000762939</ele>
        <time>2022-07-28T07:51:19.000Z</time>
      </trkpt>
      <trkpt lat="47.32145" lon="-2.43942">
        <ele>18.799999237061</ele>
        <time>2022-07-28T07:51:20.000Z</time>
      </trkpt>
      <trkpt lat="47.32148" lon="-2.43946">
        <ele>18.799999237061</ele>
        <time>2022-07-28T07:51:21.000Z</time>
      </trkpt>
      <trkpt lat="47.32159" lon="-2.43961">
        <ele>19.200000762939</ele>
        <time>2022-07-28T07:51:25.000Z</time>
      </trkpt>
      <trkpt lat="47.32161" lon="-2.43965">
        <ele>19.60000038147</ele>
        <time>2022-07-28T07:51:26.000Z</time>
      </trkpt>
      <trkpt lat="47.32164" lon="-2.43968">
        <ele>20</ele>
        <time>2022-07-28T07:51:27.000Z</time>
      </trkpt>
      <trkpt lat="47.32167" lon="-2.43971">
        <ele>20.39999961853</ele>
        <time>2022-07-28T07:51:28.000Z</time>
      </trkpt>
      <trkpt lat="47.32169" lon="-2.43974">
        <ele>20.799999237061</ele>
        <time>2022-07-28T07:51:29.000Z</time>
      </trkpt>
      <trkpt lat="47.32182" lon="-2.43993">
        <ele>20.799999237061</ele>
        <time>2022-07-28T07:51:34.000Z</time>
      </trkpt>
      <trkpt lat="47.3219" lon="-2.44005">
        <ele>21.200000762939</ele>
        <time>2022-07-28T07:51:37.000Z</time>
      </trkpt>
      <trkpt lat="47.32193" lon="-2.44008">
        <ele>21.60000038147</ele>
        <time>2022-07-28T07:51:38.000Z</time>
      </trkpt>
      <trkpt lat="47.32196" lon="-2.44011">
        <ele>22</ele>
        <time>2022-07-28T07:51:39.000Z</time>
      </trkpt>
      <trkpt lat="47.32199" lon="-2.44015">
        <ele>22.39999961853</ele>
        <time>2022-07-28T07:51:40.000Z</time>
      </trkpt>
      <trkpt lat="47.32202" lon="-2.44018">
        <ele>22.799999237061</ele>
        <time>2022-07-28T07:51:41.000Z</time>
      </trkpt>
      <trkpt lat="47.32218" lon="-2.44033">
        <ele>22.799999237061</ele>
        <time>2022-07-28T07:51:46.000Z</time>
      </trkpt>
      <trkpt lat="47.32239" lon="-2.44044">
        <ele>22.799999237061</ele>
        <time>2022-07-28T07:51:52.000Z</time>
      </trkpt>
      <trkpt lat="47.32247" lon="-2.44044">
        <ele>22.799999237061</ele>
        <time>2022-07-28T07:51:54.000Z</time>
      </trkpt>
      <trkpt lat="47.32266" lon="-2.44045">
        <ele>22.799999237061</ele>
        <time>2022-07-28T07:51:58.000Z</time>
      </trkpt>
      <trkpt lat="47.32274" lon="-2.44047">
        <ele>23.200000762939</ele>
        <time>2022-07-28T07:52:00.000Z</time>
      </trkpt>
      <trkpt lat="47.32277" lon="-2.44047">
        <ele>24</ele>
        <time>2022-07-28T07:52:01.000Z</time>
      </trkpt>
      <trkpt lat="47.3228" lon="-2.44048">
        <ele>24.39999961853</ele>
        <time>2022-07-28T07:52:02.000Z</time>
      </trkpt>
      <trkpt lat="47.32284" lon="-2.44049">
        <ele>24.799999237061</ele>
        <time>2022-07-28T07:52:03.000Z</time>
      </trkpt>
      <trkpt lat="47.32288" lon="-2.44051">
        <ele>24.799999237061</ele>
        <time>2022-07-28T07:52:04.000Z</time>
      </trkpt>
      <trkpt lat="47.32312" lon="-2.44061">
        <ele>24.799999237061</ele>
        <time>2022-07-28T07:52:10.000Z</time>
      </trkpt>
      <trkpt lat="47.3234" lon="-2.44069">
        <ele>25.39999961853</ele>
        <time>2022-07-28T07:52:17.000Z</time>
      </trkpt>
      <trkpt lat="47.32343" lon="-2.4407">
        <ele>25.799999237061</ele>
        <time>2022-07-28T07:52:18.000Z</time>
      </trkpt>
      <trkpt lat="47.32347" lon="-2.44071">
        <ele>26.200000762939</ele>
        <time>2022-07-28T07:52:19.000Z</time>
      </trkpt>
      <trkpt lat="47.32352" lon="-2.44071">
        <ele>26.60000038147</ele>
        <time>2022-07-28T07:52:20.000Z</time>
      </trkpt>
      <trkpt lat="47.32356" lon="-2.44071">
        <ele>27</ele>
        <time>2022-07-28T07:52:21.000Z</time>
      </trkpt>
      <trkpt lat="47.32364" lon="-2.44071">
        <ele>27</ele>
        <time>2022-07-28T07:52:23.000Z</time>
      </trkpt>
      <trkpt lat="47.32368" lon="-2.44069">
        <ele>27</ele>
        <time>2022-07-28T07:52:24.000Z</time>
      </trkpt>
      <trkpt lat="47.32392" lon="-2.44057">
        <ele>27.39999961853</ele>
        <time>2022-07-28T07:52:30.000Z</time>
      </trkpt>
      <trkpt lat="47.32395" lon="-2.44055">
        <ele>27.799999237061</ele>
        <time>2022-07-28T07:52:31.000Z</time>
      </trkpt>
      <trkpt lat="47.32399" lon="-2.44053">
        <ele>28.39999961853</ele>
        <time>2022-07-28T07:52:32.000Z</time>
      </trkpt>
      <trkpt lat="47.32403" lon="-2.44051">
        <ele>28.799999237061</ele>
        <time>2022-07-28T07:52:33.000Z</time>
      </trkpt>
      <trkpt lat="47.32406" lon="-2.44048">
        <ele>29.200000762939</ele>
        <time>2022-07-28T07:52:34.000Z</time>
      </trkpt>
      <trkpt lat="47.32417" lon="-2.44041">
        <ele>29.200000762939</ele>
        <time>2022-07-28T07:52:37.000Z</time>
      </trkpt>
      <trkpt lat="47.32435" lon="-2.44028">
        <ele>29.60000038147</ele>
        <time>2022-07-28T07:52:42.000Z</time>
      </trkpt>
      <trkpt lat="47.32438" lon="-2.44026">
        <ele>30</ele>
        <time>2022-07-28T07:52:43.000Z</time>
      </trkpt>
      <trkpt lat="47.32442" lon="-2.44023">
        <ele>30.39999961853</ele>
        <time>2022-07-28T07:52:44.000Z</time>
      </trkpt>
      <trkpt lat="47.32446" lon="-2.4402">
        <ele>30.799999237061</ele>
        <time>2022-07-28T07:52:45.000Z</time>
      </trkpt>
      <trkpt lat="47.32449" lon="-2.44017">
        <ele>31.200000762939</ele>
        <time>2022-07-28T07:52:46.000Z</time>
      </trkpt>
      <trkpt lat="47.32461" lon="-2.44009">
        <ele>31.200000762939</ele>
        <time>2022-07-28T07:52:49.000Z</time>
      </trkpt>
      <trkpt lat="47.32468" lon="-2.44004">
        <ele>31.200000762939</ele>
        <time>2022-07-28T07:52:51.000Z</time>
      </trkpt>
      <trkpt lat="47.32479" lon="-2.43996">
        <ele>31.200000762939</ele>
        <time>2022-07-28T07:52:54.000Z</time>
      </trkpt>
      <trkpt lat="47.32483" lon="-2.43994">
        <ele>31.200000762939</ele>
        <time>2022-07-28T07:52:55.000Z</time>
      </trkpt>
      <trkpt lat="47.32493" lon="-2.43986">
        <ele>31.799999237061</ele>
        <time>2022-07-28T07:52:58.000Z</time>
      </trkpt>
      <trkpt lat="47.32496" lon="-2.43984">
        <ele>32.200000762939</ele>
        <time>2022-07-28T07:52:59.000Z</time>
      </trkpt>
      <trkpt lat="47.32499" lon="-2.43983">
        <ele>32.599998474121</ele>
        <time>2022-07-28T07:53:00.000Z</time>
      </trkpt>
      <trkpt lat="47.32501" lon="-2.43983">
        <ele>33</ele>
        <time>2022-07-28T07:53:01.000Z</time>
      </trkpt>
      <trkpt lat="47.32502" lon="-2.43981">
        <ele>33.400001525879</ele>
        <time>2022-07-28T07:53:02.000Z</time>
      </trkpt>
      <trkpt lat="47.32507" lon="-2.43978">
        <ele>33.400001525879</ele>
        <time>2022-07-28T07:53:06.000Z</time>
      </trkpt>
      <trkpt lat="47.32506" lon="-2.43979">
        <ele>33.400001525879</ele>
        <time>2022-07-28T07:53:07.000Z</time>
      </trkpt>
      <trkpt lat="47.32508" lon="-2.43988">
        <ele>33.400001525879</ele>
        <time>2022-07-28T07:54:17.000Z</time>
      </trkpt>
      <trkpt lat="47.32512" lon="-2.43994">
        <ele>33.400001525879</ele>
        <time>2022-07-28T07:54:19.000Z</time>
      </trkpt>
      <trkpt lat="47.32529" lon="-2.44012">
        <ele>33.400001525879</ele>
        <time>2022-07-28T07:54:24.000Z</time>
      </trkpt>
      <trkpt lat="47.32543" lon="-2.4402">
        <ele>33.400001525879</ele>
        <time>2022-07-28T07:54:29.000Z</time>
      </trkpt>
      <trkpt lat="47.32558" lon="-2.44029">
        <ele>33.400001525879</ele>
        <time>2022-07-28T07:54:33.000Z</time>
      </trkpt>
      <trkpt lat="47.32566" lon="-2.44031">
        <ele>33.400001525879</ele>
        <time>2022-07-28T07:54:35.000Z</time>
      </trkpt>
      <trkpt lat="47.32572" lon="-2.44039">
        <ele>33.400001525879</ele>
        <time>2022-07-28T07:54:39.000Z</time>
      </trkpt>
      <trkpt lat="47.32566" lon="-2.44054">
        <ele>33.400001525879</ele>
        <time>2022-07-28T07:54:43.000Z</time>
      </trkpt>
      <trkpt lat="47.32553" lon="-2.44091">
        <ele>33.400001525879</ele>
        <time>2022-07-28T07:54:50.000Z</time>
      </trkpt>
      <trkpt lat="47.32541" lon="-2.44129">
        <ele>33.400001525879</ele>
        <time>2022-07-28T07:54:56.000Z</time>
      </trkpt>
      <trkpt lat="47.32527" lon="-2.44177">
        <ele>33.400001525879</ele>
        <time>2022-07-28T07:55:04.000Z</time>
      </trkpt>
      <trkpt lat="47.32525" lon="-2.44198">
        <ele>33.400001525879</ele>
        <time>2022-07-28T07:55:07.000Z</time>
      </trkpt>
      <trkpt lat="47.32527" lon="-2.44205">
        <ele>33.400001525879</ele>
        <time>2022-07-28T07:55:08.000Z</time>
      </trkpt>
      <trkpt lat="47.3254" lon="-2.44233">
        <ele>33.400001525879</ele>
        <time>2022-07-28T07:55:13.000Z</time>
      </trkpt>
      <trkpt lat="47.32543" lon="-2.44238">
        <ele>33.400001525879</ele>
        <time>2022-07-28T07:55:14.000Z</time>
      </trkpt>
      <trkpt lat="47.32558" lon="-2.44265">
        <ele>33.400001525879</ele>
        <time>2022-07-28T07:55:19.000Z</time>
      </trkpt>
      <trkpt lat="47.32559" lon="-2.44271">
        <ele>33.400001525879</ele>
        <time>2022-07-28T07:55:20.000Z</time>
      </trkpt>
      <trkpt lat="47.32563" lon="-2.44302">
        <ele>33.400001525879</ele>
        <time>2022-07-28T07:55:24.000Z</time>
      </trkpt>
      <trkpt lat="47.32568" lon="-2.44314">
        <ele>33.400001525879</ele>
        <time>2022-07-28T07:55:26.000Z</time>
      </trkpt>
      <trkpt lat="47.32574" lon="-2.44323">
        <ele>33.400001525879</ele>
        <time>2022-07-28T07:55:28.000Z</time>
      </trkpt>
      <trkpt lat="47.32577" lon="-2.44328">
        <ele>33.400001525879</ele>
        <time>2022-07-28T07:55:29.000Z</time>
      </trkpt>
      <trkpt lat="47.32589" lon="-2.4435">
        <ele>33.400001525879</ele>
        <time>2022-07-28T07:55:33.000Z</time>
      </trkpt>
      <trkpt lat="47.32592" lon="-2.44356">
        <ele>33.400001525879</ele>
        <time>2022-07-28T07:55:34.000Z</time>
      </trkpt>
      <trkpt lat="47.32607" lon="-2.44376">
        <ele>33.400001525879</ele>
        <time>2022-07-28T07:55:39.000Z</time>
      </trkpt>
      <trkpt lat="47.3262" lon="-2.44398">
        <ele>33.400001525879</ele>
        <time>2022-07-28T07:55:44.000Z</time>
      </trkpt>
      <trkpt lat="47.32638" lon="-2.44431">
        <ele>33.400001525879</ele>
        <time>2022-07-28T07:55:50.000Z</time>
      </trkpt>
      <trkpt lat="47.32649" lon="-2.44457">
        <ele>33.400001525879</ele>
        <time>2022-07-28T07:55:54.000Z</time>
      </trkpt>
      <trkpt lat="47.32652" lon="-2.44473">
        <ele>33.400001525879</ele>
        <time>2022-07-28T07:55:56.000Z</time>
      </trkpt>
      <trkpt lat="47.32657" lon="-2.44485">
        <ele>33.400001525879</ele>
        <time>2022-07-28T07:55:58.000Z</time>
      </trkpt>
      <trkpt lat="47.32661" lon="-2.44489">
        <ele>33.799999237061</ele>
        <time>2022-07-28T07:55:59.000Z</time>
      </trkpt>
      <trkpt lat="47.32665" lon="-2.44491">
        <ele>34.400001525879</ele>
        <time>2022-07-28T07:56:00.000Z</time>
      </trkpt>
      <trkpt lat="47.32668" lon="-2.44493">
        <ele>34.799999237061</ele>
        <time>2022-07-28T07:56:01.000Z</time>
      </trkpt>
      <trkpt lat="47.32671" lon="-2.44496">
        <ele>35.200000762939</ele>
        <time>2022-07-28T07:56:02.000Z</time>
      </trkpt>
      <trkpt lat="47.32672" lon="-2.44498">
        <ele>35.599998474121</ele>
        <time>2022-07-28T07:56:03.000Z</time>
      </trkpt>
      <trkpt lat="47.32669" lon="-2.44505">
        <ele>35.599998474121</ele>
        <time>2022-07-28T07:56:05.000Z</time>
      </trkpt>
      <trkpt lat="47.32667" lon="-2.4451">
        <ele>35.599998474121</ele>
        <time>2022-07-28T07:56:06.000Z</time>
      </trkpt>
      <trkpt lat="47.32656" lon="-2.44528">
        <ele>35.599998474121</ele>
        <time>2022-07-28T07:56:11.000Z</time>
      </trkpt>
      <trkpt lat="47.32648" lon="-2.44546">
        <ele>35.599998474121</ele>
        <time>2022-07-28T07:56:16.000Z</time>
      </trkpt>
      <trkpt lat="47.3263" lon="-2.44577">
        <ele>35.599998474121</ele>
        <time>2022-07-28T07:56:24.000Z</time>
      </trkpt>
      <trkpt lat="47.32624" lon="-2.44587">
        <ele>35.200000762939</ele>
        <time>2022-07-28T07:56:26.000Z</time>
      </trkpt>
      <trkpt lat="47.32621" lon="-2.44592">
        <ele>34.799999237061</ele>
        <time>2022-07-28T07:56:27.000Z</time>
      </trkpt>
      <trkpt lat="47.32617" lon="-2.44598">
        <ele>34.400001525879</ele>
        <time>2022-07-28T07:56:28.000Z</time>
      </trkpt>
      <trkpt lat="47.32614" lon="-2.44603">
        <ele>34</ele>
        <time>2022-07-28T07:56:29.000Z</time>
      </trkpt>
      <trkpt lat="47.32611" lon="-2.44609">
        <ele>33.599998474121</ele>
        <time>2022-07-28T07:56:30.000Z</time>
      </trkpt>
      <trkpt lat="47.32591" lon="-2.44639">
        <ele>33</ele>
        <time>2022-07-28T07:56:36.000Z</time>
      </trkpt>
      <trkpt lat="47.32587" lon="-2.44644">
        <ele>32.599998474121</ele>
        <time>2022-07-28T07:56:37.000Z</time>
      </trkpt>
      <trkpt lat="47.32583" lon="-2.44648">
        <ele>32.200000762939</ele>
        <time>2022-07-28T07:56:38.000Z</time>
      </trkpt>
      <trkpt lat="47.32579" lon="-2.44654">
        <ele>31.799999237061</ele>
        <time>2022-07-28T07:56:39.000Z</time>
      </trkpt>
      <trkpt lat="47.32575" lon="-2.44659">
        <ele>31.39999961853</ele>
        <time>2022-07-28T07:56:40.000Z</time>
      </trkpt>
      <trkpt lat="47.32571" lon="-2.44666">
        <ele>31.39999961853</ele>
        <time>2022-07-28T07:56:41.000Z</time>
      </trkpt>
      <trkpt lat="47.32567" lon="-2.44672">
        <ele>31</ele>
        <time>2022-07-28T07:56:42.000Z</time>
      </trkpt>
      <trkpt lat="47.32563" lon="-2.44678">
        <ele>30.60000038147</ele>
        <time>2022-07-28T07:56:43.000Z</time>
      </trkpt>
      <trkpt lat="47.32558" lon="-2.44684">
        <ele>30.200000762939</ele>
        <time>2022-07-28T07:56:44.000Z</time>
      </trkpt>
      <trkpt lat="47.32553" lon="-2.4469">
        <ele>29.799999237061</ele>
        <time>2022-07-28T07:56:45.000Z</time>
      </trkpt>
      <trkpt lat="47.32549" lon="-2.44696">
        <ele>29.39999961853</ele>
        <time>2022-07-28T07:56:46.000Z</time>
      </trkpt>
      <trkpt lat="47.32546" lon="-2.44703">
        <ele>29.39999961853</ele>
        <time>2022-07-28T07:56:47.000Z</time>
      </trkpt>
      <trkpt lat="47.32542" lon="-2.44709">
        <ele>29</ele>
        <time>2022-07-28T07:56:48.000Z</time>
      </trkpt>
      <trkpt lat="47.32539" lon="-2.44714">
        <ele>28.39999961853</ele>
        <time>2022-07-28T07:56:49.000Z</time>
      </trkpt>
      <trkpt lat="47.32536" lon="-2.44719">
        <ele>28</ele>
        <time>2022-07-28T07:56:50.000Z</time>
      </trkpt>
      <trkpt lat="47.32534" lon="-2.44725">
        <ele>27.60000038147</ele>
        <time>2022-07-28T07:56:51.000Z</time>
      </trkpt>
      <trkpt lat="47.32533" lon="-2.44731">
        <ele>27.200000762939</ele>
        <time>2022-07-28T07:56:52.000Z</time>
      </trkpt>
      <trkpt lat="47.32531" lon="-2.44735">
        <ele>27.200000762939</ele>
        <time>2022-07-28T07:56:53.000Z</time>
      </trkpt>
      <trkpt lat="47.32518" lon="-2.44747">
        <ele>27.200000762939</ele>
        <time>2022-07-28T07:56:56.000Z</time>
      </trkpt>
      <trkpt lat="47.32512" lon="-2.44751">
        <ele>26.200000762939</ele>
        <time>2022-07-28T07:56:57.000Z</time>
      </trkpt>
      <trkpt lat="47.32506" lon="-2.44754">
        <ele>25.799999237061</ele>
        <time>2022-07-28T07:56:58.000Z</time>
      </trkpt>
      <trkpt lat="47.325" lon="-2.44758">
        <ele>25.39999961853</ele>
        <time>2022-07-28T07:56:59.000Z</time>
      </trkpt>
      <trkpt lat="47.32494" lon="-2.44763">
        <ele>25</ele>
        <time>2022-07-28T07:57:00.000Z</time>
      </trkpt>
      <trkpt lat="47.32488" lon="-2.44767">
        <ele>24.39999961853</ele>
        <time>2022-07-28T07:57:01.000Z</time>
      </trkpt>
      <trkpt lat="47.32481" lon="-2.44771">
        <ele>24</ele>
        <time>2022-07-28T07:57:02.000Z</time>
      </trkpt>
      <trkpt lat="47.32474" lon="-2.44776">
        <ele>23.60000038147</ele>
        <time>2022-07-28T07:57:03.000Z</time>
      </trkpt>
      <trkpt lat="47.32467" lon="-2.44781">
        <ele>23.200000762939</ele>
        <time>2022-07-28T07:57:04.000Z</time>
      </trkpt>
      <trkpt lat="47.32461" lon="-2.44786">
        <ele>22.799999237061</ele>
        <time>2022-07-28T07:57:05.000Z</time>
      </trkpt>
      <trkpt lat="47.32437" lon="-2.44803">
        <ele>22.39999961853</ele>
        <time>2022-07-28T07:57:08.000Z</time>
      </trkpt>
      <trkpt lat="47.3243" lon="-2.44808">
        <ele>21.799999237061</ele>
        <time>2022-07-28T07:57:09.000Z</time>
      </trkpt>
      <trkpt lat="47.32422" lon="-2.44814">
        <ele>21.39999961853</ele>
        <time>2022-07-28T07:57:10.000Z</time>
      </trkpt>
      <trkpt lat="47.32415" lon="-2.44819">
        <ele>21</ele>
        <time>2022-07-28T07:57:11.000Z</time>
      </trkpt>
      <trkpt lat="47.32407" lon="-2.44824">
        <ele>20.60000038147</ele>
        <time>2022-07-28T07:57:12.000Z</time>
      </trkpt>
      <trkpt lat="47.324" lon="-2.44829">
        <ele>20.60000038147</ele>
        <time>2022-07-28T07:57:13.000Z</time>
      </trkpt>
      <trkpt lat="47.32392" lon="-2.44834">
        <ele>20.200000762939</ele>
        <time>2022-07-28T07:57:14.000Z</time>
      </trkpt>
      <trkpt lat="47.32385" lon="-2.44839">
        <ele>19.799999237061</ele>
        <time>2022-07-28T07:57:15.000Z</time>
      </trkpt>
      <trkpt lat="47.32378" lon="-2.44844">
        <ele>19.200000762939</ele>
        <time>2022-07-28T07:57:16.000Z</time>
      </trkpt>
      <trkpt lat="47.32371" lon="-2.4485">
        <ele>18.799999237061</ele>
        <time>2022-07-28T07:57:17.000Z</time>
      </trkpt>
      <trkpt lat="47.32365" lon="-2.44855">
        <ele>18.39999961853</ele>
        <time>2022-07-28T07:57:18.000Z</time>
      </trkpt>
      <trkpt lat="47.32348" lon="-2.44873">
        <ele>18.39999961853</ele>
        <time>2022-07-28T07:57:21.000Z</time>
      </trkpt>
      <trkpt lat="47.32338" lon="-2.44885">
        <ele>18.39999961853</ele>
        <time>2022-07-28T07:57:23.000Z</time>
      </trkpt>
      <trkpt lat="47.3231" lon="-2.44921">
        <ele>18.39999961853</ele>
        <time>2022-07-28T07:57:28.000Z</time>
      </trkpt>
      <trkpt lat="47.32305" lon="-2.44928">
        <ele>18.39999961853</ele>
        <time>2022-07-28T07:57:29.000Z</time>
      </trkpt>
      <trkpt lat="47.32282" lon="-2.44954">
        <ele>18</ele>
        <time>2022-07-28T07:57:33.000Z</time>
      </trkpt>
      <trkpt lat="47.32277" lon="-2.4496">
        <ele>17.60000038147</ele>
        <time>2022-07-28T07:57:34.000Z</time>
      </trkpt>
      <trkpt lat="47.32271" lon="-2.44965">
        <ele>17.200000762939</ele>
        <time>2022-07-28T07:57:35.000Z</time>
      </trkpt>
      <trkpt lat="47.32266" lon="-2.44972">
        <ele>16.799999237061</ele>
        <time>2022-07-28T07:57:36.000Z</time>
      </trkpt>
      <trkpt lat="47.32261" lon="-2.44978">
        <ele>16.39999961853</ele>
        <time>2022-07-28T07:57:37.000Z</time>
      </trkpt>
      <trkpt lat="47.32244" lon="-2.44997">
        <ele>15.800000190735</ele>
        <time>2022-07-28T07:57:40.000Z</time>
      </trkpt>
      <trkpt lat="47.32239" lon="-2.45003">
        <ele>15.39999961853</ele>
        <time>2022-07-28T07:57:41.000Z</time>
      </trkpt>
      <trkpt lat="47.32233" lon="-2.45009">
        <ele>14.800000190735</ele>
        <time>2022-07-28T07:57:42.000Z</time>
      </trkpt>
      <trkpt lat="47.32229" lon="-2.45014">
        <ele>14.199999809265</ele>
        <time>2022-07-28T07:57:43.000Z</time>
      </trkpt>
      <trkpt lat="47.32224" lon="-2.45019">
        <ele>13.60000038147</ele>
        <time>2022-07-28T07:57:44.000Z</time>
      </trkpt>
      <trkpt lat="47.3222" lon="-2.45023">
        <ele>13</ele>
        <time>2022-07-28T07:57:45.000Z</time>
      </trkpt>
      <trkpt lat="47.32218" lon="-2.45028">
        <ele>11.39999961853</ele>
        <time>2022-07-28T07:57:46.000Z</time>
      </trkpt>
      <trkpt lat="47.32216" lon="-2.45032">
        <ele>10.800000190735</ele>
        <time>2022-07-28T07:57:47.000Z</time>
      </trkpt>
      <trkpt lat="47.32216" lon="-2.45036">
        <ele>10</ele>
        <time>2022-07-28T07:57:48.000Z</time>
      </trkpt>
      <trkpt lat="47.32217" lon="-2.45041">
        <ele>9.1999998092651</ele>
        <time>2022-07-28T07:57:49.000Z</time>
      </trkpt>
      <trkpt lat="47.32227" lon="-2.45061">
        <ele>9.1999998092651</ele>
        <time>2022-07-28T07:57:53.000Z</time>
      </trkpt>
      <trkpt lat="47.3225" lon="-2.45113">
        <ele>9.1999998092651</ele>
        <time>2022-07-28T07:58:02.000Z</time>
      </trkpt>
      <trkpt lat="47.32256" lon="-2.45127">
        <ele>9.1999998092651</ele>
        <time>2022-07-28T07:58:06.000Z</time>
      </trkpt>
      <trkpt lat="47.32256" lon="-2.45128">
        <ele>9.1999998092651</ele>
        <time>2022-07-28T07:58:08.000Z</time>
      </trkpt>
      <trkpt lat="47.32256" lon="-2.4513">
        <ele>9.1999998092651</ele>
        <time>2022-07-28T07:58:20.000Z</time>
      </trkpt>
      <trkpt lat="47.32261" lon="-2.45144">
        <ele>9.1999998092651</ele>
        <time>2022-07-28T07:58:25.000Z</time>
      </trkpt>
      <trkpt lat="47.32262" lon="-2.45148">
        <ele>8.8000001907349</ele>
        <time>2022-07-28T07:58:26.000Z</time>
      </trkpt>
      <trkpt lat="47.32264" lon="-2.45153">
        <ele>8.3999996185303</ele>
        <time>2022-07-28T07:58:27.000Z</time>
      </trkpt>
      <trkpt lat="47.32266" lon="-2.45158">
        <ele>8</ele>
        <time>2022-07-28T07:58:28.000Z</time>
      </trkpt>
      <trkpt lat="47.32267" lon="-2.45164">
        <ele>7.5999999046326</ele>
        <time>2022-07-28T07:58:29.000Z</time>
      </trkpt>
      <trkpt lat="47.32268" lon="-2.4517">
        <ele>7.1999998092651</ele>
        <time>2022-07-28T07:58:30.000Z</time>
      </trkpt>
      <trkpt lat="47.32272" lon="-2.45183">
        <ele>7.1999998092651</ele>
        <time>2022-07-28T07:58:32.000Z</time>
      </trkpt>
      <trkpt lat="47.32275" lon="-2.45191">
        <ele>6.8000001907349</ele>
        <time>2022-07-28T07:58:33.000Z</time>
      </trkpt>
      <trkpt lat="47.32278" lon="-2.45199">
        <ele>6.4000000953674</ele>
        <time>2022-07-28T07:58:34.000Z</time>
      </trkpt>
      <trkpt lat="47.32282" lon="-2.45207">
        <ele>6</ele>
        <time>2022-07-28T07:58:35.000Z</time>
      </trkpt>
      <trkpt lat="47.32286" lon="-2.45215">
        <ele>5.1999998092651</ele>
        <time>2022-07-28T07:58:36.000Z</time>
      </trkpt>
      <trkpt lat="47.32296" lon="-2.45233">
        <ele>5.1999998092651</ele>
        <time>2022-07-28T07:58:39.000Z</time>
      </trkpt>
      <trkpt lat="47.32305" lon="-2.45255">
        <ele>5.1999998092651</ele>
        <time>2022-07-28T07:58:43.000Z</time>
      </trkpt>
      <trkpt lat="47.32307" lon="-2.4526">
        <ele>5.1999998092651</ele>
        <time>2022-07-28T07:58:44.000Z</time>
      </trkpt>
      <trkpt lat="47.32316" lon="-2.45297">
        <ele>5.1999998092651</ele>
        <time>2022-07-28T07:58:50.000Z</time>
      </trkpt>
      <trkpt lat="47.32318" lon="-2.45329">
        <ele>5.1999998092651</ele>
        <time>2022-07-28T07:58:55.000Z</time>
      </trkpt>
      <trkpt lat="47.32319" lon="-2.45361">
        <ele>5.1999998092651</ele>
        <time>2022-07-28T07:58:59.000Z</time>
      </trkpt>
      <trkpt lat="47.32322" lon="-2.45389">
        <ele>5.1999998092651</ele>
        <time>2022-07-28T07:59:03.000Z</time>
      </trkpt>
      <trkpt lat="47.3232" lon="-2.45394">
        <ele>4.8000001907349</ele>
        <time>2022-07-28T07:59:04.000Z</time>
      </trkpt>
      <trkpt lat="47.32318" lon="-2.454">
        <ele>4.4000000953674</ele>
        <time>2022-07-28T07:59:05.000Z</time>
      </trkpt>
      <trkpt lat="47.32317" lon="-2.45408">
        <ele>4</ele>
        <time>2022-07-28T07:59:06.000Z</time>
      </trkpt>
      <trkpt lat="47.32317" lon="-2.45417">
        <ele>3.5999999046326</ele>
        <time>2022-07-28T07:59:07.000Z</time>
      </trkpt>
      <trkpt lat="47.32319" lon="-2.45425">
        <ele>3.2000000476837</ele>
        <time>2022-07-28T07:59:08.000Z</time>
      </trkpt>
      <trkpt lat="47.32322" lon="-2.45433">
        <ele>3.2000000476837</ele>
        <time>2022-07-28T07:59:09.000Z</time>
      </trkpt>
      <trkpt lat="47.32329" lon="-2.45446">
        <ele>3.2000000476837</ele>
        <time>2022-07-28T07:59:11.000Z</time>
      </trkpt>
      <trkpt lat="47.32344" lon="-2.4547">
        <ele>3.2000000476837</ele>
        <time>2022-07-28T07:59:15.000Z</time>
      </trkpt>
      <trkpt lat="47.32365" lon="-2.45501">
        <ele>3.2000000476837</ele>
        <time>2022-07-28T07:59:21.000Z</time>
      </trkpt>
      <trkpt lat="47.32382" lon="-2.4553">
        <ele>3.2000000476837</ele>
        <time>2022-07-28T07:59:27.000Z</time>
      </trkpt>
      <trkpt lat="47.32396" lon="-2.45556">
        <ele>3.2000000476837</ele>
        <time>2022-07-28T07:59:34.000Z</time>
      </trkpt>
      <trkpt lat="47.3241" lon="-2.4557">
        <ele>3.2000000476837</ele>
        <time>2022-07-28T07:59:39.000Z</time>
      </trkpt>
      <trkpt lat="47.32413" lon="-2.45574">
        <ele>3.2000000476837</ele>
        <time>2022-07-28T07:59:40.000Z</time>
      </trkpt>
      <trkpt lat="47.32415" lon="-2.45586">
        <ele>3.2000000476837</ele>
        <time>2022-07-28T07:59:42.000Z</time>
      </trkpt>
      <trkpt lat="47.32416" lon="-2.456">
        <ele>3.2000000476837</ele>
        <time>2022-07-28T07:59:44.000Z</time>
      </trkpt>
      <trkpt lat="47.32421" lon="-2.45618">
        <ele>3.2000000476837</ele>
        <time>2022-07-28T07:59:47.000Z</time>
      </trkpt>
      <trkpt lat="47.32427" lon="-2.45627">
        <ele>3.2000000476837</ele>
        <time>2022-07-28T07:59:49.000Z</time>
      </trkpt>
      <trkpt lat="47.32436" lon="-2.45641">
        <ele>3.2000000476837</ele>
        <time>2022-07-28T07:59:52.000Z</time>
      </trkpt>
      <trkpt lat="47.32442" lon="-2.45652">
        <ele>3.2000000476837</ele>
        <time>2022-07-28T07:59:54.000Z</time>
      </trkpt>
      <trkpt lat="47.32455" lon="-2.4567">
        <ele>3.2000000476837</ele>
        <time>2022-07-28T07:59:57.000Z</time>
      </trkpt>
      <trkpt lat="47.32486" lon="-2.45719">
        <ele>3.2000000476837</ele>
        <time>2022-07-28T08:00:04.000Z</time>
      </trkpt>
      <trkpt lat="47.32515" lon="-2.45771">
        <ele>3.2000000476837</ele>
        <time>2022-07-28T08:00:11.000Z</time>
      </trkpt>
      <trkpt lat="47.32526" lon="-2.45792">
        <ele>3.2000000476837</ele>
        <time>2022-07-28T08:00:14.000Z</time>
      </trkpt>
      <trkpt lat="47.32538" lon="-2.45809">
        <ele>3.2000000476837</ele>
        <time>2022-07-28T08:00:17.000Z</time>
      </trkpt>
      <trkpt lat="47.32559" lon="-2.45839">
        <ele>3.2000000476837</ele>
        <time>2022-07-28T08:00:23.000Z</time>
      </trkpt>
      <trkpt lat="47.32562" lon="-2.45845">
        <ele>3.2000000476837</ele>
        <time>2022-07-28T08:00:24.000Z</time>
      </trkpt>
      <trkpt lat="47.32587" lon="-2.45884">
        <ele>3.2000000476837</ele>
        <time>2022-07-28T08:00:31.000Z</time>
      </trkpt>
      <trkpt lat="47.3261" lon="-2.45913">
        <ele>3.2000000476837</ele>
        <time>2022-07-28T08:00:37.000Z</time>
      </trkpt>
      <trkpt lat="47.32633" lon="-2.45951">
        <ele>3.2000000476837</ele>
        <time>2022-07-28T08:00:44.000Z</time>
      </trkpt>
      <trkpt lat="47.32641" lon="-2.45961">
        <ele>3.2000000476837</ele>
        <time>2022-07-28T08:00:46.000Z</time>
      </trkpt>
      <trkpt lat="47.32654" lon="-2.45973">
        <ele>3.2000000476837</ele>
        <time>2022-07-28T08:00:49.000Z</time>
      </trkpt>
      <trkpt lat="47.32667" lon="-2.45984">
        <ele>3.2000000476837</ele>
        <time>2022-07-28T08:00:52.000Z</time>
      </trkpt>
      <trkpt lat="47.32674" lon="-2.45991">
        <ele>3.2000000476837</ele>
        <time>2022-07-28T08:00:54.000Z</time>
      </trkpt>
      <trkpt lat="47.32684" lon="-2.46003">
        <ele>3.2000000476837</ele>
        <time>2022-07-28T08:00:57.000Z</time>
      </trkpt>
      <trkpt lat="47.32697" lon="-2.46021">
        <ele>3.2000000476837</ele>
        <time>2022-07-28T08:01:01.000Z</time>
      </trkpt>
      <trkpt lat="47.32708" lon="-2.46032">
        <ele>3.2000000476837</ele>
        <time>2022-07-28T08:01:04.000Z</time>
      </trkpt>
      <trkpt lat="47.32715" lon="-2.46039">
        <ele>3.2000000476837</ele>
        <time>2022-07-28T08:01:06.000Z</time>
      </trkpt>
      <trkpt lat="47.32718" lon="-2.46041">
        <ele>3.5999999046326</ele>
        <time>2022-07-28T08:01:07.000Z</time>
      </trkpt>
      <trkpt lat="47.32722" lon="-2.46044">
        <ele>4</ele>
        <time>2022-07-28T08:01:08.000Z</time>
      </trkpt>
      <trkpt lat="47.32724" lon="-2.46048">
        <ele>4.4000000953674</ele>
        <time>2022-07-28T08:01:09.000Z</time>
      </trkpt>
      <trkpt lat="47.32727" lon="-2.46051">
        <ele>4.8000001907349</ele>
        <time>2022-07-28T08:01:10.000Z</time>
      </trkpt>
      <trkpt lat="47.32729" lon="-2.46053">
        <ele>5.1999998092651</ele>
        <time>2022-07-28T08:01:11.000Z</time>
      </trkpt>
      <trkpt lat="47.3273" lon="-2.46056">
        <ele>5.1999998092651</ele>
        <time>2022-07-28T08:01:12.000Z</time>
      </trkpt>
      <trkpt lat="47.32738" lon="-2.46064">
        <ele>5.1999998092651</ele>
        <time>2022-07-28T08:01:15.000Z</time>
      </trkpt>
      <trkpt lat="47.32755" lon="-2.46089">
        <ele>5.1999998092651</ele>
        <time>2022-07-28T08:01:21.000Z</time>
      </trkpt>
      <trkpt lat="47.32765" lon="-2.46116">
        <ele>5.5999999046326</ele>
        <time>2022-07-28T08:01:27.000Z</time>
      </trkpt>
      <trkpt lat="47.32766" lon="-2.46119">
        <ele>6</ele>
        <time>2022-07-28T08:01:28.000Z</time>
      </trkpt>
      <trkpt lat="47.32768" lon="-2.46123">
        <ele>7</ele>
        <time>2022-07-28T08:01:29.000Z</time>
      </trkpt>
      <trkpt lat="47.3277" lon="-2.46127">
        <ele>7.4000000953674</ele>
        <time>2022-07-28T08:01:30.000Z</time>
      </trkpt>
      <trkpt lat="47.32775" lon="-2.46137">
        <ele>7.4000000953674</ele>
        <time>2022-07-28T08:01:33.000Z</time>
      </trkpt>
      <trkpt lat="47.32783" lon="-2.46153">
        <ele>7.4000000953674</ele>
        <time>2022-07-28T08:01:40.000Z</time>
      </trkpt>
      <trkpt lat="47.32784" lon="-2.46155">
        <ele>7.8000001907349</ele>
        <time>2022-07-28T08:01:41.000Z</time>
      </trkpt>
      <trkpt lat="47.32785" lon="-2.46157">
        <ele>8.1999998092651</ele>
        <time>2022-07-28T08:01:42.000Z</time>
      </trkpt>
      <trkpt lat="47.32787" lon="-2.4616">
        <ele>8.6000003814697</ele>
        <time>2022-07-28T08:01:43.000Z</time>
      </trkpt>
      <trkpt lat="47.32789" lon="-2.46161">
        <ele>9</ele>
        <time>2022-07-28T08:01:44.000Z</time>
      </trkpt>
      <trkpt lat="47.3279" lon="-2.46162">
        <ele>9.3999996185303</ele>
        <time>2022-07-28T08:01:45.000Z</time>
      </trkpt>
      <trkpt lat="47.32792" lon="-2.46164">
        <ele>9.3999996185303</ele>
        <time>2022-07-28T08:01:46.000Z</time>
      </trkpt>
      <trkpt lat="47.32808" lon="-2.46183">
        <ele>9.3999996185303</ele>
        <time>2022-07-28T08:01:54.000Z</time>
      </trkpt>
      <trkpt lat="47.32824" lon="-2.46189">
        <ele>9.3999996185303</ele>
        <time>2022-07-28T08:02:01.000Z</time>
      </trkpt>
      <trkpt lat="47.32833" lon="-2.46186">
        <ele>9.3999996185303</ele>
        <time>2022-07-28T08:02:06.000Z</time>
      </trkpt>
      <trkpt lat="47.32837" lon="-2.46183">
        <ele>9.8000001907349</ele>
        <time>2022-07-28T08:02:08.000Z</time>
      </trkpt>
      <trkpt lat="47.32839" lon="-2.46182">
        <ele>10.199999809265</ele>
        <time>2022-07-28T08:02:09.000Z</time>
      </trkpt>
      <trkpt lat="47.3284" lon="-2.46181">
        <ele>10.60000038147</ele>
        <time>2022-07-28T08:02:10.000Z</time>
      </trkpt>
      <trkpt lat="47.32842" lon="-2.4618">
        <ele>11</ele>
        <time>2022-07-28T08:02:11.000Z</time>
      </trkpt>
      <trkpt lat="47.32844" lon="-2.46179">
        <ele>11.39999961853</ele>
        <time>2022-07-28T08:02:12.000Z</time>
      </trkpt>
      <trkpt lat="47.32847" lon="-2.46177">
        <ele>11.39999961853</ele>
        <time>2022-07-28T08:02:14.000Z</time>
      </trkpt>
      <trkpt lat="47.32856" lon="-2.46173">
        <ele>11.800000190735</ele>
        <time>2022-07-28T08:02:19.000Z</time>
      </trkpt>
      <trkpt lat="47.32858" lon="-2.46172">
        <ele>12.39999961853</ele>
        <time>2022-07-28T08:02:20.000Z</time>
      </trkpt>
      <trkpt lat="47.3286" lon="-2.46171">
        <ele>12.800000190735</ele>
        <time>2022-07-28T08:02:21.000Z</time>
      </trkpt>
      <trkpt lat="47.32861" lon="-2.4617">
        <ele>13.199999809265</ele>
        <time>2022-07-28T08:02:22.000Z</time>
      </trkpt>
      <trkpt lat="47.32863" lon="-2.46169">
        <ele>13.60000038147</ele>
        <time>2022-07-28T08:02:23.000Z</time>
      </trkpt>
      <trkpt lat="47.32869" lon="-2.46166">
        <ele>13.60000038147</ele>
        <time>2022-07-28T08:02:26.000Z</time>
      </trkpt>
      <trkpt lat="47.32878" lon="-2.46161">
        <ele>14</ele>
        <time>2022-07-28T08:02:31.000Z</time>
      </trkpt>
      <trkpt lat="47.32879" lon="-2.4616">
        <ele>14.39999961853</ele>
        <time>2022-07-28T08:02:32.000Z</time>
      </trkpt>
      <trkpt lat="47.32881" lon="-2.46159">
        <ele>14.800000190735</ele>
        <time>2022-07-28T08:02:33.000Z</time>
      </trkpt>
      <trkpt lat="47.32882" lon="-2.46158">
        <ele>15.199999809265</ele>
        <time>2022-07-28T08:02:34.000Z</time>
      </trkpt>
      <trkpt lat="47.32884" lon="-2.46157">
        <ele>15.60000038147</ele>
        <time>2022-07-28T08:02:35.000Z</time>
      </trkpt>
      <trkpt lat="47.3289" lon="-2.46153">
        <ele>15.60000038147</ele>
        <time>2022-07-28T08:02:39.000Z</time>
      </trkpt>
      <trkpt lat="47.329" lon="-2.46153">
        <ele>15.60000038147</ele>
        <time>2022-07-28T08:02:46.000Z</time>
      </trkpt>
      <trkpt lat="47.32909" lon="-2.46169">
        <ele>15.60000038147</ele>
        <time>2022-07-28T08:02:53.000Z</time>
      </trkpt>
      <trkpt lat="47.32917" lon="-2.46196">
        <ele>15.60000038147</ele>
        <time>2022-07-28T08:03:00.000Z</time>
      </trkpt>
      <trkpt lat="47.32926" lon="-2.46221">
        <ele>15.60000038147</ele>
        <time>2022-07-28T08:03:06.000Z</time>
      </trkpt>
      <trkpt lat="47.32928" lon="-2.46222">
        <ele>15.60000038147</ele>
        <time>2022-07-28T08:03:07.000Z</time>
      </trkpt>
      <trkpt lat="47.32934" lon="-2.46219">
        <ele>15.60000038147</ele>
        <time>2022-07-28T08:03:10.000Z</time>
      </trkpt>
      <trkpt lat="47.32934" lon="-2.46211">
        <ele>15.60000038147</ele>
        <time>2022-07-28T08:03:14.000Z</time>
      </trkpt>
      <trkpt lat="47.32934" lon="-2.46209">
        <ele>15.60000038147</ele>
        <time>2022-07-28T08:03:16.000Z</time>
      </trkpt>
      <trkpt lat="47.32934" lon="-2.46209">
        <ele>15.60000038147</ele>
        <time>2022-07-28T08:03:26.000Z</time>
      </trkpt>
      <trkpt lat="47.32932" lon="-2.46209">
        <ele>15.60000038147</ele>
        <time>2022-07-28T08:03:27.000Z</time>
      </trkpt>
      <trkpt lat="47.32926" lon="-2.46218">
        <ele>15.60000038147</ele>
        <time>2022-07-28T08:03:32.000Z</time>
      </trkpt>
      <trkpt lat="47.32926" lon="-2.46218">
        <ele>15.60000038147</ele>
        <time>2022-07-28T08:03:34.000Z</time>
      </trkpt>
      <trkpt lat="47.32925" lon="-2.4622">
        <ele>15.60000038147</ele>
        <time>2022-07-28T08:03:39.000Z</time>
      </trkpt>
      <trkpt lat="47.32927" lon="-2.46236">
        <ele>15.60000038147</ele>
        <time>2022-07-28T08:03:44.000Z</time>
      </trkpt>
      <trkpt lat="47.32933" lon="-2.46262">
        <ele>15.60000038147</ele>
        <time>2022-07-28T08:03:50.000Z</time>
      </trkpt>
      <trkpt lat="47.32941" lon="-2.4629">
        <ele>15.60000038147</ele>
        <time>2022-07-28T08:03:57.000Z</time>
      </trkpt>
      <trkpt lat="47.3295" lon="-2.4632">
        <ele>15.60000038147</ele>
        <time>2022-07-28T08:04:03.000Z</time>
      </trkpt>
      <trkpt lat="47.32952" lon="-2.46327">
        <ele>15.60000038147</ele>
        <time>2022-07-28T08:04:04.000Z</time>
      </trkpt>
      <trkpt lat="47.32959" lon="-2.46359">
        <ele>15.199999809265</ele>
        <time>2022-07-28T08:04:08.000Z</time>
      </trkpt>
      <trkpt lat="47.32961" lon="-2.46367">
        <ele>14.60000038147</ele>
        <time>2022-07-28T08:04:09.000Z</time>
      </trkpt>
      <trkpt lat="47.32963" lon="-2.46375">
        <ele>14.199999809265</ele>
        <time>2022-07-28T08:04:10.000Z</time>
      </trkpt>
      <trkpt lat="47.32964" lon="-2.46383">
        <ele>13.800000190735</ele>
        <time>2022-07-28T08:04:11.000Z</time>
      </trkpt>
      <trkpt lat="47.32964" lon="-2.46392">
        <ele>13.199999809265</ele>
        <time>2022-07-28T08:04:12.000Z</time>
      </trkpt>
      <trkpt lat="47.32964" lon="-2.46401">
        <ele>12.800000190735</ele>
        <time>2022-07-28T08:04:13.000Z</time>
      </trkpt>
      <trkpt lat="47.32964" lon="-2.46411">
        <ele>12.199999809265</ele>
        <time>2022-07-28T08:04:14.000Z</time>
      </trkpt>
      <trkpt lat="47.32963" lon="-2.46421">
        <ele>11.800000190735</ele>
        <time>2022-07-28T08:04:15.000Z</time>
      </trkpt>
      <trkpt lat="47.32963" lon="-2.46432">
        <ele>11.199999809265</ele>
        <time>2022-07-28T08:04:16.000Z</time>
      </trkpt>
      <trkpt lat="47.32963" lon="-2.46444">
        <ele>10.60000038147</ele>
        <time>2022-07-28T08:04:17.000Z</time>
      </trkpt>
      <trkpt lat="47.32962" lon="-2.46455">
        <ele>10</ele>
        <time>2022-07-28T08:04:18.000Z</time>
      </trkpt>
      <trkpt lat="47.32961" lon="-2.46467">
        <ele>9.6000003814697</ele>
        <time>2022-07-28T08:04:19.000Z</time>
      </trkpt>
      <trkpt lat="47.32961" lon="-2.4648">
        <ele>8.8000001907349</ele>
        <time>2022-07-28T08:04:20.000Z</time>
      </trkpt>
      <trkpt lat="47.32961" lon="-2.46493">
        <ele>8.1999998092651</ele>
        <time>2022-07-28T08:04:21.000Z</time>
      </trkpt>
      <trkpt lat="47.3296" lon="-2.46506">
        <ele>7</ele>
        <time>2022-07-28T08:04:22.000Z</time>
      </trkpt>
      <trkpt lat="47.32959" lon="-2.46518">
        <ele>6.4000000953674</ele>
        <time>2022-07-28T08:04:23.000Z</time>
      </trkpt>
      <trkpt lat="47.32958" lon="-2.46531">
        <ele>5.8000001907349</ele>
        <time>2022-07-28T08:04:24.000Z</time>
      </trkpt>
      <trkpt lat="47.32958" lon="-2.46541">
        <ele>5.1999998092651</ele>
        <time>2022-07-28T08:04:25.000Z</time>
      </trkpt>
      <trkpt lat="47.32958" lon="-2.46551">
        <ele>4.4000000953674</ele>
        <time>2022-07-28T08:04:26.000Z</time>
      </trkpt>
      <trkpt lat="47.3296" lon="-2.46558">
        <ele>3.7999999523163</ele>
        <time>2022-07-28T08:04:27.000Z</time>
      </trkpt>
      <trkpt lat="47.3297" lon="-2.46565">
        <ele>3.7999999523163</ele>
        <time>2022-07-28T08:04:30.000Z</time>
      </trkpt>
      <trkpt lat="47.32979" lon="-2.46559">
        <ele>3.7999999523163</ele>
        <time>2022-07-28T08:04:33.000Z</time>
      </trkpt>
      <trkpt lat="47.32985" lon="-2.46556">
        <ele>3.7999999523163</ele>
        <time>2022-07-28T08:04:35.000Z</time>
      </trkpt>
      <trkpt lat="47.32996" lon="-2.46549">
        <ele>4.4000000953674</ele>
        <time>2022-07-28T08:04:39.000Z</time>
      </trkpt>
      <trkpt lat="47.33" lon="-2.46546">
        <ele>4.8000001907349</ele>
        <time>2022-07-28T08:04:40.000Z</time>
      </trkpt>
      <trkpt lat="47.33003" lon="-2.46544">
        <ele>5.4000000953674</ele>
        <time>2022-07-28T08:04:41.000Z</time>
      </trkpt>
      <trkpt lat="47.33006" lon="-2.46542">
        <ele>5.8000001907349</ele>
        <time>2022-07-28T08:04:42.000Z</time>
      </trkpt>
      <trkpt lat="47.33009" lon="-2.4654">
        <ele>6.1999998092651</ele>
        <time>2022-07-28T08:04:43.000Z</time>
      </trkpt>
      <trkpt lat="47.33017" lon="-2.46536">
        <ele>6.1999998092651</ele>
        <time>2022-07-28T08:04:46.000Z</time>
      </trkpt>
      <trkpt lat="47.33025" lon="-2.46536">
        <ele>6.5999999046326</ele>
        <time>2022-07-28T08:04:49.000Z</time>
      </trkpt>
      <trkpt lat="47.33028" lon="-2.46537">
        <ele>7</ele>
        <time>2022-07-28T08:04:50.000Z</time>
      </trkpt>
      <trkpt lat="47.33032" lon="-2.46538">
        <ele>7.5999999046326</ele>
        <time>2022-07-28T08:04:51.000Z</time>
      </trkpt>
      <trkpt lat="47.33035" lon="-2.46538">
        <ele>8</ele>
        <time>2022-07-28T08:04:52.000Z</time>
      </trkpt>
      <trkpt lat="47.33039" lon="-2.46537">
        <ele>8.3999996185303</ele>
        <time>2022-07-28T08:04:53.000Z</time>
      </trkpt>
      <trkpt lat="47.33051" lon="-2.46534">
        <ele>8.3999996185303</ele>
        <time>2022-07-28T08:04:56.000Z</time>
      </trkpt>
      <trkpt lat="47.3307" lon="-2.46526">
        <ele>8.8000001907349</ele>
        <time>2022-07-28T08:05:02.000Z</time>
      </trkpt>
      <trkpt lat="47.33072" lon="-2.46525">
        <ele>9.1999998092651</ele>
        <time>2022-07-28T08:05:03.000Z</time>
      </trkpt>
      <trkpt lat="47.33074" lon="-2.46525">
        <ele>9.6000003814697</ele>
        <time>2022-07-28T08:05:04.000Z</time>
      </trkpt>
      <trkpt lat="47.33076" lon="-2.46525">
        <ele>10</ele>
        <time>2022-07-28T08:05:05.000Z</time>
      </trkpt>
      <trkpt lat="47.33077" lon="-2.46526">
        <ele>10.39999961853</ele>
        <time>2022-07-28T08:05:06.000Z</time>
      </trkpt>
      <trkpt lat="47.33078" lon="-2.46527">
        <ele>10.39999961853</ele>
        <time>2022-07-28T08:05:07.000Z</time>
      </trkpt>
      <trkpt lat="47.33078" lon="-2.46528">
        <ele>10.39999961853</ele>
        <time>2022-07-28T08:05:09.000Z</time>
      </trkpt>
      <trkpt lat="47.33082" lon="-2.46522">
        <ele>10.39999961853</ele>
        <time>2022-07-28T08:08:05.000Z</time>
      </trkpt>
      <trkpt lat="47.33084" lon="-2.46521">
        <ele>10.39999961853</ele>
        <time>2022-07-28T08:08:06.000Z</time>
      </trkpt>
      <trkpt lat="47.33093" lon="-2.46515">
        <ele>10.800000190735</ele>
        <time>2022-07-28T08:08:09.000Z</time>
      </trkpt>
      <trkpt lat="47.33097" lon="-2.46512">
        <ele>11.199999809265</ele>
        <time>2022-07-28T08:08:10.000Z</time>
      </trkpt>
      <trkpt lat="47.331" lon="-2.4651">
        <ele>11.60000038147</ele>
        <time>2022-07-28T08:08:11.000Z</time>
      </trkpt>
      <trkpt lat="47.33104" lon="-2.46507">
        <ele>12</ele>
        <time>2022-07-28T08:08:12.000Z</time>
      </trkpt>
      <trkpt lat="47.33108" lon="-2.46505">
        <ele>12.39999961853</ele>
        <time>2022-07-28T08:08:13.000Z</time>
      </trkpt>
      <trkpt lat="47.33114" lon="-2.46501">
        <ele>12.800000190735</ele>
        <time>2022-07-28T08:08:15.000Z</time>
      </trkpt>
      <trkpt lat="47.33118" lon="-2.465">
        <ele>13.199999809265</ele>
        <time>2022-07-28T08:08:16.000Z</time>
      </trkpt>
      <trkpt lat="47.33121" lon="-2.46499">
        <ele>13.800000190735</ele>
        <time>2022-07-28T08:08:17.000Z</time>
      </trkpt>
      <trkpt lat="47.33125" lon="-2.46497">
        <ele>14.199999809265</ele>
        <time>2022-07-28T08:08:18.000Z</time>
      </trkpt>
      <trkpt lat="47.33129" lon="-2.46496">
        <ele>14.60000038147</ele>
        <time>2022-07-28T08:08:19.000Z</time>
      </trkpt>
      <trkpt lat="47.33144" lon="-2.46493">
        <ele>14.60000038147</ele>
        <time>2022-07-28T08:08:23.000Z</time>
      </trkpt>
      <trkpt lat="47.33152" lon="-2.46492">
        <ele>14.60000038147</ele>
        <time>2022-07-28T08:08:25.000Z</time>
      </trkpt>
      <trkpt lat="47.33156" lon="-2.46491">
        <ele>15</ele>
        <time>2022-07-28T08:08:26.000Z</time>
      </trkpt>
      <trkpt lat="47.3316" lon="-2.4649">
        <ele>15.39999961853</ele>
        <time>2022-07-28T08:08:27.000Z</time>
      </trkpt>
      <trkpt lat="47.33163" lon="-2.46488">
        <ele>15.800000190735</ele>
        <time>2022-07-28T08:08:28.000Z</time>
      </trkpt>
      <trkpt lat="47.33167" lon="-2.46486">
        <ele>16.60000038147</ele>
        <time>2022-07-28T08:08:29.000Z</time>
      </trkpt>
      <trkpt lat="47.33183" lon="-2.46477">
        <ele>17</ele>
        <time>2022-07-28T08:08:34.000Z</time>
      </trkpt>
      <trkpt lat="47.33186" lon="-2.46476">
        <ele>17.39999961853</ele>
        <time>2022-07-28T08:08:35.000Z</time>
      </trkpt>
      <trkpt lat="47.33189" lon="-2.46475">
        <ele>18</ele>
        <time>2022-07-28T08:08:36.000Z</time>
      </trkpt>
      <trkpt lat="47.33192" lon="-2.46474">
        <ele>18.39999961853</ele>
        <time>2022-07-28T08:08:37.000Z</time>
      </trkpt>
      <trkpt lat="47.33195" lon="-2.46473">
        <ele>18.799999237061</ele>
        <time>2022-07-28T08:08:38.000Z</time>
      </trkpt>
      <trkpt lat="47.33203" lon="-2.46472">
        <ele>19.200000762939</ele>
        <time>2022-07-28T08:08:41.000Z</time>
      </trkpt>
      <trkpt lat="47.33206" lon="-2.46473">
        <ele>19.60000038147</ele>
        <time>2022-07-28T08:08:42.000Z</time>
      </trkpt>
      <trkpt lat="47.33209" lon="-2.46473">
        <ele>20</ele>
        <time>2022-07-28T08:08:43.000Z</time>
      </trkpt>
      <trkpt lat="47.33212" lon="-2.46471">
        <ele>20.39999961853</ele>
        <time>2022-07-28T08:08:44.000Z</time>
      </trkpt>
      <trkpt lat="47.33214" lon="-2.4647">
        <ele>20.799999237061</ele>
        <time>2022-07-28T08:08:45.000Z</time>
      </trkpt>
      <trkpt lat="47.33219" lon="-2.46468">
        <ele>20.799999237061</ele>
        <time>2022-07-28T08:08:47.000Z</time>
      </trkpt>
      <trkpt lat="47.33222" lon="-2.46466">
        <ele>21.200000762939</ele>
        <time>2022-07-28T08:08:48.000Z</time>
      </trkpt>
      <trkpt lat="47.33224" lon="-2.46464">
        <ele>21.799999237061</ele>
        <time>2022-07-28T08:08:49.000Z</time>
      </trkpt>
      <trkpt lat="47.33226" lon="-2.4646">
        <ele>22.200000762939</ele>
        <time>2022-07-28T08:08:50.000Z</time>
      </trkpt>
      <trkpt lat="47.33228" lon="-2.46456">
        <ele>22.60000038147</ele>
        <time>2022-07-28T08:08:51.000Z</time>
      </trkpt>
      <trkpt lat="47.3323" lon="-2.46453">
        <ele>23.200000762939</ele>
        <time>2022-07-28T08:08:52.000Z</time>
      </trkpt>
      <trkpt lat="47.33242" lon="-2.46435">
        <ele>23.200000762939</ele>
        <time>2022-07-28T08:08:57.000Z</time>
      </trkpt>
      <trkpt lat="47.33244" lon="-2.46432">
        <ele>23.60000038147</ele>
        <time>2022-07-28T08:08:58.000Z</time>
      </trkpt>
      <trkpt lat="47.33247" lon="-2.46431">
        <ele>24</ele>
        <time>2022-07-28T08:08:59.000Z</time>
      </trkpt>
      <trkpt lat="47.3325" lon="-2.4643">
        <ele>24.39999961853</ele>
        <time>2022-07-28T08:09:00.000Z</time>
      </trkpt>
      <trkpt lat="47.33254" lon="-2.4643">
        <ele>24.799999237061</ele>
        <time>2022-07-28T08:09:01.000Z</time>
      </trkpt>
      <trkpt lat="47.33257" lon="-2.46429">
        <ele>25.200000762939</ele>
        <time>2022-07-28T08:09:02.000Z</time>
      </trkpt>
      <trkpt lat="47.33271" lon="-2.46432">
        <ele>25.200000762939</ele>
        <time>2022-07-28T08:09:07.000Z</time>
      </trkpt>
      <trkpt lat="47.33277" lon="-2.46441">
        <ele>25.200000762939</ele>
        <time>2022-07-28T08:09:12.000Z</time>
      </trkpt>
      <trkpt lat="47.33279" lon="-2.46445">
        <ele>25.200000762939</ele>
        <time>2022-07-28T08:09:15.000Z</time>
      </trkpt>
      <trkpt lat="47.33279" lon="-2.46447">
        <ele>25.200000762939</ele>
        <time>2022-07-28T08:09:29.000Z</time>
      </trkpt>
      <trkpt lat="47.3328" lon="-2.46449">
        <ele>25.200000762939</ele>
        <time>2022-07-28T08:09:30.000Z</time>
      </trkpt>
      <trkpt lat="47.33283" lon="-2.46459">
        <ele>25.200000762939</ele>
        <time>2022-07-28T08:09:35.000Z</time>
      </trkpt>
      <trkpt lat="47.33283" lon="-2.46472">
        <ele>25.200000762939</ele>
        <time>2022-07-28T08:09:41.000Z</time>
      </trkpt>
      <trkpt lat="47.33284" lon="-2.46475">
        <ele>25.200000762939</ele>
        <time>2022-07-28T08:09:42.000Z</time>
      </trkpt>
      <trkpt lat="47.33287" lon="-2.46493">
        <ele>25.200000762939</ele>
        <time>2022-07-28T08:09:46.000Z</time>
      </trkpt>
      <trkpt lat="47.3329" lon="-2.4653">
        <ele>25.200000762939</ele>
        <time>2022-07-28T08:09:51.000Z</time>
      </trkpt>
      <trkpt lat="47.33298" lon="-2.46581">
        <ele>25.200000762939</ele>
        <time>2022-07-28T08:09:57.000Z</time>
      </trkpt>
      <trkpt lat="47.333" lon="-2.46588">
        <ele>25.200000762939</ele>
        <time>2022-07-28T08:09:58.000Z</time>
      </trkpt>
      <trkpt lat="47.3331" lon="-2.46604">
        <ele>24.799999237061</ele>
        <time>2022-07-28T08:10:01.000Z</time>
      </trkpt>
      <trkpt lat="47.33314" lon="-2.46608">
        <ele>24.39999961853</ele>
        <time>2022-07-28T08:10:02.000Z</time>
      </trkpt>
      <trkpt lat="47.33317" lon="-2.46612">
        <ele>24</ele>
        <time>2022-07-28T08:10:03.000Z</time>
      </trkpt>
      <trkpt lat="47.3332" lon="-2.46616">
        <ele>23.39999961853</ele>
        <time>2022-07-28T08:10:04.000Z</time>
      </trkpt>
      <trkpt lat="47.33323" lon="-2.4662">
        <ele>23</ele>
        <time>2022-07-28T08:10:05.000Z</time>
      </trkpt>
      <trkpt lat="47.33328" lon="-2.4663">
        <ele>23</ele>
        <time>2022-07-28T08:10:07.000Z</time>
      </trkpt>
      <trkpt lat="47.33329" lon="-2.46635">
        <ele>23</ele>
        <time>2022-07-28T08:10:08.000Z</time>
      </trkpt>
      <trkpt lat="47.33327" lon="-2.46659">
        <ele>23</ele>
        <time>2022-07-28T08:10:12.000Z</time>
      </trkpt>
      <trkpt lat="47.33322" lon="-2.46666">
        <ele>23</ele>
        <time>2022-07-28T08:10:15.000Z</time>
      </trkpt>
      <trkpt lat="47.33321" lon="-2.46657">
        <ele>23</ele>
        <time>2022-07-28T08:10:19.000Z</time>
      </trkpt>
      <trkpt lat="47.33325" lon="-2.46657">
        <ele>23</ele>
        <time>2022-07-28T08:10:22.000Z</time>
      </trkpt>
      <trkpt lat="47.33332" lon="-2.46656">
        <ele>23</ele>
        <time>2022-07-28T08:10:26.000Z</time>
      </trkpt>
      <trkpt lat="47.33345" lon="-2.46651">
        <ele>23</ele>
        <time>2022-07-28T08:10:31.000Z</time>
      </trkpt>
      <trkpt lat="47.33365" lon="-2.46643">
        <ele>23</ele>
        <time>2022-07-28T08:10:37.000Z</time>
      </trkpt>
      <trkpt lat="47.33378" lon="-2.46632">
        <ele>23</ele>
        <time>2022-07-28T08:10:42.000Z</time>
      </trkpt>
      <trkpt lat="47.33391" lon="-2.46618">
        <ele>23</ele>
        <time>2022-07-28T08:10:47.000Z</time>
      </trkpt>
      <trkpt lat="47.334" lon="-2.46609">
        <ele>23.39999961853</ele>
        <time>2022-07-28T08:10:51.000Z</time>
      </trkpt>
      <trkpt lat="47.33402" lon="-2.46607">
        <ele>24</ele>
        <time>2022-07-28T08:10:52.000Z</time>
      </trkpt>
      <trkpt lat="47.33405" lon="-2.46605">
        <ele>24.39999961853</ele>
        <time>2022-07-28T08:10:53.000Z</time>
      </trkpt>
      <trkpt lat="47.33407" lon="-2.46603">
        <ele>24.799999237061</ele>
        <time>2022-07-28T08:10:54.000Z</time>
      </trkpt>
      <trkpt lat="47.33408" lon="-2.46601">
        <ele>25.200000762939</ele>
        <time>2022-07-28T08:10:55.000Z</time>
      </trkpt>
      <trkpt lat="47.33414" lon="-2.46595">
        <ele>25.200000762939</ele>
        <time>2022-07-28T08:10:58.000Z</time>
      </trkpt>
      <trkpt lat="47.33416" lon="-2.46593">
        <ele>25.60000038147</ele>
        <time>2022-07-28T08:10:59.000Z</time>
      </trkpt>
      <trkpt lat="47.33418" lon="-2.46591">
        <ele>26</ele>
        <time>2022-07-28T08:11:00.000Z</time>
      </trkpt>
      <trkpt lat="47.3342" lon="-2.4659">
        <ele>26.39999961853</ele>
        <time>2022-07-28T08:11:01.000Z</time>
      </trkpt>
      <trkpt lat="47.33423" lon="-2.46589">
        <ele>26.799999237061</ele>
        <time>2022-07-28T08:11:02.000Z</time>
      </trkpt>
      <trkpt lat="47.33426" lon="-2.46587">
        <ele>27.200000762939</ele>
        <time>2022-07-28T08:11:03.000Z</time>
      </trkpt>
      <trkpt lat="47.33441" lon="-2.46576">
        <ele>27.60000038147</ele>
        <time>2022-07-28T08:11:08.000Z</time>
      </trkpt>
      <trkpt lat="47.33443" lon="-2.46574">
        <ele>28</ele>
        <time>2022-07-28T08:11:09.000Z</time>
      </trkpt>
      <trkpt lat="47.33446" lon="-2.46572">
        <ele>28.39999961853</ele>
        <time>2022-07-28T08:11:10.000Z</time>
      </trkpt>
      <trkpt lat="47.33448" lon="-2.4657">
        <ele>28.799999237061</ele>
        <time>2022-07-28T08:11:11.000Z</time>
      </trkpt>
      <trkpt lat="47.33451" lon="-2.46566">
        <ele>29.200000762939</ele>
        <time>2022-07-28T08:11:12.000Z</time>
      </trkpt>
      <trkpt lat="47.33464" lon="-2.46552">
        <ele>29.200000762939</ele>
        <time>2022-07-28T08:11:17.000Z</time>
      </trkpt>
      <trkpt lat="47.33466" lon="-2.46549">
        <ele>29.799999237061</ele>
        <time>2022-07-28T08:11:18.000Z</time>
      </trkpt>
      <trkpt lat="47.33468" lon="-2.46548">
        <ele>30.200000762939</ele>
        <time>2022-07-28T08:11:19.000Z</time>
      </trkpt>
      <trkpt lat="47.33471" lon="-2.46545">
        <ele>30.60000038147</ele>
        <time>2022-07-28T08:11:20.000Z</time>
      </trkpt>
      <trkpt lat="47.33473" lon="-2.46543">
        <ele>31</ele>
        <time>2022-07-28T08:11:21.000Z</time>
      </trkpt>
      <trkpt lat="47.33475" lon="-2.46541">
        <ele>31.60000038147</ele>
        <time>2022-07-28T08:11:22.000Z</time>
      </trkpt>
      <trkpt lat="47.33477" lon="-2.46538">
        <ele>31.60000038147</ele>
        <time>2022-07-28T08:11:23.000Z</time>
      </trkpt>
      <trkpt lat="47.33494" lon="-2.46518">
        <ele>31.60000038147</ele>
        <time>2022-07-28T08:11:30.000Z</time>
      </trkpt>
      <trkpt lat="47.33505" lon="-2.46503">
        <ele>32</ele>
        <time>2022-07-28T08:11:36.000Z</time>
      </trkpt>
      <trkpt lat="47.33507" lon="-2.46501">
        <ele>32.400001525879</ele>
        <time>2022-07-28T08:11:37.000Z</time>
      </trkpt>
      <trkpt lat="47.33509" lon="-2.465">
        <ele>32.799999237061</ele>
        <time>2022-07-28T08:11:38.000Z</time>
      </trkpt>
      <trkpt lat="47.33512" lon="-2.46497">
        <ele>33.200000762939</ele>
        <time>2022-07-28T08:11:39.000Z</time>
      </trkpt>
      <trkpt lat="47.33514" lon="-2.46494">
        <ele>33.599998474121</ele>
        <time>2022-07-28T08:11:40.000Z</time>
      </trkpt>
      <trkpt lat="47.33517" lon="-2.46491">
        <ele>33.599998474121</ele>
        <time>2022-07-28T08:11:41.000Z</time>
      </trkpt>
      <trkpt lat="47.33522" lon="-2.46489">
        <ele>34</ele>
        <time>2022-07-28T08:11:43.000Z</time>
      </trkpt>
      <trkpt lat="47.33524" lon="-2.46489">
        <ele>34.400001525879</ele>
        <time>2022-07-28T08:11:44.000Z</time>
      </trkpt>
      <trkpt lat="47.33527" lon="-2.4649">
        <ele>34.799999237061</ele>
        <time>2022-07-28T08:11:45.000Z</time>
      </trkpt>
      <trkpt lat="47.33529" lon="-2.4649">
        <ele>35.200000762939</ele>
        <time>2022-07-28T08:11:46.000Z</time>
      </trkpt>
      <trkpt lat="47.33531" lon="-2.46491">
        <ele>35.599998474121</ele>
        <time>2022-07-28T08:11:47.000Z</time>
      </trkpt>
      <trkpt lat="47.33537" lon="-2.46493">
        <ele>35.599998474121</ele>
        <time>2022-07-28T08:11:50.000Z</time>
      </trkpt>
      <trkpt lat="47.33538" lon="-2.46494">
        <ele>35.599998474121</ele>
        <time>2022-07-28T08:11:51.000Z</time>
      </trkpt>
      <trkpt lat="47.33543" lon="-2.46511">
        <ele>35.599998474121</ele>
        <time>2022-07-28T08:11:54.000Z</time>
      </trkpt>
      <trkpt lat="47.33546" lon="-2.46532">
        <ele>35.599998474121</ele>
        <time>2022-07-28T08:11:57.000Z</time>
      </trkpt>
      <trkpt lat="47.3355" lon="-2.46553">
        <ele>35.599998474121</ele>
        <time>2022-07-28T08:12:00.000Z</time>
      </trkpt>
      <trkpt lat="47.33551" lon="-2.4656">
        <ele>35.200000762939</ele>
        <time>2022-07-28T08:12:01.000Z</time>
      </trkpt>
      <trkpt lat="47.33552" lon="-2.46567">
        <ele>34.799999237061</ele>
        <time>2022-07-28T08:12:02.000Z</time>
      </trkpt>
      <trkpt lat="47.33554" lon="-2.46573">
        <ele>34.200000762939</ele>
        <time>2022-07-28T08:12:03.000Z</time>
      </trkpt>
      <trkpt lat="47.33555" lon="-2.46578">
        <ele>33.799999237061</ele>
        <time>2022-07-28T08:12:04.000Z</time>
      </trkpt>
      <trkpt lat="47.33557" lon="-2.46582">
        <ele>33.400001525879</ele>
        <time>2022-07-28T08:12:05.000Z</time>
      </trkpt>
      <trkpt lat="47.33559" lon="-2.46585">
        <ele>33.400001525879</ele>
        <time>2022-07-28T08:12:06.000Z</time>
      </trkpt>
      <trkpt lat="47.33561" lon="-2.46587">
        <ele>33.400001525879</ele>
        <time>2022-07-28T08:12:07.000Z</time>
      </trkpt>
      <trkpt lat="47.33567" lon="-2.46593">
        <ele>33.400001525879</ele>
        <time>2022-07-28T08:12:10.000Z</time>
      </trkpt>
      <trkpt lat="47.33576" lon="-2.46611">
        <ele>33.400001525879</ele>
        <time>2022-07-28T08:12:14.000Z</time>
      </trkpt>
      <trkpt lat="47.3359" lon="-2.46651">
        <ele>33.400001525879</ele>
        <time>2022-07-28T08:12:21.000Z</time>
      </trkpt>
      <trkpt lat="47.3361" lon="-2.46702">
        <ele>33.400001525879</ele>
        <time>2022-07-28T08:12:29.000Z</time>
      </trkpt>
      <trkpt lat="47.33615" lon="-2.46714">
        <ele>33.400001525879</ele>
        <time>2022-07-28T08:12:31.000Z</time>
      </trkpt>
      <trkpt lat="47.33621" lon="-2.46732">
        <ele>33.400001525879</ele>
        <time>2022-07-28T08:12:34.000Z</time>
      </trkpt>
      <trkpt lat="47.33622" lon="-2.46737">
        <ele>33.400001525879</ele>
        <time>2022-07-28T08:12:35.000Z</time>
      </trkpt>
      <trkpt lat="47.33628" lon="-2.4676">
        <ele>33.400001525879</ele>
        <time>2022-07-28T08:12:39.000Z</time>
      </trkpt>
      <trkpt lat="47.33631" lon="-2.46766">
        <ele>33.400001525879</ele>
        <time>2022-07-28T08:12:40.000Z</time>
      </trkpt>
      <trkpt lat="47.33651" lon="-2.46799">
        <ele>33.400001525879</ele>
        <time>2022-07-28T08:12:46.000Z</time>
      </trkpt>
      <trkpt lat="47.33658" lon="-2.46809">
        <ele>33.400001525879</ele>
        <time>2022-07-28T08:12:48.000Z</time>
      </trkpt>
      <trkpt lat="47.33666" lon="-2.46813">
        <ele>33.400001525879</ele>
        <time>2022-07-28T08:12:50.000Z</time>
      </trkpt>
      <trkpt lat="47.33679" lon="-2.46815">
        <ele>33.400001525879</ele>
        <time>2022-07-28T08:12:53.000Z</time>
      </trkpt>
      <trkpt lat="47.33683" lon="-2.46816">
        <ele>33.400001525879</ele>
        <time>2022-07-28T08:12:54.000Z</time>
      </trkpt>
      <trkpt lat="47.33687" lon="-2.46819">
        <ele>33.400001525879</ele>
        <time>2022-07-28T08:12:55.000Z</time>
      </trkpt>
      <trkpt lat="47.33696" lon="-2.46833">
        <ele>33.400001525879</ele>
        <time>2022-07-28T08:12:58.000Z</time>
      </trkpt>
      <trkpt lat="47.33698" lon="-2.46838">
        <ele>33.400001525879</ele>
        <time>2022-07-28T08:12:59.000Z</time>
      </trkpt>
      <trkpt lat="47.33709" lon="-2.46859">
        <ele>33.400001525879</ele>
        <time>2022-07-28T08:13:03.000Z</time>
      </trkpt>
      <trkpt lat="47.33715" lon="-2.46867">
        <ele>33.400001525879</ele>
        <time>2022-07-28T08:13:05.000Z</time>
      </trkpt>
      <trkpt lat="47.33728" lon="-2.46882">
        <ele>33.400001525879</ele>
        <time>2022-07-28T08:13:09.000Z</time>
      </trkpt>
      <trkpt lat="47.33731" lon="-2.46886">
        <ele>33.400001525879</ele>
        <time>2022-07-28T08:13:10.000Z</time>
      </trkpt>
      <trkpt lat="47.33745" lon="-2.46909">
        <ele>33.400001525879</ele>
        <time>2022-07-28T08:13:16.000Z</time>
      </trkpt>
      <trkpt lat="47.33748" lon="-2.4692">
        <ele>33.799999237061</ele>
        <time>2022-07-28T08:13:19.000Z</time>
      </trkpt>
      <trkpt lat="47.33748" lon="-2.46924">
        <ele>34.200000762939</ele>
        <time>2022-07-28T08:13:20.000Z</time>
      </trkpt>
      <trkpt lat="47.33748" lon="-2.4693">
        <ele>34.599998474121</ele>
        <time>2022-07-28T08:13:21.000Z</time>
      </trkpt>
      <trkpt lat="47.33747" lon="-2.46936">
        <ele>35</ele>
        <time>2022-07-28T08:13:22.000Z</time>
      </trkpt>
      <trkpt lat="47.33747" lon="-2.46942">
        <ele>35.599998474121</ele>
        <time>2022-07-28T08:13:23.000Z</time>
      </trkpt>
      <trkpt lat="47.33747" lon="-2.46957">
        <ele>35.599998474121</ele>
        <time>2022-07-28T08:13:25.000Z</time>
      </trkpt>
      <trkpt lat="47.33747" lon="-2.46975">
        <ele>35</ele>
        <time>2022-07-28T08:13:27.000Z</time>
      </trkpt>
      <trkpt lat="47.33747" lon="-2.46984">
        <ele>34.599998474121</ele>
        <time>2022-07-28T08:13:28.000Z</time>
      </trkpt>
      <trkpt lat="47.33747" lon="-2.46993">
        <ele>34</ele>
        <time>2022-07-28T08:13:29.000Z</time>
      </trkpt>
      <trkpt lat="47.33748" lon="-2.47002">
        <ele>33.599998474121</ele>
        <time>2022-07-28T08:13:30.000Z</time>
      </trkpt>
      <trkpt lat="47.33749" lon="-2.47012">
        <ele>33.200000762939</ele>
        <time>2022-07-28T08:13:31.000Z</time>
      </trkpt>
      <trkpt lat="47.33752" lon="-2.47053">
        <ele>32.599998474121</ele>
        <time>2022-07-28T08:13:35.000Z</time>
      </trkpt>
      <trkpt lat="47.33753" lon="-2.47063">
        <ele>32.200000762939</ele>
        <time>2022-07-28T08:13:36.000Z</time>
      </trkpt>
      <trkpt lat="47.33754" lon="-2.47074">
        <ele>31.799999237061</ele>
        <time>2022-07-28T08:13:37.000Z</time>
      </trkpt>
      <trkpt lat="47.33755" lon="-2.47084">
        <ele>31.39999961853</ele>
        <time>2022-07-28T08:13:38.000Z</time>
      </trkpt>
      <trkpt lat="47.33757" lon="-2.47094">
        <ele>31</ele>
        <time>2022-07-28T08:13:39.000Z</time>
      </trkpt>
      <trkpt lat="47.33759" lon="-2.47104">
        <ele>31</ele>
        <time>2022-07-28T08:13:40.000Z</time>
      </trkpt>
      <trkpt lat="47.33774" lon="-2.4717">
        <ele>31</ele>
        <time>2022-07-28T08:13:47.000Z</time>
      </trkpt>
      <trkpt lat="47.3378" lon="-2.47227">
        <ele>30.60000038147</ele>
        <time>2022-07-28T08:13:53.000Z</time>
      </trkpt>
      <trkpt lat="47.3378" lon="-2.47236">
        <ele>30.200000762939</ele>
        <time>2022-07-28T08:13:54.000Z</time>
      </trkpt>
      <trkpt lat="47.33781" lon="-2.47245">
        <ele>29.799999237061</ele>
        <time>2022-07-28T08:13:55.000Z</time>
      </trkpt>
      <trkpt lat="47.33781" lon="-2.47255">
        <ele>29.39999961853</ele>
        <time>2022-07-28T08:13:56.000Z</time>
      </trkpt>
      <trkpt lat="47.33782" lon="-2.47264">
        <ele>29</ele>
        <time>2022-07-28T08:13:57.000Z</time>
      </trkpt>
      <trkpt lat="47.33784" lon="-2.47321">
        <ele>29</ele>
        <time>2022-07-28T08:14:03.000Z</time>
      </trkpt>
      <trkpt lat="47.33783" lon="-2.47331">
        <ele>28.60000038147</ele>
        <time>2022-07-28T08:14:04.000Z</time>
      </trkpt>
      <trkpt lat="47.33782" lon="-2.47342">
        <ele>28.200000762939</ele>
        <time>2022-07-28T08:14:05.000Z</time>
      </trkpt>
      <trkpt lat="47.33781" lon="-2.47352">
        <ele>27.799999237061</ele>
        <time>2022-07-28T08:14:06.000Z</time>
      </trkpt>
      <trkpt lat="47.3378" lon="-2.47362">
        <ele>27.200000762939</ele>
        <time>2022-07-28T08:14:07.000Z</time>
      </trkpt>
      <trkpt lat="47.33778" lon="-2.47372">
        <ele>26.799999237061</ele>
        <time>2022-07-28T08:14:08.000Z</time>
      </trkpt>
      <trkpt lat="47.33777" lon="-2.47382">
        <ele>26.799999237061</ele>
        <time>2022-07-28T08:14:09.000Z</time>
      </trkpt>
      <trkpt lat="47.33776" lon="-2.47393">
        <ele>26.39999961853</ele>
        <time>2022-07-28T08:14:10.000Z</time>
      </trkpt>
      <trkpt lat="47.33775" lon="-2.47403">
        <ele>26</ele>
        <time>2022-07-28T08:14:11.000Z</time>
      </trkpt>
      <trkpt lat="47.33774" lon="-2.47414">
        <ele>25.60000038147</ele>
        <time>2022-07-28T08:14:12.000Z</time>
      </trkpt>
      <trkpt lat="47.33773" lon="-2.47424">
        <ele>25.200000762939</ele>
        <time>2022-07-28T08:14:13.000Z</time>
      </trkpt>
      <trkpt lat="47.33771" lon="-2.47435">
        <ele>24.799999237061</ele>
        <time>2022-07-28T08:14:14.000Z</time>
      </trkpt>
      <trkpt lat="47.33769" lon="-2.47446">
        <ele>24.39999961853</ele>
        <time>2022-07-28T08:14:15.000Z</time>
      </trkpt>
      <trkpt lat="47.33767" lon="-2.47456">
        <ele>24</ele>
        <time>2022-07-28T08:14:16.000Z</time>
      </trkpt>
      <trkpt lat="47.33765" lon="-2.47466">
        <ele>23.60000038147</ele>
        <time>2022-07-28T08:14:17.000Z</time>
      </trkpt>
      <trkpt lat="47.33763" lon="-2.47477">
        <ele>23.200000762939</ele>
        <time>2022-07-28T08:14:18.000Z</time>
      </trkpt>
      <trkpt lat="47.33761" lon="-2.47487">
        <ele>22.60000038147</ele>
        <time>2022-07-28T08:14:19.000Z</time>
      </trkpt>
      <trkpt lat="47.33753" lon="-2.47519">
        <ele>22.200000762939</ele>
        <time>2022-07-28T08:14:22.000Z</time>
      </trkpt>
      <trkpt lat="47.3375" lon="-2.4753">
        <ele>21.799999237061</ele>
        <time>2022-07-28T08:14:23.000Z</time>
      </trkpt>
      <trkpt lat="47.33747" lon="-2.47541">
        <ele>21.39999961853</ele>
        <time>2022-07-28T08:14:24.000Z</time>
      </trkpt>
      <trkpt lat="47.33745" lon="-2.47552">
        <ele>21</ele>
        <time>2022-07-28T08:14:25.000Z</time>
      </trkpt>
      <trkpt lat="47.33743" lon="-2.47564">
        <ele>20.60000038147</ele>
        <time>2022-07-28T08:14:26.000Z</time>
      </trkpt>
      <trkpt lat="47.33737" lon="-2.47595">
        <ele>20.200000762939</ele>
        <time>2022-07-28T08:14:29.000Z</time>
      </trkpt>
      <trkpt lat="47.33736" lon="-2.47602">
        <ele>19.799999237061</ele>
        <time>2022-07-28T08:14:30.000Z</time>
      </trkpt>
      <trkpt lat="47.33735" lon="-2.4761">
        <ele>19.39999961853</ele>
        <time>2022-07-28T08:14:31.000Z</time>
      </trkpt>
      <trkpt lat="47.33736" lon="-2.47617">
        <ele>19</ele>
        <time>2022-07-28T08:14:32.000Z</time>
      </trkpt>
      <trkpt lat="47.33738" lon="-2.47624">
        <ele>18.60000038147</ele>
        <time>2022-07-28T08:14:33.000Z</time>
      </trkpt>
      <trkpt lat="47.3375" lon="-2.47638">
        <ele>18.60000038147</ele>
        <time>2022-07-28T08:14:36.000Z</time>
      </trkpt>
      <trkpt lat="47.33762" lon="-2.47659">
        <ele>18.60000038147</ele>
        <time>2022-07-28T08:14:40.000Z</time>
      </trkpt>
      <trkpt lat="47.33765" lon="-2.47666">
        <ele>18.60000038147</ele>
        <time>2022-07-28T08:14:41.000Z</time>
      </trkpt>
      <trkpt lat="47.33768" lon="-2.47672">
        <ele>18.60000038147</ele>
        <time>2022-07-28T08:14:42.000Z</time>
      </trkpt>
      <trkpt lat="47.33777" lon="-2.47681">
        <ele>18.200000762939</ele>
        <time>2022-07-28T08:14:44.000Z</time>
      </trkpt>
      <trkpt lat="47.33781" lon="-2.47687">
        <ele>17.799999237061</ele>
        <time>2022-07-28T08:14:45.000Z</time>
      </trkpt>
      <trkpt lat="47.33786" lon="-2.47692">
        <ele>17.39999961853</ele>
        <time>2022-07-28T08:14:46.000Z</time>
      </trkpt>
      <trkpt lat="47.33791" lon="-2.47698">
        <ele>16.799999237061</ele>
        <time>2022-07-28T08:14:47.000Z</time>
      </trkpt>
      <trkpt lat="47.33796" lon="-2.47704">
        <ele>16.39999961853</ele>
        <time>2022-07-28T08:14:48.000Z</time>
      </trkpt>
      <trkpt lat="47.33804" lon="-2.47715">
        <ele>16.39999961853</ele>
        <time>2022-07-28T08:14:50.000Z</time>
      </trkpt>
      <trkpt lat="47.33834" lon="-2.47749">
        <ele>16</ele>
        <time>2022-07-28T08:14:56.000Z</time>
      </trkpt>
      <trkpt lat="47.33838" lon="-2.47755">
        <ele>15.60000038147</ele>
        <time>2022-07-28T08:14:57.000Z</time>
      </trkpt>
      <trkpt lat="47.33843" lon="-2.47761">
        <ele>15.199999809265</ele>
        <time>2022-07-28T08:14:58.000Z</time>
      </trkpt>
      <trkpt lat="47.33847" lon="-2.47765">
        <ele>14.800000190735</ele>
        <time>2022-07-28T08:14:59.000Z</time>
      </trkpt>
      <trkpt lat="47.3385" lon="-2.4777">
        <ele>14.39999961853</ele>
        <time>2022-07-28T08:15:00.000Z</time>
      </trkpt>
      <trkpt lat="47.33852" lon="-2.47775">
        <ele>14.39999961853</ele>
        <time>2022-07-28T08:15:01.000Z</time>
      </trkpt>
      <trkpt lat="47.33849" lon="-2.47795">
        <ele>14.39999961853</ele>
        <time>2022-07-28T08:15:04.000Z</time>
      </trkpt>
      <trkpt lat="47.33834" lon="-2.47823">
        <ele>14.39999961853</ele>
        <time>2022-07-28T08:15:08.000Z</time>
      </trkpt>
      <trkpt lat="47.33825" lon="-2.47838">
        <ele>14.39999961853</ele>
        <time>2022-07-28T08:15:10.000Z</time>
      </trkpt>
      <trkpt lat="47.33813" lon="-2.4786">
        <ele>14.39999961853</ele>
        <time>2022-07-28T08:15:13.000Z</time>
      </trkpt>
      <trkpt lat="47.338" lon="-2.47882">
        <ele>13.800000190735</ele>
        <time>2022-07-28T08:15:16.000Z</time>
      </trkpt>
      <trkpt lat="47.33795" lon="-2.4789">
        <ele>13.39999961853</ele>
        <time>2022-07-28T08:15:17.000Z</time>
      </trkpt>
      <trkpt lat="47.33791" lon="-2.47897">
        <ele>13</ele>
        <time>2022-07-28T08:15:18.000Z</time>
      </trkpt>
      <trkpt lat="47.33788" lon="-2.47905">
        <ele>12.60000038147</ele>
        <time>2022-07-28T08:15:19.000Z</time>
      </trkpt>
      <trkpt lat="47.33784" lon="-2.47912">
        <ele>12.199999809265</ele>
        <time>2022-07-28T08:15:20.000Z</time>
      </trkpt>
      <trkpt lat="47.33781" lon="-2.4792">
        <ele>12.199999809265</ele>
        <time>2022-07-28T08:15:21.000Z</time>
      </trkpt>
      <trkpt lat="47.33776" lon="-2.47927">
        <ele>12.199999809265</ele>
        <time>2022-07-28T08:15:22.000Z</time>
      </trkpt>
      <trkpt lat="47.33766" lon="-2.47952">
        <ele>12.199999809265</ele>
        <time>2022-07-28T08:15:25.000Z</time>
      </trkpt>
      <trkpt lat="47.33763" lon="-2.47961">
        <ele>11.800000190735</ele>
        <time>2022-07-28T08:15:26.000Z</time>
      </trkpt>
      <trkpt lat="47.33761" lon="-2.4797">
        <ele>11.39999961853</ele>
        <time>2022-07-28T08:15:27.000Z</time>
      </trkpt>
      <trkpt lat="47.33758" lon="-2.47979">
        <ele>10.39999961853</ele>
        <time>2022-07-28T08:15:28.000Z</time>
      </trkpt>
      <trkpt lat="47.33756" lon="-2.47988">
        <ele>10</ele>
        <time>2022-07-28T08:15:29.000Z</time>
      </trkpt>
      <trkpt lat="47.33753" lon="-2.48005">
        <ele>10</ele>
        <time>2022-07-28T08:15:31.000Z</time>
      </trkpt>
      <trkpt lat="47.33743" lon="-2.48056">
        <ele>10</ele>
        <time>2022-07-28T08:15:37.000Z</time>
      </trkpt>
      <trkpt lat="47.33737" lon="-2.48081">
        <ele>10</ele>
        <time>2022-07-28T08:15:40.000Z</time>
      </trkpt>
      <trkpt lat="47.33734" lon="-2.48099">
        <ele>10</ele>
        <time>2022-07-28T08:15:42.000Z</time>
      </trkpt>
      <trkpt lat="47.33733" lon="-2.48109">
        <ele>9.6000003814697</ele>
        <time>2022-07-28T08:15:43.000Z</time>
      </trkpt>
      <trkpt lat="47.33731" lon="-2.48119">
        <ele>9.1999998092651</ele>
        <time>2022-07-28T08:15:44.000Z</time>
      </trkpt>
      <trkpt lat="47.3373" lon="-2.48129">
        <ele>8.8000001907349</ele>
        <time>2022-07-28T08:15:45.000Z</time>
      </trkpt>
      <trkpt lat="47.33729" lon="-2.48139">
        <ele>8.3999996185303</ele>
        <time>2022-07-28T08:15:46.000Z</time>
      </trkpt>
      <trkpt lat="47.33729" lon="-2.4815">
        <ele>8</ele>
        <time>2022-07-28T08:15:47.000Z</time>
      </trkpt>
      <trkpt lat="47.33726" lon="-2.48217">
        <ele>8</ele>
        <time>2022-07-28T08:15:54.000Z</time>
      </trkpt>
      <trkpt lat="47.33724" lon="-2.48253">
        <ele>7.5999999046326</ele>
        <time>2022-07-28T08:15:58.000Z</time>
      </trkpt>
      <trkpt lat="47.33724" lon="-2.48262">
        <ele>7</ele>
        <time>2022-07-28T08:15:59.000Z</time>
      </trkpt>
      <trkpt lat="47.33723" lon="-2.48272">
        <ele>6.5999999046326</ele>
        <time>2022-07-28T08:16:00.000Z</time>
      </trkpt>
      <trkpt lat="47.33722" lon="-2.48281">
        <ele>6</ele>
        <time>2022-07-28T08:16:01.000Z</time>
      </trkpt>
      <trkpt lat="47.33722" lon="-2.4829">
        <ele>5.5999999046326</ele>
        <time>2022-07-28T08:16:02.000Z</time>
      </trkpt>
      <trkpt lat="47.33721" lon="-2.48306">
        <ele>5.5999999046326</ele>
        <time>2022-07-28T08:16:04.000Z</time>
      </trkpt>
      <trkpt lat="47.33722" lon="-2.48318">
        <ele>5.5999999046326</ele>
        <time>2022-07-28T08:16:06.000Z</time>
      </trkpt>
      <trkpt lat="47.33725" lon="-2.48323">
        <ele>5.5999999046326</ele>
        <time>2022-07-28T08:16:09.000Z</time>
      </trkpt>
      <trkpt lat="47.33725" lon="-2.48323">
        <ele>5.5999999046326</ele>
        <time>2022-07-28T08:16:10.000Z</time>
      </trkpt>
      <trkpt lat="47.33728" lon="-2.48325">
        <ele>5.5999999046326</ele>
        <time>2022-07-28T08:16:13.000Z</time>
      </trkpt>
      <trkpt lat="47.3373" lon="-2.48326">
        <ele>5.5999999046326</ele>
        <time>2022-07-28T08:16:14.000Z</time>
      </trkpt>
      <trkpt lat="47.33745" lon="-2.48317">
        <ele>5.5999999046326</ele>
        <time>2022-07-28T08:16:19.000Z</time>
      </trkpt>
      <trkpt lat="47.33773" lon="-2.48302">
        <ele>5.5999999046326</ele>
        <time>2022-07-28T08:16:26.000Z</time>
      </trkpt>
      <trkpt lat="47.33809" lon="-2.48284">
        <ele>6</ele>
        <time>2022-07-28T08:16:34.000Z</time>
      </trkpt>
      <trkpt lat="47.33814" lon="-2.48281">
        <ele>6.4000000953674</ele>
        <time>2022-07-28T08:16:35.000Z</time>
      </trkpt>
      <trkpt lat="47.33819" lon="-2.48279">
        <ele>6.8000001907349</ele>
        <time>2022-07-28T08:16:36.000Z</time>
      </trkpt>
      <trkpt lat="47.33824" lon="-2.48277">
        <ele>7.1999998092651</ele>
        <time>2022-07-28T08:16:37.000Z</time>
      </trkpt>
      <trkpt lat="47.33829" lon="-2.48276">
        <ele>7.5999999046326</ele>
        <time>2022-07-28T08:16:38.000Z</time>
      </trkpt>
      <trkpt lat="47.33839" lon="-2.48273">
        <ele>7.5999999046326</ele>
        <time>2022-07-28T08:16:40.000Z</time>
      </trkpt>
      <trkpt lat="47.33878" lon="-2.48259">
        <ele>7.5999999046326</ele>
        <time>2022-07-28T08:16:48.000Z</time>
      </trkpt>
      <trkpt lat="47.33888" lon="-2.48255">
        <ele>7.5999999046326</ele>
        <time>2022-07-28T08:16:50.000Z</time>
      </trkpt>
      <trkpt lat="47.33907" lon="-2.48244">
        <ele>7.5999999046326</ele>
        <time>2022-07-28T08:16:54.000Z</time>
      </trkpt>
      <trkpt lat="47.33944" lon="-2.4822">
        <ele>7.5999999046326</ele>
        <time>2022-07-28T08:17:01.000Z</time>
      </trkpt>
      <trkpt lat="47.33955" lon="-2.48216">
        <ele>7.5999999046326</ele>
        <time>2022-07-28T08:17:03.000Z</time>
      </trkpt>
      <trkpt lat="47.33972" lon="-2.48217">
        <ele>7.5999999046326</ele>
        <time>2022-07-28T08:17:06.000Z</time>
      </trkpt>
      <trkpt lat="47.34006" lon="-2.48226">
        <ele>7.5999999046326</ele>
        <time>2022-07-28T08:17:12.000Z</time>
      </trkpt>
      <trkpt lat="47.34053" lon="-2.48242">
        <ele>7.5999999046326</ele>
        <time>2022-07-28T08:17:20.000Z</time>
      </trkpt>
      <trkpt lat="47.34096" lon="-2.48255">
        <ele>7.5999999046326</ele>
        <time>2022-07-28T08:17:27.000Z</time>
      </trkpt>
      <trkpt lat="47.34145" lon="-2.48272">
        <ele>7.5999999046326</ele>
        <time>2022-07-28T08:17:35.000Z</time>
      </trkpt>
      <trkpt lat="47.34168" lon="-2.48292">
        <ele>7.5999999046326</ele>
        <time>2022-07-28T08:17:39.000Z</time>
      </trkpt>
      <trkpt lat="47.34174" lon="-2.48299">
        <ele>7.5999999046326</ele>
        <time>2022-07-28T08:17:40.000Z</time>
      </trkpt>
      <trkpt lat="47.34212" lon="-2.48349">
        <ele>7.5999999046326</ele>
        <time>2022-07-28T08:17:47.000Z</time>
      </trkpt>
      <trkpt lat="47.34218" lon="-2.48355">
        <ele>7.1999998092651</ele>
        <time>2022-07-28T08:17:48.000Z</time>
      </trkpt>
      <trkpt lat="47.34225" lon="-2.4836">
        <ele>6.8000001907349</ele>
        <time>2022-07-28T08:17:49.000Z</time>
      </trkpt>
      <trkpt lat="47.34231" lon="-2.48364">
        <ele>6.4000000953674</ele>
        <time>2022-07-28T08:17:50.000Z</time>
      </trkpt>
      <trkpt lat="47.34238" lon="-2.48368">
        <ele>5.8000001907349</ele>
        <time>2022-07-28T08:17:51.000Z</time>
      </trkpt>
      <trkpt lat="47.34244" lon="-2.48371">
        <ele>5.4000000953674</ele>
        <time>2022-07-28T08:17:52.000Z</time>
      </trkpt>
      <trkpt lat="47.34269" lon="-2.48379">
        <ele>5.4000000953674</ele>
        <time>2022-07-28T08:17:56.000Z</time>
      </trkpt>
      <trkpt lat="47.34274" lon="-2.48379">
        <ele>6.4000000953674</ele>
        <time>2022-07-28T08:17:57.000Z</time>
      </trkpt>
      <trkpt lat="47.3428" lon="-2.48378">
        <ele>6.8000001907349</ele>
        <time>2022-07-28T08:17:58.000Z</time>
      </trkpt>
      <trkpt lat="47.34286" lon="-2.48377">
        <ele>7.1999998092651</ele>
        <time>2022-07-28T08:17:59.000Z</time>
      </trkpt>
      <trkpt lat="47.34291" lon="-2.48375">
        <ele>7.5999999046326</ele>
        <time>2022-07-28T08:18:00.000Z</time>
      </trkpt>
      <trkpt lat="47.34308" lon="-2.4837">
        <ele>8</ele>
        <time>2022-07-28T08:18:03.000Z</time>
      </trkpt>
      <trkpt lat="47.34314" lon="-2.4837">
        <ele>8.6000003814697</ele>
        <time>2022-07-28T08:18:04.000Z</time>
      </trkpt>
      <trkpt lat="47.3432" lon="-2.4837">
        <ele>9</ele>
        <time>2022-07-28T08:18:05.000Z</time>
      </trkpt>
      <trkpt lat="47.34325" lon="-2.48371">
        <ele>9.3999996185303</ele>
        <time>2022-07-28T08:18:06.000Z</time>
      </trkpt>
      <trkpt lat="47.3433" lon="-2.48372">
        <ele>10</ele>
        <time>2022-07-28T08:18:07.000Z</time>
      </trkpt>
      <trkpt lat="47.34344" lon="-2.48378">
        <ele>10</ele>
        <time>2022-07-28T08:18:10.000Z</time>
      </trkpt>
      <trkpt lat="47.34348" lon="-2.48381">
        <ele>10</ele>
        <time>2022-07-28T08:18:11.000Z</time>
      </trkpt>
      <trkpt lat="47.34354" lon="-2.48397">
        <ele>10.39999961853</ele>
        <time>2022-07-28T08:18:14.000Z</time>
      </trkpt>
      <trkpt lat="47.34355" lon="-2.48402">
        <ele>10.800000190735</ele>
        <time>2022-07-28T08:18:15.000Z</time>
      </trkpt>
      <trkpt lat="47.34357" lon="-2.48407">
        <ele>11.199999809265</ele>
        <time>2022-07-28T08:18:16.000Z</time>
      </trkpt>
      <trkpt lat="47.34358" lon="-2.48411">
        <ele>11.60000038147</ele>
        <time>2022-07-28T08:18:17.000Z</time>
      </trkpt>
      <trkpt lat="47.3436" lon="-2.48416">
        <ele>12</ele>
        <time>2022-07-28T08:18:18.000Z</time>
      </trkpt>
      <trkpt lat="47.34363" lon="-2.48425">
        <ele>12</ele>
        <time>2022-07-28T08:18:20.000Z</time>
      </trkpt>
      <trkpt lat="47.34377" lon="-2.48472">
        <ele>12</ele>
        <time>2022-07-28T08:18:29.000Z</time>
      </trkpt>
      <trkpt lat="47.34392" lon="-2.48515">
        <ele>12</ele>
        <time>2022-07-28T08:18:37.000Z</time>
      </trkpt>
      <trkpt lat="47.34405" lon="-2.48555">
        <ele>12</ele>
        <time>2022-07-28T08:18:44.000Z</time>
      </trkpt>
      <trkpt lat="47.34418" lon="-2.48593">
        <ele>12</ele>
        <time>2022-07-28T08:18:50.000Z</time>
      </trkpt>
      <trkpt lat="47.34421" lon="-2.48599">
        <ele>12</ele>
        <time>2022-07-28T08:18:51.000Z</time>
      </trkpt>
      <trkpt lat="47.34432" lon="-2.48635">
        <ele>12</ele>
        <time>2022-07-28T08:18:56.000Z</time>
      </trkpt>
      <trkpt lat="47.34434" lon="-2.48641">
        <ele>12</ele>
        <time>2022-07-28T08:18:57.000Z</time>
      </trkpt>
      <trkpt lat="47.34451" lon="-2.48689">
        <ele>12</ele>
        <time>2022-07-28T08:19:04.000Z</time>
      </trkpt>
      <trkpt lat="47.34474" lon="-2.48746">
        <ele>12</ele>
        <time>2022-07-28T08:19:12.000Z</time>
      </trkpt>
      <trkpt lat="47.34497" lon="-2.48783">
        <ele>12</ele>
        <time>2022-07-28T08:19:18.000Z</time>
      </trkpt>
      <trkpt lat="47.34519" lon="-2.48815">
        <ele>12</ele>
        <time>2022-07-28T08:19:25.000Z</time>
      </trkpt>
      <trkpt lat="47.34534" lon="-2.48845">
        <ele>12</ele>
        <time>2022-07-28T08:19:32.000Z</time>
      </trkpt>
      <trkpt lat="47.3454" lon="-2.48858">
        <ele>12</ele>
        <time>2022-07-28T08:19:36.000Z</time>
      </trkpt>
      <trkpt lat="47.3454" lon="-2.4887">
        <ele>12</ele>
        <time>2022-07-28T08:19:40.000Z</time>
      </trkpt>
      <trkpt lat="47.34538" lon="-2.48873">
        <ele>11.60000038147</ele>
        <time>2022-07-28T08:19:41.000Z</time>
      </trkpt>
      <trkpt lat="47.34535" lon="-2.48876">
        <ele>11.199999809265</ele>
        <time>2022-07-28T08:19:42.000Z</time>
      </trkpt>
      <trkpt lat="47.34532" lon="-2.48879">
        <ele>10.800000190735</ele>
        <time>2022-07-28T08:19:43.000Z</time>
      </trkpt>
      <trkpt lat="47.34529" lon="-2.48883">
        <ele>10.39999961853</ele>
        <time>2022-07-28T08:19:44.000Z</time>
      </trkpt>
      <trkpt lat="47.34525" lon="-2.48887">
        <ele>10</ele>
        <time>2022-07-28T08:19:45.000Z</time>
      </trkpt>
      <trkpt lat="47.34505" lon="-2.48915">
        <ele>10</ele>
        <time>2022-07-28T08:19:50.000Z</time>
      </trkpt>
      <trkpt lat="47.34502" lon="-2.48922">
        <ele>9.6000003814697</ele>
        <time>2022-07-28T08:19:51.000Z</time>
      </trkpt>
      <trkpt lat="47.34498" lon="-2.48931">
        <ele>9.1999998092651</ele>
        <time>2022-07-28T08:19:52.000Z</time>
      </trkpt>
      <trkpt lat="47.34495" lon="-2.48939">
        <ele>8.6000003814697</ele>
        <time>2022-07-28T08:19:53.000Z</time>
      </trkpt>
      <trkpt lat="47.34491" lon="-2.48947">
        <ele>8.1999998092651</ele>
        <time>2022-07-28T08:19:54.000Z</time>
      </trkpt>
      <trkpt lat="47.34486" lon="-2.48956">
        <ele>7.8000001907349</ele>
        <time>2022-07-28T08:19:55.000Z</time>
      </trkpt>
      <trkpt lat="47.34471" lon="-2.4898">
        <ele>7.4000000953674</ele>
        <time>2022-07-28T08:19:58.000Z</time>
      </trkpt>
      <trkpt lat="47.34467" lon="-2.48987">
        <ele>7</ele>
        <time>2022-07-28T08:19:59.000Z</time>
      </trkpt>
      <trkpt lat="47.34462" lon="-2.48994">
        <ele>6</ele>
        <time>2022-07-28T08:20:00.000Z</time>
      </trkpt>
      <trkpt lat="47.34456" lon="-2.49">
        <ele>5.5999999046326</ele>
        <time>2022-07-28T08:20:01.000Z</time>
      </trkpt>
      <trkpt lat="47.34439" lon="-2.49013">
        <ele>5.5999999046326</ele>
        <time>2022-07-28T08:20:04.000Z</time>
      </trkpt>
      <trkpt lat="47.34434" lon="-2.49016">
        <ele>5.5999999046326</ele>
        <time>2022-07-28T08:20:05.000Z</time>
      </trkpt>
      <trkpt lat="47.34426" lon="-2.49024">
        <ele>5.5999999046326</ele>
        <time>2022-07-28T08:20:07.000Z</time>
      </trkpt>
      <trkpt lat="47.34424" lon="-2.49029">
        <ele>5.5999999046326</ele>
        <time>2022-07-28T08:20:08.000Z</time>
      </trkpt>
      <trkpt lat="47.34412" lon="-2.49042">
        <ele>5.5999999046326</ele>
        <time>2022-07-28T08:20:11.000Z</time>
      </trkpt>
      <trkpt lat="47.34407" lon="-2.4905">
        <ele>5.5999999046326</ele>
        <time>2022-07-28T08:20:13.000Z</time>
      </trkpt>
      <trkpt lat="47.34411" lon="-2.49065">
        <ele>5.5999999046326</ele>
        <time>2022-07-28T08:20:16.000Z</time>
      </trkpt>
      <trkpt lat="47.34413" lon="-2.4907">
        <ele>5.1999998092651</ele>
        <time>2022-07-28T08:20:17.000Z</time>
      </trkpt>
      <trkpt lat="47.34415" lon="-2.49075">
        <ele>4.8000001907349</ele>
        <time>2022-07-28T08:20:18.000Z</time>
      </trkpt>
      <trkpt lat="47.34417" lon="-2.49081">
        <ele>4.4000000953674</ele>
        <time>2022-07-28T08:20:19.000Z</time>
      </trkpt>
      <trkpt lat="47.3442" lon="-2.49086">
        <ele>4</ele>
        <time>2022-07-28T08:20:20.000Z</time>
      </trkpt>
      <trkpt lat="47.34422" lon="-2.49092">
        <ele>3.5999999046326</ele>
        <time>2022-07-28T08:20:21.000Z</time>
      </trkpt>
      <trkpt lat="47.34424" lon="-2.491">
        <ele>3.5999999046326</ele>
        <time>2022-07-28T08:20:23.000Z</time>
      </trkpt>
      <trkpt lat="47.34428" lon="-2.49104">
        <ele>3.5999999046326</ele>
        <time>2022-07-28T08:20:25.000Z</time>
      </trkpt>
      <trkpt lat="47.34431" lon="-2.49106">
        <ele>3.5999999046326</ele>
        <time>2022-07-28T08:20:27.000Z</time>
      </trkpt>
      <trkpt lat="47.34435" lon="-2.49117">
        <ele>3.5999999046326</ele>
        <time>2022-07-28T08:20:32.000Z</time>
      </trkpt>
      <trkpt lat="47.34444" lon="-2.49136">
        <ele>3.2000000476837</ele>
        <time>2022-07-28T08:20:37.000Z</time>
      </trkpt>
      <trkpt lat="47.34446" lon="-2.49139">
        <ele>2.7999999523163</ele>
        <time>2022-07-28T08:20:38.000Z</time>
      </trkpt>
      <trkpt lat="47.34448" lon="-2.49142">
        <ele>2.4000000953674</ele>
        <time>2022-07-28T08:20:39.000Z</time>
      </trkpt>
      <trkpt lat="47.34451" lon="-2.49143">
        <ele>2</ele>
        <time>2022-07-28T08:20:40.000Z</time>
      </trkpt>
      <trkpt lat="47.34453" lon="-2.49144">
        <ele>1.6000000238419</ele>
        <time>2022-07-28T08:20:41.000Z</time>
      </trkpt>
      <trkpt lat="47.34466" lon="-2.49159">
        <ele>1.6000000238419</ele>
        <time>2022-07-28T08:20:47.000Z</time>
      </trkpt>
      <trkpt lat="47.3448" lon="-2.49183">
        <ele>1.6000000238419</ele>
        <time>2022-07-28T08:20:52.000Z</time>
      </trkpt>
      <trkpt lat="47.34486" lon="-2.49196">
        <ele>1.6000000238419</ele>
        <time>2022-07-28T08:20:56.000Z</time>
      </trkpt>
      <trkpt lat="47.34486" lon="-2.49198">
        <ele>1.6000000238419</ele>
        <time>2022-07-28T08:20:59.000Z</time>
      </trkpt>
      <trkpt lat="47.3449" lon="-2.49224">
        <ele>1.6000000238419</ele>
        <time>2022-07-28T08:21:48.000Z</time>
      </trkpt>
      <trkpt lat="47.34481" lon="-2.49238">
        <ele>1.6000000238419</ele>
        <time>2022-07-28T08:21:55.000Z</time>
      </trkpt>
      <trkpt lat="47.34478" lon="-2.49244">
        <ele>1.6000000238419</ele>
        <time>2022-07-28T08:21:59.000Z</time>
      </trkpt>
      <trkpt lat="47.34478" lon="-2.49245">
        <ele>1.6000000238419</ele>
        <time>2022-07-28T08:22:00.000Z</time>
      </trkpt>
      <trkpt lat="47.34478" lon="-2.49246">
        <ele>1.6000000238419</ele>
        <time>2022-07-28T08:22:01.000Z</time>
      </trkpt>
      <trkpt lat="47.3448" lon="-2.49254">
        <ele>1.6000000238419</ele>
        <time>2022-07-28T08:22:22.000Z</time>
      </trkpt>
      <trkpt lat="47.34483" lon="-2.49259">
        <ele>1.6000000238419</ele>
        <time>2022-07-28T08:22:24.000Z</time>
      </trkpt>
      <trkpt lat="47.3449" lon="-2.49267">
        <ele>1.6000000238419</ele>
        <time>2022-07-28T08:22:27.000Z</time>
      </trkpt>
      <trkpt lat="47.34493" lon="-2.49275">
        <ele>1.6000000238419</ele>
        <time>2022-07-28T08:22:29.000Z</time>
      </trkpt>
      <trkpt lat="47.34501" lon="-2.49301">
        <ele>1.6000000238419</ele>
        <time>2022-07-28T08:22:34.000Z</time>
      </trkpt>
      <trkpt lat="47.34508" lon="-2.49338">
        <ele>1.6000000238419</ele>
        <time>2022-07-28T08:22:40.000Z</time>
      </trkpt>
      <trkpt lat="47.34507" lon="-2.49368">
        <ele>1.6000000238419</ele>
        <time>2022-07-28T08:22:44.000Z</time>
      </trkpt>
      <trkpt lat="47.34499" lon="-2.49402">
        <ele>1.6000000238419</ele>
        <time>2022-07-28T08:22:49.000Z</time>
      </trkpt>
      <trkpt lat="47.34495" lon="-2.49417">
        <ele>1.6000000238419</ele>
        <time>2022-07-28T08:22:51.000Z</time>
      </trkpt>
      <trkpt lat="47.34494" lon="-2.4944">
        <ele>1.6000000238419</ele>
        <time>2022-07-28T08:22:54.000Z</time>
      </trkpt>
      <trkpt lat="47.34494" lon="-2.49446">
        <ele>1.6000000238419</ele>
        <time>2022-07-28T08:22:55.000Z</time>
      </trkpt>
      <trkpt lat="47.34493" lon="-2.49453">
        <ele>1.6000000238419</ele>
        <time>2022-07-28T08:22:56.000Z</time>
      </trkpt>
      <trkpt lat="47.34488" lon="-2.49477">
        <ele>1.6000000238419</ele>
        <time>2022-07-28T08:22:59.000Z</time>
      </trkpt>
      <trkpt lat="47.3449" lon="-2.495">
        <ele>1.6000000238419</ele>
        <time>2022-07-28T08:23:02.000Z</time>
      </trkpt>
      <trkpt lat="47.34493" lon="-2.49514">
        <ele>1.6000000238419</ele>
        <time>2022-07-28T08:23:04.000Z</time>
      </trkpt>
      <trkpt lat="47.34496" lon="-2.49528">
        <ele>1.6000000238419</ele>
        <time>2022-07-28T08:23:06.000Z</time>
      </trkpt>
      <trkpt lat="47.34508" lon="-2.4957">
        <ele>1.6000000238419</ele>
        <time>2022-07-28T08:23:13.000Z</time>
      </trkpt>
      <trkpt lat="47.34514" lon="-2.49587">
        <ele>1.6000000238419</ele>
        <time>2022-07-28T08:23:18.000Z</time>
      </trkpt>
      <trkpt lat="47.34514" lon="-2.49592">
        <ele>1.6000000238419</ele>
        <time>2022-07-28T08:23:21.000Z</time>
      </trkpt>
      <trkpt lat="47.34514" lon="-2.49595">
        <ele>1.6000000238419</ele>
        <time>2022-07-28T08:23:22.000Z</time>
      </trkpt>
      <trkpt lat="47.34503" lon="-2.49607">
        <ele>1.6000000238419</ele>
        <time>2022-07-28T08:23:27.000Z</time>
      </trkpt>
      <trkpt lat="47.34501" lon="-2.49609">
        <ele>1.6000000238419</ele>
        <time>2022-07-28T08:23:28.000Z</time>
      </trkpt>
      <trkpt lat="47.34482" lon="-2.49624">
        <ele>1.6000000238419</ele>
        <time>2022-07-28T08:23:34.000Z</time>
      </trkpt>
      <trkpt lat="47.34474" lon="-2.4963">
        <ele>1.6000000238419</ele>
        <time>2022-07-28T08:23:36.000Z</time>
      </trkpt>
      <trkpt lat="47.34461" lon="-2.49644">
        <ele>1.6000000238419</ele>
        <time>2022-07-28T08:23:39.000Z</time>
      </trkpt>
      <trkpt lat="47.34445" lon="-2.49658">
        <ele>1.6000000238419</ele>
        <time>2022-07-28T08:23:42.000Z</time>
      </trkpt>
      <trkpt lat="47.34434" lon="-2.49665">
        <ele>1.6000000238419</ele>
        <time>2022-07-28T08:23:44.000Z</time>
      </trkpt>
      <trkpt lat="47.34385" lon="-2.4969">
        <ele>1.6000000238419</ele>
        <time>2022-07-28T08:23:53.000Z</time>
      </trkpt>
      <trkpt lat="47.34351" lon="-2.4971">
        <ele>1.6000000238419</ele>
        <time>2022-07-28T08:23:59.000Z</time>
      </trkpt>
      <trkpt lat="47.34346" lon="-2.49714">
        <ele>1.6000000238419</ele>
        <time>2022-07-28T08:24:00.000Z</time>
      </trkpt>
      <trkpt lat="47.3432" lon="-2.49736">
        <ele>1.6000000238419</ele>
        <time>2022-07-28T08:24:05.000Z</time>
      </trkpt>
      <trkpt lat="47.34281" lon="-2.49767">
        <ele>1.6000000238419</ele>
        <time>2022-07-28T08:24:13.000Z</time>
      </trkpt>
      <trkpt lat="47.3426" lon="-2.49794">
        <ele>1.6000000238419</ele>
        <time>2022-07-28T08:24:18.000Z</time>
      </trkpt>
      <trkpt lat="47.34242" lon="-2.49831">
        <ele>1.6000000238419</ele>
        <time>2022-07-28T08:24:24.000Z</time>
      </trkpt>
      <trkpt lat="47.34225" lon="-2.49865">
        <ele>1.6000000238419</ele>
        <time>2022-07-28T08:24:29.000Z</time>
      </trkpt>
      <trkpt lat="47.34216" lon="-2.49885">
        <ele>1.6000000238419</ele>
        <time>2022-07-28T08:24:32.000Z</time>
      </trkpt>
      <trkpt lat="47.34209" lon="-2.4991">
        <ele>1.6000000238419</ele>
        <time>2022-07-28T08:24:35.000Z</time>
      </trkpt>
      <trkpt lat="47.34204" lon="-2.49928">
        <ele>1</ele>
        <time>2022-07-28T08:24:37.000Z</time>
      </trkpt>
      <trkpt lat="47.34202" lon="-2.49937">
        <ele>0.60000002384186</ele>
        <time>2022-07-28T08:24:38.000Z</time>
      </trkpt>
      <trkpt lat="47.34199" lon="-2.49946">
        <ele>0.20000000298023</ele>
        <time>2022-07-28T08:24:39.000Z</time>
      </trkpt>
      <trkpt lat="47.34197" lon="-2.49955">
        <ele>-0.20000000298023</ele>
        <time>2022-07-28T08:24:40.000Z</time>
      </trkpt>
      <trkpt lat="47.34194" lon="-2.49965">
        <ele>-0.60000002384186</ele>
        <time>2022-07-28T08:24:41.000Z</time>
      </trkpt>
      <trkpt lat="47.34183" lon="-2.50006">
        <ele>-0.60000002384186</ele>
        <time>2022-07-28T08:24:47.000Z</time>
      </trkpt>
      <trkpt lat="47.34177" lon="-2.50018">
        <ele>-0.60000002384186</ele>
        <time>2022-07-28T08:24:50.000Z</time>
      </trkpt>
      <trkpt lat="47.34175" lon="-2.50016">
        <ele>-0.60000002384186</ele>
        <time>2022-07-28T08:24:51.000Z</time>
      </trkpt>
      <trkpt lat="47.34177" lon="-2.50008">
        <ele>-0.60000002384186</ele>
        <time>2022-07-28T08:24:54.000Z</time>
      </trkpt>
      <trkpt lat="47.34179" lon="-2.50004">
        <ele>-0.60000002384186</ele>
        <time>2022-07-28T08:24:55.000Z</time>
      </trkpt>
      <trkpt lat="47.34183" lon="-2.49979">
        <ele>-0.60000002384186</ele>
        <time>2022-07-28T08:25:00.000Z</time>
      </trkpt>
      <trkpt lat="47.34182" lon="-2.49973">
        <ele>-0.60000002384186</ele>
        <time>2022-07-28T08:25:01.000Z</time>
      </trkpt>
      <trkpt lat="47.34176" lon="-2.49952">
        <ele>-0.60000002384186</ele>
        <time>2022-07-28T08:25:04.000Z</time>
      </trkpt>
      <trkpt lat="47.34163" lon="-2.49916">
        <ele>-0.60000002384186</ele>
        <time>2022-07-28T08:25:10.000Z</time>
      </trkpt>
      <trkpt lat="47.3416" lon="-2.49911">
        <ele>-0.60000002384186</ele>
        <time>2022-07-28T08:25:11.000Z</time>
      </trkpt>
      <trkpt lat="47.34144" lon="-2.49885">
        <ele>-0.60000002384186</ele>
        <time>2022-07-28T08:25:16.000Z</time>
      </trkpt>
      <trkpt lat="47.34123" lon="-2.49855">
        <ele>-0.60000002384186</ele>
        <time>2022-07-28T08:25:22.000Z</time>
      </trkpt>
      <trkpt lat="47.3412" lon="-2.49851">
        <ele>-0.60000002384186</ele>
        <time>2022-07-28T08:25:23.000Z</time>
      </trkpt>
      <trkpt lat="47.34116" lon="-2.49846">
        <ele>-0.60000002384186</ele>
        <time>2022-07-28T08:25:24.000Z</time>
      </trkpt>
      <trkpt lat="47.34092" lon="-2.4983">
        <ele>-0.60000002384186</ele>
        <time>2022-07-28T08:25:29.000Z</time>
      </trkpt>
      <trkpt lat="47.34069" lon="-2.49829">
        <ele>-0.60000002384186</ele>
        <time>2022-07-28T08:25:33.000Z</time>
      </trkpt>
      <trkpt lat="47.34034" lon="-2.4983">
        <ele>-0.60000002384186</ele>
        <time>2022-07-28T08:25:40.000Z</time>
      </trkpt>
      <trkpt lat="47.34007" lon="-2.4983">
        <ele>-0.60000002384186</ele>
        <time>2022-07-28T08:25:47.000Z</time>
      </trkpt>
      <trkpt lat="47.33991" lon="-2.49827">
        <ele>-0.60000002384186</ele>
        <time>2022-07-28T08:25:52.000Z</time>
      </trkpt>
      <trkpt lat="47.33969" lon="-2.49821">
        <ele>-0.60000002384186</ele>
        <time>2022-07-28T08:25:58.000Z</time>
      </trkpt>
      <trkpt lat="47.33956" lon="-2.49819">
        <ele>-0.60000002384186</ele>
        <time>2022-07-28T08:26:02.000Z</time>
      </trkpt>
      <trkpt lat="47.33946" lon="-2.49827">
        <ele>-0.60000002384186</ele>
        <time>2022-07-28T08:26:06.000Z</time>
      </trkpt>
      <trkpt lat="47.33932" lon="-2.49844">
        <ele>-0.60000002384186</ele>
        <time>2022-07-28T08:26:13.000Z</time>
      </trkpt>
      <trkpt lat="47.33916" lon="-2.4986">
        <ele>-0.60000002384186</ele>
        <time>2022-07-28T08:26:20.000Z</time>
      </trkpt>
      <trkpt lat="47.33914" lon="-2.49861">
        <ele>-0.60000002384186</ele>
        <time>2022-07-28T08:26:21.000Z</time>
      </trkpt>
      <trkpt lat="47.33909" lon="-2.49858">
        <ele>-0.60000002384186</ele>
        <time>2022-07-28T08:26:23.000Z</time>
      </trkpt>
      <trkpt lat="47.33899" lon="-2.4987">
        <ele>-0.60000002384186</ele>
        <time>2022-07-28T08:26:27.000Z</time>
      </trkpt>
      <trkpt lat="47.33896" lon="-2.49888">
        <ele>-0.60000002384186</ele>
        <time>2022-07-28T08:26:31.000Z</time>
      </trkpt>
      <trkpt lat="47.33894" lon="-2.49902">
        <ele>-0.60000002384186</ele>
        <time>2022-07-28T08:26:34.000Z</time>
      </trkpt>
      <trkpt lat="47.33891" lon="-2.49912">
        <ele>-0.60000002384186</ele>
        <time>2022-07-28T08:26:36.000Z</time>
      </trkpt>
      <trkpt lat="47.33879" lon="-2.4993">
        <ele>-0.60000002384186</ele>
        <time>2022-07-28T08:26:41.000Z</time>
      </trkpt>
      <trkpt lat="47.33871" lon="-2.49951">
        <ele>-0.60000002384186</ele>
        <time>2022-07-28T08:26:46.000Z</time>
      </trkpt>
      <trkpt lat="47.33865" lon="-2.49958">
        <ele>-0.60000002384186</ele>
        <time>2022-07-28T08:26:48.000Z</time>
      </trkpt>
      <trkpt lat="47.33859" lon="-2.4996">
        <ele>-0.60000002384186</ele>
        <time>2022-07-28T08:26:50.000Z</time>
      </trkpt>
      <trkpt lat="47.33845" lon="-2.49954">
        <ele>-0.60000002384186</ele>
        <time>2022-07-28T08:26:54.000Z</time>
      </trkpt>
      <trkpt lat="47.3383" lon="-2.49954">
        <ele>-0.60000002384186</ele>
        <time>2022-07-28T08:26:58.000Z</time>
      </trkpt>
      <trkpt lat="47.33826" lon="-2.49954">
        <ele>-0.60000002384186</ele>
        <time>2022-07-28T08:26:59.000Z</time>
      </trkpt>
      <trkpt lat="47.33808" lon="-2.49949">
        <ele>-0.60000002384186</ele>
        <time>2022-07-28T08:27:05.000Z</time>
      </trkpt>
      <trkpt lat="47.33799" lon="-2.49933">
        <ele>-0.60000002384186</ele>
        <time>2022-07-28T08:27:10.000Z</time>
      </trkpt>
      <trkpt lat="47.33791" lon="-2.49907">
        <ele>-0.60000002384186</ele>
        <time>2022-07-28T08:27:16.000Z</time>
      </trkpt>
      <trkpt lat="47.33785" lon="-2.49881">
        <ele>-0.60000002384186</ele>
        <time>2022-07-28T08:27:22.000Z</time>
      </trkpt>
      <trkpt lat="47.3378" lon="-2.49844">
        <ele>-0.60000002384186</ele>
        <time>2022-07-28T08:27:30.000Z</time>
      </trkpt>
      <trkpt lat="47.33782" lon="-2.49815">
        <ele>-0.60000002384186</ele>
        <time>2022-07-28T08:27:36.000Z</time>
      </trkpt>
      <trkpt lat="47.33767" lon="-2.49792">
        <ele>-0.60000002384186</ele>
        <time>2022-07-28T08:27:42.000Z</time>
      </trkpt>
      <trkpt lat="47.33754" lon="-2.49771">
        <ele>-0.60000002384186</ele>
        <time>2022-07-28T08:27:48.000Z</time>
      </trkpt>
      <trkpt lat="47.33747" lon="-2.49762">
        <ele>-0.60000002384186</ele>
        <time>2022-07-28T08:27:52.000Z</time>
      </trkpt>
      <trkpt lat="47.33751" lon="-2.49751">
        <ele>-0.60000002384186</ele>
        <time>2022-07-28T08:27:55.000Z</time>
      </trkpt>
      <trkpt lat="47.33756" lon="-2.49745">
        <ele>-0.60000002384186</ele>
        <time>2022-07-28T08:27:57.000Z</time>
      </trkpt>
      <trkpt lat="47.33766" lon="-2.49731">
        <ele>-0.60000002384186</ele>
        <time>2022-07-28T08:28:01.000Z</time>
      </trkpt>
      <trkpt lat="47.33771" lon="-2.49723">
        <ele>-0.60000002384186</ele>
        <time>2022-07-28T08:28:03.000Z</time>
      </trkpt>
      <trkpt lat="47.33778" lon="-2.49696">
        <ele>-0.60000002384186</ele>
        <time>2022-07-28T08:28:08.000Z</time>
      </trkpt>
      <trkpt lat="47.33784" lon="-2.4967">
        <ele>-0.60000002384186</ele>
        <time>2022-07-28T08:28:13.000Z</time>
      </trkpt>
      <trkpt lat="47.33779" lon="-2.49649">
        <ele>-0.60000002384186</ele>
        <time>2022-07-28T08:28:17.000Z</time>
      </trkpt>
      <trkpt lat="47.33777" lon="-2.49645">
        <ele>-0.60000002384186</ele>
        <time>2022-07-28T08:28:18.000Z</time>
      </trkpt>
      <trkpt lat="47.33767" lon="-2.49637">
        <ele>-0.60000002384186</ele>
        <time>2022-07-28T08:28:21.000Z</time>
      </trkpt>
      <trkpt lat="47.33763" lon="-2.49637">
        <ele>-0.60000002384186</ele>
        <time>2022-07-28T08:28:22.000Z</time>
      </trkpt>
      <trkpt lat="47.33755" lon="-2.49636">
        <ele>-0.60000002384186</ele>
        <time>2022-07-28T08:28:24.000Z</time>
      </trkpt>
      <trkpt lat="47.33752" lon="-2.49633">
        <ele>-0.60000002384186</ele>
        <time>2022-07-28T08:28:25.000Z</time>
      </trkpt>
      <trkpt lat="47.33749" lon="-2.49628">
        <ele>-0.60000002384186</ele>
        <time>2022-07-28T08:28:26.000Z</time>
      </trkpt>
      <trkpt lat="47.33744" lon="-2.4962">
        <ele>-0.60000002384186</ele>
        <time>2022-07-28T08:28:28.000Z</time>
      </trkpt>
      <trkpt lat="47.33741" lon="-2.49597">
        <ele>-0.60000002384186</ele>
        <time>2022-07-28T08:28:33.000Z</time>
      </trkpt>
      <trkpt lat="47.33753" lon="-2.49577">
        <ele>-0.60000002384186</ele>
        <time>2022-07-28T08:28:38.000Z</time>
      </trkpt>
      <trkpt lat="47.33751" lon="-2.4955">
        <ele>-0.60000002384186</ele>
        <time>2022-07-28T08:28:43.000Z</time>
      </trkpt>
      <trkpt lat="47.33742" lon="-2.49521">
        <ele>-0.60000002384186</ele>
        <time>2022-07-28T08:28:49.000Z</time>
      </trkpt>
      <trkpt lat="47.33739" lon="-2.49489">
        <ele>-0.60000002384186</ele>
        <time>2022-07-28T08:28:55.000Z</time>
      </trkpt>
      <trkpt lat="47.33732" lon="-2.49467">
        <ele>-0.60000002384186</ele>
        <time>2022-07-28T08:29:00.000Z</time>
      </trkpt>
      <trkpt lat="47.33717" lon="-2.49464">
        <ele>-0.60000002384186</ele>
        <time>2022-07-28T08:29:04.000Z</time>
      </trkpt>
      <trkpt lat="47.33695" lon="-2.49458">
        <ele>-0.60000002384186</ele>
        <time>2022-07-28T08:29:10.000Z</time>
      </trkpt>
      <trkpt lat="47.33684" lon="-2.49443">
        <ele>-0.60000002384186</ele>
        <time>2022-07-28T08:29:14.000Z</time>
      </trkpt>
      <trkpt lat="47.33674" lon="-2.49421">
        <ele>-0.60000002384186</ele>
        <time>2022-07-28T08:29:19.000Z</time>
      </trkpt>
      <trkpt lat="47.33668" lon="-2.49399">
        <ele>-0.60000002384186</ele>
        <time>2022-07-28T08:29:24.000Z</time>
      </trkpt>
      <trkpt lat="47.33661" lon="-2.49383">
        <ele>-0.60000002384186</ele>
        <time>2022-07-28T08:29:29.000Z</time>
      </trkpt>
      <trkpt lat="47.33653" lon="-2.49362">
        <ele>-0.60000002384186</ele>
        <time>2022-07-28T08:29:34.000Z</time>
      </trkpt>
      <trkpt lat="47.3365" lon="-2.49351">
        <ele>-0.60000002384186</ele>
        <time>2022-07-28T08:29:37.000Z</time>
      </trkpt>
      <trkpt lat="47.3365" lon="-2.49348">
        <ele>-0.60000002384186</ele>
        <time>2022-07-28T08:29:38.000Z</time>
      </trkpt>
      <trkpt lat="47.3366" lon="-2.49341">
        <ele>-0.60000002384186</ele>
        <time>2022-07-28T08:29:42.000Z</time>
      </trkpt>
      <trkpt lat="47.33674" lon="-2.49329">
        <ele>-0.60000002384186</ele>
        <time>2022-07-28T08:29:47.000Z</time>
      </trkpt>
      <trkpt lat="47.33678" lon="-2.49308">
        <ele>-0.60000002384186</ele>
        <time>2022-07-28T08:29:51.000Z</time>
      </trkpt>
      <trkpt lat="47.33683" lon="-2.49286">
        <ele>-0.60000002384186</ele>
        <time>2022-07-28T08:29:56.000Z</time>
      </trkpt>
      <trkpt lat="47.33683" lon="-2.49282">
        <ele>-0.60000002384186</ele>
        <time>2022-07-28T08:29:57.000Z</time>
      </trkpt>
      <trkpt lat="47.3368" lon="-2.49275">
        <ele>-0.60000002384186</ele>
        <time>2022-07-28T08:29:59.000Z</time>
      </trkpt>
      <trkpt lat="47.33659" lon="-2.4926">
        <ele>-0.60000002384186</ele>
        <time>2022-07-28T08:30:05.000Z</time>
      </trkpt>
      <trkpt lat="47.3364" lon="-2.49247">
        <ele>-0.60000002384186</ele>
        <time>2022-07-28T08:30:11.000Z</time>
      </trkpt>
      <trkpt lat="47.33634" lon="-2.49242">
        <ele>-0.60000002384186</ele>
        <time>2022-07-28T08:30:13.000Z</time>
      </trkpt>
      <trkpt lat="47.33631" lon="-2.49236">
        <ele>-0.60000002384186</ele>
        <time>2022-07-28T08:30:15.000Z</time>
      </trkpt>
      <trkpt lat="47.33633" lon="-2.4922">
        <ele>-0.60000002384186</ele>
        <time>2022-07-28T08:30:19.000Z</time>
      </trkpt>
      <trkpt lat="47.33634" lon="-2.49216">
        <ele>-0.60000002384186</ele>
        <time>2022-07-28T08:30:20.000Z</time>
      </trkpt>
      <trkpt lat="47.33636" lon="-2.49209">
        <ele>-0.60000002384186</ele>
        <time>2022-07-28T08:30:22.000Z</time>
      </trkpt>
      <trkpt lat="47.33635" lon="-2.49205">
        <ele>-0.60000002384186</ele>
        <time>2022-07-28T08:30:23.000Z</time>
      </trkpt>
      <trkpt lat="47.33624" lon="-2.49189">
        <ele>-0.60000002384186</ele>
        <time>2022-07-28T08:30:28.000Z</time>
      </trkpt>
      <trkpt lat="47.33605" lon="-2.49182">
        <ele>-0.60000002384186</ele>
        <time>2022-07-28T08:30:34.000Z</time>
      </trkpt>
      <trkpt lat="47.3359" lon="-2.4917">
        <ele>-0.60000002384186</ele>
        <time>2022-07-28T08:30:39.000Z</time>
      </trkpt>
      <trkpt lat="47.33584" lon="-2.49158">
        <ele>-0.60000002384186</ele>
        <time>2022-07-28T08:30:42.000Z</time>
      </trkpt>
      <trkpt lat="47.33584" lon="-2.49153">
        <ele>-0.60000002384186</ele>
        <time>2022-07-28T08:30:43.000Z</time>
      </trkpt>
      <trkpt lat="47.33584" lon="-2.49131">
        <ele>-0.60000002384186</ele>
        <time>2022-07-28T08:30:47.000Z</time>
      </trkpt>
      <trkpt lat="47.33575" lon="-2.49109">
        <ele>-0.60000002384186</ele>
        <time>2022-07-28T08:30:52.000Z</time>
      </trkpt>
      <trkpt lat="47.33562" lon="-2.49096">
        <ele>-0.60000002384186</ele>
        <time>2022-07-28T08:30:57.000Z</time>
      </trkpt>
      <trkpt lat="47.3356" lon="-2.49092">
        <ele>-0.60000002384186</ele>
        <time>2022-07-28T08:30:58.000Z</time>
      </trkpt>
      <trkpt lat="47.33561" lon="-2.49084">
        <ele>-0.60000002384186</ele>
        <time>2022-07-28T08:31:00.000Z</time>
      </trkpt>
      <trkpt lat="47.33574" lon="-2.49064">
        <ele>-0.60000002384186</ele>
        <time>2022-07-28T08:31:06.000Z</time>
      </trkpt>
      <trkpt lat="47.33585" lon="-2.49052">
        <ele>-0.60000002384186</ele>
        <time>2022-07-28T08:31:11.000Z</time>
      </trkpt>
      <trkpt lat="47.33594" lon="-2.49041">
        <ele>-0.60000002384186</ele>
        <time>2022-07-28T08:31:17.000Z</time>
      </trkpt>
      <trkpt lat="47.33608" lon="-2.4903">
        <ele>-0.60000002384186</ele>
        <time>2022-07-28T08:31:23.000Z</time>
      </trkpt>
      <trkpt lat="47.3362" lon="-2.4901">
        <ele>-0.60000002384186</ele>
        <time>2022-07-28T08:31:29.000Z</time>
      </trkpt>
      <trkpt lat="47.33624" lon="-2.48983">
        <ele>-0.60000002384186</ele>
        <time>2022-07-28T08:31:34.000Z</time>
      </trkpt>
      <trkpt lat="47.33625" lon="-2.48977">
        <ele>-0.60000002384186</ele>
        <time>2022-07-28T08:31:35.000Z</time>
      </trkpt>
      <trkpt lat="47.33633" lon="-2.48953">
        <ele>-0.60000002384186</ele>
        <time>2022-07-28T08:31:39.000Z</time>
      </trkpt>
      <trkpt lat="47.33634" lon="-2.48932">
        <ele>-0.60000002384186</ele>
        <time>2022-07-28T08:31:43.000Z</time>
      </trkpt>
      <trkpt lat="47.33633" lon="-2.48926">
        <ele>-0.60000002384186</ele>
        <time>2022-07-28T08:31:44.000Z</time>
      </trkpt>
      <trkpt lat="47.33625" lon="-2.48911">
        <ele>-0.60000002384186</ele>
        <time>2022-07-28T08:31:47.000Z</time>
      </trkpt>
      <trkpt lat="47.33618" lon="-2.48904">
        <ele>-0.60000002384186</ele>
        <time>2022-07-28T08:31:49.000Z</time>
      </trkpt>
      <trkpt lat="47.33614" lon="-2.489">
        <ele>-0.60000002384186</ele>
        <time>2022-07-28T08:31:50.000Z</time>
      </trkpt>
      <trkpt lat="47.33605" lon="-2.48894">
        <ele>-0.60000002384186</ele>
        <time>2022-07-28T08:31:52.000Z</time>
      </trkpt>
      <trkpt lat="47.33592" lon="-2.48885">
        <ele>-0.60000002384186</ele>
        <time>2022-07-28T08:31:55.000Z</time>
      </trkpt>
      <trkpt lat="47.33576" lon="-2.4887">
        <ele>-0.60000002384186</ele>
        <time>2022-07-28T08:31:59.000Z</time>
      </trkpt>
      <trkpt lat="47.33572" lon="-2.48867">
        <ele>-0.60000002384186</ele>
        <time>2022-07-28T08:32:00.000Z</time>
      </trkpt>
      <trkpt lat="47.33559" lon="-2.48851">
        <ele>-0.60000002384186</ele>
        <time>2022-07-28T08:32:04.000Z</time>
      </trkpt>
      <trkpt lat="47.33553" lon="-2.48842">
        <ele>-0.60000002384186</ele>
        <time>2022-07-28T08:32:06.000Z</time>
      </trkpt>
      <trkpt lat="47.33543" lon="-2.48819">
        <ele>-0.60000002384186</ele>
        <time>2022-07-28T08:32:10.000Z</time>
      </trkpt>
      <trkpt lat="47.33526" lon="-2.48786">
        <ele>-0.60000002384186</ele>
        <time>2022-07-28T08:32:16.000Z</time>
      </trkpt>
      <trkpt lat="47.33524" lon="-2.4878">
        <ele>-0.60000002384186</ele>
        <time>2022-07-28T08:32:17.000Z</time>
      </trkpt>
      <trkpt lat="47.33513" lon="-2.48756">
        <ele>-0.60000002384186</ele>
        <time>2022-07-28T08:32:21.000Z</time>
      </trkpt>
      <trkpt lat="47.3351" lon="-2.48751">
        <ele>-0.60000002384186</ele>
        <time>2022-07-28T08:32:22.000Z</time>
      </trkpt>
      <trkpt lat="47.33505" lon="-2.48739">
        <ele>-0.60000002384186</ele>
        <time>2022-07-28T08:32:24.000Z</time>
      </trkpt>
      <trkpt lat="47.33501" lon="-2.48727">
        <ele>-0.60000002384186</ele>
        <time>2022-07-28T08:32:26.000Z</time>
      </trkpt>
      <trkpt lat="47.33492" lon="-2.48706">
        <ele>-0.60000002384186</ele>
        <time>2022-07-28T08:32:31.000Z</time>
      </trkpt>
      <trkpt lat="47.33483" lon="-2.48696">
        <ele>-0.60000002384186</ele>
        <time>2022-07-28T08:32:36.000Z</time>
      </trkpt>
      <trkpt lat="47.33481" lon="-2.48697">
        <ele>-0.60000002384186</ele>
        <time>2022-07-28T08:32:37.000Z</time>
      </trkpt>
      <trkpt lat="47.33474" lon="-2.48703">
        <ele>-0.60000002384186</ele>
        <time>2022-07-28T08:32:40.000Z</time>
      </trkpt>
      <trkpt lat="47.33472" lon="-2.48705">
        <ele>-0.60000002384186</ele>
        <time>2022-07-28T08:32:41.000Z</time>
      </trkpt>
      <trkpt lat="47.33459" lon="-2.48722">
        <ele>-0.60000002384186</ele>
        <time>2022-07-28T08:32:48.000Z</time>
      </trkpt>
      <trkpt lat="47.33447" lon="-2.48734">
        <ele>-0.60000002384186</ele>
        <time>2022-07-28T08:32:53.000Z</time>
      </trkpt>
      <trkpt lat="47.33431" lon="-2.48756">
        <ele>-0.60000002384186</ele>
        <time>2022-07-28T08:32:59.000Z</time>
      </trkpt>
      <trkpt lat="47.33416" lon="-2.48773">
        <ele>-0.60000002384186</ele>
        <time>2022-07-28T08:33:04.000Z</time>
      </trkpt>
      <trkpt lat="47.33412" lon="-2.48778">
        <ele>-0.60000002384186</ele>
        <time>2022-07-28T08:33:05.000Z</time>
      </trkpt>
      <trkpt lat="47.33401" lon="-2.48795">
        <ele>-0.60000002384186</ele>
        <time>2022-07-28T08:33:08.000Z</time>
      </trkpt>
      <trkpt lat="47.33373" lon="-2.48825">
        <ele>-0.60000002384186</ele>
        <time>2022-07-28T08:33:15.000Z</time>
      </trkpt>
      <trkpt lat="47.33349" lon="-2.48833">
        <ele>-0.60000002384186</ele>
        <time>2022-07-28T08:33:20.000Z</time>
      </trkpt>
      <trkpt lat="47.33335" lon="-2.48833">
        <ele>-0.60000002384186</ele>
        <time>2022-07-28T08:33:23.000Z</time>
      </trkpt>
      <trkpt lat="47.33318" lon="-2.48831">
        <ele>-0.60000002384186</ele>
        <time>2022-07-28T08:33:26.000Z</time>
      </trkpt>
      <trkpt lat="47.33296" lon="-2.48834">
        <ele>-0.60000002384186</ele>
        <time>2022-07-28T08:33:30.000Z</time>
      </trkpt>
      <trkpt lat="47.33291" lon="-2.48837">
        <ele>-0.60000002384186</ele>
        <time>2022-07-28T08:33:31.000Z</time>
      </trkpt>
      <trkpt lat="47.33278" lon="-2.48849">
        <ele>-0.60000002384186</ele>
        <time>2022-07-28T08:33:34.000Z</time>
      </trkpt>
      <trkpt lat="47.3327" lon="-2.48858">
        <ele>-0.60000002384186</ele>
        <time>2022-07-28T08:33:36.000Z</time>
      </trkpt>
      <trkpt lat="47.33252" lon="-2.4888">
        <ele>-0.60000002384186</ele>
        <time>2022-07-28T08:33:42.000Z</time>
      </trkpt>
      <trkpt lat="47.3325" lon="-2.48882">
        <ele>-0.60000002384186</ele>
        <time>2022-07-28T08:33:45.000Z</time>
      </trkpt>
      <trkpt lat="47.33251" lon="-2.48888">
        <ele>-0.60000002384186</ele>
        <time>2022-07-28T08:34:31.000Z</time>
      </trkpt>
      <trkpt lat="47.33251" lon="-2.48891">
        <ele>-0.60000002384186</ele>
        <time>2022-07-28T08:34:32.000Z</time>
      </trkpt>
      <trkpt lat="47.33252" lon="-2.48894">
        <ele>-0.60000002384186</ele>
        <time>2022-07-28T08:34:33.000Z</time>
      </trkpt>
      <trkpt lat="47.33257" lon="-2.48917">
        <ele>-0.60000002384186</ele>
        <time>2022-07-28T08:34:38.000Z</time>
      </trkpt>
      <trkpt lat="47.33267" lon="-2.48964">
        <ele>-0.60000002384186</ele>
        <time>2022-07-28T08:34:45.000Z</time>
      </trkpt>
      <trkpt lat="47.3328" lon="-2.49017">
        <ele>-0.60000002384186</ele>
        <time>2022-07-28T08:34:52.000Z</time>
      </trkpt>
      <trkpt lat="47.33298" lon="-2.49063">
        <ele>-0.60000002384186</ele>
        <time>2022-07-28T08:34:58.000Z</time>
      </trkpt>
      <trkpt lat="47.33323" lon="-2.49101">
        <ele>-0.60000002384186</ele>
        <time>2022-07-28T08:35:04.000Z</time>
      </trkpt>
      <trkpt lat="47.33356" lon="-2.49155">
        <ele>-0.60000002384186</ele>
        <time>2022-07-28T08:35:12.000Z</time>
      </trkpt>
      <trkpt lat="47.33374" lon="-2.49197">
        <ele>-0.60000002384186</ele>
        <time>2022-07-28T08:35:17.000Z</time>
      </trkpt>
      <trkpt lat="47.33379" lon="-2.49215">
        <ele>-0.60000002384186</ele>
        <time>2022-07-28T08:35:19.000Z</time>
      </trkpt>
      <trkpt lat="47.33381" lon="-2.49225">
        <ele>-0.60000002384186</ele>
        <time>2022-07-28T08:35:20.000Z</time>
      </trkpt>
      <trkpt lat="47.33386" lon="-2.49264">
        <ele>-0.60000002384186</ele>
        <time>2022-07-28T08:35:24.000Z</time>
      </trkpt>
      <trkpt lat="47.33388" lon="-2.49273">
        <ele>-0.60000002384186</ele>
        <time>2022-07-28T08:35:25.000Z</time>
      </trkpt>
      <trkpt lat="47.334" lon="-2.49305">
        <ele>-0.60000002384186</ele>
        <time>2022-07-28T08:35:28.000Z</time>
      </trkpt>
      <trkpt lat="47.33404" lon="-2.49313">
        <ele>-0.60000002384186</ele>
        <time>2022-07-28T08:35:29.000Z</time>
      </trkpt>
      <trkpt lat="47.33417" lon="-2.49356">
        <ele>-0.60000002384186</ele>
        <time>2022-07-28T08:35:34.000Z</time>
      </trkpt>
      <trkpt lat="47.33424" lon="-2.49412">
        <ele>-0.60000002384186</ele>
        <time>2022-07-28T08:35:40.000Z</time>
      </trkpt>
      <trkpt lat="47.33434" lon="-2.49494">
        <ele>-0.60000002384186</ele>
        <time>2022-07-28T08:35:49.000Z</time>
      </trkpt>
      <trkpt lat="47.33444" lon="-2.49576">
        <ele>-0.60000002384186</ele>
        <time>2022-07-28T08:35:58.000Z</time>
      </trkpt>
      <trkpt lat="47.33446" lon="-2.49594">
        <ele>-0.60000002384186</ele>
        <time>2022-07-28T08:36:00.000Z</time>
      </trkpt>
      <trkpt lat="47.33456" lon="-2.49648">
        <ele>-0.60000002384186</ele>
        <time>2022-07-28T08:36:06.000Z</time>
      </trkpt>
      <trkpt lat="47.33478" lon="-2.49707">
        <ele>-0.60000002384186</ele>
        <time>2022-07-28T08:36:13.000Z</time>
      </trkpt>
      <trkpt lat="47.33509" lon="-2.4978">
        <ele>-0.60000002384186</ele>
        <time>2022-07-28T08:36:22.000Z</time>
      </trkpt>
      <trkpt lat="47.33537" lon="-2.49851">
        <ele>-0.60000002384186</ele>
        <time>2022-07-28T08:36:31.000Z</time>
      </trkpt>
      <trkpt lat="47.33563" lon="-2.49926">
        <ele>-0.60000002384186</ele>
        <time>2022-07-28T08:36:40.000Z</time>
      </trkpt>
      <trkpt lat="47.33584" lon="-2.49991">
        <ele>-0.60000002384186</ele>
        <time>2022-07-28T08:36:48.000Z</time>
      </trkpt>
      <trkpt lat="47.33606" lon="-2.50052">
        <ele>-0.60000002384186</ele>
        <time>2022-07-28T08:36:56.000Z</time>
      </trkpt>
      <trkpt lat="47.3362" lon="-2.50087">
        <ele>-0.60000002384186</ele>
        <time>2022-07-28T08:37:01.000Z</time>
      </trkpt>
      <trkpt lat="47.33623" lon="-2.50092">
        <ele>-0.60000002384186</ele>
        <time>2022-07-28T08:37:02.000Z</time>
      </trkpt>
      <trkpt lat="47.33622" lon="-2.501">
        <ele>-0.60000002384186</ele>
        <time>2022-07-28T08:37:04.000Z</time>
      </trkpt>
      <trkpt lat="47.33617" lon="-2.50105">
        <ele>-0.60000002384186</ele>
        <time>2022-07-28T08:37:07.000Z</time>
      </trkpt>
      <trkpt lat="47.33612" lon="-2.50099">
        <ele>-0.60000002384186</ele>
        <time>2022-07-28T08:37:10.000Z</time>
      </trkpt>
      <trkpt lat="47.3361" lon="-2.50096">
        <ele>-0.60000002384186</ele>
        <time>2022-07-28T08:37:11.000Z</time>
      </trkpt>
      <trkpt lat="47.336" lon="-2.50088">
        <ele>-0.60000002384186</ele>
        <time>2022-07-28T08:37:14.000Z</time>
      </trkpt>
      <trkpt lat="47.33597" lon="-2.50084">
        <ele>-0.60000002384186</ele>
        <time>2022-07-28T08:37:15.000Z</time>
      </trkpt>
      <trkpt lat="47.33579" lon="-2.50067">
        <ele>-0.60000002384186</ele>
        <time>2022-07-28T08:37:19.000Z</time>
      </trkpt>
      <trkpt lat="47.33575" lon="-2.50064">
        <ele>-0.60000002384186</ele>
        <time>2022-07-28T08:37:20.000Z</time>
      </trkpt>
      <trkpt lat="47.33555" lon="-2.50046">
        <ele>-0.60000002384186</ele>
        <time>2022-07-28T08:37:26.000Z</time>
      </trkpt>
      <trkpt lat="47.33539" lon="-2.50029">
        <ele>-0.60000002384186</ele>
        <time>2022-07-28T08:37:32.000Z</time>
      </trkpt>
      <trkpt lat="47.33521" lon="-2.50005">
        <ele>-0.60000002384186</ele>
        <time>2022-07-28T08:37:38.000Z</time>
      </trkpt>
      <trkpt lat="47.33515" lon="-2.5">
        <ele>-0.60000002384186</ele>
        <time>2022-07-28T08:37:42.000Z</time>
      </trkpt>
      <trkpt lat="47.33515" lon="-2.49999">
        <ele>-0.60000002384186</ele>
        <time>2022-07-28T08:37:44.000Z</time>
      </trkpt>
      <trkpt lat="47.33507" lon="-2.49994">
        <ele>-0.60000002384186</ele>
        <time>2022-07-28T08:44:42.000Z</time>
      </trkpt>
      <trkpt lat="47.33495" lon="-2.49993">
        <ele>-0.60000002384186</ele>
        <time>2022-07-28T08:44:47.000Z</time>
      </trkpt>
      <trkpt lat="47.33473" lon="-2.49998">
        <ele>-0.60000002384186</ele>
        <time>2022-07-28T08:44:52.000Z</time>
      </trkpt>
      <trkpt lat="47.33451" lon="-2.5">
        <ele>-0.60000002384186</ele>
        <time>2022-07-28T08:44:57.000Z</time>
      </trkpt>
      <trkpt lat="47.33442" lon="-2.49998">
        <ele>-0.60000002384186</ele>
        <time>2022-07-28T08:44:59.000Z</time>
      </trkpt>
      <trkpt lat="47.33434" lon="-2.49994">
        <ele>-0.60000002384186</ele>
        <time>2022-07-28T08:45:01.000Z</time>
      </trkpt>
      <trkpt lat="47.33429" lon="-2.49991">
        <ele>-0.60000002384186</ele>
        <time>2022-07-28T08:45:02.000Z</time>
      </trkpt>
      <trkpt lat="47.33401" lon="-2.4997">
        <ele>-0.60000002384186</ele>
        <time>2022-07-28T08:45:09.000Z</time>
      </trkpt>
      <trkpt lat="47.3338" lon="-2.49957">
        <ele>-0.60000002384186</ele>
        <time>2022-07-28T08:45:14.000Z</time>
      </trkpt>
      <trkpt lat="47.33367" lon="-2.49945">
        <ele>-0.60000002384186</ele>
        <time>2022-07-28T08:45:17.000Z</time>
      </trkpt>
      <trkpt lat="47.3335" lon="-2.4993">
        <ele>-0.60000002384186</ele>
        <time>2022-07-28T08:45:21.000Z</time>
      </trkpt>
      <trkpt lat="47.33341" lon="-2.49921">
        <ele>-0.60000002384186</ele>
        <time>2022-07-28T08:45:23.000Z</time>
      </trkpt>
      <trkpt lat="47.33328" lon="-2.49908">
        <ele>-0.60000002384186</ele>
        <time>2022-07-28T08:45:26.000Z</time>
      </trkpt>
      <trkpt lat="47.33316" lon="-2.49893">
        <ele>-0.60000002384186</ele>
        <time>2022-07-28T08:45:29.000Z</time>
      </trkpt>
      <trkpt lat="47.33312" lon="-2.49889">
        <ele>-0.60000002384186</ele>
        <time>2022-07-28T08:45:30.000Z</time>
      </trkpt>
      <trkpt lat="47.33298" lon="-2.49877">
        <ele>-0.60000002384186</ele>
        <time>2022-07-28T08:45:33.000Z</time>
      </trkpt>
      <trkpt lat="47.3327" lon="-2.49847">
        <ele>-0.60000002384186</ele>
        <time>2022-07-28T08:45:40.000Z</time>
      </trkpt>
      <trkpt lat="47.33258" lon="-2.49834">
        <ele>-0.60000002384186</ele>
        <time>2022-07-28T08:45:43.000Z</time>
      </trkpt>
      <trkpt lat="47.33241" lon="-2.49817">
        <ele>-0.60000002384186</ele>
        <time>2022-07-28T08:45:47.000Z</time>
      </trkpt>
      <trkpt lat="47.3322" lon="-2.49797">
        <ele>-0.60000002384186</ele>
        <time>2022-07-28T08:45:52.000Z</time>
      </trkpt>
      <trkpt lat="47.33216" lon="-2.49792">
        <ele>-0.60000002384186</ele>
        <time>2022-07-28T08:45:53.000Z</time>
      </trkpt>
      <trkpt lat="47.33197" lon="-2.49774">
        <ele>-0.60000002384186</ele>
        <time>2022-07-28T08:45:57.000Z</time>
      </trkpt>
      <trkpt lat="47.33193" lon="-2.4977">
        <ele>-0.60000002384186</ele>
        <time>2022-07-28T08:45:58.000Z</time>
      </trkpt>
      <trkpt lat="47.33158" lon="-2.49733">
        <ele>-0.60000002384186</ele>
        <time>2022-07-28T08:46:06.000Z</time>
      </trkpt>
      <trkpt lat="47.33148" lon="-2.49724">
        <ele>-0.60000002384186</ele>
        <time>2022-07-28T08:46:08.000Z</time>
      </trkpt>
      <trkpt lat="47.33128" lon="-2.49711">
        <ele>-0.60000002384186</ele>
        <time>2022-07-28T08:46:12.000Z</time>
      </trkpt>
      <trkpt lat="47.33109" lon="-2.49698">
        <ele>-0.60000002384186</ele>
        <time>2022-07-28T08:46:16.000Z</time>
      </trkpt>
      <trkpt lat="47.33099" lon="-2.49693">
        <ele>-0.60000002384186</ele>
        <time>2022-07-28T08:46:18.000Z</time>
      </trkpt>
      <trkpt lat="47.33066" lon="-2.49677">
        <ele>-0.60000002384186</ele>
        <time>2022-07-28T08:46:24.000Z</time>
      </trkpt>
      <trkpt lat="47.33029" lon="-2.49661">
        <ele>-0.60000002384186</ele>
        <time>2022-07-28T08:46:31.000Z</time>
      </trkpt>
      <trkpt lat="47.33024" lon="-2.49658">
        <ele>-0.60000002384186</ele>
        <time>2022-07-28T08:46:32.000Z</time>
      </trkpt>
      <trkpt lat="47.33009" lon="-2.4965">
        <ele>-0.60000002384186</ele>
        <time>2022-07-28T08:46:35.000Z</time>
      </trkpt>
      <trkpt lat="47.32999" lon="-2.49649">
        <ele>-0.60000002384186</ele>
        <time>2022-07-28T08:46:37.000Z</time>
      </trkpt>
      <trkpt lat="47.32978" lon="-2.49644">
        <ele>-0.60000002384186</ele>
        <time>2022-07-28T08:46:41.000Z</time>
      </trkpt>
      <trkpt lat="47.32974" lon="-2.4964">
        <ele>-0.60000002384186</ele>
        <time>2022-07-28T08:46:42.000Z</time>
      </trkpt>
      <trkpt lat="47.32962" lon="-2.49627">
        <ele>-0.60000002384186</ele>
        <time>2022-07-28T08:46:45.000Z</time>
      </trkpt>
      <trkpt lat="47.32954" lon="-2.49615">
        <ele>-0.60000002384186</ele>
        <time>2022-07-28T08:46:47.000Z</time>
      </trkpt>
      <trkpt lat="47.32935" lon="-2.49603">
        <ele>-0.60000002384186</ele>
        <time>2022-07-28T08:46:51.000Z</time>
      </trkpt>
      <trkpt lat="47.32925" lon="-2.49602">
        <ele>-0.60000002384186</ele>
        <time>2022-07-28T08:46:53.000Z</time>
      </trkpt>
      <trkpt lat="47.32909" lon="-2.49599">
        <ele>-0.60000002384186</ele>
        <time>2022-07-28T08:46:56.000Z</time>
      </trkpt>
      <trkpt lat="47.32894" lon="-2.49597">
        <ele>-0.60000002384186</ele>
        <time>2022-07-28T08:46:59.000Z</time>
      </trkpt>
      <trkpt lat="47.32889" lon="-2.49596">
        <ele>-0.60000002384186</ele>
        <time>2022-07-28T08:47:00.000Z</time>
      </trkpt>
      <trkpt lat="47.32868" lon="-2.49585">
        <ele>-0.60000002384186</ele>
        <time>2022-07-28T08:47:04.000Z</time>
      </trkpt>
      <trkpt lat="47.32864" lon="-2.49581">
        <ele>-0.60000002384186</ele>
        <time>2022-07-28T08:47:05.000Z</time>
      </trkpt>
      <trkpt lat="47.3285" lon="-2.49561">
        <ele>-0.60000002384186</ele>
        <time>2022-07-28T08:47:09.000Z</time>
      </trkpt>
      <trkpt lat="47.32826" lon="-2.49529">
        <ele>-0.60000002384186</ele>
        <time>2022-07-28T08:47:15.000Z</time>
      </trkpt>
      <trkpt lat="47.32823" lon="-2.49523">
        <ele>-0.60000002384186</ele>
        <time>2022-07-28T08:47:16.000Z</time>
      </trkpt>
      <trkpt lat="47.32816" lon="-2.49502">
        <ele>-0.60000002384186</ele>
        <time>2022-07-28T08:47:19.000Z</time>
      </trkpt>
      <trkpt lat="47.32812" lon="-2.49488">
        <ele>-0.60000002384186</ele>
        <time>2022-07-28T08:47:21.000Z</time>
      </trkpt>
      <trkpt lat="47.32803" lon="-2.4947">
        <ele>-0.60000002384186</ele>
        <time>2022-07-28T08:47:24.000Z</time>
      </trkpt>
      <trkpt lat="47.32797" lon="-2.49459">
        <ele>-0.60000002384186</ele>
        <time>2022-07-28T08:47:26.000Z</time>
      </trkpt>
      <trkpt lat="47.32787" lon="-2.49453">
        <ele>-0.60000002384186</ele>
        <time>2022-07-28T08:47:28.000Z</time>
      </trkpt>
      <trkpt lat="47.32776" lon="-2.4945">
        <ele>-0.60000002384186</ele>
        <time>2022-07-28T08:47:30.000Z</time>
      </trkpt>
      <trkpt lat="47.32771" lon="-2.49447">
        <ele>-0.60000002384186</ele>
        <time>2022-07-28T08:47:31.000Z</time>
      </trkpt>
      <trkpt lat="47.32761" lon="-2.49441">
        <ele>-0.60000002384186</ele>
        <time>2022-07-28T08:47:33.000Z</time>
      </trkpt>
      <trkpt lat="47.32756" lon="-2.49437">
        <ele>-0.60000002384186</ele>
        <time>2022-07-28T08:47:34.000Z</time>
      </trkpt>
      <trkpt lat="47.32736" lon="-2.49424">
        <ele>-0.60000002384186</ele>
        <time>2022-07-28T08:47:38.000Z</time>
      </trkpt>
      <trkpt lat="47.32731" lon="-2.4942">
        <ele>-0.60000002384186</ele>
        <time>2022-07-28T08:47:39.000Z</time>
      </trkpt>
      <trkpt lat="47.32712" lon="-2.49406">
        <ele>-0.60000002384186</ele>
        <time>2022-07-28T08:47:43.000Z</time>
      </trkpt>
      <trkpt lat="47.3269" lon="-2.49392">
        <ele>-0.60000002384186</ele>
        <time>2022-07-28T08:47:47.000Z</time>
      </trkpt>
      <trkpt lat="47.32685" lon="-2.49388">
        <ele>-0.60000002384186</ele>
        <time>2022-07-28T08:47:48.000Z</time>
      </trkpt>
      <trkpt lat="47.32673" lon="-2.49371">
        <ele>-0.60000002384186</ele>
        <time>2022-07-28T08:47:51.000Z</time>
      </trkpt>
      <trkpt lat="47.32669" lon="-2.49364">
        <ele>-0.60000002384186</ele>
        <time>2022-07-28T08:47:52.000Z</time>
      </trkpt>
      <trkpt lat="47.32666" lon="-2.49357">
        <ele>-0.60000002384186</ele>
        <time>2022-07-28T08:47:53.000Z</time>
      </trkpt>
      <trkpt lat="47.32662" lon="-2.49343">
        <ele>-0.60000002384186</ele>
        <time>2022-07-28T08:47:55.000Z</time>
      </trkpt>
      <trkpt lat="47.32661" lon="-2.49335">
        <ele>-0.60000002384186</ele>
        <time>2022-07-28T08:47:56.000Z</time>
      </trkpt>
      <trkpt lat="47.32656" lon="-2.49313">
        <ele>-0.60000002384186</ele>
        <time>2022-07-28T08:47:59.000Z</time>
      </trkpt>
      <trkpt lat="47.3265" lon="-2.49301">
        <ele>-0.60000002384186</ele>
        <time>2022-07-28T08:48:01.000Z</time>
      </trkpt>
      <trkpt lat="47.32642" lon="-2.49291">
        <ele>-0.60000002384186</ele>
        <time>2022-07-28T08:48:03.000Z</time>
      </trkpt>
      <trkpt lat="47.32639" lon="-2.49285">
        <ele>-0.60000002384186</ele>
        <time>2022-07-28T08:48:04.000Z</time>
      </trkpt>
      <trkpt lat="47.32635" lon="-2.49273">
        <ele>-0.60000002384186</ele>
        <time>2022-07-28T08:48:06.000Z</time>
      </trkpt>
      <trkpt lat="47.32629" lon="-2.49259">
        <ele>-0.60000002384186</ele>
        <time>2022-07-28T08:48:08.000Z</time>
      </trkpt>
      <trkpt lat="47.32621" lon="-2.4924">
        <ele>-0.60000002384186</ele>
        <time>2022-07-28T08:48:11.000Z</time>
      </trkpt>
      <trkpt lat="47.32613" lon="-2.49229">
        <ele>-0.60000002384186</ele>
        <time>2022-07-28T08:48:14.000Z</time>
      </trkpt>
      <trkpt lat="47.32609" lon="-2.49229">
        <ele>-0.60000002384186</ele>
        <time>2022-07-28T08:48:15.000Z</time>
      </trkpt>
      <trkpt lat="47.32596" lon="-2.49241">
        <ele>-0.60000002384186</ele>
        <time>2022-07-28T08:48:19.000Z</time>
      </trkpt>
      <trkpt lat="47.32592" lon="-2.49246">
        <ele>-0.60000002384186</ele>
        <time>2022-07-28T08:48:20.000Z</time>
      </trkpt>
      <trkpt lat="47.32577" lon="-2.49265">
        <ele>-0.60000002384186</ele>
        <time>2022-07-28T08:48:24.000Z</time>
      </trkpt>
      <trkpt lat="47.32548" lon="-2.4929">
        <ele>-0.60000002384186</ele>
        <time>2022-07-28T08:48:30.000Z</time>
      </trkpt>
      <trkpt lat="47.32526" lon="-2.49311">
        <ele>-0.60000002384186</ele>
        <time>2022-07-28T08:48:35.000Z</time>
      </trkpt>
      <trkpt lat="47.32512" lon="-2.49307">
        <ele>-0.60000002384186</ele>
        <time>2022-07-28T08:48:38.000Z</time>
      </trkpt>
      <trkpt lat="47.32502" lon="-2.493">
        <ele>-0.60000002384186</ele>
        <time>2022-07-28T08:48:40.000Z</time>
      </trkpt>
      <trkpt lat="47.32486" lon="-2.49288">
        <ele>-0.60000002384186</ele>
        <time>2022-07-28T08:48:43.000Z</time>
      </trkpt>
      <trkpt lat="47.32446" lon="-2.49264">
        <ele>-0.60000002384186</ele>
        <time>2022-07-28T08:48:50.000Z</time>
      </trkpt>
      <trkpt lat="47.32397" lon="-2.49238">
        <ele>-0.60000002384186</ele>
        <time>2022-07-28T08:48:58.000Z</time>
      </trkpt>
      <trkpt lat="47.32349" lon="-2.49211">
        <ele>-0.60000002384186</ele>
        <time>2022-07-28T08:49:06.000Z</time>
      </trkpt>
      <trkpt lat="47.32313" lon="-2.49194">
        <ele>-0.60000002384186</ele>
        <time>2022-07-28T08:49:12.000Z</time>
      </trkpt>
      <trkpt lat="47.32295" lon="-2.49185">
        <ele>-0.60000002384186</ele>
        <time>2022-07-28T08:49:15.000Z</time>
      </trkpt>
      <trkpt lat="47.32259" lon="-2.49171">
        <ele>-0.60000002384186</ele>
        <time>2022-07-28T08:49:21.000Z</time>
      </trkpt>
      <trkpt lat="47.32203" lon="-2.49152">
        <ele>-0.60000002384186</ele>
        <time>2022-07-28T08:49:30.000Z</time>
      </trkpt>
      <trkpt lat="47.32198" lon="-2.4915">
        <ele>-0.60000002384186</ele>
        <time>2022-07-28T08:49:31.000Z</time>
      </trkpt>
      <trkpt lat="47.32192" lon="-2.49146">
        <ele>-0.60000002384186</ele>
        <time>2022-07-28T08:49:32.000Z</time>
      </trkpt>
      <trkpt lat="47.32184" lon="-2.49139">
        <ele>-0.60000002384186</ele>
        <time>2022-07-28T08:49:34.000Z</time>
      </trkpt>
      <trkpt lat="47.32181" lon="-2.49134">
        <ele>-0.60000002384186</ele>
        <time>2022-07-28T08:49:35.000Z</time>
      </trkpt>
      <trkpt lat="47.3218" lon="-2.49115">
        <ele>-0.60000002384186</ele>
        <time>2022-07-28T08:49:38.000Z</time>
      </trkpt>
      <trkpt lat="47.3218" lon="-2.49107">
        <ele>-0.20000000298023</ele>
        <time>2022-07-28T08:49:39.000Z</time>
      </trkpt>
      <trkpt lat="47.32179" lon="-2.491">
        <ele>0.20000000298023</ele>
        <time>2022-07-28T08:49:40.000Z</time>
      </trkpt>
      <trkpt lat="47.32178" lon="-2.49091">
        <ele>0.60000002384186</ele>
        <time>2022-07-28T08:49:41.000Z</time>
      </trkpt>
      <trkpt lat="47.32177" lon="-2.49083">
        <ele>1</ele>
        <time>2022-07-28T08:49:42.000Z</time>
      </trkpt>
      <trkpt lat="47.32176" lon="-2.49075">
        <ele>1.3999999761581</ele>
        <time>2022-07-28T08:49:43.000Z</time>
      </trkpt>
      <trkpt lat="47.32173" lon="-2.49068">
        <ele>1.3999999761581</ele>
        <time>2022-07-28T08:49:44.000Z</time>
      </trkpt>
      <trkpt lat="47.32166" lon="-2.49057">
        <ele>1.3999999761581</ele>
        <time>2022-07-28T08:49:46.000Z</time>
      </trkpt>
      <trkpt lat="47.32151" lon="-2.4905">
        <ele>1.3999999761581</ele>
        <time>2022-07-28T08:49:49.000Z</time>
      </trkpt>
      <trkpt lat="47.32146" lon="-2.4905">
        <ele>1.3999999761581</ele>
        <time>2022-07-28T08:49:50.000Z</time>
      </trkpt>
      <trkpt lat="47.32142" lon="-2.49048">
        <ele>1.3999999761581</ele>
        <time>2022-07-28T08:49:51.000Z</time>
      </trkpt>
      <trkpt lat="47.32137" lon="-2.49038">
        <ele>1.3999999761581</ele>
        <time>2022-07-28T08:49:53.000Z</time>
      </trkpt>
      <trkpt lat="47.32137" lon="-2.49015">
        <ele>1.3999999761581</ele>
        <time>2022-07-28T08:49:56.000Z</time>
      </trkpt>
      <trkpt lat="47.32136" lon="-2.48964">
        <ele>1.3999999761581</ele>
        <time>2022-07-28T08:50:02.000Z</time>
      </trkpt>
      <trkpt lat="47.32136" lon="-2.48947">
        <ele>1.3999999761581</ele>
        <time>2022-07-28T08:50:04.000Z</time>
      </trkpt>
      <trkpt lat="47.32141" lon="-2.48924">
        <ele>1.3999999761581</ele>
        <time>2022-07-28T08:50:07.000Z</time>
      </trkpt>
      <trkpt lat="47.32148" lon="-2.48901">
        <ele>1.3999999761581</ele>
        <time>2022-07-28T08:50:10.000Z</time>
      </trkpt>
      <trkpt lat="47.32159" lon="-2.48882">
        <ele>1.3999999761581</ele>
        <time>2022-07-28T08:50:13.000Z</time>
      </trkpt>
      <trkpt lat="47.32186" lon="-2.48834">
        <ele>1.3999999761581</ele>
        <time>2022-07-28T08:50:21.000Z</time>
      </trkpt>
      <trkpt lat="47.32201" lon="-2.48811">
        <ele>1.3999999761581</ele>
        <time>2022-07-28T08:50:26.000Z</time>
      </trkpt>
      <trkpt lat="47.32207" lon="-2.48803">
        <ele>1.3999999761581</ele>
        <time>2022-07-28T08:50:28.000Z</time>
      </trkpt>
      <trkpt lat="47.32211" lon="-2.48795">
        <ele>1.3999999761581</ele>
        <time>2022-07-28T08:50:31.000Z</time>
      </trkpt>
      <trkpt lat="47.32216" lon="-2.48784">
        <ele>1.3999999761581</ele>
        <time>2022-07-28T08:50:35.000Z</time>
      </trkpt>
      <trkpt lat="47.32215" lon="-2.48781">
        <ele>1.3999999761581</ele>
        <time>2022-07-28T08:50:36.000Z</time>
      </trkpt>
      <trkpt lat="47.32204" lon="-2.48771">
        <ele>1.3999999761581</ele>
        <time>2022-07-28T08:50:39.000Z</time>
      </trkpt>
      <trkpt lat="47.32197" lon="-2.48762">
        <ele>1.3999999761581</ele>
        <time>2022-07-28T08:50:41.000Z</time>
      </trkpt>
      <trkpt lat="47.32182" lon="-2.48742">
        <ele>1.3999999761581</ele>
        <time>2022-07-28T08:50:45.000Z</time>
      </trkpt>
      <trkpt lat="47.32157" lon="-2.48703">
        <ele>1.3999999761581</ele>
        <time>2022-07-28T08:50:52.000Z</time>
      </trkpt>
      <trkpt lat="47.32137" lon="-2.48663">
        <ele>1.3999999761581</ele>
        <time>2022-07-28T08:50:58.000Z</time>
      </trkpt>
      <trkpt lat="47.32133" lon="-2.48657">
        <ele>1.3999999761581</ele>
        <time>2022-07-28T08:50:59.000Z</time>
      </trkpt>
      <trkpt lat="47.32121" lon="-2.48641">
        <ele>1.3999999761581</ele>
        <time>2022-07-28T08:51:02.000Z</time>
      </trkpt>
      <trkpt lat="47.32116" lon="-2.48636">
        <ele>1.3999999761581</ele>
        <time>2022-07-28T08:51:03.000Z</time>
      </trkpt>
      <trkpt lat="47.32077" lon="-2.48601">
        <ele>1.3999999761581</ele>
        <time>2022-07-28T08:51:11.000Z</time>
      </trkpt>
      <trkpt lat="47.32045" lon="-2.4858">
        <ele>1.3999999761581</ele>
        <time>2022-07-28T08:51:17.000Z</time>
      </trkpt>
      <trkpt lat="47.32013" lon="-2.4857">
        <ele>1.3999999761581</ele>
        <time>2022-07-28T08:51:23.000Z</time>
      </trkpt>
      <trkpt lat="47.31993" lon="-2.48557">
        <ele>1.3999999761581</ele>
        <time>2022-07-28T08:51:27.000Z</time>
      </trkpt>
      <trkpt lat="47.31983" lon="-2.48552">
        <ele>1.3999999761581</ele>
        <time>2022-07-28T08:51:29.000Z</time>
      </trkpt>
      <trkpt lat="47.31962" lon="-2.4854">
        <ele>1.3999999761581</ele>
        <time>2022-07-28T08:51:33.000Z</time>
      </trkpt>
      <trkpt lat="47.31947" lon="-2.48527">
        <ele>1.3999999761581</ele>
        <time>2022-07-28T08:51:36.000Z</time>
      </trkpt>
      <trkpt lat="47.31938" lon="-2.48517">
        <ele>1.3999999761581</ele>
        <time>2022-07-28T08:51:38.000Z</time>
      </trkpt>
      <trkpt lat="47.31926" lon="-2.48499">
        <ele>1.3999999761581</ele>
        <time>2022-07-28T08:51:41.000Z</time>
      </trkpt>
      <trkpt lat="47.31908" lon="-2.48462">
        <ele>1.3999999761581</ele>
        <time>2022-07-28T08:51:47.000Z</time>
      </trkpt>
      <trkpt lat="47.31906" lon="-2.48455">
        <ele>1.3999999761581</ele>
        <time>2022-07-28T08:51:48.000Z</time>
      </trkpt>
      <trkpt lat="47.31895" lon="-2.48408">
        <ele>1.3999999761581</ele>
        <time>2022-07-28T08:51:54.000Z</time>
      </trkpt>
      <trkpt lat="47.31895" lon="-2.48392">
        <ele>1.3999999761581</ele>
        <time>2022-07-28T08:51:56.000Z</time>
      </trkpt>
      <trkpt lat="47.31897" lon="-2.48368">
        <ele>1.3999999761581</ele>
        <time>2022-07-28T08:51:59.000Z</time>
      </trkpt>
      <trkpt lat="47.31899" lon="-2.4836">
        <ele>1.3999999761581</ele>
        <time>2022-07-28T08:52:00.000Z</time>
      </trkpt>
      <trkpt lat="47.31907" lon="-2.48306">
        <ele>1.3999999761581</ele>
        <time>2022-07-28T08:52:07.000Z</time>
      </trkpt>
      <trkpt lat="47.31911" lon="-2.48253">
        <ele>1.3999999761581</ele>
        <time>2022-07-28T08:52:14.000Z</time>
      </trkpt>
      <trkpt lat="47.31914" lon="-2.48223">
        <ele>1.3999999761581</ele>
        <time>2022-07-28T08:52:18.000Z</time>
      </trkpt>
      <trkpt lat="47.31916" lon="-2.48215">
        <ele>1.3999999761581</ele>
        <time>2022-07-28T08:52:20.000Z</time>
      </trkpt>
      <trkpt lat="47.31927" lon="-2.48195">
        <ele>1.3999999761581</ele>
        <time>2022-07-28T08:52:24.000Z</time>
      </trkpt>
      <trkpt lat="47.31932" lon="-2.48191">
        <ele>1.3999999761581</ele>
        <time>2022-07-28T08:52:26.000Z</time>
      </trkpt>
      <trkpt lat="47.31934" lon="-2.48187">
        <ele>1.3999999761581</ele>
        <time>2022-07-28T08:52:28.000Z</time>
      </trkpt>
      <trkpt lat="47.31935" lon="-2.48187">
        <ele>1.3999999761581</ele>
        <time>2022-07-28T08:52:30.000Z</time>
      </trkpt>
      <trkpt lat="47.31937" lon="-2.48184">
        <ele>1.3999999761581</ele>
        <time>2022-07-28T08:54:18.000Z</time>
      </trkpt>
      <trkpt lat="47.31938" lon="-2.48183">
        <ele>1.3999999761581</ele>
        <time>2022-07-28T08:54:19.000Z</time>
      </trkpt>
      <trkpt lat="47.31949" lon="-2.48174">
        <ele>1.3999999761581</ele>
        <time>2022-07-28T08:54:24.000Z</time>
      </trkpt>
      <trkpt lat="47.31965" lon="-2.48163">
        <ele>1.3999999761581</ele>
        <time>2022-07-28T08:54:29.000Z</time>
      </trkpt>
      <trkpt lat="47.31977" lon="-2.48154">
        <ele>1.3999999761581</ele>
        <time>2022-07-28T08:54:32.000Z</time>
      </trkpt>
      <trkpt lat="47.31985" lon="-2.48146">
        <ele>1.3999999761581</ele>
        <time>2022-07-28T08:54:34.000Z</time>
      </trkpt>
      <trkpt lat="47.32012" lon="-2.48127">
        <ele>1.3999999761581</ele>
        <time>2022-07-28T08:54:40.000Z</time>
      </trkpt>
      <trkpt lat="47.32016" lon="-2.48125">
        <ele>1.3999999761581</ele>
        <time>2022-07-28T08:54:41.000Z</time>
      </trkpt>
      <trkpt lat="47.3203" lon="-2.48123">
        <ele>1.3999999761581</ele>
        <time>2022-07-28T08:54:44.000Z</time>
      </trkpt>
      <trkpt lat="47.32035" lon="-2.48123">
        <ele>1.3999999761581</ele>
        <time>2022-07-28T08:54:45.000Z</time>
      </trkpt>
      <trkpt lat="47.32069" lon="-2.48117">
        <ele>1.3999999761581</ele>
        <time>2022-07-28T08:54:52.000Z</time>
      </trkpt>
      <trkpt lat="47.32094" lon="-2.48112">
        <ele>1.3999999761581</ele>
        <time>2022-07-28T08:54:57.000Z</time>
      </trkpt>
      <trkpt lat="47.32105" lon="-2.48111">
        <ele>1.3999999761581</ele>
        <time>2022-07-28T08:54:59.000Z</time>
      </trkpt>
      <trkpt lat="47.32133" lon="-2.48114">
        <ele>1.3999999761581</ele>
        <time>2022-07-28T08:55:04.000Z</time>
      </trkpt>
      <trkpt lat="47.32145" lon="-2.48114">
        <ele>1.3999999761581</ele>
        <time>2022-07-28T08:55:06.000Z</time>
      </trkpt>
      <trkpt lat="47.32156" lon="-2.48109">
        <ele>1.3999999761581</ele>
        <time>2022-07-28T08:55:08.000Z</time>
      </trkpt>
      <trkpt lat="47.32169" lon="-2.48093">
        <ele>1.3999999761581</ele>
        <time>2022-07-28T08:55:11.000Z</time>
      </trkpt>
      <trkpt lat="47.32172" lon="-2.48068">
        <ele>1.3999999761581</ele>
        <time>2022-07-28T08:55:14.000Z</time>
      </trkpt>
      <trkpt lat="47.32168" lon="-2.48053">
        <ele>1.3999999761581</ele>
        <time>2022-07-28T08:55:16.000Z</time>
      </trkpt>
      <trkpt lat="47.32164" lon="-2.48039">
        <ele>1.3999999761581</ele>
        <time>2022-07-28T08:55:18.000Z</time>
      </trkpt>
      <trkpt lat="47.32166" lon="-2.48015">
        <ele>1.3999999761581</ele>
        <time>2022-07-28T08:55:21.000Z</time>
      </trkpt>
      <trkpt lat="47.3217" lon="-2.48">
        <ele>1.3999999761581</ele>
        <time>2022-07-28T08:55:23.000Z</time>
      </trkpt>
      <trkpt lat="47.32176" lon="-2.47985">
        <ele>1.3999999761581</ele>
        <time>2022-07-28T08:55:25.000Z</time>
      </trkpt>
      <trkpt lat="47.32179" lon="-2.47978">
        <ele>1.3999999761581</ele>
        <time>2022-07-28T08:55:26.000Z</time>
      </trkpt>
      <trkpt lat="47.32192" lon="-2.4795">
        <ele>1.3999999761581</ele>
        <time>2022-07-28T08:55:30.000Z</time>
      </trkpt>
      <trkpt lat="47.32199" lon="-2.47939">
        <ele>1.3999999761581</ele>
        <time>2022-07-28T08:55:32.000Z</time>
      </trkpt>
      <trkpt lat="47.32225" lon="-2.47896">
        <ele>1.3999999761581</ele>
        <time>2022-07-28T08:55:39.000Z</time>
      </trkpt>
      <trkpt lat="47.32238" lon="-2.47876">
        <ele>1.3999999761581</ele>
        <time>2022-07-28T08:55:43.000Z</time>
      </trkpt>
      <trkpt lat="47.32247" lon="-2.47867">
        <ele>1.3999999761581</ele>
        <time>2022-07-28T08:55:45.000Z</time>
      </trkpt>
      <trkpt lat="47.32276" lon="-2.47848">
        <ele>1.3999999761581</ele>
        <time>2022-07-28T08:55:51.000Z</time>
      </trkpt>
      <trkpt lat="47.3229" lon="-2.47841">
        <ele>1.3999999761581</ele>
        <time>2022-07-28T08:55:54.000Z</time>
      </trkpt>
      <trkpt lat="47.32305" lon="-2.47836">
        <ele>1.3999999761581</ele>
        <time>2022-07-28T08:55:57.000Z</time>
      </trkpt>
      <trkpt lat="47.3233" lon="-2.4784">
        <ele>1.3999999761581</ele>
        <time>2022-07-28T08:56:02.000Z</time>
      </trkpt>
      <trkpt lat="47.32341" lon="-2.47855">
        <ele>1.3999999761581</ele>
        <time>2022-07-28T08:56:05.000Z</time>
      </trkpt>
      <trkpt lat="47.32341" lon="-2.47877">
        <ele>1.3999999761581</ele>
        <time>2022-07-28T08:56:08.000Z</time>
      </trkpt>
      <trkpt lat="47.32331" lon="-2.47904">
        <ele>1.3999999761581</ele>
        <time>2022-07-28T08:56:12.000Z</time>
      </trkpt>
      <trkpt lat="47.32328" lon="-2.47927">
        <ele>1.3999999761581</ele>
        <time>2022-07-28T08:56:15.000Z</time>
      </trkpt>
      <trkpt lat="47.32327" lon="-2.47935">
        <ele>1.3999999761581</ele>
        <time>2022-07-28T08:56:16.000Z</time>
      </trkpt>
      <trkpt lat="47.32324" lon="-2.47959">
        <ele>1.3999999761581</ele>
        <time>2022-07-28T08:56:19.000Z</time>
      </trkpt>
      <trkpt lat="47.32325" lon="-2.47975">
        <ele>1.3999999761581</ele>
        <time>2022-07-28T08:56:21.000Z</time>
      </trkpt>
      <trkpt lat="47.32329" lon="-2.4799">
        <ele>1.3999999761581</ele>
        <time>2022-07-28T08:56:23.000Z</time>
      </trkpt>
      <trkpt lat="47.32332" lon="-2.47997">
        <ele>1.3999999761581</ele>
        <time>2022-07-28T08:56:24.000Z</time>
      </trkpt>
      <trkpt lat="47.32339" lon="-2.48009">
        <ele>1.3999999761581</ele>
        <time>2022-07-28T08:56:26.000Z</time>
      </trkpt>
      <trkpt lat="47.32348" lon="-2.4802">
        <ele>1.3999999761581</ele>
        <time>2022-07-28T08:56:28.000Z</time>
      </trkpt>
      <trkpt lat="47.3236" lon="-2.48035">
        <ele>1.3999999761581</ele>
        <time>2022-07-28T08:56:31.000Z</time>
      </trkpt>
      <trkpt lat="47.32364" lon="-2.48039">
        <ele>1.3999999761581</ele>
        <time>2022-07-28T08:56:32.000Z</time>
      </trkpt>
      <trkpt lat="47.32379" lon="-2.48047">
        <ele>1.3999999761581</ele>
        <time>2022-07-28T08:56:35.000Z</time>
      </trkpt>
      <trkpt lat="47.32401" lon="-2.48052">
        <ele>1.3999999761581</ele>
        <time>2022-07-28T08:56:39.000Z</time>
      </trkpt>
      <trkpt lat="47.32407" lon="-2.48053">
        <ele>1.3999999761581</ele>
        <time>2022-07-28T08:56:40.000Z</time>
      </trkpt>
      <trkpt lat="47.32425" lon="-2.48061">
        <ele>1.3999999761581</ele>
        <time>2022-07-28T08:56:43.000Z</time>
      </trkpt>
      <trkpt lat="47.32436" lon="-2.48063">
        <ele>1.3999999761581</ele>
        <time>2022-07-28T08:56:45.000Z</time>
      </trkpt>
      <trkpt lat="47.32441" lon="-2.48065">
        <ele>1.3999999761581</ele>
        <time>2022-07-28T08:56:46.000Z</time>
      </trkpt>
      <trkpt lat="47.32457" lon="-2.48077">
        <ele>1.3999999761581</ele>
        <time>2022-07-28T08:56:49.000Z</time>
      </trkpt>
      <trkpt lat="47.32492" lon="-2.4811">
        <ele>1.3999999761581</ele>
        <time>2022-07-28T08:56:56.000Z</time>
      </trkpt>
      <trkpt lat="47.32522" lon="-2.48139">
        <ele>1.3999999761581</ele>
        <time>2022-07-28T08:57:02.000Z</time>
      </trkpt>
      <trkpt lat="47.32526" lon="-2.48142">
        <ele>1.3999999761581</ele>
        <time>2022-07-28T08:57:03.000Z</time>
      </trkpt>
      <trkpt lat="47.32537" lon="-2.48152">
        <ele>1.3999999761581</ele>
        <time>2022-07-28T08:57:06.000Z</time>
      </trkpt>
      <trkpt lat="47.32549" lon="-2.48168">
        <ele>1.3999999761581</ele>
        <time>2022-07-28T08:57:10.000Z</time>
      </trkpt>
      <trkpt lat="47.32564" lon="-2.48172">
        <ele>1.3999999761581</ele>
        <time>2022-07-28T08:57:13.000Z</time>
      </trkpt>
      <trkpt lat="47.3257" lon="-2.48173">
        <ele>1.3999999761581</ele>
        <time>2022-07-28T08:57:14.000Z</time>
      </trkpt>
      <trkpt lat="47.3258" lon="-2.48172">
        <ele>1.3999999761581</ele>
        <time>2022-07-28T08:57:16.000Z</time>
      </trkpt>
      <trkpt lat="47.32591" lon="-2.48169">
        <ele>1.3999999761581</ele>
        <time>2022-07-28T08:57:18.000Z</time>
      </trkpt>
      <trkpt lat="47.32602" lon="-2.48166">
        <ele>1.3999999761581</ele>
        <time>2022-07-28T08:57:20.000Z</time>
      </trkpt>
      <trkpt lat="47.3263" lon="-2.48163">
        <ele>1.3999999761581</ele>
        <time>2022-07-28T08:57:25.000Z</time>
      </trkpt>
      <trkpt lat="47.32642" lon="-2.48162">
        <ele>1</ele>
        <time>2022-07-28T08:57:27.000Z</time>
      </trkpt>
      <trkpt lat="47.32647" lon="-2.48163">
        <ele>0.40000000596046</ele>
        <time>2022-07-28T08:57:28.000Z</time>
      </trkpt>
      <trkpt lat="47.32653" lon="-2.48163">
        <ele>2.9</ele>
        <time>2022-07-28T08:57:29.000Z</time>
      </trkpt>
      <trkpt lat="47.32658" lon="-2.48164">
        <ele>-0.40000000596046</ele>
        <time>2022-07-28T08:57:30.000Z</time>
      </trkpt>
      <trkpt lat="47.32663" lon="-2.48165">
        <ele>-0.80000001192093</ele>
        <time>2022-07-28T08:57:31.000Z</time>
      </trkpt>
      <trkpt lat="47.32672" lon="-2.48169">
        <ele>-0.80000001192093</ele>
        <time>2022-07-28T08:57:33.000Z</time>
      </trkpt>
      <trkpt lat="47.32686" lon="-2.4818">
        <ele>-0.80000001192093</ele>
        <time>2022-07-28T08:57:36.000Z</time>
      </trkpt>
      <trkpt lat="47.32704" lon="-2.48194">
        <ele>-0.80000001192093</ele>
        <time>2022-07-28T08:57:40.000Z</time>
      </trkpt>
      <trkpt lat="47.32724" lon="-2.48202">
        <ele>-0.80000001192093</ele>
        <time>2022-07-28T08:57:44.000Z</time>
      </trkpt>
      <trkpt lat="47.32729" lon="-2.48207">
        <ele>-0.80000001192093</ele>
        <time>2022-07-28T08:57:45.000Z</time>
      </trkpt>
      <trkpt lat="47.32754" lon="-2.48229">
        <ele>-0.80000001192093</ele>
        <time>2022-07-28T08:57:50.000Z</time>
      </trkpt>
      <trkpt lat="47.32775" lon="-2.48258">
        <ele>-0.80000001192093</ele>
        <time>2022-07-28T08:57:55.000Z</time>
      </trkpt>
      <trkpt lat="47.32784" lon="-2.48279">
        <ele>-0.80000001192093</ele>
        <time>2022-07-28T08:57:58.000Z</time>
      </trkpt>
      <trkpt lat="47.32792" lon="-2.4829">
        <ele>-0.80000001192093</ele>
        <time>2022-07-28T08:58:00.000Z</time>
      </trkpt>
      <trkpt lat="47.32808" lon="-2.4831">
        <ele>-0.80000001192093</ele>
        <time>2022-07-28T08:58:04.000Z</time>
      </trkpt>
      <trkpt lat="47.32817" lon="-2.48321">
        <ele>-0.80000001192093</ele>
        <time>2022-07-28T08:58:06.000Z</time>
      </trkpt>
      <trkpt lat="47.3282" lon="-2.48329">
        <ele>-0.80000001192093</ele>
        <time>2022-07-28T08:58:07.000Z</time>
      </trkpt>
      <trkpt lat="47.32831" lon="-2.48346">
        <ele>-0.80000001192093</ele>
        <time>2022-07-28T08:58:10.000Z</time>
      </trkpt>
      <trkpt lat="47.32836" lon="-2.48351">
        <ele>-0.80000001192093</ele>
        <time>2022-07-28T08:58:11.000Z</time>
      </trkpt>
      <trkpt lat="47.32845" lon="-2.48358">
        <ele>-0.80000001192093</ele>
        <time>2022-07-28T08:58:13.000Z</time>
      </trkpt>
      <trkpt lat="47.32856" lon="-2.48357">
        <ele>-0.80000001192093</ele>
        <time>2022-07-28T08:58:15.000Z</time>
      </trkpt>
      <trkpt lat="47.32866" lon="-2.48354">
        <ele>-0.80000001192093</ele>
        <time>2022-07-28T08:58:17.000Z</time>
      </trkpt>
      <trkpt lat="47.32881" lon="-2.48352">
        <ele>-0.80000001192093</ele>
        <time>2022-07-28T08:58:20.000Z</time>
      </trkpt>
      <trkpt lat="47.3289" lon="-2.48369">
        <ele>-0.80000001192093</ele>
        <time>2022-07-28T08:58:23.000Z</time>
      </trkpt>
      <trkpt lat="47.32895" lon="-2.48392">
        <ele>-0.80000001192093</ele>
        <time>2022-07-28T08:58:26.000Z</time>
      </trkpt>
      <trkpt lat="47.32898" lon="-2.48407">
        <ele>-0.80000001192093</ele>
        <time>2022-07-28T08:58:28.000Z</time>
      </trkpt>
      <trkpt lat="47.3291" lon="-2.48463">
        <ele>-0.80000001192093</ele>
        <time>2022-07-28T08:58:35.000Z</time>
      </trkpt>
      <trkpt lat="47.32921" lon="-2.48509">
        <ele>-0.80000001192093</ele>
        <time>2022-07-28T08:58:41.000Z</time>
      </trkpt>
      <trkpt lat="47.32932" lon="-2.48539">
        <ele>-0.80000001192093</ele>
        <time>2022-07-28T08:58:47.000Z</time>
      </trkpt>
      <trkpt lat="47.32943" lon="-2.48533">
        <ele>-0.80000001192093</ele>
        <time>2022-07-28T08:58:51.000Z</time>
      </trkpt>
      <trkpt lat="47.3296" lon="-2.48516">
        <ele>-0.80000001192093</ele>
        <time>2022-07-28T08:58:56.000Z</time>
      </trkpt>
      <trkpt lat="47.32964" lon="-2.48513">
        <ele>-0.80000001192093</ele>
        <time>2022-07-28T08:58:57.000Z</time>
      </trkpt>
      <trkpt lat="47.32972" lon="-2.48505">
        <ele>-0.80000001192093</ele>
        <time>2022-07-28T08:58:59.000Z</time>
      </trkpt>
      <trkpt lat="47.32986" lon="-2.48492">
        <ele>-0.80000001192093</ele>
        <time>2022-07-28T08:59:02.000Z</time>
      </trkpt>
      <trkpt lat="47.33019" lon="-2.48468">
        <ele>-0.80000001192093</ele>
        <time>2022-07-28T08:59:08.000Z</time>
      </trkpt>
      <trkpt lat="47.33045" lon="-2.48451">
        <ele>-0.80000001192093</ele>
        <time>2022-07-28T08:59:13.000Z</time>
      </trkpt>
      <trkpt lat="47.3308" lon="-2.48427">
        <ele>-0.80000001192093</ele>
        <time>2022-07-28T08:59:20.000Z</time>
      </trkpt>
      <trkpt lat="47.33113" lon="-2.48405">
        <ele>-0.80000001192093</ele>
        <time>2022-07-28T08:59:27.000Z</time>
      </trkpt>
      <trkpt lat="47.33126" lon="-2.48392">
        <ele>-0.80000001192093</ele>
        <time>2022-07-28T08:59:30.000Z</time>
      </trkpt>
      <trkpt lat="47.33133" lon="-2.48379">
        <ele>-0.80000001192093</ele>
        <time>2022-07-28T08:59:32.000Z</time>
      </trkpt>
      <trkpt lat="47.33139" lon="-2.48358">
        <ele>-0.80000001192093</ele>
        <time>2022-07-28T08:59:35.000Z</time>
      </trkpt>
      <trkpt lat="47.33143" lon="-2.48342">
        <ele>-0.80000001192093</ele>
        <time>2022-07-28T08:59:37.000Z</time>
      </trkpt>
      <trkpt lat="47.33144" lon="-2.48334">
        <ele>-0.80000001192093</ele>
        <time>2022-07-28T08:59:38.000Z</time>
      </trkpt>
      <trkpt lat="47.33144" lon="-2.4831">
        <ele>-0.80000001192093</ele>
        <time>2022-07-28T08:59:41.000Z</time>
      </trkpt>
      <trkpt lat="47.33143" lon="-2.48302">
        <ele>-0.80000001192093</ele>
        <time>2022-07-28T08:59:42.000Z</time>
      </trkpt>
      <trkpt lat="47.33142" lon="-2.48268">
        <ele>-0.80000001192093</ele>
        <time>2022-07-28T08:59:46.000Z</time>
      </trkpt>
      <trkpt lat="47.33139" lon="-2.48196">
        <ele>-0.80000001192093</ele>
        <time>2022-07-28T08:59:54.000Z</time>
      </trkpt>
      <trkpt lat="47.3314" lon="-2.48136">
        <ele>-0.80000001192093</ele>
        <time>2022-07-28T09:00:00.000Z</time>
      </trkpt>
      <trkpt lat="47.33143" lon="-2.48073">
        <ele>-0.80000001192093</ele>
        <time>2022-07-28T09:00:07.000Z</time>
      </trkpt>
      <trkpt lat="47.33146" lon="-2.4801">
        <ele>-0.80000001192093</ele>
        <time>2022-07-28T09:00:14.000Z</time>
      </trkpt>
      <trkpt lat="47.33149" lon="-2.47963">
        <ele>-0.80000001192093</ele>
        <time>2022-07-28T09:00:20.000Z</time>
      </trkpt>
      <trkpt lat="47.33153" lon="-2.47928">
        <ele>-0.80000001192093</ele>
        <time>2022-07-28T09:00:25.000Z</time>
      </trkpt>
      <trkpt lat="47.33158" lon="-2.47915">
        <ele>-0.80000001192093</ele>
        <time>2022-07-28T09:00:27.000Z</time>
      </trkpt>
      <trkpt lat="47.33168" lon="-2.47897">
        <ele>-0.80000001192093</ele>
        <time>2022-07-28T09:00:30.000Z</time>
      </trkpt>
      <trkpt lat="47.33175" lon="-2.47884">
        <ele>-0.80000001192093</ele>
        <time>2022-07-28T09:00:32.000Z</time>
      </trkpt>
      <trkpt lat="47.33182" lon="-2.47873">
        <ele>-0.80000001192093</ele>
        <time>2022-07-28T09:00:34.000Z</time>
      </trkpt>
      <trkpt lat="47.33189" lon="-2.47862">
        <ele>-0.80000001192093</ele>
        <time>2022-07-28T09:00:36.000Z</time>
      </trkpt>
      <trkpt lat="47.33192" lon="-2.47857">
        <ele>-0.80000001192093</ele>
        <time>2022-07-28T09:00:37.000Z</time>
      </trkpt>
      <trkpt lat="47.33215" lon="-2.47829">
        <ele>-0.80000001192093</ele>
        <time>2022-07-28T09:00:43.000Z</time>
      </trkpt>
      <trkpt lat="47.33244" lon="-2.47796">
        <ele>-0.80000001192093</ele>
        <time>2022-07-28T09:00:50.000Z</time>
      </trkpt>
      <trkpt lat="47.33271" lon="-2.47767">
        <ele>-0.80000001192093</ele>
        <time>2022-07-28T09:00:57.000Z</time>
      </trkpt>
      <trkpt lat="47.33275" lon="-2.47763">
        <ele>-0.80000001192093</ele>
        <time>2022-07-28T09:00:58.000Z</time>
      </trkpt>
      <trkpt lat="47.33287" lon="-2.47754">
        <ele>-0.80000001192093</ele>
        <time>2022-07-28T09:01:01.000Z</time>
      </trkpt>
      <trkpt lat="47.33295" lon="-2.47748">
        <ele>-0.40000000596046</ele>
        <time>2022-07-28T09:01:03.000Z</time>
      </trkpt>
      <trkpt lat="47.33298" lon="-2.47745">
        <ele>6</ele>
        <time>2022-07-28T09:01:04.000Z</time>
      </trkpt>
      <trkpt lat="47.33301" lon="-2.47743">
        <ele>0.40000000596046</ele>
        <time>2022-07-28T09:01:05.000Z</time>
      </trkpt>
      <trkpt lat="47.33305" lon="-2.4774">
        <ele>0.80000001192093</ele>
        <time>2022-07-28T09:01:06.000Z</time>
      </trkpt>
      <trkpt lat="47.33308" lon="-2.47738">
        <ele>1.2000000476837</ele>
        <time>2022-07-28T09:01:07.000Z</time>
      </trkpt>
      <trkpt lat="47.33322" lon="-2.47728">
        <ele>1.2000000476837</ele>
        <time>2022-07-28T09:01:11.000Z</time>
      </trkpt>
      <trkpt lat="47.33344" lon="-2.47712">
        <ele>1.2000000476837</ele>
        <time>2022-07-28T09:01:17.000Z</time>
      </trkpt>
      <trkpt lat="47.33355" lon="-2.47703">
        <ele>1.6000000238419</ele>
        <time>2022-07-28T09:01:21.000Z</time>
      </trkpt>
      <trkpt lat="47.33358" lon="-2.47701">
        <ele>2</ele>
        <time>2022-07-28T09:01:22.000Z</time>
      </trkpt>
      <trkpt lat="47.3336" lon="-2.47699">
        <ele>2.4000000953674</ele>
        <time>2022-07-28T09:01:23.000Z</time>
      </trkpt>
      <trkpt lat="47.33362" lon="-2.47696">
        <ele>2.7999999523163</ele>
        <time>2022-07-28T09:01:24.000Z</time>
      </trkpt>
      <trkpt lat="47.33364" lon="-2.47694">
        <ele>3.2000000476837</ele>
        <time>2022-07-28T09:01:25.000Z</time>
      </trkpt>
      <trkpt lat="47.33372" lon="-2.47688">
        <ele>3.2000000476837</ele>
        <time>2022-07-28T09:01:28.000Z</time>
      </trkpt>
      <trkpt lat="47.33385" lon="-2.47674">
        <ele>3.2000000476837</ele>
        <time>2022-07-28T09:01:34.000Z</time>
      </trkpt>
      <trkpt lat="47.33391" lon="-2.47667">
        <ele>3.2000000476837</ele>
        <time>2022-07-28T09:01:38.000Z</time>
      </trkpt>
      <trkpt lat="47.33393" lon="-2.47665">
        <ele>3.2000000476837</ele>
        <time>2022-07-28T09:01:39.000Z</time>
      </trkpt>
      <trkpt lat="47.33397" lon="-2.47662">
        <ele>3.5999999046326</ele>
        <time>2022-07-28T09:01:41.000Z</time>
      </trkpt>
      <trkpt lat="47.33399" lon="-2.4766">
        <ele>4.4000000953674</ele>
        <time>2022-07-28T09:01:42.000Z</time>
      </trkpt>
      <trkpt lat="47.334" lon="-2.47658">
        <ele>4.8000001907349</ele>
        <time>2022-07-28T09:01:43.000Z</time>
      </trkpt>
      <trkpt lat="47.33402" lon="-2.47657">
        <ele>5.1999998092651</ele>
        <time>2022-07-28T09:01:44.000Z</time>
      </trkpt>
      <trkpt lat="47.33407" lon="-2.47653">
        <ele>5.1999998092651</ele>
        <time>2022-07-28T09:01:46.000Z</time>
      </trkpt>
      <trkpt lat="47.33413" lon="-2.47647">
        <ele>5.1999998092651</ele>
        <time>2022-07-28T09:01:49.000Z</time>
      </trkpt>
      <trkpt lat="47.33427" lon="-2.47636">
        <ele>5.1999998092651</ele>
        <time>2022-07-28T09:01:55.000Z</time>
      </trkpt>
      <trkpt lat="47.33434" lon="-2.47633">
        <ele>5.8000001907349</ele>
        <time>2022-07-28T09:01:58.000Z</time>
      </trkpt>
      <trkpt lat="47.33436" lon="-2.47631">
        <ele>6.1999998092651</ele>
        <time>2022-07-28T09:01:59.000Z</time>
      </trkpt>
      <trkpt lat="47.33437" lon="-2.4763">
        <ele>6.5999999046326</ele>
        <time>2022-07-28T09:02:00.000Z</time>
      </trkpt>
      <trkpt lat="47.33437" lon="-2.4763">
        <ele>7</ele>
        <time>2022-07-28T09:02:01.000Z</time>
      </trkpt>
      <trkpt lat="47.33437" lon="-2.4763">
        <ele>7.5999999046326</ele>
        <time>2022-07-28T09:02:02.000Z</time>
      </trkpt>
      <trkpt lat="47.33449" lon="-2.47623">
        <ele>11.60000038147</ele>
        <time>2022-07-28T09:02:22.000Z</time>
      </trkpt>
      <trkpt lat="47.33451" lon="-2.47622">
        <ele>11.60000038147</ele>
        <time>2022-07-28T09:02:24.000Z</time>
      </trkpt>
      <trkpt lat="47.33457" lon="-2.47618">
        <ele>11.60000038147</ele>
        <time>2022-07-28T09:02:30.000Z</time>
      </trkpt>
      <trkpt lat="47.33462" lon="-2.47614">
        <ele>11.60000038147</ele>
        <time>2022-07-28T09:02:34.000Z</time>
      </trkpt>
      <trkpt lat="47.33466" lon="-2.47612">
        <ele>11.60000038147</ele>
        <time>2022-07-28T09:02:36.000Z</time>
      </trkpt>
      <trkpt lat="47.33471" lon="-2.47607">
        <ele>12</ele>
        <time>2022-07-28T09:02:39.000Z</time>
      </trkpt>
      <trkpt lat="47.33473" lon="-2.47606">
        <ele>12.39999961853</ele>
        <time>2022-07-28T09:02:40.000Z</time>
      </trkpt>
      <trkpt lat="47.33474" lon="-2.47604">
        <ele>12.800000190735</ele>
        <time>2022-07-28T09:02:41.000Z</time>
      </trkpt>
      <trkpt lat="47.33475" lon="-2.47603">
        <ele>13.199999809265</ele>
        <time>2022-07-28T09:02:42.000Z</time>
      </trkpt>
      <trkpt lat="47.33477" lon="-2.47601">
        <ele>13.800000190735</ele>
        <time>2022-07-28T09:02:43.000Z</time>
      </trkpt>
      <trkpt lat="47.33477" lon="-2.476">
        <ele>13.800000190735</ele>
        <time>2022-07-28T09:02:44.000Z</time>
      </trkpt>
      <trkpt lat="47.33476" lon="-2.47595">
        <ele>13.800000190735</ele>
        <time>2022-07-28T09:02:48.000Z</time>
      </trkpt>
      <trkpt lat="47.33477" lon="-2.47595">
        <ele>13.800000190735</ele>
        <time>2022-07-28T09:02:49.000Z</time>
      </trkpt>
      <trkpt lat="47.33475" lon="-2.47591">
        <ele>13.800000190735</ele>
        <time>2022-07-28T09:03:00.000Z</time>
      </trkpt>
      <trkpt lat="47.33473" lon="-2.47588">
        <ele>13.800000190735</ele>
        <time>2022-07-28T09:03:01.000Z</time>
      </trkpt>
      <trkpt lat="47.33465" lon="-2.47573">
        <ele>13.800000190735</ele>
        <time>2022-07-28T09:03:07.000Z</time>
      </trkpt>
      <trkpt lat="47.3346" lon="-2.47561">
        <ele>14.199999809265</ele>
        <time>2022-07-28T09:03:10.000Z</time>
      </trkpt>
      <trkpt lat="47.33458" lon="-2.47557">
        <ele>14.60000038147</ele>
        <time>2022-07-28T09:03:11.000Z</time>
      </trkpt>
      <trkpt lat="47.33456" lon="-2.47553">
        <ele>15</ele>
        <time>2022-07-28T09:03:12.000Z</time>
      </trkpt>
      <trkpt lat="47.33454" lon="-2.47549">
        <ele>15.39999961853</ele>
        <time>2022-07-28T09:03:13.000Z</time>
      </trkpt>
      <trkpt lat="47.33452" lon="-2.47544">
        <ele>15.800000190735</ele>
        <time>2022-07-28T09:03:14.000Z</time>
      </trkpt>
      <trkpt lat="47.33439" lon="-2.47514">
        <ele>15.800000190735</ele>
        <time>2022-07-28T09:03:21.000Z</time>
      </trkpt>
      <trkpt lat="47.33426" lon="-2.47478">
        <ele>15.800000190735</ele>
        <time>2022-07-28T09:03:28.000Z</time>
      </trkpt>
      <trkpt lat="47.33413" lon="-2.47431">
        <ele>15.800000190735</ele>
        <time>2022-07-28T09:03:36.000Z</time>
      </trkpt>
      <trkpt lat="47.33402" lon="-2.47386">
        <ele>15.800000190735</ele>
        <time>2022-07-28T09:03:43.000Z</time>
      </trkpt>
      <trkpt lat="47.33389" lon="-2.47336">
        <ele>15.800000190735</ele>
        <time>2022-07-28T09:03:50.000Z</time>
      </trkpt>
      <trkpt lat="47.33387" lon="-2.47323">
        <ele>15.800000190735</ele>
        <time>2022-07-28T09:03:52.000Z</time>
      </trkpt>
      <trkpt lat="47.33384" lon="-2.47299">
        <ele>15.800000190735</ele>
        <time>2022-07-28T09:03:55.000Z</time>
      </trkpt>
      <trkpt lat="47.33378" lon="-2.47245">
        <ele>15.800000190735</ele>
        <time>2022-07-28T09:04:01.000Z</time>
      </trkpt>
      <trkpt lat="47.33368" lon="-2.47181">
        <ele>15.800000190735</ele>
        <time>2022-07-28T09:04:09.000Z</time>
      </trkpt>
      <trkpt lat="47.33367" lon="-2.47173">
        <ele>15.800000190735</ele>
        <time>2022-07-28T09:04:10.000Z</time>
      </trkpt>
      <trkpt lat="47.33372" lon="-2.4715">
        <ele>15.800000190735</ele>
        <time>2022-07-28T09:04:13.000Z</time>
      </trkpt>
      <trkpt lat="47.33382" lon="-2.47133">
        <ele>15.800000190735</ele>
        <time>2022-07-28T09:04:16.000Z</time>
      </trkpt>
      <trkpt lat="47.33385" lon="-2.47127">
        <ele>15.800000190735</ele>
        <time>2022-07-28T09:04:17.000Z</time>
      </trkpt>
      <trkpt lat="47.3339" lon="-2.47094">
        <ele>15.800000190735</ele>
        <time>2022-07-28T09:04:21.000Z</time>
      </trkpt>
      <trkpt lat="47.33394" lon="-2.47071">
        <ele>15.800000190735</ele>
        <time>2022-07-28T09:04:24.000Z</time>
      </trkpt>
      <trkpt lat="47.33402" lon="-2.47052">
        <ele>15.800000190735</ele>
        <time>2022-07-28T09:04:27.000Z</time>
      </trkpt>
      <trkpt lat="47.33411" lon="-2.47033">
        <ele>15.800000190735</ele>
        <time>2022-07-28T09:04:30.000Z</time>
      </trkpt>
      <trkpt lat="47.33421" lon="-2.47016">
        <ele>15.800000190735</ele>
        <time>2022-07-28T09:04:33.000Z</time>
      </trkpt>
      <trkpt lat="47.33424" lon="-2.47011">
        <ele>15.800000190735</ele>
        <time>2022-07-28T09:04:34.000Z</time>
      </trkpt>
      <trkpt lat="47.33427" lon="-2.47005">
        <ele>16.60000038147</ele>
        <time>2022-07-28T09:04:35.000Z</time>
      </trkpt>
      <trkpt lat="47.33431" lon="-2.47">
        <ele>17</ele>
        <time>2022-07-28T09:04:36.000Z</time>
      </trkpt>
      <trkpt lat="47.33435" lon="-2.46995">
        <ele>17.39999961853</ele>
        <time>2022-07-28T09:04:37.000Z</time>
      </trkpt>
      <trkpt lat="47.33439" lon="-2.46989">
        <ele>17.799999237061</ele>
        <time>2022-07-28T09:04:38.000Z</time>
      </trkpt>
      <trkpt lat="47.33447" lon="-2.46979">
        <ele>17.799999237061</ele>
        <time>2022-07-28T09:04:40.000Z</time>
      </trkpt>
      <trkpt lat="47.33471" lon="-2.46941">
        <ele>17.799999237061</ele>
        <time>2022-07-28T09:04:47.000Z</time>
      </trkpt>
      <trkpt lat="47.33474" lon="-2.46937">
        <ele>17.799999237061</ele>
        <time>2022-07-28T09:04:48.000Z</time>
      </trkpt>
      <trkpt lat="47.33491" lon="-2.46917">
        <ele>17.799999237061</ele>
        <time>2022-07-28T09:04:53.000Z</time>
      </trkpt>
      <trkpt lat="47.335" lon="-2.4691">
        <ele>18.200000762939</ele>
        <time>2022-07-28T09:04:56.000Z</time>
      </trkpt>
      <trkpt lat="47.33503" lon="-2.46907">
        <ele>18.60000038147</ele>
        <time>2022-07-28T09:04:57.000Z</time>
      </trkpt>
      <trkpt lat="47.33505" lon="-2.46904">
        <ele>19</ele>
        <time>2022-07-28T09:04:58.000Z</time>
      </trkpt>
      <trkpt lat="47.33507" lon="-2.46901">
        <ele>20</ele>
        <time>2022-07-28T09:04:59.000Z</time>
      </trkpt>
      <trkpt lat="47.33521" lon="-2.46888">
        <ele>20</ele>
        <time>2022-07-28T09:05:04.000Z</time>
      </trkpt>
      <trkpt lat="47.33527" lon="-2.4688">
        <ele>20.39999961853</ele>
        <time>2022-07-28T09:05:06.000Z</time>
      </trkpt>
      <trkpt lat="47.33529" lon="-2.46877">
        <ele>20.799999237061</ele>
        <time>2022-07-28T09:05:07.000Z</time>
      </trkpt>
      <trkpt lat="47.33531" lon="-2.46873">
        <ele>21.200000762939</ele>
        <time>2022-07-28T09:05:08.000Z</time>
      </trkpt>
      <trkpt lat="47.33533" lon="-2.46869">
        <ele>21.60000038147</ele>
        <time>2022-07-28T09:05:09.000Z</time>
      </trkpt>
      <trkpt lat="47.33533" lon="-2.46865">
        <ele>22.200000762939</ele>
        <time>2022-07-28T09:05:10.000Z</time>
      </trkpt>
      <trkpt lat="47.33532" lon="-2.46861">
        <ele>22.200000762939</ele>
        <time>2022-07-28T09:05:11.000Z</time>
      </trkpt>
      <trkpt lat="47.33532" lon="-2.46856">
        <ele>22.200000762939</ele>
        <time>2022-07-28T09:05:12.000Z</time>
      </trkpt>
      <trkpt lat="47.33531" lon="-2.46848">
        <ele>22.60000038147</ele>
        <time>2022-07-28T09:05:14.000Z</time>
      </trkpt>
      <trkpt lat="47.33532" lon="-2.46844">
        <ele>23</ele>
        <time>2022-07-28T09:05:15.000Z</time>
      </trkpt>
      <trkpt lat="47.33534" lon="-2.4684">
        <ele>23.39999961853</ele>
        <time>2022-07-28T09:05:16.000Z</time>
      </trkpt>
      <trkpt lat="47.33536" lon="-2.46837">
        <ele>23.799999237061</ele>
        <time>2022-07-28T09:05:17.000Z</time>
      </trkpt>
      <trkpt lat="47.33539" lon="-2.46833">
        <ele>24.200000762939</ele>
        <time>2022-07-28T09:05:18.000Z</time>
      </trkpt>
      <trkpt lat="47.33551" lon="-2.46819">
        <ele>24.200000762939</ele>
        <time>2022-07-28T09:05:22.000Z</time>
      </trkpt>
      <trkpt lat="47.33561" lon="-2.46812">
        <ele>25</ele>
        <time>2022-07-28T09:05:25.000Z</time>
      </trkpt>
      <trkpt lat="47.33564" lon="-2.46808">
        <ele>25.39999961853</ele>
        <time>2022-07-28T09:05:26.000Z</time>
      </trkpt>
      <trkpt lat="47.33567" lon="-2.46806">
        <ele>26</ele>
        <time>2022-07-28T09:05:27.000Z</time>
      </trkpt>
      <trkpt lat="47.3357" lon="-2.46803">
        <ele>26.39999961853</ele>
        <time>2022-07-28T09:05:28.000Z</time>
      </trkpt>
      <trkpt lat="47.3358" lon="-2.46791">
        <ele>26.799999237061</ele>
        <time>2022-07-28T09:05:32.000Z</time>
      </trkpt>
      <trkpt lat="47.33583" lon="-2.46788">
        <ele>27.200000762939</ele>
        <time>2022-07-28T09:05:33.000Z</time>
      </trkpt>
      <trkpt lat="47.33586" lon="-2.46785">
        <ele>27.799999237061</ele>
        <time>2022-07-28T09:05:34.000Z</time>
      </trkpt>
      <trkpt lat="47.33587" lon="-2.46781">
        <ele>28.200000762939</ele>
        <time>2022-07-28T09:05:35.000Z</time>
      </trkpt>
      <trkpt lat="47.33589" lon="-2.46778">
        <ele>28.799999237061</ele>
        <time>2022-07-28T09:05:36.000Z</time>
      </trkpt>
      <trkpt lat="47.33592" lon="-2.46775">
        <ele>28.799999237061</ele>
        <time>2022-07-28T09:05:37.000Z</time>
      </trkpt>
      <trkpt lat="47.33595" lon="-2.46773">
        <ele>29.200000762939</ele>
        <time>2022-07-28T09:05:38.000Z</time>
      </trkpt>
      <trkpt lat="47.33597" lon="-2.4677">
        <ele>29.60000038147</ele>
        <time>2022-07-28T09:05:39.000Z</time>
      </trkpt>
      <trkpt lat="47.336" lon="-2.46767">
        <ele>30</ele>
        <time>2022-07-28T09:05:40.000Z</time>
      </trkpt>
      <trkpt lat="47.33603" lon="-2.46764">
        <ele>30.39999961853</ele>
        <time>2022-07-28T09:05:41.000Z</time>
      </trkpt>
      <trkpt lat="47.33605" lon="-2.46761">
        <ele>31</ele>
        <time>2022-07-28T09:05:42.000Z</time>
      </trkpt>
      <trkpt lat="47.33608" lon="-2.46759">
        <ele>31</ele>
        <time>2022-07-28T09:05:43.000Z</time>
      </trkpt>
      <trkpt lat="47.3362" lon="-2.46744">
        <ele>31.39999961853</ele>
        <time>2022-07-28T09:05:48.000Z</time>
      </trkpt>
      <trkpt lat="47.3362" lon="-2.46738">
        <ele>32.200000762939</ele>
        <time>2022-07-28T09:05:49.000Z</time>
      </trkpt>
      <trkpt lat="47.3362" lon="-2.46734">
        <ele>32.599998474121</ele>
        <time>2022-07-28T09:05:50.000Z</time>
      </trkpt>
      <trkpt lat="47.33618" lon="-2.46729">
        <ele>33</ele>
        <time>2022-07-28T09:05:51.000Z</time>
      </trkpt>
      <trkpt lat="47.33614" lon="-2.46715">
        <ele>33</ele>
        <time>2022-07-28T09:05:54.000Z</time>
      </trkpt>
      <trkpt lat="47.336" lon="-2.46683">
        <ele>33</ele>
        <time>2022-07-28T09:06:00.000Z</time>
      </trkpt>
      <trkpt lat="47.33579" lon="-2.46626">
        <ele>33</ele>
        <time>2022-07-28T09:06:10.000Z</time>
      </trkpt>
      <trkpt lat="47.33564" lon="-2.46589">
        <ele>33</ele>
        <time>2022-07-28T09:06:17.000Z</time>
      </trkpt>
      <trkpt lat="47.3356" lon="-2.46586">
        <ele>33</ele>
        <time>2022-07-28T09:06:18.000Z</time>
      </trkpt>
      <trkpt lat="47.33553" lon="-2.46574">
        <ele>33</ele>
        <time>2022-07-28T09:06:21.000Z</time>
      </trkpt>
      <trkpt lat="47.3355" lon="-2.46561">
        <ele>33</ele>
        <time>2022-07-28T09:06:23.000Z</time>
      </trkpt>
      <trkpt lat="47.33547" lon="-2.46543">
        <ele>33</ele>
        <time>2022-07-28T09:06:26.000Z</time>
      </trkpt>
      <trkpt lat="47.3354" lon="-2.46508">
        <ele>33</ele>
        <time>2022-07-28T09:06:32.000Z</time>
      </trkpt>
      <trkpt lat="47.33538" lon="-2.46497">
        <ele>33.400001525879</ele>
        <time>2022-07-28T09:06:34.000Z</time>
      </trkpt>
      <trkpt lat="47.33537" lon="-2.46493">
        <ele>33.799999237061</ele>
        <time>2022-07-28T09:06:35.000Z</time>
      </trkpt>
      <trkpt lat="47.33535" lon="-2.46491">
        <ele>34.200000762939</ele>
        <time>2022-07-28T09:06:36.000Z</time>
      </trkpt>
      <trkpt lat="47.33533" lon="-2.46492">
        <ele>34.599998474121</ele>
        <time>2022-07-28T09:06:37.000Z</time>
      </trkpt>
      <trkpt lat="47.3353" lon="-2.46492">
        <ele>35</ele>
        <time>2022-07-28T09:06:38.000Z</time>
      </trkpt>
      <trkpt lat="47.33527" lon="-2.4649">
        <ele>35</ele>
        <time>2022-07-28T09:06:39.000Z</time>
      </trkpt>
      <trkpt lat="47.33516" lon="-2.46489">
        <ele>35</ele>
        <time>2022-07-28T09:06:42.000Z</time>
      </trkpt>
      <trkpt lat="47.33511" lon="-2.46492">
        <ele>35</ele>
        <time>2022-07-28T09:06:43.000Z</time>
      </trkpt>
      <trkpt lat="47.33496" lon="-2.46511">
        <ele>35</ele>
        <time>2022-07-28T09:06:46.000Z</time>
      </trkpt>
      <trkpt lat="47.3349" lon="-2.46517">
        <ele>35</ele>
        <time>2022-07-28T09:06:47.000Z</time>
      </trkpt>
      <trkpt lat="47.33464" lon="-2.46548">
        <ele>34.599998474121</ele>
        <time>2022-07-28T09:06:52.000Z</time>
      </trkpt>
      <trkpt lat="47.33459" lon="-2.46555">
        <ele>34.200000762939</ele>
        <time>2022-07-28T09:06:53.000Z</time>
      </trkpt>
      <trkpt lat="47.33454" lon="-2.46562">
        <ele>33.799999237061</ele>
        <time>2022-07-28T09:06:54.000Z</time>
      </trkpt>
      <trkpt lat="47.33449" lon="-2.46567">
        <ele>33.400001525879</ele>
        <time>2022-07-28T09:06:55.000Z</time>
      </trkpt>
      <trkpt lat="47.33443" lon="-2.46573">
        <ele>33</ele>
        <time>2022-07-28T09:06:56.000Z</time>
      </trkpt>
      <trkpt lat="47.33438" lon="-2.46578">
        <ele>32.599998474121</ele>
        <time>2022-07-28T09:06:57.000Z</time>
      </trkpt>
      <trkpt lat="47.33432" lon="-2.46582">
        <ele>32</ele>
        <time>2022-07-28T09:06:58.000Z</time>
      </trkpt>
      <trkpt lat="47.33426" lon="-2.46586">
        <ele>31.60000038147</ele>
        <time>2022-07-28T09:06:59.000Z</time>
      </trkpt>
      <trkpt lat="47.3342" lon="-2.46589">
        <ele>31.200000762939</ele>
        <time>2022-07-28T09:07:00.000Z</time>
      </trkpt>
      <trkpt lat="47.33414" lon="-2.46592">
        <ele>30.60000038147</ele>
        <time>2022-07-28T09:07:01.000Z</time>
      </trkpt>
      <trkpt lat="47.3341" lon="-2.46597">
        <ele>30.200000762939</ele>
        <time>2022-07-28T09:07:02.000Z</time>
      </trkpt>
      <trkpt lat="47.33405" lon="-2.46601">
        <ele>29.60000038147</ele>
        <time>2022-07-28T09:07:03.000Z</time>
      </trkpt>
      <trkpt lat="47.334" lon="-2.46606">
        <ele>28.60000038147</ele>
        <time>2022-07-28T09:07:04.000Z</time>
      </trkpt>
      <trkpt lat="47.33394" lon="-2.46612">
        <ele>28.200000762939</ele>
        <time>2022-07-28T09:07:05.000Z</time>
      </trkpt>
      <trkpt lat="47.33389" lon="-2.46617">
        <ele>27.799999237061</ele>
        <time>2022-07-28T09:07:06.000Z</time>
      </trkpt>
      <trkpt lat="47.33384" lon="-2.46624">
        <ele>27.39999961853</ele>
        <time>2022-07-28T09:07:07.000Z</time>
      </trkpt>
      <trkpt lat="47.33378" lon="-2.46631">
        <ele>27</ele>
        <time>2022-07-28T09:07:08.000Z</time>
      </trkpt>
      <trkpt lat="47.33373" lon="-2.46636">
        <ele>26.60000038147</ele>
        <time>2022-07-28T09:07:09.000Z</time>
      </trkpt>
      <trkpt lat="47.33364" lon="-2.46645">
        <ele>26.60000038147</ele>
        <time>2022-07-28T09:07:11.000Z</time>
      </trkpt>
      <trkpt lat="47.33359" lon="-2.46647">
        <ele>26</ele>
        <time>2022-07-28T09:07:12.000Z</time>
      </trkpt>
      <trkpt lat="47.33353" lon="-2.46649">
        <ele>25.60000038147</ele>
        <time>2022-07-28T09:07:13.000Z</time>
      </trkpt>
      <trkpt lat="47.33347" lon="-2.46652">
        <ele>25.200000762939</ele>
        <time>2022-07-28T09:07:14.000Z</time>
      </trkpt>
      <trkpt lat="47.33341" lon="-2.46654">
        <ele>24.60000038147</ele>
        <time>2022-07-28T09:07:15.000Z</time>
      </trkpt>
      <trkpt lat="47.33337" lon="-2.46656">
        <ele>24.200000762939</ele>
        <time>2022-07-28T09:07:16.000Z</time>
      </trkpt>
      <trkpt lat="47.33328" lon="-2.46656">
        <ele>24.200000762939</ele>
        <time>2022-07-28T09:07:20.000Z</time>
      </trkpt>
      <trkpt lat="47.33326" lon="-2.46653">
        <ele>24.200000762939</ele>
        <time>2022-07-28T09:07:21.000Z</time>
      </trkpt>
      <trkpt lat="47.33326" lon="-2.46646">
        <ele>24.200000762939</ele>
        <time>2022-07-28T09:07:23.000Z</time>
      </trkpt>
      <trkpt lat="47.33327" lon="-2.46642">
        <ele>24.200000762939</ele>
        <time>2022-07-28T09:07:27.000Z</time>
      </trkpt>
      <trkpt lat="47.33329" lon="-2.46637">
        <ele>24.200000762939</ele>
        <time>2022-07-28T09:07:55.000Z</time>
      </trkpt>
      <trkpt lat="47.33328" lon="-2.46634">
        <ele>24.200000762939</ele>
        <time>2022-07-28T09:07:56.000Z</time>
      </trkpt>
      <trkpt lat="47.33327" lon="-2.46632">
        <ele>24.200000762939</ele>
        <time>2022-07-28T09:07:57.000Z</time>
      </trkpt>
      <trkpt lat="47.33318" lon="-2.46618">
        <ele>24.200000762939</ele>
        <time>2022-07-28T09:08:01.000Z</time>
      </trkpt>
      <trkpt lat="47.33309" lon="-2.46607">
        <ele>24.200000762939</ele>
        <time>2022-07-28T09:08:04.000Z</time>
      </trkpt>
      <trkpt lat="47.33303" lon="-2.46599">
        <ele>24.200000762939</ele>
        <time>2022-07-28T09:08:06.000Z</time>
      </trkpt>
      <trkpt lat="47.33301" lon="-2.46594">
        <ele>24.200000762939</ele>
        <time>2022-07-28T09:08:07.000Z</time>
      </trkpt>
      <trkpt lat="47.33294" lon="-2.46568">
        <ele>24.200000762939</ele>
        <time>2022-07-28T09:08:11.000Z</time>
      </trkpt>
      <trkpt lat="47.33293" lon="-2.46561">
        <ele>24.200000762939</ele>
        <time>2022-07-28T09:08:12.000Z</time>
      </trkpt>
      <trkpt lat="47.3329" lon="-2.46534">
        <ele>24.200000762939</ele>
        <time>2022-07-28T09:08:16.000Z</time>
      </trkpt>
      <trkpt lat="47.33289" lon="-2.46527">
        <ele>24.200000762939</ele>
        <time>2022-07-28T09:08:17.000Z</time>
      </trkpt>
      <trkpt lat="47.33286" lon="-2.46504">
        <ele>24.60000038147</ele>
        <time>2022-07-28T09:08:21.000Z</time>
      </trkpt>
      <trkpt lat="47.33286" lon="-2.46498">
        <ele>25</ele>
        <time>2022-07-28T09:08:22.000Z</time>
      </trkpt>
      <trkpt lat="47.33284" lon="-2.46493">
        <ele>25.39999961853</ele>
        <time>2022-07-28T09:08:23.000Z</time>
      </trkpt>
      <trkpt lat="47.33284" lon="-2.46487">
        <ele>25.799999237061</ele>
        <time>2022-07-28T09:08:24.000Z</time>
      </trkpt>
      <trkpt lat="47.33283" lon="-2.46482">
        <ele>26.200000762939</ele>
        <time>2022-07-28T09:08:25.000Z</time>
      </trkpt>
      <trkpt lat="47.33283" lon="-2.46466">
        <ele>26.200000762939</ele>
        <time>2022-07-28T09:08:28.000Z</time>
      </trkpt>
      <trkpt lat="47.33278" lon="-2.46446">
        <ele>26.200000762939</ele>
        <time>2022-07-28T09:08:32.000Z</time>
      </trkpt>
      <trkpt lat="47.33263" lon="-2.4643">
        <ele>26.200000762939</ele>
        <time>2022-07-28T09:08:38.000Z</time>
      </trkpt>
      <trkpt lat="47.33241" lon="-2.46436">
        <ele>26.200000762939</ele>
        <time>2022-07-28T09:08:44.000Z</time>
      </trkpt>
      <trkpt lat="47.3323" lon="-2.46454">
        <ele>26.200000762939</ele>
        <time>2022-07-28T09:08:47.000Z</time>
      </trkpt>
      <trkpt lat="47.33217" lon="-2.46472">
        <ele>26.200000762939</ele>
        <time>2022-07-28T09:08:51.000Z</time>
      </trkpt>
      <trkpt lat="47.33213" lon="-2.46473">
        <ele>25.799999237061</ele>
        <time>2022-07-28T09:08:52.000Z</time>
      </trkpt>
      <trkpt lat="47.33209" lon="-2.46474">
        <ele>25.39999961853</ele>
        <time>2022-07-28T09:08:53.000Z</time>
      </trkpt>
      <trkpt lat="47.33205" lon="-2.46475">
        <ele>25</ele>
        <time>2022-07-28T09:08:54.000Z</time>
      </trkpt>
      <trkpt lat="47.33201" lon="-2.46475">
        <ele>24.60000038147</ele>
        <time>2022-07-28T09:08:55.000Z</time>
      </trkpt>
      <trkpt lat="47.33196" lon="-2.46475">
        <ele>24</ele>
        <time>2022-07-28T09:08:56.000Z</time>
      </trkpt>
      <trkpt lat="47.3319" lon="-2.46477">
        <ele>23.60000038147</ele>
        <time>2022-07-28T09:08:57.000Z</time>
      </trkpt>
      <trkpt lat="47.33184" lon="-2.46479">
        <ele>23.200000762939</ele>
        <time>2022-07-28T09:08:58.000Z</time>
      </trkpt>
      <trkpt lat="47.33178" lon="-2.46482">
        <ele>22.799999237061</ele>
        <time>2022-07-28T09:08:59.000Z</time>
      </trkpt>
      <trkpt lat="47.33172" lon="-2.46486">
        <ele>22.39999961853</ele>
        <time>2022-07-28T09:09:00.000Z</time>
      </trkpt>
      <trkpt lat="47.33165" lon="-2.4649">
        <ele>22</ele>
        <time>2022-07-28T09:09:01.000Z</time>
      </trkpt>
      <trkpt lat="47.33158" lon="-2.46493">
        <ele>21.39999961853</ele>
        <time>2022-07-28T09:09:02.000Z</time>
      </trkpt>
      <trkpt lat="47.33151" lon="-2.46495">
        <ele>20.799999237061</ele>
        <time>2022-07-28T09:09:03.000Z</time>
      </trkpt>
      <trkpt lat="47.33143" lon="-2.46496">
        <ele>20.39999961853</ele>
        <time>2022-07-28T09:09:04.000Z</time>
      </trkpt>
      <trkpt lat="47.33136" lon="-2.46497">
        <ele>19.39999961853</ele>
        <time>2022-07-28T09:09:05.000Z</time>
      </trkpt>
      <trkpt lat="47.33129" lon="-2.46498">
        <ele>19</ele>
        <time>2022-07-28T09:09:06.000Z</time>
      </trkpt>
      <trkpt lat="47.33122" lon="-2.465">
        <ele>18.60000038147</ele>
        <time>2022-07-28T09:09:07.000Z</time>
      </trkpt>
      <trkpt lat="47.33116" lon="-2.46503">
        <ele>18.200000762939</ele>
        <time>2022-07-28T09:09:08.000Z</time>
      </trkpt>
      <trkpt lat="47.33113" lon="-2.46505">
        <ele>17.799999237061</ele>
        <time>2022-07-28T09:09:09.000Z</time>
      </trkpt>
      <trkpt lat="47.33106" lon="-2.4651">
        <ele>17.799999237061</ele>
        <time>2022-07-28T09:09:11.000Z</time>
      </trkpt>
      <trkpt lat="47.33102" lon="-2.46513">
        <ele>17.200000762939</ele>
        <time>2022-07-28T09:09:12.000Z</time>
      </trkpt>
      <trkpt lat="47.33097" lon="-2.46515">
        <ele>16.799999237061</ele>
        <time>2022-07-28T09:09:13.000Z</time>
      </trkpt>
      <trkpt lat="47.33092" lon="-2.46517">
        <ele>16.200000762939</ele>
        <time>2022-07-28T09:09:14.000Z</time>
      </trkpt>
      <trkpt lat="47.33086" lon="-2.46519">
        <ele>15.800000190735</ele>
        <time>2022-07-28T09:09:15.000Z</time>
      </trkpt>
      <trkpt lat="47.3308" lon="-2.46521">
        <ele>15.39999961853</ele>
        <time>2022-07-28T09:09:16.000Z</time>
      </trkpt>
      <trkpt lat="47.33073" lon="-2.46525">
        <ele>14.800000190735</ele>
        <time>2022-07-28T09:09:17.000Z</time>
      </trkpt>
      <trkpt lat="47.33067" lon="-2.4653">
        <ele>14.39999961853</ele>
        <time>2022-07-28T09:09:18.000Z</time>
      </trkpt>
      <trkpt lat="47.3306" lon="-2.46534">
        <ele>13.800000190735</ele>
        <time>2022-07-28T09:09:19.000Z</time>
      </trkpt>
      <trkpt lat="47.33052" lon="-2.46536">
        <ele>13.39999961853</ele>
        <time>2022-07-28T09:09:20.000Z</time>
      </trkpt>
      <trkpt lat="47.33045" lon="-2.46539">
        <ele>12.800000190735</ele>
        <time>2022-07-28T09:09:21.000Z</time>
      </trkpt>
      <trkpt lat="47.33029" lon="-2.4654">
        <ele>12.39999961853</ele>
        <time>2022-07-28T09:09:23.000Z</time>
      </trkpt>
      <trkpt lat="47.33022" lon="-2.4654">
        <ele>12</ele>
        <time>2022-07-28T09:09:24.000Z</time>
      </trkpt>
      <trkpt lat="47.33014" lon="-2.46542">
        <ele>11.60000038147</ele>
        <time>2022-07-28T09:09:25.000Z</time>
      </trkpt>
      <trkpt lat="47.33007" lon="-2.46545">
        <ele>11</ele>
        <time>2022-07-28T09:09:26.000Z</time>
      </trkpt>
      <trkpt lat="47.33" lon="-2.46548">
        <ele>10.60000038147</ele>
        <time>2022-07-28T09:09:27.000Z</time>
      </trkpt>
      <trkpt lat="47.32981" lon="-2.46558">
        <ele>9.8000001907349</ele>
        <time>2022-07-28T09:09:30.000Z</time>
      </trkpt>
      <trkpt lat="47.32975" lon="-2.46561">
        <ele>9.1999998092651</ele>
        <time>2022-07-28T09:09:31.000Z</time>
      </trkpt>
      <trkpt lat="47.3297" lon="-2.46563">
        <ele>8.6000003814697</ele>
        <time>2022-07-28T09:09:32.000Z</time>
      </trkpt>
      <trkpt lat="47.32966" lon="-2.46564">
        <ele>8</ele>
        <time>2022-07-28T09:09:33.000Z</time>
      </trkpt>
      <trkpt lat="47.32962" lon="-2.46564">
        <ele>7.4000000953674</ele>
        <time>2022-07-28T09:09:34.000Z</time>
      </trkpt>
      <trkpt lat="47.32959" lon="-2.46563">
        <ele>6.8000001907349</ele>
        <time>2022-07-28T09:09:35.000Z</time>
      </trkpt>
      <trkpt lat="47.32957" lon="-2.46558">
        <ele>6.1999998092651</ele>
        <time>2022-07-28T09:09:36.000Z</time>
      </trkpt>
      <trkpt lat="47.32956" lon="-2.46543">
        <ele>5.8000001907349</ele>
        <time>2022-07-28T09:09:38.000Z</time>
      </trkpt>
      <trkpt lat="47.32956" lon="-2.46535">
        <ele>5.4000000953674</ele>
        <time>2022-07-28T09:09:39.000Z</time>
      </trkpt>
      <trkpt lat="47.32957" lon="-2.46527">
        <ele>5</ele>
        <time>2022-07-28T09:09:40.000Z</time>
      </trkpt>
      <trkpt lat="47.32957" lon="-2.4652">
        <ele>4.5999999046326</ele>
        <time>2022-07-28T09:09:41.000Z</time>
      </trkpt>
      <trkpt lat="47.32957" lon="-2.46512">
        <ele>4.1999998092651</ele>
        <time>2022-07-28T09:09:42.000Z</time>
      </trkpt>
      <trkpt lat="47.32958" lon="-2.46479">
        <ele>4.1999998092651</ele>
        <time>2022-07-28T09:09:47.000Z</time>
      </trkpt>
      <trkpt lat="47.32959" lon="-2.46466">
        <ele>4.5999999046326</ele>
        <time>2022-07-28T09:09:49.000Z</time>
      </trkpt>
      <trkpt lat="47.32959" lon="-2.4646">
        <ele>5.1999998092651</ele>
        <time>2022-07-28T09:09:50.000Z</time>
      </trkpt>
      <trkpt lat="47.32959" lon="-2.46454">
        <ele>5.5999999046326</ele>
        <time>2022-07-28T09:09:51.000Z</time>
      </trkpt>
      <trkpt lat="47.32959" lon="-2.46449">
        <ele>6</ele>
        <time>2022-07-28T09:09:52.000Z</time>
      </trkpt>
      <trkpt lat="47.3296" lon="-2.46443">
        <ele>6.5999999046326</ele>
        <time>2022-07-28T09:09:53.000Z</time>
      </trkpt>
      <trkpt lat="47.3296" lon="-2.46431">
        <ele>7.4000000953674</ele>
        <time>2022-07-28T09:09:55.000Z</time>
      </trkpt>
      <trkpt lat="47.32961" lon="-2.46426">
        <ele>7.8000001907349</ele>
        <time>2022-07-28T09:09:56.000Z</time>
      </trkpt>
      <trkpt lat="47.32961" lon="-2.46421">
        <ele>8.1999998092651</ele>
        <time>2022-07-28T09:09:57.000Z</time>
      </trkpt>
      <trkpt lat="47.3296" lon="-2.46416">
        <ele>8.6000003814697</ele>
        <time>2022-07-28T09:09:58.000Z</time>
      </trkpt>
      <trkpt lat="47.32961" lon="-2.46406">
        <ele>9.1999998092651</ele>
        <time>2022-07-28T09:10:00.000Z</time>
      </trkpt>
      <trkpt lat="47.32961" lon="-2.464">
        <ele>9.6000003814697</ele>
        <time>2022-07-28T09:10:01.000Z</time>
      </trkpt>
      <trkpt lat="47.32962" lon="-2.46395">
        <ele>10</ele>
        <time>2022-07-28T09:10:02.000Z</time>
      </trkpt>
      <trkpt lat="47.32962" lon="-2.46389">
        <ele>10.60000038147</ele>
        <time>2022-07-28T09:10:03.000Z</time>
      </trkpt>
      <trkpt lat="47.32962" lon="-2.46384">
        <ele>11</ele>
        <time>2022-07-28T09:10:04.000Z</time>
      </trkpt>
      <trkpt lat="47.32961" lon="-2.46369">
        <ele>11.39999961853</ele>
        <time>2022-07-28T09:10:07.000Z</time>
      </trkpt>
      <trkpt lat="47.3296" lon="-2.46365">
        <ele>11.800000190735</ele>
        <time>2022-07-28T09:10:08.000Z</time>
      </trkpt>
      <trkpt lat="47.32958" lon="-2.46359">
        <ele>12.199999809265</ele>
        <time>2022-07-28T09:10:09.000Z</time>
      </trkpt>
      <trkpt lat="47.32957" lon="-2.46354">
        <ele>12.60000038147</ele>
        <time>2022-07-28T09:10:10.000Z</time>
      </trkpt>
      <trkpt lat="47.32956" lon="-2.46349">
        <ele>13.199999809265</ele>
        <time>2022-07-28T09:10:11.000Z</time>
      </trkpt>
      <trkpt lat="47.32954" lon="-2.46339">
        <ele>13.199999809265</ele>
        <time>2022-07-28T09:10:13.000Z</time>
      </trkpt>
      <trkpt lat="47.32952" lon="-2.46334">
        <ele>13.60000038147</ele>
        <time>2022-07-28T09:10:14.000Z</time>
      </trkpt>
      <trkpt lat="47.32951" lon="-2.4633">
        <ele>14</ele>
        <time>2022-07-28T09:10:15.000Z</time>
      </trkpt>
      <trkpt lat="47.3295" lon="-2.46325">
        <ele>14.39999961853</ele>
        <time>2022-07-28T09:10:16.000Z</time>
      </trkpt>
      <trkpt lat="47.32948" lon="-2.4632">
        <ele>14.800000190735</ele>
        <time>2022-07-28T09:10:17.000Z</time>
      </trkpt>
      <trkpt lat="47.32947" lon="-2.46316">
        <ele>15.39999961853</ele>
        <time>2022-07-28T09:10:18.000Z</time>
      </trkpt>
      <trkpt lat="47.32945" lon="-2.46311">
        <ele>15.39999961853</ele>
        <time>2022-07-28T09:10:19.000Z</time>
      </trkpt>
      <trkpt lat="47.32943" lon="-2.46302">
        <ele>15.800000190735</ele>
        <time>2022-07-28T09:10:21.000Z</time>
      </trkpt>
      <trkpt lat="47.32942" lon="-2.46297">
        <ele>16.200000762939</ele>
        <time>2022-07-28T09:10:22.000Z</time>
      </trkpt>
      <trkpt lat="47.3294" lon="-2.46292">
        <ele>16.60000038147</ele>
        <time>2022-07-28T09:10:23.000Z</time>
      </trkpt>
      <trkpt lat="47.32939" lon="-2.46286">
        <ele>17</ele>
        <time>2022-07-28T09:10:24.000Z</time>
      </trkpt>
      <trkpt lat="47.32937" lon="-2.46281">
        <ele>17.39999961853</ele>
        <time>2022-07-28T09:10:25.000Z</time>
      </trkpt>
      <trkpt lat="47.32936" lon="-2.46276">
        <ele>17.39999961853</ele>
        <time>2022-07-28T09:10:26.000Z</time>
      </trkpt>
      <trkpt lat="47.32924" lon="-2.46234">
        <ele>17.39999961853</ele>
        <time>2022-07-28T09:10:33.000Z</time>
      </trkpt>
      <trkpt lat="47.32912" lon="-2.4619">
        <ele>17.39999961853</ele>
        <time>2022-07-28T09:10:40.000Z</time>
      </trkpt>
      <trkpt lat="47.32903" lon="-2.46155">
        <ele>17.39999961853</ele>
        <time>2022-07-28T09:10:46.000Z</time>
      </trkpt>
      <trkpt lat="47.32892" lon="-2.46151">
        <ele>17.39999961853</ele>
        <time>2022-07-28T09:10:49.000Z</time>
      </trkpt>
      <trkpt lat="47.32874" lon="-2.46162">
        <ele>17.39999961853</ele>
        <time>2022-07-28T09:10:53.000Z</time>
      </trkpt>
      <trkpt lat="47.32868" lon="-2.46166">
        <ele>17.39999961853</ele>
        <time>2022-07-28T09:10:54.000Z</time>
      </trkpt>
      <trkpt lat="47.32843" lon="-2.46181">
        <ele>16.799999237061</ele>
        <time>2022-07-28T09:10:58.000Z</time>
      </trkpt>
      <trkpt lat="47.32837" lon="-2.46185">
        <ele>16.39999961853</ele>
        <time>2022-07-28T09:10:59.000Z</time>
      </trkpt>
      <trkpt lat="47.3283" lon="-2.46189">
        <ele>16</ele>
        <time>2022-07-28T09:11:00.000Z</time>
      </trkpt>
      <trkpt lat="47.32824" lon="-2.46192">
        <ele>15.60000038147</ele>
        <time>2022-07-28T09:11:01.000Z</time>
      </trkpt>
      <trkpt lat="47.32817" lon="-2.46192">
        <ele>15</ele>
        <time>2022-07-28T09:11:02.000Z</time>
      </trkpt>
      <trkpt lat="47.32811" lon="-2.46191">
        <ele>14.60000038147</ele>
        <time>2022-07-28T09:11:03.000Z</time>
      </trkpt>
      <trkpt lat="47.32805" lon="-2.46189">
        <ele>14.199999809265</ele>
        <time>2022-07-28T09:11:04.000Z</time>
      </trkpt>
      <trkpt lat="47.328" lon="-2.46186">
        <ele>13.800000190735</ele>
        <time>2022-07-28T09:11:05.000Z</time>
      </trkpt>
      <trkpt lat="47.32795" lon="-2.46183">
        <ele>13.199999809265</ele>
        <time>2022-07-28T09:11:06.000Z</time>
      </trkpt>
      <trkpt lat="47.3279" lon="-2.46179">
        <ele>12.800000190735</ele>
        <time>2022-07-28T09:11:07.000Z</time>
      </trkpt>
      <trkpt lat="47.32784" lon="-2.46175">
        <ele>12.800000190735</ele>
        <time>2022-07-28T09:11:08.000Z</time>
      </trkpt>
      <trkpt lat="47.32775" lon="-2.46163">
        <ele>12.800000190735</ele>
        <time>2022-07-28T09:11:10.000Z</time>
      </trkpt>
      <trkpt lat="47.3277" lon="-2.46157">
        <ele>12.800000190735</ele>
        <time>2022-07-28T09:11:11.000Z</time>
      </trkpt>
      <trkpt lat="47.32764" lon="-2.46143">
        <ele>12.39999961853</ele>
        <time>2022-07-28T09:11:13.000Z</time>
      </trkpt>
      <trkpt lat="47.32762" lon="-2.46137">
        <ele>12</ele>
        <time>2022-07-28T09:11:14.000Z</time>
      </trkpt>
      <trkpt lat="47.32762" lon="-2.46131">
        <ele>11.60000038147</ele>
        <time>2022-07-28T09:11:15.000Z</time>
      </trkpt>
      <trkpt lat="47.32761" lon="-2.46125">
        <ele>11.199999809265</ele>
        <time>2022-07-28T09:11:16.000Z</time>
      </trkpt>
      <trkpt lat="47.32759" lon="-2.46118">
        <ele>10.60000038147</ele>
        <time>2022-07-28T09:11:17.000Z</time>
      </trkpt>
      <trkpt lat="47.32757" lon="-2.46112">
        <ele>10.60000038147</ele>
        <time>2022-07-28T09:11:18.000Z</time>
      </trkpt>
      <trkpt lat="47.32755" lon="-2.46108">
        <ele>10.60000038147</ele>
        <time>2022-07-28T09:11:19.000Z</time>
      </trkpt>
      <trkpt lat="47.32753" lon="-2.46103">
        <ele>10.199999809265</ele>
        <time>2022-07-28T09:11:20.000Z</time>
      </trkpt>
      <trkpt lat="47.32751" lon="-2.46099">
        <ele>9.8000001907349</ele>
        <time>2022-07-28T09:11:21.000Z</time>
      </trkpt>
      <trkpt lat="47.32749" lon="-2.46094">
        <ele>9.3999996185303</ele>
        <time>2022-07-28T09:11:22.000Z</time>
      </trkpt>
      <trkpt lat="47.32746" lon="-2.4609">
        <ele>9</ele>
        <time>2022-07-28T09:11:23.000Z</time>
      </trkpt>
      <trkpt lat="47.32743" lon="-2.46087">
        <ele>8.6000003814697</ele>
        <time>2022-07-28T09:11:24.000Z</time>
      </trkpt>
      <trkpt lat="47.32736" lon="-2.46079">
        <ele>8.6000003814697</ele>
        <time>2022-07-28T09:11:26.000Z</time>
      </trkpt>
      <trkpt lat="47.32729" lon="-2.46072">
        <ele>8.6000003814697</ele>
        <time>2022-07-28T09:11:28.000Z</time>
      </trkpt>
      <trkpt lat="47.32726" lon="-2.46068">
        <ele>8.6000003814697</ele>
        <time>2022-07-28T09:11:29.000Z</time>
      </trkpt>
      <trkpt lat="47.32718" lon="-2.46056">
        <ele>8.1999998092651</ele>
        <time>2022-07-28T09:11:32.000Z</time>
      </trkpt>
      <trkpt lat="47.32714" lon="-2.46053">
        <ele>7.4000000953674</ele>
        <time>2022-07-28T09:11:33.000Z</time>
      </trkpt>
      <trkpt lat="47.3271" lon="-2.46051">
        <ele>7</ele>
        <time>2022-07-28T09:11:34.000Z</time>
      </trkpt>
      <trkpt lat="47.32707" lon="-2.46047">
        <ele>6.5999999046326</ele>
        <time>2022-07-28T09:11:35.000Z</time>
      </trkpt>
      <trkpt lat="47.32704" lon="-2.46042">
        <ele>6.5999999046326</ele>
        <time>2022-07-28T09:11:36.000Z</time>
      </trkpt>
      <trkpt lat="47.32688" lon="-2.46017">
        <ele>6.5999999046326</ele>
        <time>2022-07-28T09:11:41.000Z</time>
      </trkpt>
      <trkpt lat="47.32674" lon="-2.45999">
        <ele>6.5999999046326</ele>
        <time>2022-07-28T09:11:45.000Z</time>
      </trkpt>
      <trkpt lat="47.32671" lon="-2.45995">
        <ele>6.5999999046326</ele>
        <time>2022-07-28T09:11:46.000Z</time>
      </trkpt>
      <trkpt lat="47.32657" lon="-2.45982">
        <ele>6.5999999046326</ele>
        <time>2022-07-28T09:11:49.000Z</time>
      </trkpt>
      <trkpt lat="47.32637" lon="-2.45963">
        <ele>6.5999999046326</ele>
        <time>2022-07-28T09:11:53.000Z</time>
      </trkpt>
      <trkpt lat="47.3263" lon="-2.45952">
        <ele>6.5999999046326</ele>
        <time>2022-07-28T09:11:55.000Z</time>
      </trkpt>
      <trkpt lat="47.32611" lon="-2.45921">
        <ele>6.5999999046326</ele>
        <time>2022-07-28T09:12:00.000Z</time>
      </trkpt>
      <trkpt lat="47.32591" lon="-2.45892">
        <ele>6.5999999046326</ele>
        <time>2022-07-28T09:12:05.000Z</time>
      </trkpt>
      <trkpt lat="47.32586" lon="-2.45886">
        <ele>6.5999999046326</ele>
        <time>2022-07-28T09:12:06.000Z</time>
      </trkpt>
      <trkpt lat="47.32569" lon="-2.45862">
        <ele>6.5999999046326</ele>
        <time>2022-07-28T09:12:10.000Z</time>
      </trkpt>
      <trkpt lat="47.32565" lon="-2.45854">
        <ele>6.5999999046326</ele>
        <time>2022-07-28T09:12:11.000Z</time>
      </trkpt>
      <trkpt lat="47.32548" lon="-2.45825">
        <ele>6.5999999046326</ele>
        <time>2022-07-28T09:12:15.000Z</time>
      </trkpt>
      <trkpt lat="47.32543" lon="-2.45818">
        <ele>6.5999999046326</ele>
        <time>2022-07-28T09:12:16.000Z</time>
      </trkpt>
      <trkpt lat="47.32529" lon="-2.45797">
        <ele>6.5999999046326</ele>
        <time>2022-07-28T09:12:19.000Z</time>
      </trkpt>
      <trkpt lat="47.3252" lon="-2.45781">
        <ele>6.1999998092651</ele>
        <time>2022-07-28T09:12:21.000Z</time>
      </trkpt>
      <trkpt lat="47.32515" lon="-2.45773">
        <ele>5.4000000953674</ele>
        <time>2022-07-28T09:12:22.000Z</time>
      </trkpt>
      <trkpt lat="47.32511" lon="-2.45765">
        <ele>5</ele>
        <time>2022-07-28T09:12:23.000Z</time>
      </trkpt>
      <trkpt lat="47.32506" lon="-2.45756">
        <ele>4.4000000953674</ele>
        <time>2022-07-28T09:12:24.000Z</time>
      </trkpt>
      <trkpt lat="47.32487" lon="-2.45722">
        <ele>4.4000000953674</ele>
        <time>2022-07-28T09:12:28.000Z</time>
      </trkpt>
      <trkpt lat="47.32461" lon="-2.45676">
        <ele>4.4000000953674</ele>
        <time>2022-07-28T09:12:34.000Z</time>
      </trkpt>
      <trkpt lat="47.32439" lon="-2.45645">
        <ele>4.4000000953674</ele>
        <time>2022-07-28T09:12:39.000Z</time>
      </trkpt>
      <trkpt lat="47.32418" lon="-2.45606">
        <ele>4.4000000953674</ele>
        <time>2022-07-28T09:12:45.000Z</time>
      </trkpt>
      <trkpt lat="47.32409" lon="-2.45586">
        <ele>4.4000000953674</ele>
        <time>2022-07-28T09:12:49.000Z</time>
      </trkpt>
      <trkpt lat="47.32392" lon="-2.45553">
        <ele>4.4000000953674</ele>
        <time>2022-07-28T09:12:55.000Z</time>
      </trkpt>
      <trkpt lat="47.32372" lon="-2.45515">
        <ele>4.4000000953674</ele>
        <time>2022-07-28T09:13:01.000Z</time>
      </trkpt>
      <trkpt lat="47.32347" lon="-2.45477">
        <ele>4.4000000953674</ele>
        <time>2022-07-28T09:13:07.000Z</time>
      </trkpt>
      <trkpt lat="47.3232" lon="-2.45434">
        <ele>4.4000000953674</ele>
        <time>2022-07-28T09:13:14.000Z</time>
      </trkpt>
      <trkpt lat="47.3231" lon="-2.45418">
        <ele>4.4000000953674</ele>
        <time>2022-07-28T09:13:17.000Z</time>
      </trkpt>
      <trkpt lat="47.32309" lon="-2.45412">
        <ele>4.4000000953674</ele>
        <time>2022-07-28T09:13:18.000Z</time>
      </trkpt>
      <trkpt lat="47.32314" lon="-2.45396">
        <ele>4.4000000953674</ele>
        <time>2022-07-28T09:13:21.000Z</time>
      </trkpt>
      <trkpt lat="47.32317" lon="-2.45374">
        <ele>4.4000000953674</ele>
        <time>2022-07-28T09:13:25.000Z</time>
      </trkpt>
      <trkpt lat="47.32314" lon="-2.45353">
        <ele>5</ele>
        <time>2022-07-28T09:13:29.000Z</time>
      </trkpt>
      <trkpt lat="47.32314" lon="-2.45347">
        <ele>5.4000000953674</ele>
        <time>2022-07-28T09:13:30.000Z</time>
      </trkpt>
      <trkpt lat="47.32314" lon="-2.45341">
        <ele>5.8000001907349</ele>
        <time>2022-07-28T09:13:31.000Z</time>
      </trkpt>
      <trkpt lat="47.32314" lon="-2.45335">
        <ele>6.1999998092651</ele>
        <time>2022-07-28T09:13:32.000Z</time>
      </trkpt>
      <trkpt lat="47.32314" lon="-2.45329">
        <ele>6.5999999046326</ele>
        <time>2022-07-28T09:13:33.000Z</time>
      </trkpt>
      <trkpt lat="47.32314" lon="-2.45317">
        <ele>6.5999999046326</ele>
        <time>2022-07-28T09:13:35.000Z</time>
      </trkpt>
      <trkpt lat="47.32314" lon="-2.4531">
        <ele>6.5999999046326</ele>
        <time>2022-07-28T09:13:36.000Z</time>
      </trkpt>
      <trkpt lat="47.32309" lon="-2.45289">
        <ele>6.5999999046326</ele>
        <time>2022-07-28T09:13:39.000Z</time>
      </trkpt>
      <trkpt lat="47.32291" lon="-2.45234">
        <ele>6.5999999046326</ele>
        <time>2022-07-28T09:13:46.000Z</time>
      </trkpt>
      <trkpt lat="47.32275" lon="-2.45199">
        <ele>6.5999999046326</ele>
        <time>2022-07-28T09:13:50.000Z</time>
      </trkpt>
      <trkpt lat="47.32271" lon="-2.45192">
        <ele>6.5999999046326</ele>
        <time>2022-07-28T09:13:51.000Z</time>
      </trkpt>
      <trkpt lat="47.32265" lon="-2.45172">
        <ele>6.5999999046326</ele>
        <time>2022-07-28T09:13:54.000Z</time>
      </trkpt>
      <trkpt lat="47.32262" lon="-2.45154">
        <ele>6.5999999046326</ele>
        <time>2022-07-28T09:13:57.000Z</time>
      </trkpt>
      <trkpt lat="47.32259" lon="-2.45141">
        <ele>6.5999999046326</ele>
        <time>2022-07-28T09:13:59.000Z</time>
      </trkpt>
      <trkpt lat="47.32256" lon="-2.45129">
        <ele>7.4000000953674</ele>
        <time>2022-07-28T09:14:01.000Z</time>
      </trkpt>
      <trkpt lat="47.32254" lon="-2.45123">
        <ele>7.8000001907349</ele>
        <time>2022-07-28T09:14:02.000Z</time>
      </trkpt>
      <trkpt lat="47.32251" lon="-2.45117">
        <ele>8.1999998092651</ele>
        <time>2022-07-28T09:14:03.000Z</time>
      </trkpt>
      <trkpt lat="47.32249" lon="-2.4511">
        <ele>8.6000003814697</ele>
        <time>2022-07-28T09:14:04.000Z</time>
      </trkpt>
      <trkpt lat="47.3223" lon="-2.45067">
        <ele>8.6000003814697</ele>
        <time>2022-07-28T09:14:11.000Z</time>
      </trkpt>
      <trkpt lat="47.32207" lon="-2.45019">
        <ele>8.6000003814697</ele>
        <time>2022-07-28T09:14:19.000Z</time>
      </trkpt>
      <trkpt lat="47.32199" lon="-2.45">
        <ele>8.6000003814697</ele>
        <time>2022-07-28T09:14:22.000Z</time>
      </trkpt>
      <trkpt lat="47.32197" lon="-2.44993">
        <ele>9</ele>
        <time>2022-07-28T09:14:23.000Z</time>
      </trkpt>
      <trkpt lat="47.32194" lon="-2.44987">
        <ele>9.3999996185303</ele>
        <time>2022-07-28T09:14:24.000Z</time>
      </trkpt>
      <trkpt lat="47.3219" lon="-2.44981">
        <ele>9.8000001907349</ele>
        <time>2022-07-28T09:14:25.000Z</time>
      </trkpt>
      <trkpt lat="47.32186" lon="-2.44976">
        <ele>10.60000038147</ele>
        <time>2022-07-28T09:14:26.000Z</time>
      </trkpt>
      <trkpt lat="47.32175" lon="-2.44967">
        <ele>10.60000038147</ele>
        <time>2022-07-28T09:14:28.000Z</time>
      </trkpt>
      <trkpt lat="47.32169" lon="-2.44963">
        <ele>10.60000038147</ele>
        <time>2022-07-28T09:14:29.000Z</time>
      </trkpt>
      <trkpt lat="47.32164" lon="-2.44958">
        <ele>10.199999809265</ele>
        <time>2022-07-28T09:14:30.000Z</time>
      </trkpt>
      <trkpt lat="47.32159" lon="-2.44954">
        <ele>9.8000001907349</ele>
        <time>2022-07-28T09:14:31.000Z</time>
      </trkpt>
      <trkpt lat="47.32154" lon="-2.44949">
        <ele>9.3999996185303</ele>
        <time>2022-07-28T09:14:32.000Z</time>
      </trkpt>
      <trkpt lat="47.3215" lon="-2.44946">
        <ele>8.8000001907349</ele>
        <time>2022-07-28T09:14:33.000Z</time>
      </trkpt>
      <trkpt lat="47.32146" lon="-2.44942">
        <ele>8.3999996185303</ele>
        <time>2022-07-28T09:14:34.000Z</time>
      </trkpt>
      <trkpt lat="47.32125" lon="-2.44915">
        <ele>8</ele>
        <time>2022-07-28T09:14:40.000Z</time>
      </trkpt>
      <trkpt lat="47.32122" lon="-2.44908">
        <ele>7.5999999046326</ele>
        <time>2022-07-28T09:14:41.000Z</time>
      </trkpt>
      <trkpt lat="47.32118" lon="-2.44901">
        <ele>7.1999998092651</ele>
        <time>2022-07-28T09:14:42.000Z</time>
      </trkpt>
      <trkpt lat="47.32115" lon="-2.44894">
        <ele>6.8000001907349</ele>
        <time>2022-07-28T09:14:43.000Z</time>
      </trkpt>
      <trkpt lat="47.32112" lon="-2.44886">
        <ele>6.4000000953674</ele>
        <time>2022-07-28T09:14:44.000Z</time>
      </trkpt>
      <trkpt lat="47.32108" lon="-2.44878">
        <ele>6.4000000953674</ele>
        <time>2022-07-28T09:14:45.000Z</time>
      </trkpt>
      <trkpt lat="47.32086" lon="-2.44828">
        <ele>6.4000000953674</ele>
        <time>2022-07-28T09:14:51.000Z</time>
      </trkpt>
      <trkpt lat="47.32059" lon="-2.44767">
        <ele>6.4000000953674</ele>
        <time>2022-07-28T09:14:58.000Z</time>
      </trkpt>
      <trkpt lat="47.3203" lon="-2.44722">
        <ele>6.4000000953674</ele>
        <time>2022-07-28T09:15:04.000Z</time>
      </trkpt>
      <trkpt lat="47.31997" lon="-2.44673">
        <ele>6</ele>
        <time>2022-07-28T09:15:11.000Z</time>
      </trkpt>
      <trkpt lat="47.31992" lon="-2.44666">
        <ele>5.4000000953674</ele>
        <time>2022-07-28T09:15:12.000Z</time>
      </trkpt>
      <trkpt lat="47.31987" lon="-2.4466">
        <ele>5</ele>
        <time>2022-07-28T09:15:13.000Z</time>
      </trkpt>
      <trkpt lat="47.31981" lon="-2.44654">
        <ele>4.5999999046326</ele>
        <time>2022-07-28T09:15:14.000Z</time>
      </trkpt>
      <trkpt lat="47.31976" lon="-2.44648">
        <ele>4.1999998092651</ele>
        <time>2022-07-28T09:15:15.000Z</time>
      </trkpt>
      <trkpt lat="47.31965" lon="-2.44636">
        <ele>4.1999998092651</ele>
        <time>2022-07-28T09:15:17.000Z</time>
      </trkpt>
      <trkpt lat="47.31923" lon="-2.44588">
        <ele>4.1999998092651</ele>
        <time>2022-07-28T09:15:25.000Z</time>
      </trkpt>
      <trkpt lat="47.31906" lon="-2.44566">
        <ele>4.1999998092651</ele>
        <time>2022-07-28T09:15:30.000Z</time>
      </trkpt>
      <trkpt lat="47.31901" lon="-2.44562">
        <ele>4.1999998092651</ele>
        <time>2022-07-28T09:15:33.000Z</time>
      </trkpt>
      <trkpt lat="47.31899" lon="-2.44562">
        <ele>4.1999998092651</ele>
        <time>2022-07-28T09:15:34.000Z</time>
      </trkpt>
      <trkpt lat="47.31895" lon="-2.44572">
        <ele>4.1999998092651</ele>
        <time>2022-07-28T09:15:37.000Z</time>
      </trkpt>
      <trkpt lat="47.31888" lon="-2.44592">
        <ele>4.1999998092651</ele>
        <time>2022-07-28T09:15:41.000Z</time>
      </trkpt>
      <trkpt lat="47.31886" lon="-2.44597">
        <ele>4.1999998092651</ele>
        <time>2022-07-28T09:15:42.000Z</time>
      </trkpt>
      <trkpt lat="47.31877" lon="-2.44615">
        <ele>3.7999999523163</ele>
        <time>2022-07-28T09:15:45.000Z</time>
      </trkpt>
      <trkpt lat="47.31875" lon="-2.44622">
        <ele>3.4000000953674</ele>
        <time>2022-07-28T09:15:46.000Z</time>
      </trkpt>
      <trkpt lat="47.31872" lon="-2.44628">
        <ele>3</ele>
        <time>2022-07-28T09:15:47.000Z</time>
      </trkpt>
      <trkpt lat="47.3187" lon="-2.44635">
        <ele>2.5999999046326</ele>
        <time>2022-07-28T09:15:48.000Z</time>
      </trkpt>
      <trkpt lat="47.31868" lon="-2.44642">
        <ele>2.2000000476837</ele>
        <time>2022-07-28T09:15:49.000Z</time>
      </trkpt>
      <trkpt lat="47.31855" lon="-2.44672">
        <ele>2.2000000476837</ele>
        <time>2022-07-28T09:15:54.000Z</time>
      </trkpt>
      <trkpt lat="47.31846" lon="-2.44688">
        <ele>2.2000000476837</ele>
        <time>2022-07-28T09:15:57.000Z</time>
      </trkpt>
      <trkpt lat="47.31839" lon="-2.44698">
        <ele>2.2000000476837</ele>
        <time>2022-07-28T09:15:59.000Z</time>
      </trkpt>
      <trkpt lat="47.31822" lon="-2.44719">
        <ele>2.2000000476837</ele>
        <time>2022-07-28T09:16:03.000Z</time>
      </trkpt>
      <trkpt lat="47.31812" lon="-2.44727">
        <ele>2.2000000476837</ele>
        <time>2022-07-28T09:16:05.000Z</time>
      </trkpt>
      <trkpt lat="47.31801" lon="-2.44734">
        <ele>2.2000000476837</ele>
        <time>2022-07-28T09:16:07.000Z</time>
      </trkpt>
      <trkpt lat="47.31779" lon="-2.44745">
        <ele>2.2000000476837</ele>
        <time>2022-07-28T09:16:11.000Z</time>
      </trkpt>
      <trkpt lat="47.31759" lon="-2.44761">
        <ele>2.2000000476837</ele>
        <time>2022-07-28T09:16:15.000Z</time>
      </trkpt>
      <trkpt lat="47.31754" lon="-2.44766">
        <ele>2.2000000476837</ele>
        <time>2022-07-28T09:16:16.000Z</time>
      </trkpt>
      <trkpt lat="47.31732" lon="-2.44786">
        <ele>2.2000000476837</ele>
        <time>2022-07-28T09:16:22.000Z</time>
      </trkpt>
      <trkpt lat="47.3173" lon="-2.44787">
        <ele>1.6000000238419</ele>
        <time>2022-07-28T09:16:24.000Z</time>
      </trkpt>
      <trkpt lat="47.31729" lon="-2.44787">
        <ele>5.2</ele>
        <time>2022-07-28T09:17:10.000Z</time>
      </trkpt>
      <trkpt lat="47.3172" lon="-2.44783">
        <ele>5</ele>
        <time>2022-07-28T09:17:14.000Z</time>
      </trkpt>
      <trkpt lat="47.31711" lon="-2.44761">
        <ele>5.6</ele>
        <time>2022-07-28T09:17:18.000Z</time>
      </trkpt>
      <trkpt lat="47.31696" lon="-2.44724">
        <ele>5.1</ele>
        <time>2022-07-28T09:17:24.000Z</time>
      </trkpt>
      <trkpt lat="47.31677" lon="-2.44679">
        <ele>5.2</ele>
        <time>2022-07-28T09:17:30.000Z</time>
      </trkpt>
      <trkpt lat="47.31652" lon="-2.4462">
        <ele>5.1</ele>
        <time>2022-07-28T09:17:37.000Z</time>
      </trkpt>
      <trkpt lat="47.31623" lon="-2.44566">
        <ele>4.4</ele>
        <time>2022-07-28T09:17:44.000Z</time>
      </trkpt>
      <trkpt lat="47.31595" lon="-2.44517">
        <ele>4.4</ele>
        <time>2022-07-28T09:17:51.000Z</time>
      </trkpt>
      <trkpt lat="47.31582" lon="-2.44474">
        <ele>3.9</ele>
        <time>2022-07-28T09:17:56.000Z</time>
      </trkpt>
      <trkpt lat="47.31572" lon="-2.44415">
        <ele>3.4</ele>
        <time>2022-07-28T09:18:02.000Z</time>
      </trkpt>
      <trkpt lat="47.31563" lon="-2.44353">
        <ele>3.3</ele>
        <time>2022-07-28T09:18:08.000Z</time>
      </trkpt>
      <trkpt lat="47.31553" lon="-2.44291">
        <ele>4</ele>
        <time>2022-07-28T09:18:15.000Z</time>
      </trkpt>
      <trkpt lat="47.31543" lon="-2.44232">
        <ele>4</ele>
        <time>2022-07-28T09:18:22.000Z</time>
      </trkpt>
      <trkpt lat="47.31528" lon="-2.44178">
        <ele>5</ele>
        <time>2022-07-28T09:18:29.000Z</time>
      </trkpt>
      <trkpt lat="47.31505" lon="-2.44138">
        <ele>5</ele>
        <time>2022-07-28T09:18:35.000Z</time>
      </trkpt>
      <trkpt lat="47.3147" lon="-2.44091">
        <ele>4</ele>
        <time>2022-07-28T09:18:42.000Z</time>
      </trkpt>
      <trkpt lat="47.31431" lon="-2.4404">
        <ele>4.6</ele>
        <time>2022-07-28T09:18:50.000Z</time>
      </trkpt>
      <trkpt lat="47.314" lon="-2.44001">
        <ele>5</ele>
        <time>2022-07-28T09:18:57.000Z</time>
      </trkpt>
      <trkpt lat="47.31364" lon="-2.4395">
        <ele>5</ele>
        <time>2022-07-28T09:19:05.000Z</time>
      </trkpt>
      <trkpt lat="47.31345" lon="-2.439">
        <ele>5.5</ele>
        <time>2022-07-28T09:19:11.000Z</time>
      </trkpt>
      <trkpt lat="47.3132" lon="-2.43838">
        <ele>5.4</ele>
        <time>2022-07-28T09:19:19.000Z</time>
      </trkpt>
      <trkpt lat="47.31294" lon="-2.43801">
        <ele>5.1</ele>
        <time>2022-07-28T09:19:25.000Z</time>
      </trkpt>
      <trkpt lat="47.31274" lon="-2.43755">
        <ele>5</ele>
        <time>2022-07-28T09:19:31.000Z</time>
      </trkpt>
      <trkpt lat="47.31252" lon="-2.43699">
        <ele>5.1</ele>
        <time>2022-07-28T09:19:38.000Z</time>
      </trkpt>
      <trkpt lat="47.3125" lon="-2.4369">
        <ele>5</ele>
        <time>2022-07-28T09:19:39.000Z</time>
      </trkpt>
      <trkpt lat="47.3124" lon="-2.43654">
        <ele>5.3</ele>
        <time>2022-07-28T09:19:43.000Z</time>
      </trkpt>
      <trkpt lat="47.3123" lon="-2.43589">
        <ele>5.4</ele>
        <time>2022-07-28T09:19:50.000Z</time>
      </trkpt>
      <trkpt lat="47.3122" lon="-2.43518">
        <ele>5.9</ele>
        <time>2022-07-28T09:19:58.000Z</time>
      </trkpt>
      <trkpt lat="47.31208" lon="-2.43437">
        <ele>5.5</ele>
        <time>2022-07-28T09:20:07.000Z</time>
      </trkpt>
      <trkpt lat="47.31207" lon="-2.43428">
        <ele>5.4</ele>
        <time>2022-07-28T09:20:08.000Z</time>
      </trkpt>
      <trkpt lat="47.31195" lon="-2.43348">
        <ele>5</ele>
        <time>2022-07-28T09:20:17.000Z</time>
      </trkpt>
      <trkpt lat="47.31193" lon="-2.4334">
        <ele>5</ele>
        <time>2022-07-28T09:20:18.000Z</time>
      </trkpt>
      <trkpt lat="47.31182" lon="-2.43308">
        <ele>5.6</ele>
        <time>2022-07-28T09:20:22.000Z</time>
      </trkpt>
      <trkpt lat="47.31171" lon="-2.43286">
        <ele>5.8</ele>
        <time>2022-07-28T09:20:25.000Z</time>
      </trkpt>
      <trkpt lat="47.31162" lon="-2.43272">
        <ele>5.9</ele>
        <time>2022-07-28T09:20:27.000Z</time>
      </trkpt>
      <trkpt lat="47.31123" lon="-2.43212">
        <ele>5.4</ele>
        <time>2022-07-28T09:20:36.000Z</time>
      </trkpt>
      <trkpt lat="47.31111" lon="-2.43195">
        <ele>5</ele>
        <time>2022-07-28T09:20:39.000Z</time>
      </trkpt>
      <trkpt lat="47.31106" lon="-2.43193">
        <ele>5</ele>
        <time>2022-07-28T09:20:40.000Z</time>
      </trkpt>
      <trkpt lat="47.3109" lon="-2.43201">
        <ele>5</ele>
        <time>2022-07-28T09:20:43.000Z</time>
      </trkpt>
      <trkpt lat="47.31085" lon="-2.43206">
        <ele>5</ele>
        <time>2022-07-28T09:20:44.000Z</time>
      </trkpt>
      <trkpt lat="47.31056" lon="-2.43231">
        <ele>4.3</ele>
        <time>2022-07-28T09:20:49.000Z</time>
      </trkpt>
      <trkpt lat="47.31019" lon="-2.43281">
        <ele>4</ele>
        <time>2022-07-28T09:20:56.000Z</time>
      </trkpt>
      <trkpt lat="47.30996" lon="-2.43306">
        <ele>4</ele>
        <time>2022-07-28T09:21:00.000Z</time>
      </trkpt>
      <trkpt lat="47.30989" lon="-2.4331">
        <ele>4</ele>
        <time>2022-07-28T09:21:01.000Z</time>
      </trkpt>
      <trkpt lat="47.30944" lon="-2.43329">
        <ele>4</ele>
        <time>2022-07-28T09:21:08.000Z</time>
      </trkpt>
      <trkpt lat="47.30909" lon="-2.43344">
        <ele>3.9</ele>
        <time>2022-07-28T09:21:14.000Z</time>
      </trkpt>
      <trkpt lat="47.30873" lon="-2.4336">
        <ele>3</ele>
        <time>2022-07-28T09:21:20.000Z</time>
      </trkpt>
      <trkpt lat="47.30832" lon="-2.4338">
        <ele>3</ele>
        <time>2022-07-28T09:21:27.000Z</time>
      </trkpt>
      <trkpt lat="47.30804" lon="-2.43389">
        <ele>-0.40000000596046</ele>
        <time>2022-07-28T09:21:32.000Z</time>
      </trkpt>
      <trkpt lat="47.30798" lon="-2.43389">
        <ele>-0.80000001192093</ele>
        <time>2022-07-28T09:21:33.000Z</time>
      </trkpt>
      <trkpt lat="47.30792" lon="-2.43389">
        <ele>-1.2000000476837</ele>
        <time>2022-07-28T09:21:34.000Z</time>
      </trkpt>
      <trkpt lat="47.30786" lon="-2.43389">
        <ele>-1.6000000238419</ele>
        <time>2022-07-28T09:21:35.000Z</time>
      </trkpt>
      <trkpt lat="47.3078" lon="-2.43389">
        <ele>-2</ele>
        <time>2022-07-28T09:21:36.000Z</time>
      </trkpt>
      <trkpt lat="47.30762" lon="-2.43389">
        <ele>-2</ele>
        <time>2022-07-28T09:21:39.000Z</time>
      </trkpt>
      <trkpt lat="47.30717" lon="-2.43389">
        <ele>-2</ele>
        <time>2022-07-28T09:21:47.000Z</time>
      </trkpt>
      <trkpt lat="47.30699" lon="-2.4339">
        <ele>-2</ele>
        <time>2022-07-28T09:21:50.000Z</time>
      </trkpt>
      <trkpt lat="47.30687" lon="-2.43392">
        <ele>-2</ele>
        <time>2022-07-28T09:21:52.000Z</time>
      </trkpt>
      <trkpt lat="47.30639" lon="-2.43402">
        <ele>-2</ele>
        <time>2022-07-28T09:21:59.000Z</time>
      </trkpt>
      <trkpt lat="47.30589" lon="-2.43415">
        <ele>-2</ele>
        <time>2022-07-28T09:22:06.000Z</time>
      </trkpt>
      <trkpt lat="47.30548" lon="-2.43418">
        <ele>-2</ele>
        <time>2022-07-28T09:22:12.000Z</time>
      </trkpt>
      <trkpt lat="47.30503" lon="-2.43415">
        <ele>-2</ele>
        <time>2022-07-28T09:22:19.000Z</time>
      </trkpt>
      <trkpt lat="47.30466" lon="-2.43413">
        <ele>-2</ele>
        <time>2022-07-28T09:22:25.000Z</time>
      </trkpt>
      <trkpt lat="47.30461" lon="-2.43414">
        <ele>-2</ele>
        <time>2022-07-28T09:22:26.000Z</time>
      </trkpt>
      <trkpt lat="47.30445" lon="-2.4342">
        <ele>-2</ele>
        <time>2022-07-28T09:22:29.000Z</time>
      </trkpt>
      <trkpt lat="47.30435" lon="-2.43418">
        <ele>-2</ele>
        <time>2022-07-28T09:22:31.000Z</time>
      </trkpt>
      <trkpt lat="47.30426" lon="-2.434">
        <ele>-2</ele>
        <time>2022-07-28T09:22:34.000Z</time>
      </trkpt>
      <trkpt lat="47.30423" lon="-2.43384">
        <ele>-2</ele>
        <time>2022-07-28T09:22:36.000Z</time>
      </trkpt>
      <trkpt lat="47.30416" lon="-2.43347">
        <ele>-2</ele>
        <time>2022-07-28T09:22:41.000Z</time>
      </trkpt>
      <trkpt lat="47.30405" lon="-2.43298">
        <ele>-2</ele>
        <time>2022-07-28T09:22:48.000Z</time>
      </trkpt>
      <trkpt lat="47.30397" lon="-2.43269">
        <ele>-2</ele>
        <time>2022-07-28T09:22:52.000Z</time>
      </trkpt>
      <trkpt lat="47.30388" lon="-2.43247">
        <ele>-2</ele>
        <time>2022-07-28T09:22:55.000Z</time>
      </trkpt>
      <trkpt lat="47.30372" lon="-2.43239">
        <ele>-2</ele>
        <time>2022-07-28T09:22:58.000Z</time>
      </trkpt>
      <trkpt lat="47.30354" lon="-2.43242">
        <ele>-2</ele>
        <time>2022-07-28T09:23:01.000Z</time>
      </trkpt>
      <trkpt lat="47.30341" lon="-2.43246">
        <ele>-2</ele>
        <time>2022-07-28T09:23:03.000Z</time>
      </trkpt>
      <trkpt lat="47.30296" lon="-2.43255">
        <ele>-2</ele>
        <time>2022-07-28T09:23:10.000Z</time>
      </trkpt>
      <trkpt lat="47.30283" lon="-2.43258">
        <ele>-2</ele>
        <time>2022-07-28T09:23:12.000Z</time>
      </trkpt>
      <trkpt lat="47.30263" lon="-2.43264">
        <ele>-2</ele>
        <time>2022-07-28T09:23:15.000Z</time>
      </trkpt>
      <trkpt lat="47.30223" lon="-2.43282">
        <ele>-2</ele>
        <time>2022-07-28T09:23:21.000Z</time>
      </trkpt>
      <trkpt lat="47.30168" lon="-2.43306">
        <ele>-2</ele>
        <time>2022-07-28T09:23:29.000Z</time>
      </trkpt>
      <trkpt lat="47.30161" lon="-2.43308">
        <ele>-2</ele>
        <time>2022-07-28T09:23:30.000Z</time>
      </trkpt>
      <trkpt lat="47.30104" lon="-2.43325">
        <ele>-2</ele>
        <time>2022-07-28T09:23:38.000Z</time>
      </trkpt>
      <trkpt lat="47.30044" lon="-2.43338">
        <ele>-2</ele>
        <time>2022-07-28T09:23:46.000Z</time>
      </trkpt>
      <trkpt lat="47.30037" lon="-2.43338">
        <ele>-2</ele>
        <time>2022-07-28T09:23:47.000Z</time>
      </trkpt>
      <trkpt lat="47.30015" lon="-2.43333">
        <ele>-2</ele>
        <time>2022-07-28T09:23:50.000Z</time>
      </trkpt>
      <trkpt lat="47.29989" lon="-2.43312">
        <ele>-2</ele>
        <time>2022-07-28T09:23:54.000Z</time>
      </trkpt>
      <trkpt lat="47.2997" lon="-2.43299">
        <ele>-2</ele>
        <time>2022-07-28T09:23:57.000Z</time>
      </trkpt>
      <trkpt lat="47.29963" lon="-2.43297">
        <ele>-2</ele>
        <time>2022-07-28T09:23:58.000Z</time>
      </trkpt>
      <trkpt lat="47.29943" lon="-2.43303">
        <ele>-2</ele>
        <time>2022-07-28T09:24:01.000Z</time>
      </trkpt>
      <trkpt lat="47.29906" lon="-2.43315">
        <ele>-2</ele>
        <time>2022-07-28T09:24:07.000Z</time>
      </trkpt>
      <trkpt lat="47.29889" lon="-2.43319">
        <ele>-2</ele>
        <time>2022-07-28T09:24:11.000Z</time>
      </trkpt>
      <trkpt lat="47.29881" lon="-2.43318">
        <ele>-2</ele>
        <time>2022-07-28T09:24:14.000Z</time>
      </trkpt>
      <trkpt lat="47.2988" lon="-2.43317">
        <ele>-2</ele>
        <time>2022-07-28T09:24:15.000Z</time>
      </trkpt>
      <trkpt lat="47.29877" lon="-2.43313">
        <ele>-2</ele>
        <time>2022-07-28T09:24:19.000Z</time>
      </trkpt>
      <trkpt lat="47.29876" lon="-2.4331">
        <ele>-2</ele>
        <time>2022-07-28T09:24:20.000Z</time>
      </trkpt>
      <trkpt lat="47.29872" lon="-2.43303">
        <ele>-2</ele>
        <time>2022-07-28T09:24:22.000Z</time>
      </trkpt>
      <trkpt lat="47.29862" lon="-2.43281">
        <ele>-2</ele>
        <time>2022-07-28T09:24:26.000Z</time>
      </trkpt>
      <trkpt lat="47.29857" lon="-2.43268">
        <ele>-2</ele>
        <time>2022-07-28T09:24:28.000Z</time>
      </trkpt>
      <trkpt lat="47.29849" lon="-2.43252">
        <ele>-2</ele>
        <time>2022-07-28T09:24:31.000Z</time>
      </trkpt>
      <trkpt lat="47.29841" lon="-2.43239">
        <ele>-2</ele>
        <time>2022-07-28T09:24:34.000Z</time>
      </trkpt>
      <trkpt lat="47.29828" lon="-2.43213">
        <ele>-2</ele>
        <time>2022-07-28T09:24:41.000Z</time>
      </trkpt>
      <trkpt lat="47.29814" lon="-2.43198">
        <ele>-2</ele>
        <time>2022-07-28T09:24:47.000Z</time>
      </trkpt>
      <trkpt lat="47.29798" lon="-2.43187">
        <ele>-2</ele>
        <time>2022-07-28T09:24:54.000Z</time>
      </trkpt>
      <trkpt lat="47.2978" lon="-2.43193">
        <ele>-2</ele>
        <time>2022-07-28T09:25:00.000Z</time>
      </trkpt>
      <trkpt lat="47.29756" lon="-2.43198">
        <ele>-2</ele>
        <time>2022-07-28T09:25:07.000Z</time>
      </trkpt>
      <trkpt lat="47.2974" lon="-2.43204">
        <ele>-2</ele>
        <time>2022-07-28T09:25:12.000Z</time>
      </trkpt>
      <trkpt lat="47.29711" lon="-2.43212">
        <ele>-2</ele>
        <time>2022-07-28T09:25:19.000Z</time>
      </trkpt>
      <trkpt lat="47.29675" lon="-2.43221">
        <ele>-2</ele>
        <time>2022-07-28T09:25:27.000Z</time>
      </trkpt>
      <trkpt lat="47.2964" lon="-2.43231">
        <ele>-2</ele>
        <time>2022-07-28T09:25:34.000Z</time>
      </trkpt>
      <trkpt lat="47.29631" lon="-2.43234">
        <ele>-2</ele>
        <time>2022-07-28T09:25:36.000Z</time>
      </trkpt>
      <trkpt lat="47.29616" lon="-2.43239">
        <ele>-2</ele>
        <time>2022-07-28T09:25:39.000Z</time>
      </trkpt>
      <trkpt lat="47.29606" lon="-2.43244">
        <ele>-2</ele>
        <time>2022-07-28T09:25:41.000Z</time>
      </trkpt>
      <trkpt lat="47.29597" lon="-2.43249">
        <ele>-2</ele>
        <time>2022-07-28T09:25:43.000Z</time>
      </trkpt>
      <trkpt lat="47.29592" lon="-2.43252">
        <ele>-2</ele>
        <time>2022-07-28T09:25:44.000Z</time>
      </trkpt>
      <trkpt lat="47.29579" lon="-2.43259">
        <ele>-2</ele>
        <time>2022-07-28T09:25:47.000Z</time>
      </trkpt>
      <trkpt lat="47.29575" lon="-2.43262">
        <ele>-1.6000000238419</ele>
        <time>2022-07-28T09:25:48.000Z</time>
      </trkpt>
      <trkpt lat="47.29572" lon="-2.43265">
        <ele>-1.2000000476837</ele>
        <time>2022-07-28T09:25:49.000Z</time>
      </trkpt>
      <trkpt lat="47.29569" lon="-2.43268">
        <ele>-0.60000002384186</ele>
        <time>2022-07-28T09:25:50.000Z</time>
      </trkpt>
      <trkpt lat="47.29566" lon="-2.43273">
        <ele>-0.20000000298023</ele>
        <time>2022-07-28T09:25:51.000Z</time>
      </trkpt>
      <trkpt lat="47.29563" lon="-2.43277">
        <ele>0.20000000298023</ele>
        <time>2022-07-28T09:25:52.000Z</time>
      </trkpt>
      <trkpt lat="47.29558" lon="-2.43284">
        <ele>0.20000000298023</ele>
        <time>2022-07-28T09:25:55.000Z</time>
      </trkpt>
      <trkpt lat="47.29548" lon="-2.433">
        <ele>0.20000000298023</ele>
        <time>2022-07-28T09:26:01.000Z</time>
      </trkpt>
      <trkpt lat="47.29534" lon="-2.43326">
        <ele>0.20000000298023</ele>
        <time>2022-07-28T09:26:07.000Z</time>
      </trkpt>
      <trkpt lat="47.29523" lon="-2.43345">
        <ele>0.20000000298023</ele>
        <time>2022-07-28T09:26:11.000Z</time>
      </trkpt>
      <trkpt lat="47.29517" lon="-2.43354">
        <ele>0.20000000298023</ele>
        <time>2022-07-28T09:26:13.000Z</time>
      </trkpt>
      <trkpt lat="47.29503" lon="-2.43378">
        <ele>0.20000000298023</ele>
        <time>2022-07-28T09:26:18.000Z</time>
      </trkpt>
      <trkpt lat="47.29497" lon="-2.43389">
        <ele>0.20000000298023</ele>
        <time>2022-07-28T09:26:20.000Z</time>
      </trkpt>
      <trkpt lat="47.29485" lon="-2.43415">
        <ele>0.20000000298023</ele>
        <time>2022-07-28T09:26:24.000Z</time>
      </trkpt>
      <trkpt lat="47.29482" lon="-2.43422">
        <ele>0.20000000298023</ele>
        <time>2022-07-28T09:26:25.000Z</time>
      </trkpt>
      <trkpt lat="47.29471" lon="-2.43442">
        <ele>0.20000000298023</ele>
        <time>2022-07-28T09:26:28.000Z</time>
      </trkpt>
      <trkpt lat="47.29464" lon="-2.43455">
        <ele>0.20000000298023</ele>
        <time>2022-07-28T09:26:30.000Z</time>
      </trkpt>
      <trkpt lat="47.29456" lon="-2.43466">
        <ele>0.20000000298023</ele>
        <time>2022-07-28T09:26:32.000Z</time>
      </trkpt>
      <trkpt lat="47.29446" lon="-2.43463">
        <ele>0.20000000298023</ele>
        <time>2022-07-28T09:26:34.000Z</time>
      </trkpt>
      <trkpt lat="47.2944" lon="-2.43449">
        <ele>0.20000000298023</ele>
        <time>2022-07-28T09:26:36.000Z</time>
      </trkpt>
      <trkpt lat="47.29433" lon="-2.43411">
        <ele>0.20000000298023</ele>
        <time>2022-07-28T09:26:41.000Z</time>
      </trkpt>
      <trkpt lat="47.29426" lon="-2.43392">
        <ele>0.20000000298023</ele>
        <time>2022-07-28T09:26:44.000Z</time>
      </trkpt>
      <trkpt lat="47.29413" lon="-2.43388">
        <ele>0.20000000298023</ele>
        <time>2022-07-28T09:26:47.000Z</time>
      </trkpt>
      <trkpt lat="47.29409" lon="-2.43385">
        <ele>0.20000000298023</ele>
        <time>2022-07-28T09:26:48.000Z</time>
      </trkpt>
      <trkpt lat="47.29407" lon="-2.43381">
        <ele>0.20000000298023</ele>
        <time>2022-07-28T09:26:49.000Z</time>
      </trkpt>
      <trkpt lat="47.29407" lon="-2.43376">
        <ele>0.20000000298023</ele>
        <time>2022-07-28T09:26:50.000Z</time>
      </trkpt>
      <trkpt lat="47.29405" lon="-2.4336">
        <ele>0.20000000298023</ele>
        <time>2022-07-28T09:26:53.000Z</time>
      </trkpt>
      <trkpt lat="47.29403" lon="-2.43354">
        <ele>0.20000000298023</ele>
        <time>2022-07-28T09:26:54.000Z</time>
      </trkpt>
      <trkpt lat="47.29393" lon="-2.43339">
        <ele>0.20000000298023</ele>
        <time>2022-07-28T09:26:57.000Z</time>
      </trkpt>
      <trkpt lat="47.29389" lon="-2.43333">
        <ele>0.20000000298023</ele>
        <time>2022-07-28T09:26:58.000Z</time>
      </trkpt>
      <trkpt lat="47.29385" lon="-2.43327">
        <ele>0.20000000298023</ele>
        <time>2022-07-28T09:26:59.000Z</time>
      </trkpt>
      <trkpt lat="47.29369" lon="-2.43306">
        <ele>0.20000000298023</ele>
        <time>2022-07-28T09:27:03.000Z</time>
      </trkpt>
      <trkpt lat="47.29362" lon="-2.43293">
        <ele>0.20000000298023</ele>
        <time>2022-07-28T09:27:05.000Z</time>
      </trkpt>
      <trkpt lat="47.2936" lon="-2.43278">
        <ele>0.20000000298023</ele>
        <time>2022-07-28T09:27:07.000Z</time>
      </trkpt>
      <trkpt lat="47.29358" lon="-2.43247">
        <ele>0.20000000298023</ele>
        <time>2022-07-28T09:27:11.000Z</time>
      </trkpt>
      <trkpt lat="47.29359" lon="-2.4324">
        <ele>0.20000000298023</ele>
        <time>2022-07-28T09:27:12.000Z</time>
      </trkpt>
      <trkpt lat="47.29368" lon="-2.43223">
        <ele>0.20000000298023</ele>
        <time>2022-07-28T09:27:15.000Z</time>
      </trkpt>
      <trkpt lat="47.29373" lon="-2.432">
        <ele>0.20000000298023</ele>
        <time>2022-07-28T09:27:18.000Z</time>
      </trkpt>
      <trkpt lat="47.2937" lon="-2.43173">
        <ele>0.20000000298023</ele>
        <time>2022-07-28T09:27:21.000Z</time>
      </trkpt>
      <trkpt lat="47.29367" lon="-2.43156">
        <ele>0.20000000298023</ele>
        <time>2022-07-28T09:27:23.000Z</time>
      </trkpt>
      <trkpt lat="47.29364" lon="-2.43148">
        <ele>0.20000000298023</ele>
        <time>2022-07-28T09:27:24.000Z</time>
      </trkpt>
      <trkpt lat="47.29355" lon="-2.43126">
        <ele>0.20000000298023</ele>
        <time>2022-07-28T09:27:27.000Z</time>
      </trkpt>
      <trkpt lat="47.29351" lon="-2.43119">
        <ele>0.20000000298023</ele>
        <time>2022-07-28T09:27:28.000Z</time>
      </trkpt>
      <trkpt lat="47.29341" lon="-2.43098">
        <ele>0.20000000298023</ele>
        <time>2022-07-28T09:27:31.000Z</time>
      </trkpt>
      <trkpt lat="47.29338" lon="-2.43092">
        <ele>0.20000000298023</ele>
        <time>2022-07-28T09:27:32.000Z</time>
      </trkpt>
      <trkpt lat="47.29333" lon="-2.43087">
        <ele>0.20000000298023</ele>
        <time>2022-07-28T09:27:33.000Z</time>
      </trkpt>
      <trkpt lat="47.29317" lon="-2.43078">
        <ele>0.20000000298023</ele>
        <time>2022-07-28T09:27:36.000Z</time>
      </trkpt>
      <trkpt lat="47.29312" lon="-2.43075">
        <ele>0.20000000298023</ele>
        <time>2022-07-28T09:27:37.000Z</time>
      </trkpt>
      <trkpt lat="47.29308" lon="-2.4307">
        <ele>0.20000000298023</ele>
        <time>2022-07-28T09:27:38.000Z</time>
      </trkpt>
      <trkpt lat="47.29302" lon="-2.43055">
        <ele>0.20000000298023</ele>
        <time>2022-07-28T09:27:40.000Z</time>
      </trkpt>
      <trkpt lat="47.29304" lon="-2.43029">
        <ele>0.20000000298023</ele>
        <time>2022-07-28T09:27:43.000Z</time>
      </trkpt>
      <trkpt lat="47.29308" lon="-2.43004">
        <ele>0.20000000298023</ele>
        <time>2022-07-28T09:27:46.000Z</time>
      </trkpt>
      <trkpt lat="47.2931" lon="-2.42978">
        <ele>0.20000000298023</ele>
        <time>2022-07-28T09:27:49.000Z</time>
      </trkpt>
      <trkpt lat="47.29311" lon="-2.42951">
        <ele>0.20000000298023</ele>
        <time>2022-07-28T09:27:52.000Z</time>
      </trkpt>
      <trkpt lat="47.29311" lon="-2.42933">
        <ele>0.20000000298023</ele>
        <time>2022-07-28T09:27:54.000Z</time>
      </trkpt>
      <trkpt lat="47.29319" lon="-2.429">
        <ele>0.20000000298023</ele>
        <time>2022-07-28T09:27:58.000Z</time>
      </trkpt>
      <trkpt lat="47.29324" lon="-2.42876">
        <ele>0.20000000298023</ele>
        <time>2022-07-28T09:28:01.000Z</time>
      </trkpt>
      <trkpt lat="47.29329" lon="-2.42861">
        <ele>0.20000000298023</ele>
        <time>2022-07-28T09:28:03.000Z</time>
      </trkpt>
      <trkpt lat="47.29337" lon="-2.42845">
        <ele>0.20000000298023</ele>
        <time>2022-07-28T09:28:05.000Z</time>
      </trkpt>
      <trkpt lat="47.29349" lon="-2.42824">
        <ele>0.20000000298023</ele>
        <time>2022-07-28T09:28:08.000Z</time>
      </trkpt>
      <trkpt lat="47.29368" lon="-2.42804">
        <ele>0.20000000298023</ele>
        <time>2022-07-28T09:28:12.000Z</time>
      </trkpt>
      <trkpt lat="47.29378" lon="-2.42782">
        <ele>0.20000000298023</ele>
        <time>2022-07-28T09:28:15.000Z</time>
      </trkpt>
      <trkpt lat="47.2938" lon="-2.42774">
        <ele>0.20000000298023</ele>
        <time>2022-07-28T09:28:16.000Z</time>
      </trkpt>
      <trkpt lat="47.29382" lon="-2.42766">
        <ele>0.20000000298023</ele>
        <time>2022-07-28T09:28:17.000Z</time>
      </trkpt>
      <trkpt lat="47.29389" lon="-2.42742">
        <ele>0.20000000298023</ele>
        <time>2022-07-28T09:28:20.000Z</time>
      </trkpt>
      <trkpt lat="47.29404" lon="-2.42701">
        <ele>0.20000000298023</ele>
        <time>2022-07-28T09:28:25.000Z</time>
      </trkpt>
      <trkpt lat="47.29416" lon="-2.4267">
        <ele>0.20000000298023</ele>
        <time>2022-07-28T09:28:29.000Z</time>
      </trkpt>
      <trkpt lat="47.29417" lon="-2.42662">
        <ele>0.20000000298023</ele>
        <time>2022-07-28T09:28:30.000Z</time>
      </trkpt>
      <trkpt lat="47.29421" lon="-2.42611">
        <ele>0.20000000298023</ele>
        <time>2022-07-28T09:28:36.000Z</time>
      </trkpt>
      <trkpt lat="47.29421" lon="-2.42603">
        <ele>0.20000000298023</ele>
        <time>2022-07-28T09:28:37.000Z</time>
      </trkpt>
      <trkpt lat="47.29424" lon="-2.42586">
        <ele>0.20000000298023</ele>
        <time>2022-07-28T09:28:39.000Z</time>
      </trkpt>
      <trkpt lat="47.29431" lon="-2.42574">
        <ele>0.20000000298023</ele>
        <time>2022-07-28T09:28:41.000Z</time>
      </trkpt>
      <trkpt lat="47.2944" lon="-2.42564">
        <ele>0.20000000298023</ele>
        <time>2022-07-28T09:28:43.000Z</time>
      </trkpt>
      <trkpt lat="47.29453" lon="-2.42549">
        <ele>0.20000000298023</ele>
        <time>2022-07-28T09:28:46.000Z</time>
      </trkpt>
      <trkpt lat="47.29475" lon="-2.42525">
        <ele>0.20000000298023</ele>
        <time>2022-07-28T09:28:51.000Z</time>
      </trkpt>
      <trkpt lat="47.29479" lon="-2.42521">
        <ele>0.20000000298023</ele>
        <time>2022-07-28T09:28:52.000Z</time>
      </trkpt>
      <trkpt lat="47.29497" lon="-2.42502">
        <ele>0.20000000298023</ele>
        <time>2022-07-28T09:28:56.000Z</time>
      </trkpt>
      <trkpt lat="47.29515" lon="-2.42482">
        <ele>0.20000000298023</ele>
        <time>2022-07-28T09:29:00.000Z</time>
      </trkpt>
      <trkpt lat="47.29521" lon="-2.42478">
        <ele>0.20000000298023</ele>
        <time>2022-07-28T09:29:01.000Z</time>
      </trkpt>
      <trkpt lat="47.29536" lon="-2.42463">
        <ele>0.20000000298023</ele>
        <time>2022-07-28T09:29:04.000Z</time>
      </trkpt>
      <trkpt lat="47.29543" lon="-2.4245">
        <ele>0.20000000298023</ele>
        <time>2022-07-28T09:29:06.000Z</time>
      </trkpt>
      <trkpt lat="47.29553" lon="-2.42434">
        <ele>0.20000000298023</ele>
        <time>2022-07-28T09:29:09.000Z</time>
      </trkpt>
      <trkpt lat="47.29558" lon="-2.4243">
        <ele>0.20000000298023</ele>
        <time>2022-07-28T09:29:10.000Z</time>
      </trkpt>
      <trkpt lat="47.29567" lon="-2.42423">
        <ele>0.20000000298023</ele>
        <time>2022-07-28T09:29:12.000Z</time>
      </trkpt>
      <trkpt lat="47.29578" lon="-2.42423">
        <ele>0.20000000298023</ele>
        <time>2022-07-28T09:29:14.000Z</time>
      </trkpt>
      <trkpt lat="47.29589" lon="-2.42425">
        <ele>0.20000000298023</ele>
        <time>2022-07-28T09:29:16.000Z</time>
      </trkpt>
      <trkpt lat="47.29603" lon="-2.4243">
        <ele>0.20000000298023</ele>
        <time>2022-07-28T09:29:19.000Z</time>
      </trkpt>
      <trkpt lat="47.29622" lon="-2.42433">
        <ele>0.20000000298023</ele>
        <time>2022-07-28T09:29:24.000Z</time>
      </trkpt>
      <trkpt lat="47.29625" lon="-2.42429">
        <ele>0.20000000298023</ele>
        <time>2022-07-28T09:29:25.000Z</time>
      </trkpt>
      <trkpt lat="47.29629" lon="-2.42411">
        <ele>0.20000000298023</ele>
        <time>2022-07-28T09:29:28.000Z</time>
      </trkpt>
      <trkpt lat="47.29639" lon="-2.42362">
        <ele>0.20000000298023</ele>
        <time>2022-07-28T09:29:35.000Z</time>
      </trkpt>
      <trkpt lat="47.29653" lon="-2.42301">
        <ele>0.20000000298023</ele>
        <time>2022-07-28T09:29:43.000Z</time>
      </trkpt>
      <trkpt lat="47.29665" lon="-2.42248">
        <ele>0.20000000298023</ele>
        <time>2022-07-28T09:29:50.000Z</time>
      </trkpt>
      <trkpt lat="47.29674" lon="-2.42219">
        <ele>0.20000000298023</ele>
        <time>2022-07-28T09:29:54.000Z</time>
      </trkpt>
      <trkpt lat="47.29683" lon="-2.422">
        <ele>0.20000000298023</ele>
        <time>2022-07-28T09:29:57.000Z</time>
      </trkpt>
      <trkpt lat="47.29712" lon="-2.42155">
        <ele>0.20000000298023</ele>
        <time>2022-07-28T09:30:05.000Z</time>
      </trkpt>
      <trkpt lat="47.29715" lon="-2.42149">
        <ele>0.20000000298023</ele>
        <time>2022-07-28T09:30:06.000Z</time>
      </trkpt>
      <trkpt lat="47.2973" lon="-2.42121">
        <ele>0.20000000298023</ele>
        <time>2022-07-28T09:30:10.000Z</time>
      </trkpt>
      <trkpt lat="47.29755" lon="-2.42074">
        <ele>0.20000000298023</ele>
        <time>2022-07-28T09:30:16.000Z</time>
      </trkpt>
      <trkpt lat="47.29781" lon="-2.42026">
        <ele>0.20000000298023</ele>
        <time>2022-07-28T09:30:22.000Z</time>
      </trkpt>
      <trkpt lat="47.29786" lon="-2.42007">
        <ele>0.20000000298023</ele>
        <time>2022-07-28T09:30:24.000Z</time>
      </trkpt>
      <trkpt lat="47.29785" lon="-2.41976">
        <ele>0.20000000298023</ele>
        <time>2022-07-28T09:30:27.000Z</time>
      </trkpt>
      <trkpt lat="47.29775" lon="-2.41939">
        <ele>0.20000000298023</ele>
        <time>2022-07-28T09:30:31.000Z</time>
      </trkpt>
      <trkpt lat="47.29766" lon="-2.41883">
        <ele>0.20000000298023</ele>
        <time>2022-07-28T09:30:37.000Z</time>
      </trkpt>
      <trkpt lat="47.29765" lon="-2.41874">
        <ele>0.20000000298023</ele>
        <time>2022-07-28T09:30:38.000Z</time>
      </trkpt>
      <trkpt lat="47.29765" lon="-2.41848">
        <ele>0.20000000298023</ele>
        <time>2022-07-28T09:30:41.000Z</time>
      </trkpt>
      <trkpt lat="47.29766" lon="-2.4184">
        <ele>0.20000000298023</ele>
        <time>2022-07-28T09:30:42.000Z</time>
      </trkpt>
      <trkpt lat="47.29769" lon="-2.4179">
        <ele>0.20000000298023</ele>
        <time>2022-07-28T09:30:49.000Z</time>
      </trkpt>
      <trkpt lat="47.29764" lon="-2.41751">
        <ele>0.20000000298023</ele>
        <time>2022-07-28T09:30:55.000Z</time>
      </trkpt>
      <trkpt lat="47.29751" lon="-2.41749">
        <ele>0.20000000298023</ele>
        <time>2022-07-28T09:30:58.000Z</time>
      </trkpt>
      <trkpt lat="47.29733" lon="-2.41766">
        <ele>0.20000000298023</ele>
        <time>2022-07-28T09:31:02.000Z</time>
      </trkpt>
      <trkpt lat="47.29724" lon="-2.41777">
        <ele>0.20000000298023</ele>
        <time>2022-07-28T09:31:04.000Z</time>
      </trkpt>
      <trkpt lat="47.29711" lon="-2.41798">
        <ele>0.20000000298023</ele>
        <time>2022-07-28T09:31:07.000Z</time>
      </trkpt>
      <trkpt lat="47.29688" lon="-2.41821">
        <ele>0.20000000298023</ele>
        <time>2022-07-28T09:31:11.000Z</time>
      </trkpt>
      <trkpt lat="47.29681" lon="-2.41822">
        <ele>0.20000000298023</ele>
        <time>2022-07-28T09:31:12.000Z</time>
      </trkpt>
      <trkpt lat="47.29655" lon="-2.41828">
        <ele>0.20000000298023</ele>
        <time>2022-07-28T09:31:16.000Z</time>
      </trkpt>
      <trkpt lat="47.29648" lon="-2.41827">
        <ele>0.20000000298023</ele>
        <time>2022-07-28T09:31:17.000Z</time>
      </trkpt>
      <trkpt lat="47.29638" lon="-2.41818">
        <ele>0.20000000298023</ele>
        <time>2022-07-28T09:31:19.000Z</time>
      </trkpt>
      <trkpt lat="47.29633" lon="-2.41792">
        <ele>0.20000000298023</ele>
        <time>2022-07-28T09:31:22.000Z</time>
      </trkpt>
      <trkpt lat="47.29632" lon="-2.41783">
        <ele>0.20000000298023</ele>
        <time>2022-07-28T09:31:23.000Z</time>
      </trkpt>
      <trkpt lat="47.29621" lon="-2.41759">
        <ele>0.20000000298023</ele>
        <time>2022-07-28T09:31:26.000Z</time>
      </trkpt>
      <trkpt lat="47.29612" lon="-2.41745">
        <ele>0.20000000298023</ele>
        <time>2022-07-28T09:31:28.000Z</time>
      </trkpt>
      <trkpt lat="47.29601" lon="-2.41733">
        <ele>0.20000000298023</ele>
        <time>2022-07-28T09:31:30.000Z</time>
      </trkpt>
      <trkpt lat="47.29596" lon="-2.41728">
        <ele>0.20000000298023</ele>
        <time>2022-07-28T09:31:31.000Z</time>
      </trkpt>
      <trkpt lat="47.29565" lon="-2.41709">
        <ele>0.20000000298023</ele>
        <time>2022-07-28T09:31:36.000Z</time>
      </trkpt>
      <trkpt lat="47.29545" lon="-2.41686">
        <ele>0.20000000298023</ele>
        <time>2022-07-28T09:31:40.000Z</time>
      </trkpt>
      <trkpt lat="47.29535" lon="-2.41661">
        <ele>0.20000000298023</ele>
        <time>2022-07-28T09:31:43.000Z</time>
      </trkpt>
      <trkpt lat="47.2953" lon="-2.41643">
        <ele>0.20000000298023</ele>
        <time>2022-07-28T09:31:45.000Z</time>
      </trkpt>
      <trkpt lat="47.29526" lon="-2.41613">
        <ele>0.20000000298023</ele>
        <time>2022-07-28T09:31:48.000Z</time>
      </trkpt>
      <trkpt lat="47.29526" lon="-2.41592">
        <ele>0.20000000298023</ele>
        <time>2022-07-28T09:31:50.000Z</time>
      </trkpt>
      <trkpt lat="47.29533" lon="-2.41564">
        <ele>0.20000000298023</ele>
        <time>2022-07-28T09:31:53.000Z</time>
      </trkpt>
      <trkpt lat="47.29539" lon="-2.41538">
        <ele>0.20000000298023</ele>
        <time>2022-07-28T09:31:56.000Z</time>
      </trkpt>
      <trkpt lat="47.29538" lon="-2.4152">
        <ele>0.20000000298023</ele>
        <time>2022-07-28T09:31:58.000Z</time>
      </trkpt>
      <trkpt lat="47.29533" lon="-2.41504">
        <ele>0.20000000298023</ele>
        <time>2022-07-28T09:32:00.000Z</time>
      </trkpt>
      <trkpt lat="47.29525" lon="-2.4149">
        <ele>0.20000000298023</ele>
        <time>2022-07-28T09:32:02.000Z</time>
      </trkpt>
      <trkpt lat="47.29521" lon="-2.41483">
        <ele>0.20000000298023</ele>
        <time>2022-07-28T09:32:03.000Z</time>
      </trkpt>
      <trkpt lat="47.29504" lon="-2.41474">
        <ele>0.20000000298023</ele>
        <time>2022-07-28T09:32:06.000Z</time>
      </trkpt>
      <trkpt lat="47.29486" lon="-2.41484">
        <ele>0.20000000298023</ele>
        <time>2022-07-28T09:32:09.000Z</time>
      </trkpt>
      <trkpt lat="47.2948" lon="-2.41486">
        <ele>0.20000000298023</ele>
        <time>2022-07-28T09:32:10.000Z</time>
      </trkpt>
      <trkpt lat="47.29468" lon="-2.41481">
        <ele>0.20000000298023</ele>
        <time>2022-07-28T09:32:12.000Z</time>
      </trkpt>
      <trkpt lat="47.29448" lon="-2.41485">
        <ele>0.20000000298023</ele>
        <time>2022-07-28T09:32:15.000Z</time>
      </trkpt>
      <trkpt lat="47.29436" lon="-2.41486">
        <ele>0.20000000298023</ele>
        <time>2022-07-28T09:32:17.000Z</time>
      </trkpt>
      <trkpt lat="47.29426" lon="-2.41478">
        <ele>0.20000000298023</ele>
        <time>2022-07-28T09:32:19.000Z</time>
      </trkpt>
      <trkpt lat="47.29412" lon="-2.4146">
        <ele>0.20000000298023</ele>
        <time>2022-07-28T09:32:22.000Z</time>
      </trkpt>
      <trkpt lat="47.29403" lon="-2.41448">
        <ele>0.20000000298023</ele>
        <time>2022-07-28T09:32:24.000Z</time>
      </trkpt>
      <trkpt lat="47.29386" lon="-2.41411">
        <ele>0.20000000298023</ele>
        <time>2022-07-28T09:32:29.000Z</time>
      </trkpt>
      <trkpt lat="47.29368" lon="-2.41375">
        <ele>0.20000000298023</ele>
        <time>2022-07-28T09:32:34.000Z</time>
      </trkpt>
      <trkpt lat="47.29363" lon="-2.41369">
        <ele>0.20000000298023</ele>
        <time>2022-07-28T09:32:35.000Z</time>
      </trkpt>
      <trkpt lat="47.29347" lon="-2.41343">
        <ele>0.20000000298023</ele>
        <time>2022-07-28T09:32:39.000Z</time>
      </trkpt>
      <trkpt lat="47.29351" lon="-2.4132">
        <ele>0.20000000298023</ele>
        <time>2022-07-28T09:32:42.000Z</time>
      </trkpt>
      <trkpt lat="47.29353" lon="-2.41313">
        <ele>0.20000000298023</ele>
        <time>2022-07-28T09:32:43.000Z</time>
      </trkpt>
      <trkpt lat="47.2936" lon="-2.41295">
        <ele>0.20000000298023</ele>
        <time>2022-07-28T09:32:47.000Z</time>
      </trkpt>
      <trkpt lat="47.29359" lon="-2.41287">
        <ele>0.20000000298023</ele>
        <time>2022-07-28T09:32:49.000Z</time>
      </trkpt>
      <trkpt lat="47.29357" lon="-2.4128">
        <ele>0.20000000298023</ele>
        <time>2022-07-28T09:32:51.000Z</time>
      </trkpt>
      <trkpt lat="47.29356" lon="-2.41272">
        <ele>0.20000000298023</ele>
        <time>2022-07-28T09:32:53.000Z</time>
      </trkpt>
      <trkpt lat="47.29353" lon="-2.4125">
        <ele>0.20000000298023</ele>
        <time>2022-07-28T09:32:58.000Z</time>
      </trkpt>
      <trkpt lat="47.2934" lon="-2.41228">
        <ele>0.20000000298023</ele>
        <time>2022-07-28T09:33:04.000Z</time>
      </trkpt>
      <trkpt lat="47.29322" lon="-2.41208">
        <ele>-0.20000000298023</ele>
        <time>2022-07-28T09:33:11.000Z</time>
      </trkpt>
      <trkpt lat="47.29319" lon="-2.41205">
        <ele>-0.60000002384186</ele>
        <time>2022-07-28T09:33:12.000Z</time>
      </trkpt>
      <trkpt lat="47.29316" lon="-2.41201">
        <ele>-1</ele>
        <time>2022-07-28T09:33:13.000Z</time>
      </trkpt>
      <trkpt lat="47.29313" lon="-2.41198">
        <ele>-1.3999999761581</ele>
        <time>2022-07-28T09:33:14.000Z</time>
      </trkpt>
      <trkpt lat="47.2931" lon="-2.41195">
        <ele>-1.7999999523163</ele>
        <time>2022-07-28T09:33:15.000Z</time>
      </trkpt>
      <trkpt lat="47.29303" lon="-2.41186">
        <ele>-1.7999999523163</ele>
        <time>2022-07-28T09:33:17.000Z</time>
      </trkpt>
      <trkpt lat="47.29295" lon="-2.41167">
        <ele>-1.7999999523163</ele>
        <time>2022-07-28T09:33:21.000Z</time>
      </trkpt>
      <trkpt lat="47.29294" lon="-2.41163">
        <ele>-1.7999999523163</ele>
        <time>2022-07-28T09:33:22.000Z</time>
      </trkpt>
      <trkpt lat="47.29282" lon="-2.41136">
        <ele>-1.7999999523163</ele>
        <time>2022-07-28T09:33:28.000Z</time>
      </trkpt>
      <trkpt lat="47.29257" lon="-2.41104">
        <ele>-1.7999999523163</ele>
        <time>2022-07-28T09:33:36.000Z</time>
      </trkpt>
      <trkpt lat="47.29244" lon="-2.41081">
        <ele>-1.7999999523163</ele>
        <time>2022-07-28T09:33:40.000Z</time>
      </trkpt>
      <trkpt lat="47.29245" lon="-2.41073">
        <ele>-1.7999999523163</ele>
        <time>2022-07-28T09:33:41.000Z</time>
      </trkpt>
      <trkpt lat="47.29253" lon="-2.41061">
        <ele>-1.7999999523163</ele>
        <time>2022-07-28T09:33:43.000Z</time>
      </trkpt>
      <trkpt lat="47.29252" lon="-2.41036">
        <ele>-1.7999999523163</ele>
        <time>2022-07-28T09:33:46.000Z</time>
      </trkpt>
      <trkpt lat="47.29241" lon="-2.41025">
        <ele>-1.7999999523163</ele>
        <time>2022-07-28T09:33:48.000Z</time>
      </trkpt>
      <trkpt lat="47.29224" lon="-2.40996">
        <ele>-1.7999999523163</ele>
        <time>2022-07-28T09:33:52.000Z</time>
      </trkpt>
      <trkpt lat="47.29221" lon="-2.40987">
        <ele>-1.7999999523163</ele>
        <time>2022-07-28T09:33:53.000Z</time>
      </trkpt>
      <trkpt lat="47.29211" lon="-2.40963">
        <ele>-1.7999999523163</ele>
        <time>2022-07-28T09:33:56.000Z</time>
      </trkpt>
      <trkpt lat="47.29207" lon="-2.40956">
        <ele>-1.7999999523163</ele>
        <time>2022-07-28T09:33:57.000Z</time>
      </trkpt>
      <trkpt lat="47.29189" lon="-2.40946">
        <ele>-1.7999999523163</ele>
        <time>2022-07-28T09:34:00.000Z</time>
      </trkpt>
      <trkpt lat="47.29182" lon="-2.40945">
        <ele>-1.7999999523163</ele>
        <time>2022-07-28T09:34:01.000Z</time>
      </trkpt>
      <trkpt lat="47.29175" lon="-2.40942">
        <ele>-1.7999999523163</ele>
        <time>2022-07-28T09:34:02.000Z</time>
      </trkpt>
      <trkpt lat="47.29163" lon="-2.40931">
        <ele>-1.7999999523163</ele>
        <time>2022-07-28T09:34:04.000Z</time>
      </trkpt>
      <trkpt lat="47.29159" lon="-2.40913">
        <ele>-1.7999999523163</ele>
        <time>2022-07-28T09:34:06.000Z</time>
      </trkpt>
      <trkpt lat="47.29166" lon="-2.40885">
        <ele>-1.7999999523163</ele>
        <time>2022-07-28T09:34:09.000Z</time>
      </trkpt>
      <trkpt lat="47.2917" lon="-2.40875">
        <ele>-1.7999999523163</ele>
        <time>2022-07-28T09:34:10.000Z</time>
      </trkpt>
      <trkpt lat="47.29172" lon="-2.40865">
        <ele>-1.7999999523163</ele>
        <time>2022-07-28T09:34:11.000Z</time>
      </trkpt>
      <trkpt lat="47.29173" lon="-2.40843">
        <ele>-1.7999999523163</ele>
        <time>2022-07-28T09:34:13.000Z</time>
      </trkpt>
      <trkpt lat="47.29171" lon="-2.40822">
        <ele>-1.7999999523163</ele>
        <time>2022-07-28T09:34:15.000Z</time>
      </trkpt>
      <trkpt lat="47.29172" lon="-2.40812">
        <ele>-1.7999999523163</ele>
        <time>2022-07-28T09:34:16.000Z</time>
      </trkpt>
      <trkpt lat="47.29174" lon="-2.40802">
        <ele>-1.7999999523163</ele>
        <time>2022-07-28T09:34:17.000Z</time>
      </trkpt>
      <trkpt lat="47.29184" lon="-2.40774">
        <ele>-1.7999999523163</ele>
        <time>2022-07-28T09:34:20.000Z</time>
      </trkpt>
      <trkpt lat="47.29188" lon="-2.40765">
        <ele>-1.7999999523163</ele>
        <time>2022-07-28T09:34:21.000Z</time>
      </trkpt>
      <trkpt lat="47.29194" lon="-2.40748">
        <ele>-1.7999999523163</ele>
        <time>2022-07-28T09:34:23.000Z</time>
      </trkpt>
      <trkpt lat="47.29204" lon="-2.40735">
        <ele>-1.7999999523163</ele>
        <time>2022-07-28T09:34:25.000Z</time>
      </trkpt>
      <trkpt lat="47.29226" lon="-2.40702">
        <ele>-1.7999999523163</ele>
        <time>2022-07-28T09:34:30.000Z</time>
      </trkpt>
      <trkpt lat="47.29229" lon="-2.40694">
        <ele>-1.7999999523163</ele>
        <time>2022-07-28T09:34:31.000Z</time>
      </trkpt>
      <trkpt lat="47.29231" lon="-2.40686">
        <ele>-1.3999999761581</ele>
        <time>2022-07-28T09:34:32.000Z</time>
      </trkpt>
      <trkpt lat="47.29234" lon="-2.40677">
        <ele>-1</ele>
        <time>2022-07-28T09:34:33.000Z</time>
      </trkpt>
      <trkpt lat="47.29234" lon="-2.40667">
        <ele>-0.60000002384186</ele>
        <time>2022-07-28T09:34:34.000Z</time>
      </trkpt>
      <trkpt lat="47.29232" lon="-2.40657">
        <ele>0.20000000298023</ele>
        <time>2022-07-28T09:34:35.000Z</time>
      </trkpt>
      <trkpt lat="47.29221" lon="-2.40632">
        <ele>0.20000000298023</ele>
        <time>2022-07-28T09:34:38.000Z</time>
      </trkpt>
      <trkpt lat="47.29207" lon="-2.40613">
        <ele>-0.20000000298023</ele>
        <time>2022-07-28T09:34:41.000Z</time>
      </trkpt>
      <trkpt lat="47.29201" lon="-2.40609">
        <ele>-0.60000002384186</ele>
        <time>2022-07-28T09:34:42.000Z</time>
      </trkpt>
      <trkpt lat="47.29195" lon="-2.40609">
        <ele>-1.2000000476837</ele>
        <time>2022-07-28T09:34:43.000Z</time>
      </trkpt>
      <trkpt lat="47.29189" lon="-2.40613">
        <ele>-1.6000000238419</ele>
        <time>2022-07-28T09:34:44.000Z</time>
      </trkpt>
      <trkpt lat="47.29184" lon="-2.40618">
        <ele>-2</ele>
        <time>2022-07-28T09:34:45.000Z</time>
      </trkpt>
      <trkpt lat="47.29179" lon="-2.40622">
        <ele>-2</ele>
        <time>2022-07-28T09:34:46.000Z</time>
      </trkpt>
      <trkpt lat="47.29164" lon="-2.40634">
        <ele>-2</ele>
        <time>2022-07-28T09:34:49.000Z</time>
      </trkpt>
      <trkpt lat="47.29146" lon="-2.40644">
        <ele>-2</ele>
        <time>2022-07-28T09:34:53.000Z</time>
      </trkpt>
      <trkpt lat="47.29142" lon="-2.40639">
        <ele>-2</ele>
        <time>2022-07-28T09:34:54.000Z</time>
      </trkpt>
      <trkpt lat="47.29139" lon="-2.40619">
        <ele>-2</ele>
        <time>2022-07-28T09:34:57.000Z</time>
      </trkpt>
      <trkpt lat="47.29138" lon="-2.40612">
        <ele>-2</ele>
        <time>2022-07-28T09:34:58.000Z</time>
      </trkpt>
      <trkpt lat="47.29135" lon="-2.40596">
        <ele>-2</ele>
        <time>2022-07-28T09:35:00.000Z</time>
      </trkpt>
      <trkpt lat="47.29129" lon="-2.40585">
        <ele>-2</ele>
        <time>2022-07-28T09:35:02.000Z</time>
      </trkpt>
      <trkpt lat="47.29123" lon="-2.40574">
        <ele>-2</ele>
        <time>2022-07-28T09:35:04.000Z</time>
      </trkpt>
      <trkpt lat="47.29108" lon="-2.40556">
        <ele>-2</ele>
        <time>2022-07-28T09:35:08.000Z</time>
      </trkpt>
      <trkpt lat="47.291" lon="-2.40547">
        <ele>-2</ele>
        <time>2022-07-28T09:35:10.000Z</time>
      </trkpt>
      <trkpt lat="47.29096" lon="-2.40532">
        <ele>-2</ele>
        <time>2022-07-28T09:35:12.000Z</time>
      </trkpt>
      <trkpt lat="47.29103" lon="-2.4051">
        <ele>-2</ele>
        <time>2022-07-28T09:35:15.000Z</time>
      </trkpt>
      <trkpt lat="47.29115" lon="-2.40498">
        <ele>-2</ele>
        <time>2022-07-28T09:35:18.000Z</time>
      </trkpt>
      <trkpt lat="47.29126" lon="-2.40492">
        <ele>-2</ele>
        <time>2022-07-28T09:35:20.000Z</time>
      </trkpt>
      <trkpt lat="47.29142" lon="-2.40484">
        <ele>-2</ele>
        <time>2022-07-28T09:35:23.000Z</time>
      </trkpt>
      <trkpt lat="47.29159" lon="-2.40489">
        <ele>-2</ele>
        <time>2022-07-28T09:35:26.000Z</time>
      </trkpt>
      <trkpt lat="47.29168" lon="-2.40511">
        <ele>-2</ele>
        <time>2022-07-28T09:35:29.000Z</time>
      </trkpt>
      <trkpt lat="47.29182" lon="-2.4052">
        <ele>-2</ele>
        <time>2022-07-28T09:35:32.000Z</time>
      </trkpt>
      <trkpt lat="47.29197" lon="-2.40512">
        <ele>-2</ele>
        <time>2022-07-28T09:35:35.000Z</time>
      </trkpt>
      <trkpt lat="47.29219" lon="-2.40499">
        <ele>-2</ele>
        <time>2022-07-28T09:35:39.000Z</time>
      </trkpt>
      <trkpt lat="47.2923" lon="-2.40491">
        <ele>-2</ele>
        <time>2022-07-28T09:35:41.000Z</time>
      </trkpt>
      <trkpt lat="47.29263" lon="-2.40473">
        <ele>-2</ele>
        <time>2022-07-28T09:35:47.000Z</time>
      </trkpt>
      <trkpt lat="47.29286" lon="-2.40463">
        <ele>-2</ele>
        <time>2022-07-28T09:35:51.000Z</time>
      </trkpt>
      <trkpt lat="47.2929" lon="-2.40456">
        <ele>-2</ele>
        <time>2022-07-28T09:35:52.000Z</time>
      </trkpt>
      <trkpt lat="47.29299" lon="-2.40433">
        <ele>-2</ele>
        <time>2022-07-28T09:35:55.000Z</time>
      </trkpt>
      <trkpt lat="47.29307" lon="-2.40399">
        <ele>-2</ele>
        <time>2022-07-28T09:35:59.000Z</time>
      </trkpt>
      <trkpt lat="47.29299" lon="-2.40383">
        <ele>-2</ele>
        <time>2022-07-28T09:36:01.000Z</time>
      </trkpt>
      <trkpt lat="47.29294" lon="-2.40376">
        <ele>-2</ele>
        <time>2022-07-28T09:36:02.000Z</time>
      </trkpt>
      <trkpt lat="47.29287" lon="-2.4036">
        <ele>-2</ele>
        <time>2022-07-28T09:36:04.000Z</time>
      </trkpt>
      <trkpt lat="47.29286" lon="-2.40342">
        <ele>-2</ele>
        <time>2022-07-28T09:36:06.000Z</time>
      </trkpt>
      <trkpt lat="47.29299" lon="-2.40325">
        <ele>-2</ele>
        <time>2022-07-28T09:36:09.000Z</time>
      </trkpt>
      <trkpt lat="47.29314" lon="-2.4031">
        <ele>-2</ele>
        <time>2022-07-28T09:36:12.000Z</time>
      </trkpt>
      <trkpt lat="47.29324" lon="-2.40298">
        <ele>-2</ele>
        <time>2022-07-28T09:36:14.000Z</time>
      </trkpt>
      <trkpt lat="47.29349" lon="-2.40272">
        <ele>-2</ele>
        <time>2022-07-28T09:36:19.000Z</time>
      </trkpt>
      <trkpt lat="47.29376" lon="-2.40247">
        <ele>-2</ele>
        <time>2022-07-28T09:36:24.000Z</time>
      </trkpt>
      <trkpt lat="47.29402" lon="-2.4023">
        <ele>-2</ele>
        <time>2022-07-28T09:36:29.000Z</time>
      </trkpt>
      <trkpt lat="47.29428" lon="-2.40217">
        <ele>-2</ele>
        <time>2022-07-28T09:36:34.000Z</time>
      </trkpt>
      <trkpt lat="47.29433" lon="-2.40217">
        <ele>-2</ele>
        <time>2022-07-28T09:36:35.000Z</time>
      </trkpt>
      <trkpt lat="47.29447" lon="-2.4021">
        <ele>-2</ele>
        <time>2022-07-28T09:36:38.000Z</time>
      </trkpt>
      <trkpt lat="47.29451" lon="-2.40184">
        <ele>-2</ele>
        <time>2022-07-28T09:36:41.000Z</time>
      </trkpt>
      <trkpt lat="47.29453" lon="-2.40175">
        <ele>-2</ele>
        <time>2022-07-28T09:36:42.000Z</time>
      </trkpt>
      <trkpt lat="47.29457" lon="-2.4013">
        <ele>-2</ele>
        <time>2022-07-28T09:36:47.000Z</time>
      </trkpt>
      <trkpt lat="47.29461" lon="-2.40093">
        <ele>-2</ele>
        <time>2022-07-28T09:36:51.000Z</time>
      </trkpt>
      <trkpt lat="47.29462" lon="-2.40084">
        <ele>-2</ele>
        <time>2022-07-28T09:36:52.000Z</time>
      </trkpt>
      <trkpt lat="47.29463" lon="-2.40074">
        <ele>-2</ele>
        <time>2022-07-28T09:36:53.000Z</time>
      </trkpt>
      <trkpt lat="47.29463" lon="-2.40037">
        <ele>-2</ele>
        <time>2022-07-28T09:36:57.000Z</time>
      </trkpt>
      <trkpt lat="47.29461" lon="-2.40011">
        <ele>-2</ele>
        <time>2022-07-28T09:37:00.000Z</time>
      </trkpt>
      <trkpt lat="47.29463" lon="-2.39984">
        <ele>-2</ele>
        <time>2022-07-28T09:37:03.000Z</time>
      </trkpt>
      <trkpt lat="47.29472" lon="-2.39954">
        <ele>-2</ele>
        <time>2022-07-28T09:37:07.000Z</time>
      </trkpt>
      <trkpt lat="47.29475" lon="-2.39948">
        <ele>-2</ele>
        <time>2022-07-28T09:37:08.000Z</time>
      </trkpt>
      <trkpt lat="47.29483" lon="-2.3993">
        <ele>-2</ele>
        <time>2022-07-28T09:37:12.000Z</time>
      </trkpt>
      <trkpt lat="47.29487" lon="-2.39916">
        <ele>-2</ele>
        <time>2022-07-28T09:37:17.000Z</time>
      </trkpt>
      <trkpt lat="47.29488" lon="-2.39908">
        <ele>-1.6000000238419</ele>
        <time>2022-07-28T09:37:20.000Z</time>
      </trkpt>
      <trkpt lat="47.2949" lon="-2.39905">
        <ele>-1.2000000476837</ele>
        <time>2022-07-28T09:37:21.000Z</time>
      </trkpt>
      <trkpt lat="47.29492" lon="-2.39902">
        <ele>-0.60000002384186</ele>
        <time>2022-07-28T09:37:22.000Z</time>
      </trkpt>
      <trkpt lat="47.29494" lon="-2.39899">
        <ele>-0.20000000298023</ele>
        <time>2022-07-28T09:37:23.000Z</time>
      </trkpt>
      <trkpt lat="47.29497" lon="-2.39895">
        <ele>0.20000000298023</ele>
        <time>2022-07-28T09:37:24.000Z</time>
      </trkpt>
      <trkpt lat="47.29501" lon="-2.39891">
        <ele>0.20000000298023</ele>
        <time>2022-07-28T09:37:25.000Z</time>
      </trkpt>
      <trkpt lat="47.29505" lon="-2.39886">
        <ele>0.20000000298023</ele>
        <time>2022-07-28T09:37:26.000Z</time>
      </trkpt>
      <trkpt lat="47.29509" lon="-2.39881">
        <ele>0.20000000298023</ele>
        <time>2022-07-28T09:37:27.000Z</time>
      </trkpt>
      <trkpt lat="47.29521" lon="-2.39857">
        <ele>0.20000000298023</ele>
        <time>2022-07-28T09:37:31.000Z</time>
      </trkpt>
      <trkpt lat="47.29526" lon="-2.39847">
        <ele>0.20000000298023</ele>
        <time>2022-07-28T09:37:33.000Z</time>
      </trkpt>
      <trkpt lat="47.29536" lon="-2.39824">
        <ele>0.20000000298023</ele>
        <time>2022-07-28T09:37:37.000Z</time>
      </trkpt>
      <trkpt lat="47.29553" lon="-2.39792">
        <ele>0.20000000298023</ele>
        <time>2022-07-28T09:37:44.000Z</time>
      </trkpt>
      <trkpt lat="47.29567" lon="-2.3976">
        <ele>0.20000000298023</ele>
        <time>2022-07-28T09:37:51.000Z</time>
      </trkpt>
      <trkpt lat="47.29585" lon="-2.39724">
        <ele>0.20000000298023</ele>
        <time>2022-07-28T09:37:59.000Z</time>
      </trkpt>
      <trkpt lat="47.29603" lon="-2.39692">
        <ele>0.20000000298023</ele>
        <time>2022-07-28T09:38:06.000Z</time>
      </trkpt>
      <trkpt lat="47.2962" lon="-2.39661">
        <ele>0.20000000298023</ele>
        <time>2022-07-28T09:38:13.000Z</time>
      </trkpt>
      <trkpt lat="47.29628" lon="-2.3963">
        <ele>0.20000000298023</ele>
        <time>2022-07-28T09:38:19.000Z</time>
      </trkpt>
      <trkpt lat="47.29628" lon="-2.396">
        <ele>0.20000000298023</ele>
        <time>2022-07-28T09:38:25.000Z</time>
      </trkpt>
      <trkpt lat="47.29629" lon="-2.39579">
        <ele>0.20000000298023</ele>
        <time>2022-07-28T09:38:30.000Z</time>
      </trkpt>
      <trkpt lat="47.29627" lon="-2.39576">
        <ele>0.20000000298023</ele>
        <time>2022-07-28T09:38:31.000Z</time>
      </trkpt>
      <trkpt lat="47.29621" lon="-2.39574">
        <ele>0.20000000298023</ele>
        <time>2022-07-28T09:38:33.000Z</time>
      </trkpt>
      <trkpt lat="47.29616" lon="-2.39575">
        <ele>0.20000000298023</ele>
        <time>2022-07-28T09:38:35.000Z</time>
      </trkpt>
      <trkpt lat="47.2961" lon="-2.3957">
        <ele>0.20000000298023</ele>
        <time>2022-07-28T09:38:38.000Z</time>
      </trkpt>
      <trkpt lat="47.29613" lon="-2.39565">
        <ele>0.60000002384186</ele>
        <time>2022-07-28T09:38:40.000Z</time>
      </trkpt>
      <trkpt lat="47.29616" lon="-2.39564">
        <ele>1</ele>
        <time>2022-07-28T09:38:41.000Z</time>
      </trkpt>
      <trkpt lat="47.29618" lon="-2.39564">
        <ele>1.7999999523163</ele>
        <time>2022-07-28T09:38:42.000Z</time>
      </trkpt>
      <trkpt lat="47.29619" lon="-2.39564">
        <ele>2.2000000476837</ele>
        <time>2022-07-28T09:38:43.000Z</time>
      </trkpt>
      <trkpt lat="47.29622" lon="-2.39561">
        <ele>2.2000000476837</ele>
        <time>2022-07-28T09:38:46.000Z</time>
      </trkpt>
      <trkpt lat="47.29621" lon="-2.39554">
        <ele>2.2000000476837</ele>
        <time>2022-07-28T09:38:51.000Z</time>
      </trkpt>
      <trkpt lat="47.29611" lon="-2.39555">
        <ele>2.5999999046326</ele>
        <time>2022-07-28T09:38:54.000Z</time>
      </trkpt>
      <trkpt lat="47.29608" lon="-2.39553">
        <ele>3</ele>
        <time>2022-07-28T09:38:55.000Z</time>
      </trkpt>
      <trkpt lat="47.29605" lon="-2.39553">
        <ele>3.4000000953674</ele>
        <time>2022-07-28T09:38:56.000Z</time>
      </trkpt>
      <trkpt lat="47.29602" lon="-2.39552">
        <ele>3.7999999523163</ele>
        <time>2022-07-28T09:38:57.000Z</time>
      </trkpt>
      <trkpt lat="47.29599" lon="-2.39551">
        <ele>4.1999998092651</ele>
        <time>2022-07-28T09:38:58.000Z</time>
      </trkpt>
      <trkpt lat="47.29587" lon="-2.3955">
        <ele>4.1999998092651</ele>
        <time>2022-07-28T09:39:02.000Z</time>
      </trkpt>
      <trkpt lat="47.29563" lon="-2.39544">
        <ele>4.1999998092651</ele>
        <time>2022-07-28T09:39:08.000Z</time>
      </trkpt>
      <trkpt lat="47.29536" lon="-2.39539">
        <ele>4.1999998092651</ele>
        <time>2022-07-28T09:39:12.000Z</time>
      </trkpt>
      <trkpt lat="47.29528" lon="-2.39538">
        <ele>3.7999999523163</ele>
        <time>2022-07-28T09:39:13.000Z</time>
      </trkpt>
      <trkpt lat="47.2952" lon="-2.39536">
        <ele>3.4000000953674</ele>
        <time>2022-07-28T09:39:14.000Z</time>
      </trkpt>
      <trkpt lat="47.29512" lon="-2.39534">
        <ele>3</ele>
        <time>2022-07-28T09:39:15.000Z</time>
      </trkpt>
      <trkpt lat="47.29503" lon="-2.39533">
        <ele>2.5999999046326</ele>
        <time>2022-07-28T09:39:16.000Z</time>
      </trkpt>
      <trkpt lat="47.29495" lon="-2.39532">
        <ele>2.2000000476837</ele>
        <time>2022-07-28T09:39:17.000Z</time>
      </trkpt>
      <trkpt lat="47.29487" lon="-2.3953">
        <ele>2.2000000476837</ele>
        <time>2022-07-28T09:39:18.000Z</time>
      </trkpt>
      <trkpt lat="47.29443" lon="-2.39521">
        <ele>2.2000000476837</ele>
        <time>2022-07-28T09:39:24.000Z</time>
      </trkpt>
      <trkpt lat="47.29386" lon="-2.39511">
        <ele>2.2000000476837</ele>
        <time>2022-07-28T09:39:32.000Z</time>
      </trkpt>
      <trkpt lat="47.29379" lon="-2.39509">
        <ele>2.2000000476837</ele>
        <time>2022-07-28T09:39:33.000Z</time>
      </trkpt>
      <trkpt lat="47.29365" lon="-2.39505">
        <ele>1.7999999523163</ele>
        <time>2022-07-28T09:39:35.000Z</time>
      </trkpt>
      <trkpt lat="47.29358" lon="-2.39504">
        <ele>1.3999999761581</ele>
        <time>2022-07-28T09:39:36.000Z</time>
      </trkpt>
      <trkpt lat="47.2935" lon="-2.39502">
        <ele>1</ele>
        <time>2022-07-28T09:39:37.000Z</time>
      </trkpt>
      <trkpt lat="47.29343" lon="-2.39501">
        <ele>0.60000002384186</ele>
        <time>2022-07-28T09:39:38.000Z</time>
      </trkpt>
      <trkpt lat="47.29336" lon="-2.395">
        <ele>0.20000000298023</ele>
        <time>2022-07-28T09:39:39.000Z</time>
      </trkpt>
      <trkpt lat="47.29278" lon="-2.39487">
        <ele>0.20000000298023</ele>
        <time>2022-07-28T09:39:47.000Z</time>
      </trkpt>
      <trkpt lat="47.29246" lon="-2.39481">
        <ele>0.20000000298023</ele>
        <time>2022-07-28T09:39:52.000Z</time>
      </trkpt>
      <trkpt lat="47.29239" lon="-2.3948">
        <ele>0.20000000298023</ele>
        <time>2022-07-28T09:39:53.000Z</time>
      </trkpt>
      <trkpt lat="47.29206" lon="-2.39473">
        <ele>0.20000000298023</ele>
        <time>2022-07-28T09:39:59.000Z</time>
      </trkpt>
      <trkpt lat="47.292" lon="-2.39474">
        <ele>0.20000000298023</ele>
        <time>2022-07-28T09:40:02.000Z</time>
      </trkpt>
      <trkpt lat="47.29195" lon="-2.39487">
        <ele>0.20000000298023</ele>
        <time>2022-07-28T09:40:06.000Z</time>
      </trkpt>
      <trkpt lat="47.29195" lon="-2.39498">
        <ele>0.20000000298023</ele>
        <time>2022-07-28T09:40:09.000Z</time>
      </trkpt>
      <trkpt lat="47.29195" lon="-2.39502">
        <ele>0.20000000298023</ele>
        <time>2022-07-28T09:40:10.000Z</time>
      </trkpt>
      <trkpt lat="47.29191" lon="-2.39529">
        <ele>0.20000000298023</ele>
        <time>2022-07-28T09:40:16.000Z</time>
      </trkpt>
      <trkpt lat="47.29185" lon="-2.39537">
        <ele>0.20000000298023</ele>
        <time>2022-07-28T09:40:20.000Z</time>
      </trkpt>
      <trkpt lat="47.29183" lon="-2.39538">
        <ele>0.20000000298023</ele>
        <time>2022-07-28T09:40:21.000Z</time>
      </trkpt>
      <trkpt lat="47.29179" lon="-2.39534">
        <ele>0.20000000298023</ele>
        <time>2022-07-28T09:40:23.000Z</time>
      </trkpt>
      <trkpt lat="47.29165" lon="-2.39524">
        <ele>0.20000000298023</ele>
        <time>2022-07-28T09:40:27.000Z</time>
      </trkpt>
      <trkpt lat="47.29153" lon="-2.39507">
        <ele>0.20000000298023</ele>
        <time>2022-07-28T09:40:32.000Z</time>
      </trkpt>
      <trkpt lat="47.29139" lon="-2.39492">
        <ele>0.20000000298023</ele>
        <time>2022-07-28T09:40:39.000Z</time>
      </trkpt>
      <trkpt lat="47.29139" lon="-2.39491">
        <ele>0.20000000298023</ele>
        <time>2022-07-28T09:40:41.000Z</time>
      </trkpt>
      <trkpt lat="47.29137" lon="-2.39484">
        <ele>0.20000000298023</ele>
        <time>2022-07-28T09:41:17.000Z</time>
      </trkpt>
      <trkpt lat="47.29135" lon="-2.39481">
        <ele>0.20000000298023</ele>
        <time>2022-07-28T09:41:18.000Z</time>
      </trkpt>
      <trkpt lat="47.29132" lon="-2.39467">
        <ele>0.20000000298023</ele>
        <time>2022-07-28T09:41:21.000Z</time>
      </trkpt>
      <trkpt lat="47.29134" lon="-2.39446">
        <ele>0.20000000298023</ele>
        <time>2022-07-28T09:41:24.000Z</time>
      </trkpt>
      <trkpt lat="47.29134" lon="-2.39439">
        <ele>0.20000000298023</ele>
        <time>2022-07-28T09:41:25.000Z</time>
      </trkpt>
      <trkpt lat="47.29134" lon="-2.39382">
        <ele>0.20000000298023</ele>
        <time>2022-07-28T09:41:31.000Z</time>
      </trkpt>
      <trkpt lat="47.2913" lon="-2.3937">
        <ele>0.20000000298023</ele>
        <time>2022-07-28T09:41:34.000Z</time>
      </trkpt>
      <trkpt lat="47.29121" lon="-2.39367">
        <ele>0.20000000298023</ele>
        <time>2022-07-28T09:41:36.000Z</time>
      </trkpt>
      <trkpt lat="47.29109" lon="-2.39376">
        <ele>0.20000000298023</ele>
        <time>2022-07-28T09:41:39.000Z</time>
      </trkpt>
      <trkpt lat="47.29101" lon="-2.39378">
        <ele>0.20000000298023</ele>
        <time>2022-07-28T09:41:41.000Z</time>
      </trkpt>
      <trkpt lat="47.29093" lon="-2.39378">
        <ele>0.20000000298023</ele>
        <time>2022-07-28T09:41:43.000Z</time>
      </trkpt>
      <trkpt lat="47.29082" lon="-2.39367">
        <ele>0.20000000298023</ele>
        <time>2022-07-28T09:41:47.000Z</time>
      </trkpt>
      <trkpt lat="47.29071" lon="-2.3936">
        <ele>0.20000000298023</ele>
        <time>2022-07-28T09:41:49.000Z</time>
      </trkpt>
      <trkpt lat="47.29066" lon="-2.39357">
        <ele>0.20000000298023</ele>
        <time>2022-07-28T09:41:50.000Z</time>
      </trkpt>
      <trkpt lat="47.29024" lon="-2.39339">
        <ele>0.20000000298023</ele>
        <time>2022-07-28T09:41:57.000Z</time>
      </trkpt>
      <trkpt lat="47.28988" lon="-2.39322">
        <ele>0.20000000298023</ele>
        <time>2022-07-28T09:42:03.000Z</time>
      </trkpt>
      <trkpt lat="47.28977" lon="-2.3932">
        <ele>0.20000000298023</ele>
        <time>2022-07-28T09:42:05.000Z</time>
      </trkpt>
      <trkpt lat="47.2896" lon="-2.39321">
        <ele>0.20000000298023</ele>
        <time>2022-07-28T09:42:08.000Z</time>
      </trkpt>
      <trkpt lat="47.28955" lon="-2.39322">
        <ele>0.20000000298023</ele>
        <time>2022-07-28T09:42:09.000Z</time>
      </trkpt>
      <trkpt lat="47.28944" lon="-2.39311">
        <ele>0.20000000298023</ele>
        <time>2022-07-28T09:42:12.000Z</time>
      </trkpt>
      <trkpt lat="47.28942" lon="-2.39304">
        <ele>0.20000000298023</ele>
        <time>2022-07-28T09:42:13.000Z</time>
      </trkpt>
      <trkpt lat="47.28937" lon="-2.3928">
        <ele>0.20000000298023</ele>
        <time>2022-07-28T09:42:16.000Z</time>
      </trkpt>
      <trkpt lat="47.28932" lon="-2.39229">
        <ele>0.20000000298023</ele>
        <time>2022-07-28T09:42:22.000Z</time>
      </trkpt>
      <trkpt lat="47.28931" lon="-2.39182">
        <ele>0.20000000298023</ele>
        <time>2022-07-28T09:42:28.000Z</time>
      </trkpt>
      <trkpt lat="47.28931" lon="-2.39167">
        <ele>0.20000000298023</ele>
        <time>2022-07-28T09:42:30.000Z</time>
      </trkpt>
      <trkpt lat="47.28935" lon="-2.39133">
        <ele>0.20000000298023</ele>
        <time>2022-07-28T09:42:34.000Z</time>
      </trkpt>
      <trkpt lat="47.28943" lon="-2.39064">
        <ele>0.20000000298023</ele>
        <time>2022-07-28T09:42:42.000Z</time>
      </trkpt>
      <trkpt lat="47.28948" lon="-2.39004">
        <ele>0.20000000298023</ele>
        <time>2022-07-28T09:42:49.000Z</time>
      </trkpt>
      <trkpt lat="47.28951" lon="-2.3894">
        <ele>0.20000000298023</ele>
        <time>2022-07-28T09:42:56.000Z</time>
      </trkpt>
      <trkpt lat="47.28955" lon="-2.38872">
        <ele>0.20000000298023</ele>
        <time>2022-07-28T09:43:04.000Z</time>
      </trkpt>
      <trkpt lat="47.28957" lon="-2.38809">
        <ele>0.20000000298023</ele>
        <time>2022-07-28T09:43:11.000Z</time>
      </trkpt>
      <trkpt lat="47.28957" lon="-2.38748">
        <ele>0.20000000298023</ele>
        <time>2022-07-28T09:43:18.000Z</time>
      </trkpt>
      <trkpt lat="47.28956" lon="-2.38684">
        <ele>0.20000000298023</ele>
        <time>2022-07-28T09:43:26.000Z</time>
      </trkpt>
      <trkpt lat="47.28956" lon="-2.38622">
        <ele>0.20000000298023</ele>
        <time>2022-07-28T09:43:33.000Z</time>
      </trkpt>
      <trkpt lat="47.28952" lon="-2.38561">
        <ele>0.20000000298023</ele>
        <time>2022-07-28T09:43:40.000Z</time>
      </trkpt>
      <trkpt lat="47.28944" lon="-2.38483">
        <ele>0.20000000298023</ele>
        <time>2022-07-28T09:43:49.000Z</time>
      </trkpt>
      <trkpt lat="47.28938" lon="-2.38413">
        <ele>0.20000000298023</ele>
        <time>2022-07-28T09:43:57.000Z</time>
      </trkpt>
      <trkpt lat="47.28937" lon="-2.38392">
        <ele>0.20000000298023</ele>
        <time>2022-07-28T09:44:00.000Z</time>
      </trkpt>
      <trkpt lat="47.28937" lon="-2.38378">
        <ele>0.20000000298023</ele>
        <time>2022-07-28T09:44:02.000Z</time>
      </trkpt>
      <trkpt lat="47.28936" lon="-2.38363">
        <ele>0.20000000298023</ele>
        <time>2022-07-28T09:44:04.000Z</time>
      </trkpt>
      <trkpt lat="47.28933" lon="-2.3834">
        <ele>0.20000000298023</ele>
        <time>2022-07-28T09:44:07.000Z</time>
      </trkpt>
      <trkpt lat="47.28934" lon="-2.38271">
        <ele>0.20000000298023</ele>
        <time>2022-07-28T09:44:15.000Z</time>
      </trkpt>
      <trkpt lat="47.28936" lon="-2.38246">
        <ele>0.20000000298023</ele>
        <time>2022-07-28T09:44:18.000Z</time>
      </trkpt>
      <trkpt lat="47.28932" lon="-2.38232">
        <ele>0.20000000298023</ele>
        <time>2022-07-28T09:44:20.000Z</time>
      </trkpt>
      <trkpt lat="47.28923" lon="-2.38224">
        <ele>0.20000000298023</ele>
        <time>2022-07-28T09:44:22.000Z</time>
      </trkpt>
      <trkpt lat="47.28914" lon="-2.38216">
        <ele>0.20000000298023</ele>
        <time>2022-07-28T09:44:24.000Z</time>
      </trkpt>
      <trkpt lat="47.28901" lon="-2.38202">
        <ele>0.20000000298023</ele>
        <time>2022-07-28T09:44:27.000Z</time>
      </trkpt>
      <trkpt lat="47.28898" lon="-2.38195">
        <ele>0.20000000298023</ele>
        <time>2022-07-28T09:44:28.000Z</time>
      </trkpt>
      <trkpt lat="47.28898" lon="-2.38169">
        <ele>0.20000000298023</ele>
        <time>2022-07-28T09:44:31.000Z</time>
      </trkpt>
      <trkpt lat="47.28902" lon="-2.3811">
        <ele>0.20000000298023</ele>
        <time>2022-07-28T09:44:38.000Z</time>
      </trkpt>
      <trkpt lat="47.28906" lon="-2.38054">
        <ele>0.20000000298023</ele>
        <time>2022-07-28T09:44:44.000Z</time>
      </trkpt>
      <trkpt lat="47.28906" lon="-2.38033">
        <ele>0.20000000298023</ele>
        <time>2022-07-28T09:44:46.000Z</time>
      </trkpt>
      <trkpt lat="47.28909" lon="-2.37993">
        <ele>0.20000000298023</ele>
        <time>2022-07-28T09:44:50.000Z</time>
      </trkpt>
      <trkpt lat="47.28911" lon="-2.37963">
        <ele>0.60000002384186</ele>
        <time>2022-07-28T09:44:53.000Z</time>
      </trkpt>
      <trkpt lat="47.28911" lon="-2.37953">
        <ele>1</ele>
        <time>2022-07-28T09:44:54.000Z</time>
      </trkpt>
      <trkpt lat="47.28912" lon="-2.37943">
        <ele>1.3999999761581</ele>
        <time>2022-07-28T09:44:55.000Z</time>
      </trkpt>
      <trkpt lat="47.28913" lon="-2.37934">
        <ele>1.7999999523163</ele>
        <time>2022-07-28T09:44:56.000Z</time>
      </trkpt>
      <trkpt lat="47.28913" lon="-2.37924">
        <ele>2.2000000476837</ele>
        <time>2022-07-28T09:44:57.000Z</time>
      </trkpt>
      <trkpt lat="47.28919" lon="-2.37851">
        <ele>2.2000000476837</ele>
        <time>2022-07-28T09:45:05.000Z</time>
      </trkpt>
      <trkpt lat="47.28925" lon="-2.3778">
        <ele>2.2000000476837</ele>
        <time>2022-07-28T09:45:13.000Z</time>
      </trkpt>
      <trkpt lat="47.28928" lon="-2.37717">
        <ele>2.2000000476837</ele>
        <time>2022-07-28T09:45:20.000Z</time>
      </trkpt>
      <trkpt lat="47.28932" lon="-2.37671">
        <ele>2.2000000476837</ele>
        <time>2022-07-28T09:45:26.000Z</time>
      </trkpt>
      <trkpt lat="47.28932" lon="-2.37663">
        <ele>2.2000000476837</ele>
        <time>2022-07-28T09:45:27.000Z</time>
      </trkpt>
      <trkpt lat="47.28927" lon="-2.37651">
        <ele>2.2000000476837</ele>
        <time>2022-07-28T09:45:29.000Z</time>
      </trkpt>
      <trkpt lat="47.28911" lon="-2.37648">
        <ele>2.2000000476837</ele>
        <time>2022-07-28T09:45:32.000Z</time>
      </trkpt>
      <trkpt lat="47.28891" lon="-2.37653">
        <ele>2.2000000476837</ele>
        <time>2022-07-28T09:45:36.000Z</time>
      </trkpt>
      <trkpt lat="47.28887" lon="-2.37655">
        <ele>2.2000000476837</ele>
        <time>2022-07-28T09:45:37.000Z</time>
      </trkpt>
      <trkpt lat="47.28868" lon="-2.37653">
        <ele>2.2000000476837</ele>
        <time>2022-07-28T09:45:42.000Z</time>
      </trkpt>
      <trkpt lat="47.28863" lon="-2.37648">
        <ele>2.2000000476837</ele>
        <time>2022-07-28T09:45:44.000Z</time>
      </trkpt>
      <trkpt lat="47.28861" lon="-2.37644">
        <ele>2.2000000476837</ele>
        <time>2022-07-28T09:45:45.000Z</time>
      </trkpt>
      <trkpt lat="47.28858" lon="-2.37635">
        <ele>2.2000000476837</ele>
        <time>2022-07-28T09:45:49.000Z</time>
      </trkpt>
      <trkpt lat="47.28856" lon="-2.37632">
        <ele>2.2000000476837</ele>
        <time>2022-07-28T09:45:50.000Z</time>
      </trkpt>
      <trkpt lat="47.28851" lon="-2.3762">
        <ele>2.2000000476837</ele>
        <time>2022-07-28T09:45:53.000Z</time>
      </trkpt>
      <trkpt lat="47.28851" lon="-2.37601">
        <ele>2.2000000476837</ele>
        <time>2022-07-28T09:45:56.000Z</time>
      </trkpt>
      <trkpt lat="47.28852" lon="-2.37595">
        <ele>2.2000000476837</ele>
        <time>2022-07-28T09:45:57.000Z</time>
      </trkpt>
      <trkpt lat="47.28858" lon="-2.37573">
        <ele>2.2000000476837</ele>
        <time>2022-07-28T09:46:01.000Z</time>
      </trkpt>
      <trkpt lat="47.2886" lon="-2.37568">
        <ele>2.2000000476837</ele>
        <time>2022-07-28T09:46:02.000Z</time>
      </trkpt>
      <trkpt lat="47.28872" lon="-2.37549">
        <ele>2.2000000476837</ele>
        <time>2022-07-28T09:46:06.000Z</time>
      </trkpt>
      <trkpt lat="47.28876" lon="-2.37543">
        <ele>2.2000000476837</ele>
        <time>2022-07-28T09:46:07.000Z</time>
      </trkpt>
      <trkpt lat="47.28879" lon="-2.37522">
        <ele>2.2000000476837</ele>
        <time>2022-07-28T09:46:10.000Z</time>
      </trkpt>
      <trkpt lat="47.28878" lon="-2.37515">
        <ele>2.2000000476837</ele>
        <time>2022-07-28T09:46:11.000Z</time>
      </trkpt>
      <trkpt lat="47.28874" lon="-2.37492">
        <ele>2.2000000476837</ele>
        <time>2022-07-28T09:46:14.000Z</time>
      </trkpt>
      <trkpt lat="47.28872" lon="-2.37476">
        <ele>2.2000000476837</ele>
        <time>2022-07-28T09:46:16.000Z</time>
      </trkpt>
      <trkpt lat="47.28871" lon="-2.37467">
        <ele>2.2000000476837</ele>
        <time>2022-07-28T09:46:17.000Z</time>
      </trkpt>
      <trkpt lat="47.28868" lon="-2.37438">
        <ele>2.2000000476837</ele>
        <time>2022-07-28T09:46:21.000Z</time>
      </trkpt>
      <trkpt lat="47.28862" lon="-2.3739">
        <ele>2.2000000476837</ele>
        <time>2022-07-28T09:46:27.000Z</time>
      </trkpt>
      <trkpt lat="47.28859" lon="-2.37351">
        <ele>2.2000000476837</ele>
        <time>2022-07-28T09:46:32.000Z</time>
      </trkpt>
      <trkpt lat="47.28857" lon="-2.37321">
        <ele>2.2000000476837</ele>
        <time>2022-07-28T09:46:36.000Z</time>
      </trkpt>
      <trkpt lat="47.28851" lon="-2.37267">
        <ele>2.2000000476837</ele>
        <time>2022-07-28T09:46:43.000Z</time>
      </trkpt>
      <trkpt lat="47.28849" lon="-2.37253">
        <ele>2.2000000476837</ele>
        <time>2022-07-28T09:46:45.000Z</time>
      </trkpt>
      <trkpt lat="47.28842" lon="-2.37233">
        <ele>2.2000000476837</ele>
        <time>2022-07-28T09:46:48.000Z</time>
      </trkpt>
      <trkpt lat="47.28835" lon="-2.37206">
        <ele>2.2000000476837</ele>
        <time>2022-07-28T09:46:52.000Z</time>
      </trkpt>
      <trkpt lat="47.28832" lon="-2.37191">
        <ele>2.5999999046326</ele>
        <time>2022-07-28T09:46:54.000Z</time>
      </trkpt>
      <trkpt lat="47.28831" lon="-2.37183">
        <ele>3</ele>
        <time>2022-07-28T09:46:55.000Z</time>
      </trkpt>
      <trkpt lat="47.2883" lon="-2.37175">
        <ele>4</ele>
        <time>2022-07-28T09:46:56.000Z</time>
      </trkpt>
      <trkpt lat="47.28828" lon="-2.37167">
        <ele>4.4000000953674</ele>
        <time>2022-07-28T09:46:57.000Z</time>
      </trkpt>
      <trkpt lat="47.28827" lon="-2.3716">
        <ele>4.4000000953674</ele>
        <time>2022-07-28T09:46:58.000Z</time>
      </trkpt>
      <trkpt lat="47.28824" lon="-2.37146">
        <ele>4.4000000953674</ele>
        <time>2022-07-28T09:47:00.000Z</time>
      </trkpt>
      <trkpt lat="47.28821" lon="-2.37128">
        <ele>4.4000000953674</ele>
        <time>2022-07-28T09:47:03.000Z</time>
      </trkpt>
      <trkpt lat="47.28822" lon="-2.37111">
        <ele>4.4000000953674</ele>
        <time>2022-07-28T09:47:08.000Z</time>
      </trkpt>
      <trkpt lat="47.28821" lon="-2.37113">
        <ele>4.4000000953674</ele>
        <time>2022-07-28T09:47:11.000Z</time>
      </trkpt>
      <trkpt lat="47.28821" lon="-2.37115">
        <ele>4.8000001907349</ele>
        <time>2022-07-28T09:47:12.000Z</time>
      </trkpt>
      <trkpt lat="47.2882" lon="-2.37116">
        <ele>5.1999998092651</ele>
        <time>2022-07-28T09:47:13.000Z</time>
      </trkpt>
      <trkpt lat="47.28818" lon="-2.37117">
        <ele>5.5999999046326</ele>
        <time>2022-07-28T09:47:14.000Z</time>
      </trkpt>
      <trkpt lat="47.28817" lon="-2.37117">
        <ele>6</ele>
        <time>2022-07-28T09:47:15.000Z</time>
      </trkpt>
      <trkpt lat="47.28815" lon="-2.37118">
        <ele>6.4000000953674</ele>
        <time>2022-07-28T09:47:16.000Z</time>
      </trkpt>
      <trkpt lat="47.28813" lon="-2.37119">
        <ele>6.8000001907349</ele>
        <time>2022-07-28T09:47:18.000Z</time>
      </trkpt>
      <trkpt lat="47.28811" lon="-2.37119">
        <ele>7.1999998092651</ele>
        <time>2022-07-28T09:47:19.000Z</time>
      </trkpt>
      <trkpt lat="47.2881" lon="-2.37119">
        <ele>8.1999998092651</ele>
        <time>2022-07-28T09:47:20.000Z</time>
      </trkpt>
      <trkpt lat="47.28808" lon="-2.37119">
        <ele>8.8000001907349</ele>
        <time>2022-07-28T09:47:21.000Z</time>
      </trkpt>
      <trkpt lat="47.28805" lon="-2.37117">
        <ele>8.8000001907349</ele>
        <time>2022-07-28T09:47:22.000Z</time>
      </trkpt>
      <trkpt lat="47.28803" lon="-2.37115">
        <ele>9.1999998092651</ele>
        <time>2022-07-28T09:47:23.000Z</time>
      </trkpt>
      <trkpt lat="47.28801" lon="-2.37112">
        <ele>9.6000003814697</ele>
        <time>2022-07-28T09:47:24.000Z</time>
      </trkpt>
      <trkpt lat="47.28799" lon="-2.37109">
        <ele>10</ele>
        <time>2022-07-28T09:47:25.000Z</time>
      </trkpt>
      <trkpt lat="47.28797" lon="-2.37106">
        <ele>10.39999961853</ele>
        <time>2022-07-28T09:47:26.000Z</time>
      </trkpt>
      <trkpt lat="47.28795" lon="-2.37102">
        <ele>10.800000190735</ele>
        <time>2022-07-28T09:47:27.000Z</time>
      </trkpt>
      <trkpt lat="47.28795" lon="-2.37099">
        <ele>10.800000190735</ele>
        <time>2022-07-28T09:47:28.000Z</time>
      </trkpt>
      <trkpt lat="47.28794" lon="-2.37095">
        <ele>10.800000190735</ele>
        <time>2022-07-28T09:47:29.000Z</time>
      </trkpt>
      <trkpt lat="47.2879" lon="-2.37076">
        <ele>10.800000190735</ele>
        <time>2022-07-28T09:47:34.000Z</time>
      </trkpt>
      <trkpt lat="47.28789" lon="-2.37072">
        <ele>11.199999809265</ele>
        <time>2022-07-28T09:47:35.000Z</time>
      </trkpt>
      <trkpt lat="47.28788" lon="-2.37068">
        <ele>11.800000190735</ele>
        <time>2022-07-28T09:47:36.000Z</time>
      </trkpt>
      <trkpt lat="47.28787" lon="-2.37065">
        <ele>12.199999809265</ele>
        <time>2022-07-28T09:47:37.000Z</time>
      </trkpt>
      <trkpt lat="47.28785" lon="-2.37061">
        <ele>12.800000190735</ele>
        <time>2022-07-28T09:47:38.000Z</time>
      </trkpt>
      <trkpt lat="47.28784" lon="-2.37058">
        <ele>13.199999809265</ele>
        <time>2022-07-28T09:47:39.000Z</time>
      </trkpt>
      <trkpt lat="47.28783" lon="-2.37053">
        <ele>13.199999809265</ele>
        <time>2022-07-28T09:47:40.000Z</time>
      </trkpt>
      <trkpt lat="47.2878" lon="-2.37042">
        <ele>13.60000038147</ele>
        <time>2022-07-28T09:47:43.000Z</time>
      </trkpt>
      <trkpt lat="47.28779" lon="-2.37038">
        <ele>14</ele>
        <time>2022-07-28T09:47:44.000Z</time>
      </trkpt>
      <trkpt lat="47.28778" lon="-2.37034">
        <ele>14.39999961853</ele>
        <time>2022-07-28T09:47:45.000Z</time>
      </trkpt>
      <trkpt lat="47.28777" lon="-2.37029">
        <ele>14.800000190735</ele>
        <time>2022-07-28T09:47:46.000Z</time>
      </trkpt>
      <trkpt lat="47.28776" lon="-2.37025">
        <ele>15.199999809265</ele>
        <time>2022-07-28T09:47:47.000Z</time>
      </trkpt>
      <trkpt lat="47.28774" lon="-2.37016">
        <ele>15.199999809265</ele>
        <time>2022-07-28T09:47:49.000Z</time>
      </trkpt>
      <trkpt lat="47.28772" lon="-2.37013">
        <ele>15.199999809265</ele>
        <time>2022-07-28T09:47:50.000Z</time>
      </trkpt>
      <trkpt lat="47.28768" lon="-2.37006">
        <ele>15.199999809265</ele>
        <time>2022-07-28T09:47:53.000Z</time>
      </trkpt>
      <trkpt lat="47.28766" lon="-2.36999">
        <ele>15.199999809265</ele>
        <time>2022-07-28T09:47:55.000Z</time>
      </trkpt>
      <trkpt lat="47.28757" lon="-2.36981">
        <ele>15.199999809265</ele>
        <time>2022-07-28T09:47:59.000Z</time>
      </trkpt>
      <trkpt lat="47.28757" lon="-2.36975">
        <ele>15.199999809265</ele>
        <time>2022-07-28T09:48:00.000Z</time>
      </trkpt>
      <trkpt lat="47.28753" lon="-2.36959">
        <ele>15.199999809265</ele>
        <time>2022-07-28T09:48:03.000Z</time>
      </trkpt>
      <trkpt lat="47.28746" lon="-2.36945">
        <ele>14.800000190735</ele>
        <time>2022-07-28T09:48:05.000Z</time>
      </trkpt>
      <trkpt lat="47.28741" lon="-2.36937">
        <ele>14.39999961853</ele>
        <time>2022-07-28T09:48:06.000Z</time>
      </trkpt>
      <trkpt lat="47.28736" lon="-2.36931">
        <ele>14</ele>
        <time>2022-07-28T09:48:07.000Z</time>
      </trkpt>
      <trkpt lat="47.2873" lon="-2.36926">
        <ele>12.800000190735</ele>
        <time>2022-07-28T09:48:08.000Z</time>
      </trkpt>
      <trkpt lat="47.28725" lon="-2.36924">
        <ele>12.199999809265</ele>
        <time>2022-07-28T09:48:09.000Z</time>
      </trkpt>
      <trkpt lat="47.28721" lon="-2.36921">
        <ele>11.60000038147</ele>
        <time>2022-07-28T09:48:10.000Z</time>
      </trkpt>
      <trkpt lat="47.28717" lon="-2.36917">
        <ele>10.800000190735</ele>
        <time>2022-07-28T09:48:11.000Z</time>
      </trkpt>
      <trkpt lat="47.28712" lon="-2.36909">
        <ele>11.39999961853</ele>
        <time>2022-07-28T09:48:13.000Z</time>
      </trkpt>
      <trkpt lat="47.28711" lon="-2.36905">
        <ele>11.800000190735</ele>
        <time>2022-07-28T09:48:14.000Z</time>
      </trkpt>
      <trkpt lat="47.28709" lon="-2.36901">
        <ele>12.199999809265</ele>
        <time>2022-07-28T09:48:15.000Z</time>
      </trkpt>
      <trkpt lat="47.28708" lon="-2.36897">
        <ele>12.800000190735</ele>
        <time>2022-07-28T09:48:16.000Z</time>
      </trkpt>
      <trkpt lat="47.28706" lon="-2.36893">
        <ele>13.199999809265</ele>
        <time>2022-07-28T09:48:17.000Z</time>
      </trkpt>
      <trkpt lat="47.28705" lon="-2.36889">
        <ele>13.199999809265</ele>
        <time>2022-07-28T09:48:18.000Z</time>
      </trkpt>
      <trkpt lat="47.28697" lon="-2.36867">
        <ele>13.199999809265</ele>
        <time>2022-07-28T09:48:23.000Z</time>
      </trkpt>
      <trkpt lat="47.28685" lon="-2.36838">
        <ele>13.60000038147</ele>
        <time>2022-07-28T09:48:29.000Z</time>
      </trkpt>
      <trkpt lat="47.28683" lon="-2.36834">
        <ele>14</ele>
        <time>2022-07-28T09:48:30.000Z</time>
      </trkpt>
      <trkpt lat="47.28681" lon="-2.3683">
        <ele>14.60000038147</ele>
        <time>2022-07-28T09:48:31.000Z</time>
      </trkpt>
      <trkpt lat="47.2868" lon="-2.36827">
        <ele>15</ele>
        <time>2022-07-28T09:48:32.000Z</time>
      </trkpt>
      <trkpt lat="47.28678" lon="-2.36824">
        <ele>15.39999961853</ele>
        <time>2022-07-28T09:48:33.000Z</time>
      </trkpt>
      <trkpt lat="47.28674" lon="-2.36815">
        <ele>15.39999961853</ele>
        <time>2022-07-28T09:48:37.000Z</time>
      </trkpt>
      <trkpt lat="47.28669" lon="-2.36809">
        <ele>15.39999961853</ele>
        <time>2022-07-28T09:49:54.000Z</time>
      </trkpt>
      <trkpt lat="47.2866" lon="-2.36809">
        <ele>15.39999961853</ele>
        <time>2022-07-28T09:49:58.000Z</time>
      </trkpt>
      <trkpt lat="47.28656" lon="-2.36811">
        <ele>15.39999961853</ele>
        <time>2022-07-28T09:49:59.000Z</time>
      </trkpt>
      <trkpt lat="47.28645" lon="-2.36817">
        <ele>15.39999961853</ele>
        <time>2022-07-28T09:50:02.000Z</time>
      </trkpt>
      <trkpt lat="47.28638" lon="-2.36825">
        <ele>15.39999961853</ele>
        <time>2022-07-28T09:50:04.000Z</time>
      </trkpt>
      <trkpt lat="47.28624" lon="-2.36838">
        <ele>15.39999961853</ele>
        <time>2022-07-28T09:50:07.000Z</time>
      </trkpt>
      <trkpt lat="47.286" lon="-2.36842">
        <ele>15.39999961853</ele>
        <time>2022-07-28T09:50:11.000Z</time>
      </trkpt>
      <trkpt lat="47.28586" lon="-2.36826">
        <ele>15.39999961853</ele>
        <time>2022-07-28T09:50:14.000Z</time>
      </trkpt>
      <trkpt lat="47.28583" lon="-2.36821">
        <ele>15.39999961853</ele>
        <time>2022-07-28T09:50:15.000Z</time>
      </trkpt>
      <trkpt lat="47.28569" lon="-2.36795">
        <ele>15.39999961853</ele>
        <time>2022-07-28T09:50:20.000Z</time>
      </trkpt>
      <trkpt lat="47.28549" lon="-2.36757">
        <ele>15.39999961853</ele>
        <time>2022-07-28T09:50:28.000Z</time>
      </trkpt>
      <trkpt lat="47.28535" lon="-2.36731">
        <ele>15.39999961853</ele>
        <time>2022-07-28T09:50:34.000Z</time>
      </trkpt>
      <trkpt lat="47.28525" lon="-2.36715">
        <ele>15.800000190735</ele>
        <time>2022-07-28T09:50:38.000Z</time>
      </trkpt>
      <trkpt lat="47.28522" lon="-2.3671">
        <ele>16.200000762939</ele>
        <time>2022-07-28T09:50:39.000Z</time>
      </trkpt>
      <trkpt lat="47.28521" lon="-2.36706">
        <ele>16.799999237061</ele>
        <time>2022-07-28T09:50:40.000Z</time>
      </trkpt>
      <trkpt lat="47.28519" lon="-2.36703">
        <ele>17.200000762939</ele>
        <time>2022-07-28T09:50:41.000Z</time>
      </trkpt>
      <trkpt lat="47.28516" lon="-2.36699">
        <ele>17.60000038147</ele>
        <time>2022-07-28T09:50:42.000Z</time>
      </trkpt>
      <trkpt lat="47.2851" lon="-2.36688">
        <ele>18</ele>
        <time>2022-07-28T09:50:46.000Z</time>
      </trkpt>
      <trkpt lat="47.28508" lon="-2.36686">
        <ele>18.39999961853</ele>
        <time>2022-07-28T09:50:47.000Z</time>
      </trkpt>
      <trkpt lat="47.28507" lon="-2.36685">
        <ele>19</ele>
        <time>2022-07-28T09:50:48.000Z</time>
      </trkpt>
      <trkpt lat="47.28506" lon="-2.36684">
        <ele>19.39999961853</ele>
        <time>2022-07-28T09:50:49.000Z</time>
      </trkpt>
      <trkpt lat="47.28504" lon="-2.36683">
        <ele>19.799999237061</ele>
        <time>2022-07-28T09:50:50.000Z</time>
      </trkpt>
      <trkpt lat="47.28503" lon="-2.36682">
        <ele>19.799999237061</ele>
        <time>2022-07-28T09:50:52.000Z</time>
      </trkpt>
      <trkpt lat="47.28503" lon="-2.36682">
        <ele>19.799999237061</ele>
        <time>2022-07-28T09:51:12.000Z</time>
      </trkpt>
      <trkpt lat="47.28502" lon="-2.3668">
        <ele>19.799999237061</ele>
        <time>2022-07-28T09:51:13.000Z</time>
      </trkpt>
      <trkpt lat="47.28497" lon="-2.36669">
        <ele>19.799999237061</ele>
        <time>2022-07-28T09:51:16.000Z</time>
      </trkpt>
      <trkpt lat="47.28494" lon="-2.36664">
        <ele>19.799999237061</ele>
        <time>2022-07-28T09:51:17.000Z</time>
      </trkpt>
      <trkpt lat="47.28492" lon="-2.36658">
        <ele>19.799999237061</ele>
        <time>2022-07-28T09:51:18.000Z</time>
      </trkpt>
      <trkpt lat="47.28487" lon="-2.36639">
        <ele>19.799999237061</ele>
        <time>2022-07-28T09:51:21.000Z</time>
      </trkpt>
      <trkpt lat="47.28483" lon="-2.36627">
        <ele>19.799999237061</ele>
        <time>2022-07-28T09:51:23.000Z</time>
      </trkpt>
      <trkpt lat="47.28476" lon="-2.366">
        <ele>19.799999237061</ele>
        <time>2022-07-28T09:51:27.000Z</time>
      </trkpt>
      <trkpt lat="47.28469" lon="-2.36568">
        <ele>19.799999237061</ele>
        <time>2022-07-28T09:51:32.000Z</time>
      </trkpt>
      <trkpt lat="47.28478" lon="-2.36552">
        <ele>19.799999237061</ele>
        <time>2022-07-28T09:51:35.000Z</time>
      </trkpt>
      <trkpt lat="47.28485" lon="-2.36543">
        <ele>19.799999237061</ele>
        <time>2022-07-28T09:51:37.000Z</time>
      </trkpt>
      <trkpt lat="47.285" lon="-2.36526">
        <ele>19.799999237061</ele>
        <time>2022-07-28T09:51:41.000Z</time>
      </trkpt>
      <trkpt lat="47.28503" lon="-2.36521">
        <ele>19.799999237061</ele>
        <time>2022-07-28T09:51:42.000Z</time>
      </trkpt>
      <trkpt lat="47.28506" lon="-2.36517">
        <ele>20.200000762939</ele>
        <time>2022-07-28T09:51:43.000Z</time>
      </trkpt>
      <trkpt lat="47.2851" lon="-2.36514">
        <ele>20.60000038147</ele>
        <time>2022-07-28T09:51:44.000Z</time>
      </trkpt>
      <trkpt lat="47.28514" lon="-2.3651">
        <ele>21</ele>
        <time>2022-07-28T09:51:45.000Z</time>
      </trkpt>
      <trkpt lat="47.28517" lon="-2.36506">
        <ele>21.60000038147</ele>
        <time>2022-07-28T09:51:46.000Z</time>
      </trkpt>
      <trkpt lat="47.2852" lon="-2.36503">
        <ele>22</ele>
        <time>2022-07-28T09:51:47.000Z</time>
      </trkpt>
      <trkpt lat="47.28523" lon="-2.36497">
        <ele>22</ele>
        <time>2022-07-28T09:51:49.000Z</time>
      </trkpt>
      <trkpt lat="47.28523" lon="-2.36495">
        <ele>22</ele>
        <time>2022-07-28T09:51:50.000Z</time>
      </trkpt>
      <trkpt lat="47.28522" lon="-2.36493">
        <ele>22.799999237061</ele>
        <time>2022-07-28T09:51:51.000Z</time>
      </trkpt>
      <trkpt lat="47.2852" lon="-2.36488">
        <ele>23.200000762939</ele>
        <time>2022-07-28T09:51:52.000Z</time>
      </trkpt>
      <trkpt lat="47.2852" lon="-2.36483">
        <ele>23.60000038147</ele>
        <time>2022-07-28T09:51:53.000Z</time>
      </trkpt>
      <trkpt lat="47.28519" lon="-2.36477">
        <ele>24</ele>
        <time>2022-07-28T09:51:54.000Z</time>
      </trkpt>
      <trkpt lat="47.28515" lon="-2.36467">
        <ele>24</ele>
        <time>2022-07-28T09:51:56.000Z</time>
      </trkpt>
      <trkpt lat="47.28509" lon="-2.36456">
        <ele>24</ele>
        <time>2022-07-28T09:51:58.000Z</time>
      </trkpt>
      <trkpt lat="47.28506" lon="-2.36452">
        <ele>24</ele>
        <time>2022-07-28T09:51:59.000Z</time>
      </trkpt>
      <trkpt lat="47.28498" lon="-2.36447">
        <ele>24</ele>
        <time>2022-07-28T09:52:01.000Z</time>
      </trkpt>
      <trkpt lat="47.28491" lon="-2.36441">
        <ele>24</ele>
        <time>2022-07-28T09:52:03.000Z</time>
      </trkpt>
      <trkpt lat="47.28484" lon="-2.36434">
        <ele>24</ele>
        <time>2022-07-28T09:52:05.000Z</time>
      </trkpt>
      <trkpt lat="47.28474" lon="-2.36424">
        <ele>24</ele>
        <time>2022-07-28T09:52:09.000Z</time>
      </trkpt>
      <trkpt lat="47.28462" lon="-2.36406">
        <ele>24</ele>
        <time>2022-07-28T09:52:14.000Z</time>
      </trkpt>
      <trkpt lat="47.28454" lon="-2.36397">
        <ele>24</ele>
        <time>2022-07-28T09:52:16.000Z</time>
      </trkpt>
      <trkpt lat="47.28445" lon="-2.36389">
        <ele>24</ele>
        <time>2022-07-28T09:52:18.000Z</time>
      </trkpt>
      <trkpt lat="47.28423" lon="-2.36374">
        <ele>24</ele>
        <time>2022-07-28T09:52:22.000Z</time>
      </trkpt>
      <trkpt lat="47.28415" lon="-2.36364">
        <ele>24</ele>
        <time>2022-07-28T09:52:24.000Z</time>
      </trkpt>
      <trkpt lat="47.28407" lon="-2.36353">
        <ele>24</ele>
        <time>2022-07-28T09:52:26.000Z</time>
      </trkpt>
      <trkpt lat="47.28399" lon="-2.36345">
        <ele>24</ele>
        <time>2022-07-28T09:52:28.000Z</time>
      </trkpt>
      <trkpt lat="47.28384" lon="-2.36334">
        <ele>23.60000038147</ele>
        <time>2022-07-28T09:52:31.000Z</time>
      </trkpt>
      <trkpt lat="47.2838" lon="-2.36329">
        <ele>23.200000762939</ele>
        <time>2022-07-28T09:52:32.000Z</time>
      </trkpt>
      <trkpt lat="47.28377" lon="-2.36324">
        <ele>22.799999237061</ele>
        <time>2022-07-28T09:52:33.000Z</time>
      </trkpt>
      <trkpt lat="47.28374" lon="-2.36322">
        <ele>22.39999961853</ele>
        <time>2022-07-28T09:52:34.000Z</time>
      </trkpt>
      <trkpt lat="47.28372" lon="-2.3632">
        <ele>22</ele>
        <time>2022-07-28T09:52:35.000Z</time>
      </trkpt>
      <trkpt lat="47.28366" lon="-2.36311">
        <ele>22</ele>
        <time>2022-07-28T09:52:37.000Z</time>
      </trkpt>
      <trkpt lat="47.28364" lon="-2.36301">
        <ele>22</ele>
        <time>2022-07-28T09:52:39.000Z</time>
      </trkpt>
      <trkpt lat="47.28364" lon="-2.36297">
        <ele>21.60000038147</ele>
        <time>2022-07-28T09:52:40.000Z</time>
      </trkpt>
      <trkpt lat="47.28365" lon="-2.36291">
        <ele>21.200000762939</ele>
        <time>2022-07-28T09:52:41.000Z</time>
      </trkpt>
      <trkpt lat="47.28365" lon="-2.36285">
        <ele>20.799999237061</ele>
        <time>2022-07-28T09:52:42.000Z</time>
      </trkpt>
      <trkpt lat="47.28366" lon="-2.36277">
        <ele>20.39999961853</ele>
        <time>2022-07-28T09:52:43.000Z</time>
      </trkpt>
      <trkpt lat="47.28367" lon="-2.36272">
        <ele>20</ele>
        <time>2022-07-28T09:52:44.000Z</time>
      </trkpt>
      <trkpt lat="47.28371" lon="-2.36263">
        <ele>20</ele>
        <time>2022-07-28T09:52:46.000Z</time>
      </trkpt>
      <trkpt lat="47.28376" lon="-2.36257">
        <ele>20</ele>
        <time>2022-07-28T09:52:48.000Z</time>
      </trkpt>
      <trkpt lat="47.28383" lon="-2.36249">
        <ele>20</ele>
        <time>2022-07-28T09:52:51.000Z</time>
      </trkpt>
      <trkpt lat="47.28385" lon="-2.36246">
        <ele>20.39999961853</ele>
        <time>2022-07-28T09:52:52.000Z</time>
      </trkpt>
      <trkpt lat="47.28387" lon="-2.36244">
        <ele>20.799999237061</ele>
        <time>2022-07-28T09:52:53.000Z</time>
      </trkpt>
      <trkpt lat="47.28389" lon="-2.3624">
        <ele>21.200000762939</ele>
        <time>2022-07-28T09:52:54.000Z</time>
      </trkpt>
      <trkpt lat="47.28391" lon="-2.36237">
        <ele>21.60000038147</ele>
        <time>2022-07-28T09:52:55.000Z</time>
      </trkpt>
      <trkpt lat="47.28393" lon="-2.36234">
        <ele>22</ele>
        <time>2022-07-28T09:52:56.000Z</time>
      </trkpt>
      <trkpt lat="47.28399" lon="-2.36227">
        <ele>22.39999961853</ele>
        <time>2022-07-28T09:52:59.000Z</time>
      </trkpt>
      <trkpt lat="47.28402" lon="-2.36226">
        <ele>22.799999237061</ele>
        <time>2022-07-28T09:53:00.000Z</time>
      </trkpt>
      <trkpt lat="47.28404" lon="-2.36224">
        <ele>23.200000762939</ele>
        <time>2022-07-28T09:53:01.000Z</time>
      </trkpt>
      <trkpt lat="47.28407" lon="-2.36223">
        <ele>23.60000038147</ele>
        <time>2022-07-28T09:53:02.000Z</time>
      </trkpt>
      <trkpt lat="47.2841" lon="-2.36222">
        <ele>24</ele>
        <time>2022-07-28T09:53:03.000Z</time>
      </trkpt>
      <trkpt lat="47.2842" lon="-2.36219">
        <ele>24</ele>
        <time>2022-07-28T09:53:06.000Z</time>
      </trkpt>
      <trkpt lat="47.28429" lon="-2.3621">
        <ele>24.60000038147</ele>
        <time>2022-07-28T09:53:10.000Z</time>
      </trkpt>
      <trkpt lat="47.28432" lon="-2.36208">
        <ele>25</ele>
        <time>2022-07-28T09:53:11.000Z</time>
      </trkpt>
      <trkpt lat="47.28433" lon="-2.36208">
        <ele>25.39999961853</ele>
        <time>2022-07-28T09:53:12.000Z</time>
      </trkpt>
      <trkpt lat="47.28434" lon="-2.36208">
        <ele>25.799999237061</ele>
        <time>2022-07-28T09:53:13.000Z</time>
      </trkpt>
      <trkpt lat="47.28434" lon="-2.36208">
        <ele>26.200000762939</ele>
        <time>2022-07-28T09:53:14.000Z</time>
      </trkpt>
      <trkpt lat="47.28444" lon="-2.36201">
        <ele>26.200000762939</ele>
        <time>2022-07-28T09:53:35.000Z</time>
      </trkpt>
      <trkpt lat="47.28445" lon="-2.36193">
        <ele>26.200000762939</ele>
        <time>2022-07-28T09:53:38.000Z</time>
      </trkpt>
      <trkpt lat="47.28443" lon="-2.36188">
        <ele>26.200000762939</ele>
        <time>2022-07-28T09:53:40.000Z</time>
      </trkpt>
      <trkpt lat="47.28442" lon="-2.3618">
        <ele>26.60000038147</ele>
        <time>2022-07-28T09:53:42.000Z</time>
      </trkpt>
      <trkpt lat="47.28443" lon="-2.36176">
        <ele>27.200000762939</ele>
        <time>2022-07-28T09:53:43.000Z</time>
      </trkpt>
      <trkpt lat="47.28443" lon="-2.36173">
        <ele>27.60000038147</ele>
        <time>2022-07-28T09:53:44.000Z</time>
      </trkpt>
      <trkpt lat="47.28443" lon="-2.36169">
        <ele>28</ele>
        <time>2022-07-28T09:53:45.000Z</time>
      </trkpt>
      <trkpt lat="47.28443" lon="-2.36165">
        <ele>28.60000038147</ele>
        <time>2022-07-28T09:53:46.000Z</time>
      </trkpt>
      <trkpt lat="47.28442" lon="-2.36158">
        <ele>28.60000038147</ele>
        <time>2022-07-28T09:53:48.000Z</time>
      </trkpt>
      <trkpt lat="47.28441" lon="-2.36155">
        <ele>28.60000038147</ele>
        <time>2022-07-28T09:53:49.000Z</time>
      </trkpt>
      <trkpt lat="47.28438" lon="-2.36144">
        <ele>29</ele>
        <time>2022-07-28T09:53:52.000Z</time>
      </trkpt>
      <trkpt lat="47.28438" lon="-2.3614">
        <ele>29.60000038147</ele>
        <time>2022-07-28T09:53:53.000Z</time>
      </trkpt>
      <trkpt lat="47.28439" lon="-2.36135">
        <ele>30</ele>
        <time>2022-07-28T09:53:54.000Z</time>
      </trkpt>
      <trkpt lat="47.28439" lon="-2.36131">
        <ele>31</ele>
        <time>2022-07-28T09:53:55.000Z</time>
      </trkpt>
      <trkpt lat="47.28436" lon="-2.36124">
        <ele>31</ele>
        <time>2022-07-28T09:53:57.000Z</time>
      </trkpt>
      <trkpt lat="47.28435" lon="-2.36109">
        <ele>31</ele>
        <time>2022-07-28T09:54:01.000Z</time>
      </trkpt>
      <trkpt lat="47.28435" lon="-2.36106">
        <ele>31.39999961853</ele>
        <time>2022-07-28T09:54:02.000Z</time>
      </trkpt>
      <trkpt lat="47.28435" lon="-2.36103">
        <ele>32</ele>
        <time>2022-07-28T09:54:03.000Z</time>
      </trkpt>
      <trkpt lat="47.28434" lon="-2.36099">
        <ele>32.400001525879</ele>
        <time>2022-07-28T09:54:04.000Z</time>
      </trkpt>
      <trkpt lat="47.28434" lon="-2.36095">
        <ele>32.799999237061</ele>
        <time>2022-07-28T09:54:05.000Z</time>
      </trkpt>
      <trkpt lat="47.28433" lon="-2.36091">
        <ele>33.200000762939</ele>
        <time>2022-07-28T09:54:06.000Z</time>
      </trkpt>
      <trkpt lat="47.28433" lon="-2.36087">
        <ele>33.200000762939</ele>
        <time>2022-07-28T09:54:07.000Z</time>
      </trkpt>
      <trkpt lat="47.28432" lon="-2.36073">
        <ele>33.200000762939</ele>
        <time>2022-07-28T09:54:11.000Z</time>
      </trkpt>
      <trkpt lat="47.28432" lon="-2.36069">
        <ele>33.599998474121</ele>
        <time>2022-07-28T09:54:12.000Z</time>
      </trkpt>
      <trkpt lat="47.28432" lon="-2.36065">
        <ele>34</ele>
        <time>2022-07-28T09:54:13.000Z</time>
      </trkpt>
      <trkpt lat="47.28432" lon="-2.36061">
        <ele>34.400001525879</ele>
        <time>2022-07-28T09:54:14.000Z</time>
      </trkpt>
      <trkpt lat="47.28432" lon="-2.36057">
        <ele>34.799999237061</ele>
        <time>2022-07-28T09:54:15.000Z</time>
      </trkpt>
      <trkpt lat="47.28433" lon="-2.36053">
        <ele>35.200000762939</ele>
        <time>2022-07-28T09:54:16.000Z</time>
      </trkpt>
      <trkpt lat="47.28434" lon="-2.36031">
        <ele>35.200000762939</ele>
        <time>2022-07-28T09:54:22.000Z</time>
      </trkpt>
      <trkpt lat="47.28437" lon="-2.3602">
        <ele>35.200000762939</ele>
        <time>2022-07-28T09:54:27.000Z</time>
      </trkpt>
      <trkpt lat="47.28439" lon="-2.36018">
        <ele>35.200000762939</ele>
        <time>2022-07-28T09:54:29.000Z</time>
      </trkpt>
      <trkpt lat="47.28442" lon="-2.36012">
        <ele>35.200000762939</ele>
        <time>2022-07-28T09:54:32.000Z</time>
      </trkpt>
      <trkpt lat="47.28447" lon="-2.36005">
        <ele>35.200000762939</ele>
        <time>2022-07-28T09:54:36.000Z</time>
      </trkpt>
      <trkpt lat="47.2845" lon="-2.36">
        <ele>35.200000762939</ele>
        <time>2022-07-28T09:54:38.000Z</time>
      </trkpt>
      <trkpt lat="47.28451" lon="-2.35977">
        <ele>35.200000762939</ele>
        <time>2022-07-28T09:54:42.000Z</time>
      </trkpt>
      <trkpt lat="47.28452" lon="-2.35971">
        <ele>35.200000762939</ele>
        <time>2022-07-28T09:54:43.000Z</time>
      </trkpt>
      <trkpt lat="47.28456" lon="-2.35956">
        <ele>35.200000762939</ele>
        <time>2022-07-28T09:54:45.000Z</time>
      </trkpt>
      <trkpt lat="47.28459" lon="-2.35949">
        <ele>34.799999237061</ele>
        <time>2022-07-28T09:54:46.000Z</time>
      </trkpt>
      <trkpt lat="47.28461" lon="-2.35942">
        <ele>34.400001525879</ele>
        <time>2022-07-28T09:54:47.000Z</time>
      </trkpt>
      <trkpt lat="47.28464" lon="-2.35935">
        <ele>34</ele>
        <time>2022-07-28T09:54:48.000Z</time>
      </trkpt>
      <trkpt lat="47.28466" lon="-2.35928">
        <ele>33.599998474121</ele>
        <time>2022-07-28T09:54:49.000Z</time>
      </trkpt>
      <trkpt lat="47.28469" lon="-2.35921">
        <ele>33</ele>
        <time>2022-07-28T09:54:50.000Z</time>
      </trkpt>
      <trkpt lat="47.28471" lon="-2.35915">
        <ele>32.400001525879</ele>
        <time>2022-07-28T09:54:51.000Z</time>
      </trkpt>
      <trkpt lat="47.28471" lon="-2.35909">
        <ele>31.799999237061</ele>
        <time>2022-07-28T09:54:52.000Z</time>
      </trkpt>
      <trkpt lat="47.2847" lon="-2.35903">
        <ele>31.200000762939</ele>
        <time>2022-07-28T09:54:53.000Z</time>
      </trkpt>
      <trkpt lat="47.28467" lon="-2.35898">
        <ele>30.60000038147</ele>
        <time>2022-07-28T09:54:54.000Z</time>
      </trkpt>
      <trkpt lat="47.28464" lon="-2.35894">
        <ele>30</ele>
        <time>2022-07-28T09:54:55.000Z</time>
      </trkpt>
      <trkpt lat="47.2846" lon="-2.35891">
        <ele>29.39999961853</ele>
        <time>2022-07-28T09:54:56.000Z</time>
      </trkpt>
      <trkpt lat="47.28456" lon="-2.35888">
        <ele>28.60000038147</ele>
        <time>2022-07-28T09:54:57.000Z</time>
      </trkpt>
      <trkpt lat="47.28452" lon="-2.35886">
        <ele>28</ele>
        <time>2022-07-28T09:54:58.000Z</time>
      </trkpt>
      <trkpt lat="47.28447" lon="-2.35884">
        <ele>27.60000038147</ele>
        <time>2022-07-28T09:54:59.000Z</time>
      </trkpt>
      <trkpt lat="47.28443" lon="-2.35882">
        <ele>27.200000762939</ele>
        <time>2022-07-28T09:55:00.000Z</time>
      </trkpt>
      <trkpt lat="47.28439" lon="-2.35879">
        <ele>26.799999237061</ele>
        <time>2022-07-28T09:55:01.000Z</time>
      </trkpt>
      <trkpt lat="47.28436" lon="-2.35875">
        <ele>26.39999961853</ele>
        <time>2022-07-28T09:55:02.000Z</time>
      </trkpt>
      <trkpt lat="47.28434" lon="-2.35872">
        <ele>26</ele>
        <time>2022-07-28T09:55:03.000Z</time>
      </trkpt>
      <trkpt lat="47.28431" lon="-2.35866">
        <ele>26</ele>
        <time>2022-07-28T09:55:04.000Z</time>
      </trkpt>
      <trkpt lat="47.28427" lon="-2.35858">
        <ele>26</ele>
        <time>2022-07-28T09:55:06.000Z</time>
      </trkpt>
      <trkpt lat="47.28415" lon="-2.35832">
        <ele>26</ele>
        <time>2022-07-28T09:55:11.000Z</time>
      </trkpt>
      <trkpt lat="47.28402" lon="-2.35818">
        <ele>26</ele>
        <time>2022-07-28T09:55:15.000Z</time>
      </trkpt>
      <trkpt lat="47.28398" lon="-2.35814">
        <ele>26</ele>
        <time>2022-07-28T09:55:16.000Z</time>
      </trkpt>
      <trkpt lat="47.28383" lon="-2.35797">
        <ele>26</ele>
        <time>2022-07-28T09:55:20.000Z</time>
      </trkpt>
      <trkpt lat="47.28372" lon="-2.35793">
        <ele>26</ele>
        <time>2022-07-28T09:55:23.000Z</time>
      </trkpt>
      <trkpt lat="47.28355" lon="-2.35803">
        <ele>26</ele>
        <time>2022-07-28T09:55:27.000Z</time>
      </trkpt>
      <trkpt lat="47.28352" lon="-2.35806">
        <ele>25.60000038147</ele>
        <time>2022-07-28T09:55:28.000Z</time>
      </trkpt>
      <trkpt lat="47.28348" lon="-2.3581">
        <ele>25.200000762939</ele>
        <time>2022-07-28T09:55:29.000Z</time>
      </trkpt>
      <trkpt lat="47.28344" lon="-2.35813">
        <ele>24.799999237061</ele>
        <time>2022-07-28T09:55:30.000Z</time>
      </trkpt>
      <trkpt lat="47.28341" lon="-2.35817">
        <ele>24.39999961853</ele>
        <time>2022-07-28T09:55:31.000Z</time>
      </trkpt>
      <trkpt lat="47.28339" lon="-2.35822">
        <ele>24</ele>
        <time>2022-07-28T09:55:32.000Z</time>
      </trkpt>
      <trkpt lat="47.2833" lon="-2.35835">
        <ele>24</ele>
        <time>2022-07-28T09:55:36.000Z</time>
      </trkpt>
      <trkpt lat="47.28307" lon="-2.35857">
        <ele>24</ele>
        <time>2022-07-28T09:55:42.000Z</time>
      </trkpt>
      <trkpt lat="47.28297" lon="-2.35865">
        <ele>24</ele>
        <time>2022-07-28T09:55:44.000Z</time>
      </trkpt>
      <trkpt lat="47.28286" lon="-2.35872">
        <ele>23.60000038147</ele>
        <time>2022-07-28T09:55:46.000Z</time>
      </trkpt>
      <trkpt lat="47.28282" lon="-2.35876">
        <ele>23</ele>
        <time>2022-07-28T09:55:47.000Z</time>
      </trkpt>
      <trkpt lat="47.28278" lon="-2.3588">
        <ele>22.60000038147</ele>
        <time>2022-07-28T09:55:48.000Z</time>
      </trkpt>
      <trkpt lat="47.28274" lon="-2.35883">
        <ele>22.200000762939</ele>
        <time>2022-07-28T09:55:49.000Z</time>
      </trkpt>
      <trkpt lat="47.28269" lon="-2.35886">
        <ele>21.799999237061</ele>
        <time>2022-07-28T09:55:50.000Z</time>
      </trkpt>
      <trkpt lat="47.28265" lon="-2.35888">
        <ele>21.799999237061</ele>
        <time>2022-07-28T09:55:51.000Z</time>
      </trkpt>
      <trkpt lat="47.2825" lon="-2.35893">
        <ele>21.799999237061</ele>
        <time>2022-07-28T09:55:54.000Z</time>
      </trkpt>
      <trkpt lat="47.28245" lon="-2.35894">
        <ele>21.799999237061</ele>
        <time>2022-07-28T09:55:55.000Z</time>
      </trkpt>
      <trkpt lat="47.28227" lon="-2.3589">
        <ele>21.799999237061</ele>
        <time>2022-07-28T09:55:58.000Z</time>
      </trkpt>
      <trkpt lat="47.28221" lon="-2.35889">
        <ele>21.799999237061</ele>
        <time>2022-07-28T09:55:59.000Z</time>
      </trkpt>
      <trkpt lat="47.28207" lon="-2.35884">
        <ele>21.799999237061</ele>
        <time>2022-07-28T09:56:02.000Z</time>
      </trkpt>
      <trkpt lat="47.28202" lon="-2.35881">
        <ele>21.799999237061</ele>
        <time>2022-07-28T09:56:03.000Z</time>
      </trkpt>
      <trkpt lat="47.28189" lon="-2.35867">
        <ele>21.799999237061</ele>
        <time>2022-07-28T09:56:07.000Z</time>
      </trkpt>
      <trkpt lat="47.28187" lon="-2.35863">
        <ele>21.799999237061</ele>
        <time>2022-07-28T09:56:08.000Z</time>
      </trkpt>
      <trkpt lat="47.28177" lon="-2.3585">
        <ele>21.799999237061</ele>
        <time>2022-07-28T09:56:12.000Z</time>
      </trkpt>
      <trkpt lat="47.28159" lon="-2.35833">
        <ele>21.799999237061</ele>
        <time>2022-07-28T09:56:17.000Z</time>
      </trkpt>
      <trkpt lat="47.28155" lon="-2.3583">
        <ele>21.799999237061</ele>
        <time>2022-07-28T09:56:18.000Z</time>
      </trkpt>
      <trkpt lat="47.28147" lon="-2.35823">
        <ele>21.799999237061</ele>
        <time>2022-07-28T09:56:20.000Z</time>
      </trkpt>
      <trkpt lat="47.2814" lon="-2.35813">
        <ele>21.39999961853</ele>
        <time>2022-07-28T09:56:22.000Z</time>
      </trkpt>
      <trkpt lat="47.28138" lon="-2.35806">
        <ele>20.39999961853</ele>
        <time>2022-07-28T09:56:23.000Z</time>
      </trkpt>
      <trkpt lat="47.28136" lon="-2.358">
        <ele>20</ele>
        <time>2022-07-28T09:56:24.000Z</time>
      </trkpt>
      <trkpt lat="47.28135" lon="-2.35793">
        <ele>19.60000038147</ele>
        <time>2022-07-28T09:56:25.000Z</time>
      </trkpt>
      <trkpt lat="47.28134" lon="-2.35774">
        <ele>19.60000038147</ele>
        <time>2022-07-28T09:56:29.000Z</time>
      </trkpt>
      <trkpt lat="47.28133" lon="-2.35769">
        <ele>19.60000038147</ele>
        <time>2022-07-28T09:56:30.000Z</time>
      </trkpt>
      <trkpt lat="47.28127" lon="-2.35764">
        <ele>19.60000038147</ele>
        <time>2022-07-28T09:56:32.000Z</time>
      </trkpt>
      <trkpt lat="47.2812" lon="-2.35763">
        <ele>19.60000038147</ele>
        <time>2022-07-28T09:56:34.000Z</time>
      </trkpt>
      <trkpt lat="47.28116" lon="-2.35767">
        <ele>19.60000038147</ele>
        <time>2022-07-28T09:56:36.000Z</time>
      </trkpt>
      <trkpt lat="47.28113" lon="-2.35781">
        <ele>19.200000762939</ele>
        <time>2022-07-28T09:56:40.000Z</time>
      </trkpt>
      <trkpt lat="47.28111" lon="-2.35785">
        <ele>18.799999237061</ele>
        <time>2022-07-28T09:56:41.000Z</time>
      </trkpt>
      <trkpt lat="47.2811" lon="-2.35789">
        <ele>18.39999961853</ele>
        <time>2022-07-28T09:56:42.000Z</time>
      </trkpt>
      <trkpt lat="47.2811" lon="-2.35793">
        <ele>18</ele>
        <time>2022-07-28T09:56:43.000Z</time>
      </trkpt>
      <trkpt lat="47.28108" lon="-2.35798">
        <ele>17.60000038147</ele>
        <time>2022-07-28T09:56:44.000Z</time>
      </trkpt>
      <trkpt lat="47.28106" lon="-2.35802">
        <ele>17.60000038147</ele>
        <time>2022-07-28T09:56:45.000Z</time>
      </trkpt>
      <trkpt lat="47.28104" lon="-2.35803">
        <ele>17.60000038147</ele>
        <time>2022-07-28T09:56:46.000Z</time>
      </trkpt>
      <trkpt lat="47.28098" lon="-2.35802">
        <ele>17.60000038147</ele>
        <time>2022-07-28T09:56:48.000Z</time>
      </trkpt>
      <trkpt lat="47.28093" lon="-2.35792">
        <ele>18</ele>
        <time>2022-07-28T09:56:52.000Z</time>
      </trkpt>
      <trkpt lat="47.28093" lon="-2.35789">
        <ele>18.39999961853</ele>
        <time>2022-07-28T09:56:53.000Z</time>
      </trkpt>
      <trkpt lat="47.28093" lon="-2.35787">
        <ele>18.799999237061</ele>
        <time>2022-07-28T09:56:54.000Z</time>
      </trkpt>
      <trkpt lat="47.28094" lon="-2.35783">
        <ele>19.200000762939</ele>
        <time>2022-07-28T09:56:55.000Z</time>
      </trkpt>
      <trkpt lat="47.28093" lon="-2.35779">
        <ele>19.60000038147</ele>
        <time>2022-07-28T09:56:56.000Z</time>
      </trkpt>
      <trkpt lat="47.28093" lon="-2.35774">
        <ele>19.60000038147</ele>
        <time>2022-07-28T09:56:57.000Z</time>
      </trkpt>
      <trkpt lat="47.28089" lon="-2.35758">
        <ele>19.60000038147</ele>
        <time>2022-07-28T09:57:00.000Z</time>
      </trkpt>
      <trkpt lat="47.28089" lon="-2.35747">
        <ele>19.60000038147</ele>
        <time>2022-07-28T09:57:02.000Z</time>
      </trkpt>
      <trkpt lat="47.28088" lon="-2.35741">
        <ele>20.200000762939</ele>
        <time>2022-07-28T09:57:03.000Z</time>
      </trkpt>
      <trkpt lat="47.28089" lon="-2.35737">
        <ele>20.60000038147</ele>
        <time>2022-07-28T09:57:04.000Z</time>
      </trkpt>
      <trkpt lat="47.2809" lon="-2.35732">
        <ele>21</ele>
        <time>2022-07-28T09:57:05.000Z</time>
      </trkpt>
      <trkpt lat="47.28091" lon="-2.35726">
        <ele>21.39999961853</ele>
        <time>2022-07-28T09:57:06.000Z</time>
      </trkpt>
      <trkpt lat="47.28092" lon="-2.35721">
        <ele>22</ele>
        <time>2022-07-28T09:57:07.000Z</time>
      </trkpt>
      <trkpt lat="47.28093" lon="-2.35711">
        <ele>22</ele>
        <time>2022-07-28T09:57:09.000Z</time>
      </trkpt>
      <trkpt lat="47.28088" lon="-2.35687">
        <ele>22</ele>
        <time>2022-07-28T09:57:14.000Z</time>
      </trkpt>
      <trkpt lat="47.28079" lon="-2.3566">
        <ele>21.39999961853</ele>
        <time>2022-07-28T09:57:19.000Z</time>
      </trkpt>
      <trkpt lat="47.28078" lon="-2.35653">
        <ele>21</ele>
        <time>2022-07-28T09:57:20.000Z</time>
      </trkpt>
      <trkpt lat="47.28077" lon="-2.35647">
        <ele>20.60000038147</ele>
        <time>2022-07-28T09:57:21.000Z</time>
      </trkpt>
      <trkpt lat="47.28077" lon="-2.35643">
        <ele>20</ele>
        <time>2022-07-28T09:57:22.000Z</time>
      </trkpt>
      <trkpt lat="47.28078" lon="-2.35639">
        <ele>19.60000038147</ele>
        <time>2022-07-28T09:57:23.000Z</time>
      </trkpt>
      <trkpt lat="47.2808" lon="-2.35634">
        <ele>19</ele>
        <time>2022-07-28T09:57:24.000Z</time>
      </trkpt>
      <trkpt lat="47.28081" lon="-2.3563">
        <ele>18.39999961853</ele>
        <time>2022-07-28T09:57:25.000Z</time>
      </trkpt>
      <trkpt lat="47.28083" lon="-2.35627">
        <ele>18</ele>
        <time>2022-07-28T09:57:26.000Z</time>
      </trkpt>
      <trkpt lat="47.28084" lon="-2.35625">
        <ele>17.39999961853</ele>
        <time>2022-07-28T09:57:27.000Z</time>
      </trkpt>
      <trkpt lat="47.28085" lon="-2.35624">
        <ele>17.39999961853</ele>
        <time>2022-07-28T09:57:28.000Z</time>
      </trkpt>
      <trkpt lat="47.28084" lon="-2.35614">
        <ele>17.39999961853</ele>
        <time>2022-07-28T10:09:41.000Z</time>
      </trkpt>
      <trkpt lat="47.28082" lon="-2.35611">
        <ele>17.39999961853</ele>
        <time>2022-07-28T10:09:43.000Z</time>
      </trkpt>
      <trkpt lat="47.28077" lon="-2.35606">
        <ele>17.39999961853</ele>
        <time>2022-07-28T10:09:46.000Z</time>
      </trkpt>
      <trkpt lat="47.28068" lon="-2.35591">
        <ele>17.39999961853</ele>
        <time>2022-07-28T10:09:53.000Z</time>
      </trkpt>
      <trkpt lat="47.28065" lon="-2.3558">
        <ele>17.39999961853</ele>
        <time>2022-07-28T10:09:58.000Z</time>
      </trkpt>
      <trkpt lat="47.28047" lon="-2.35572">
        <ele>17.39999961853</ele>
        <time>2022-07-28T10:10:04.000Z</time>
      </trkpt>
      <trkpt lat="47.28024" lon="-2.35572">
        <ele>17.39999961853</ele>
        <time>2022-07-28T10:10:10.000Z</time>
      </trkpt>
      <trkpt lat="47.28003" lon="-2.35578">
        <ele>17.39999961853</ele>
        <time>2022-07-28T10:10:16.000Z</time>
      </trkpt>
      <trkpt lat="47.27992" lon="-2.35582">
        <ele>17</ele>
        <time>2022-07-28T10:10:19.000Z</time>
      </trkpt>
      <trkpt lat="47.27988" lon="-2.35584">
        <ele>16.60000038147</ele>
        <time>2022-07-28T10:10:20.000Z</time>
      </trkpt>
      <trkpt lat="47.27985" lon="-2.35585">
        <ele>16.200000762939</ele>
        <time>2022-07-28T10:10:21.000Z</time>
      </trkpt>
      <trkpt lat="47.2798" lon="-2.35585">
        <ele>15.800000190735</ele>
        <time>2022-07-28T10:10:22.000Z</time>
      </trkpt>
      <trkpt lat="47.27977" lon="-2.35584">
        <ele>15.39999961853</ele>
        <time>2022-07-28T10:10:23.000Z</time>
      </trkpt>
      <trkpt lat="47.27962" lon="-2.35578">
        <ele>15.39999961853</ele>
        <time>2022-07-28T10:10:27.000Z</time>
      </trkpt>
      <trkpt lat="47.27958" lon="-2.35577">
        <ele>15.39999961853</ele>
        <time>2022-07-28T10:10:28.000Z</time>
      </trkpt>
      <trkpt lat="47.27941" lon="-2.3558">
        <ele>15.39999961853</ele>
        <time>2022-07-28T10:10:32.000Z</time>
      </trkpt>
      <trkpt lat="47.27937" lon="-2.35582">
        <ele>15.39999961853</ele>
        <time>2022-07-28T10:10:33.000Z</time>
      </trkpt>
      <trkpt lat="47.27918" lon="-2.35588">
        <ele>15.39999961853</ele>
        <time>2022-07-28T10:10:38.000Z</time>
      </trkpt>
      <trkpt lat="47.2789" lon="-2.35596">
        <ele>15</ele>
        <time>2022-07-28T10:10:44.000Z</time>
      </trkpt>
      <trkpt lat="47.27885" lon="-2.35596">
        <ele>14.39999961853</ele>
        <time>2022-07-28T10:10:45.000Z</time>
      </trkpt>
      <trkpt lat="47.27879" lon="-2.35597">
        <ele>14</ele>
        <time>2022-07-28T10:10:46.000Z</time>
      </trkpt>
      <trkpt lat="47.27873" lon="-2.35599">
        <ele>13.60000038147</ele>
        <time>2022-07-28T10:10:47.000Z</time>
      </trkpt>
      <trkpt lat="47.27866" lon="-2.35601">
        <ele>13.199999809265</ele>
        <time>2022-07-28T10:10:48.000Z</time>
      </trkpt>
      <trkpt lat="47.2786" lon="-2.35602">
        <ele>13.199999809265</ele>
        <time>2022-07-28T10:10:49.000Z</time>
      </trkpt>
      <trkpt lat="47.27837" lon="-2.3561">
        <ele>13.199999809265</ele>
        <time>2022-07-28T10:10:53.000Z</time>
      </trkpt>
      <trkpt lat="47.27824" lon="-2.35613">
        <ele>12.800000190735</ele>
        <time>2022-07-28T10:10:55.000Z</time>
      </trkpt>
      <trkpt lat="47.27817" lon="-2.35615">
        <ele>12.39999961853</ele>
        <time>2022-07-28T10:10:56.000Z</time>
      </trkpt>
      <trkpt lat="47.27811" lon="-2.35617">
        <ele>12</ele>
        <time>2022-07-28T10:10:57.000Z</time>
      </trkpt>
      <trkpt lat="47.27804" lon="-2.35618">
        <ele>11.60000038147</ele>
        <time>2022-07-28T10:10:58.000Z</time>
      </trkpt>
      <trkpt lat="47.27797" lon="-2.35621">
        <ele>11.199999809265</ele>
        <time>2022-07-28T10:10:59.000Z</time>
      </trkpt>
      <trkpt lat="47.27772" lon="-2.35638">
        <ele>11.199999809265</ele>
        <time>2022-07-28T10:11:03.000Z</time>
      </trkpt>
      <trkpt lat="47.27766" lon="-2.35643">
        <ele>11.199999809265</ele>
        <time>2022-07-28T10:11:04.000Z</time>
      </trkpt>
      <trkpt lat="47.27752" lon="-2.35662">
        <ele>11.199999809265</ele>
        <time>2022-07-28T10:11:07.000Z</time>
      </trkpt>
      <trkpt lat="47.27743" lon="-2.35676">
        <ele>10.800000190735</ele>
        <time>2022-07-28T10:11:09.000Z</time>
      </trkpt>
      <trkpt lat="47.27739" lon="-2.35683">
        <ele>10.39999961853</ele>
        <time>2022-07-28T10:11:10.000Z</time>
      </trkpt>
      <trkpt lat="47.27735" lon="-2.35689">
        <ele>10</ele>
        <time>2022-07-28T10:11:11.000Z</time>
      </trkpt>
      <trkpt lat="47.2773" lon="-2.35695">
        <ele>9.6000003814697</ele>
        <time>2022-07-28T10:11:12.000Z</time>
      </trkpt>
      <trkpt lat="47.27726" lon="-2.35701">
        <ele>9.1999998092651</ele>
        <time>2022-07-28T10:11:13.000Z</time>
      </trkpt>
      <trkpt lat="47.27715" lon="-2.35712">
        <ele>9.1999998092651</ele>
        <time>2022-07-28T10:11:15.000Z</time>
      </trkpt>
      <trkpt lat="47.2771" lon="-2.35718">
        <ele>9.1999998092651</ele>
        <time>2022-07-28T10:11:16.000Z</time>
      </trkpt>
      <trkpt lat="47.27692" lon="-2.35731">
        <ele>8.8000001907349</ele>
        <time>2022-07-28T10:11:19.000Z</time>
      </trkpt>
      <trkpt lat="47.27687" lon="-2.35738">
        <ele>8.3999996185303</ele>
        <time>2022-07-28T10:11:20.000Z</time>
      </trkpt>
      <trkpt lat="47.27683" lon="-2.35744">
        <ele>8</ele>
        <time>2022-07-28T10:11:21.000Z</time>
      </trkpt>
      <trkpt lat="47.27679" lon="-2.35747">
        <ele>7.5999999046326</ele>
        <time>2022-07-28T10:11:22.000Z</time>
      </trkpt>
      <trkpt lat="47.27674" lon="-2.35746">
        <ele>7.1999998092651</ele>
        <time>2022-07-28T10:11:23.000Z</time>
      </trkpt>
      <trkpt lat="47.27661" lon="-2.3573">
        <ele>7.1999998092651</ele>
        <time>2022-07-28T10:11:26.000Z</time>
      </trkpt>
      <trkpt lat="47.27642" lon="-2.35719">
        <ele>7.1999998092651</ele>
        <time>2022-07-28T10:11:30.000Z</time>
      </trkpt>
      <trkpt lat="47.27629" lon="-2.35717">
        <ele>7.1999998092651</ele>
        <time>2022-07-28T10:11:32.000Z</time>
      </trkpt>
      <trkpt lat="47.27617" lon="-2.35713">
        <ele>7.1999998092651</ele>
        <time>2022-07-28T10:11:34.000Z</time>
      </trkpt>
      <trkpt lat="47.27598" lon="-2.35708">
        <ele>6.4000000953674</ele>
        <time>2022-07-28T10:11:37.000Z</time>
      </trkpt>
      <trkpt lat="47.27592" lon="-2.35707">
        <ele>5.8000001907349</ele>
        <time>2022-07-28T10:11:38.000Z</time>
      </trkpt>
      <trkpt lat="47.27586" lon="-2.35705">
        <ele>5.4000000953674</ele>
        <time>2022-07-28T10:11:39.000Z</time>
      </trkpt>
      <trkpt lat="47.2758" lon="-2.35704">
        <ele>5</ele>
        <time>2022-07-28T10:11:40.000Z</time>
      </trkpt>
      <trkpt lat="47.27568" lon="-2.35701">
        <ele>5</ele>
        <time>2022-07-28T10:11:42.000Z</time>
      </trkpt>
      <trkpt lat="47.27526" lon="-2.35692">
        <ele>5</ele>
        <time>2022-07-28T10:11:49.000Z</time>
      </trkpt>
      <trkpt lat="47.2752" lon="-2.35692">
        <ele>5</ele>
        <time>2022-07-28T10:11:50.000Z</time>
      </trkpt>
      <trkpt lat="47.27502" lon="-2.35687">
        <ele>5</ele>
        <time>2022-07-28T10:11:53.000Z</time>
      </trkpt>
      <trkpt lat="47.27496" lon="-2.35686">
        <ele>4.5999999046326</ele>
        <time>2022-07-28T10:11:54.000Z</time>
      </trkpt>
      <trkpt lat="47.27489" lon="-2.35684">
        <ele>4.1999998092651</ele>
        <time>2022-07-28T10:11:55.000Z</time>
      </trkpt>
      <trkpt lat="47.27483" lon="-2.35683">
        <ele>3.7999999523163</ele>
        <time>2022-07-28T10:11:56.000Z</time>
      </trkpt>
      <trkpt lat="47.27477" lon="-2.35682">
        <ele>3.4000000953674</ele>
        <time>2022-07-28T10:11:57.000Z</time>
      </trkpt>
      <trkpt lat="47.27472" lon="-2.35681">
        <ele>3</ele>
        <time>2022-07-28T10:11:58.000Z</time>
      </trkpt>
      <trkpt lat="47.27466" lon="-2.35679">
        <ele>3</ele>
        <time>2022-07-28T10:11:59.000Z</time>
      </trkpt>
      <trkpt lat="47.27442" lon="-2.35673">
        <ele>3</ele>
        <time>2022-07-28T10:12:03.000Z</time>
      </trkpt>
      <trkpt lat="47.27431" lon="-2.3567">
        <ele>3</ele>
        <time>2022-07-28T10:12:05.000Z</time>
      </trkpt>
      <trkpt lat="47.27414" lon="-2.35668">
        <ele>3</ele>
        <time>2022-07-28T10:12:08.000Z</time>
      </trkpt>
      <trkpt lat="47.27402" lon="-2.35671">
        <ele>3</ele>
        <time>2022-07-28T10:12:10.000Z</time>
      </trkpt>
      <trkpt lat="47.27397" lon="-2.35674">
        <ele>2.5999999046326</ele>
        <time>2022-07-28T10:12:11.000Z</time>
      </trkpt>
      <trkpt lat="47.27391" lon="-2.35678">
        <ele>2.2000000476837</ele>
        <time>2022-07-28T10:12:12.000Z</time>
      </trkpt>
      <trkpt lat="47.27386" lon="-2.35682">
        <ele>1.7999999523163</ele>
        <time>2022-07-28T10:12:13.000Z</time>
      </trkpt>
      <trkpt lat="47.27381" lon="-2.35686">
        <ele>1.3999999761581</ele>
        <time>2022-07-28T10:12:14.000Z</time>
      </trkpt>
      <trkpt lat="47.27375" lon="-2.35689">
        <ele>1</ele>
        <time>2022-07-28T10:12:15.000Z</time>
      </trkpt>
      <trkpt lat="47.27333" lon="-2.3572">
        <ele>1</ele>
        <time>2022-07-28T10:12:23.000Z</time>
      </trkpt>
      <trkpt lat="47.27326" lon="-2.35729">
        <ele>1</ele>
        <time>2022-07-28T10:12:26.000Z</time>
      </trkpt>
      <trkpt lat="47.27317" lon="-2.35742">
        <ele>1</ele>
        <time>2022-07-28T10:12:30.000Z</time>
      </trkpt>
      <trkpt lat="47.27313" lon="-2.35742">
        <ele>1</ele>
        <time>2022-07-28T10:12:31.000Z</time>
      </trkpt>
      <trkpt lat="47.27306" lon="-2.35734">
        <ele>1</ele>
        <time>2022-07-28T10:12:33.000Z</time>
      </trkpt>
      <trkpt lat="47.27299" lon="-2.35716">
        <ele>1</ele>
        <time>2022-07-28T10:12:36.000Z</time>
      </trkpt>
      <trkpt lat="47.27295" lon="-2.35705">
        <ele>1</ele>
        <time>2022-07-28T10:12:38.000Z</time>
      </trkpt>
      <trkpt lat="47.27288" lon="-2.35686">
        <ele>1</ele>
        <time>2022-07-28T10:12:41.000Z</time>
      </trkpt>
      <trkpt lat="47.27283" lon="-2.35674">
        <ele>1.3999999761581</ele>
        <time>2022-07-28T10:12:43.000Z</time>
      </trkpt>
      <trkpt lat="47.2728" lon="-2.35668">
        <ele>1.7999999523163</ele>
        <time>2022-07-28T10:12:44.000Z</time>
      </trkpt>
      <trkpt lat="47.27278" lon="-2.35662">
        <ele>2.2000000476837</ele>
        <time>2022-07-28T10:12:45.000Z</time>
      </trkpt>
      <trkpt lat="47.27275" lon="-2.35657">
        <ele>2.5999999046326</ele>
        <time>2022-07-28T10:12:46.000Z</time>
      </trkpt>
      <trkpt lat="47.27273" lon="-2.35651">
        <ele>3</ele>
        <time>2022-07-28T10:12:47.000Z</time>
      </trkpt>
      <trkpt lat="47.27264" lon="-2.35634">
        <ele>3</ele>
        <time>2022-07-28T10:12:50.000Z</time>
      </trkpt>
      <trkpt lat="47.27259" lon="-2.35622">
        <ele>3</ele>
        <time>2022-07-28T10:12:52.000Z</time>
      </trkpt>
      <trkpt lat="47.27235" lon="-2.35569">
        <ele>3</ele>
        <time>2022-07-28T10:13:01.000Z</time>
      </trkpt>
      <trkpt lat="47.27216" lon="-2.35528">
        <ele>3</ele>
        <time>2022-07-28T10:13:08.000Z</time>
      </trkpt>
      <trkpt lat="47.27203" lon="-2.355">
        <ele>3</ele>
        <time>2022-07-28T10:13:13.000Z</time>
      </trkpt>
      <trkpt lat="47.27198" lon="-2.35489">
        <ele>3</ele>
        <time>2022-07-28T10:13:15.000Z</time>
      </trkpt>
      <trkpt lat="47.27181" lon="-2.35454">
        <ele>3</ele>
        <time>2022-07-28T10:13:21.000Z</time>
      </trkpt>
      <trkpt lat="47.27149" lon="-2.35393">
        <ele>3</ele>
        <time>2022-07-28T10:13:31.000Z</time>
      </trkpt>
      <trkpt lat="47.27116" lon="-2.35336">
        <ele>3</ele>
        <time>2022-07-28T10:13:40.000Z</time>
      </trkpt>
      <trkpt lat="47.27092" lon="-2.35303">
        <ele>3</ele>
        <time>2022-07-28T10:13:46.000Z</time>
      </trkpt>
      <trkpt lat="47.27062" lon="-2.35256">
        <ele>3</ele>
        <time>2022-07-28T10:13:54.000Z</time>
      </trkpt>
      <trkpt lat="47.27037" lon="-2.35215">
        <ele>3</ele>
        <time>2022-07-28T10:14:01.000Z</time>
      </trkpt>
      <trkpt lat="47.26999" lon="-2.35156">
        <ele>3</ele>
        <time>2022-07-28T10:14:11.000Z</time>
      </trkpt>
      <trkpt lat="47.26971" lon="-2.35111">
        <ele>3</ele>
        <time>2022-07-28T10:14:19.000Z</time>
      </trkpt>
      <trkpt lat="47.26948" lon="-2.35078">
        <ele>3</ele>
        <time>2022-07-28T10:14:25.000Z</time>
      </trkpt>
      <trkpt lat="47.26943" lon="-2.35073">
        <ele>3</ele>
        <time>2022-07-28T10:14:26.000Z</time>
      </trkpt>
      <trkpt lat="47.2692" lon="-2.35039">
        <ele>3</ele>
        <time>2022-07-28T10:14:32.000Z</time>
      </trkpt>
      <trkpt lat="47.26889" lon="-2.3499">
        <ele>3</ele>
        <time>2022-07-28T10:14:40.000Z</time>
      </trkpt>
      <trkpt lat="47.26849" lon="-2.34931">
        <ele>3</ele>
        <time>2022-07-28T10:14:50.000Z</time>
      </trkpt>
      <trkpt lat="47.26826" lon="-2.34896">
        <ele>3</ele>
        <time>2022-07-28T10:14:56.000Z</time>
      </trkpt>
      <trkpt lat="47.26785" lon="-2.34837">
        <ele>3</ele>
        <time>2022-07-28T10:15:06.000Z</time>
      </trkpt>
      <trkpt lat="47.26777" lon="-2.34826">
        <ele>3</ele>
        <time>2022-07-28T10:15:08.000Z</time>
      </trkpt>
      <trkpt lat="47.26751" lon="-2.34792">
        <ele>3</ele>
        <time>2022-07-28T10:15:14.000Z</time>
      </trkpt>
      <trkpt lat="47.26723" lon="-2.34757">
        <ele>3</ele>
        <time>2022-07-28T10:15:20.000Z</time>
      </trkpt>
      <trkpt lat="47.26681" lon="-2.34706">
        <ele>3</ele>
        <time>2022-07-28T10:15:29.000Z</time>
      </trkpt>
      <trkpt lat="47.26642" lon="-2.34658">
        <ele>3</ele>
        <time>2022-07-28T10:15:38.000Z</time>
      </trkpt>
      <trkpt lat="47.26603" lon="-2.3461">
        <ele>3</ele>
        <time>2022-07-28T10:15:47.000Z</time>
      </trkpt>
      <trkpt lat="47.26572" lon="-2.34575">
        <ele>3</ele>
        <time>2022-07-28T10:15:54.000Z</time>
      </trkpt>
      <trkpt lat="47.26525" lon="-2.34528">
        <ele>3</ele>
        <time>2022-07-28T10:16:04.000Z</time>
      </trkpt>
      <trkpt lat="47.26481" lon="-2.34495">
        <ele>3</ele>
        <time>2022-07-28T10:16:12.000Z</time>
      </trkpt>
      <trkpt lat="47.26449" lon="-2.34472">
        <ele>3</ele>
        <time>2022-07-28T10:16:18.000Z</time>
      </trkpt>
      <trkpt lat="47.26432" lon="-2.34458">
        <ele>3</ele>
        <time>2022-07-28T10:16:21.000Z</time>
      </trkpt>
      <trkpt lat="47.26421" lon="-2.34451">
        <ele>3</ele>
        <time>2022-07-28T10:16:23.000Z</time>
      </trkpt>
      <trkpt lat="47.26383" lon="-2.3442">
        <ele>3</ele>
        <time>2022-07-28T10:16:30.000Z</time>
      </trkpt>
      <trkpt lat="47.26364" lon="-2.34403">
        <ele>3</ele>
        <time>2022-07-28T10:16:34.000Z</time>
      </trkpt>
      <trkpt lat="47.26351" lon="-2.34391">
        <ele>3</ele>
        <time>2022-07-28T10:16:37.000Z</time>
      </trkpt>
      <trkpt lat="47.26337" lon="-2.34382">
        <ele>3</ele>
        <time>2022-07-28T10:16:40.000Z</time>
      </trkpt>
      <trkpt lat="47.26326" lon="-2.34377">
        <ele>3</ele>
        <time>2022-07-28T10:16:42.000Z</time>
      </trkpt>
      <trkpt lat="47.26313" lon="-2.34361">
        <ele>3</ele>
        <time>2022-07-28T10:16:45.000Z</time>
      </trkpt>
      <trkpt lat="47.263" lon="-2.34345">
        <ele>3</ele>
        <time>2022-07-28T10:16:48.000Z</time>
      </trkpt>
      <trkpt lat="47.26296" lon="-2.3434">
        <ele>3</ele>
        <time>2022-07-28T10:16:49.000Z</time>
      </trkpt>
      <trkpt lat="47.26264" lon="-2.34307">
        <ele>3</ele>
        <time>2022-07-28T10:16:56.000Z</time>
      </trkpt>
      <trkpt lat="47.26227" lon="-2.34267">
        <ele>3</ele>
        <time>2022-07-28T10:17:04.000Z</time>
      </trkpt>
      <trkpt lat="47.26183" lon="-2.34221">
        <ele>3</ele>
        <time>2022-07-28T10:17:13.000Z</time>
      </trkpt>
      <trkpt lat="47.26155" lon="-2.34194">
        <ele>3</ele>
        <time>2022-07-28T10:17:19.000Z</time>
      </trkpt>
      <trkpt lat="47.26145" lon="-2.34186">
        <ele>3</ele>
        <time>2022-07-28T10:17:21.000Z</time>
      </trkpt>
      <trkpt lat="47.26134" lon="-2.34182">
        <ele>3</ele>
        <time>2022-07-28T10:17:23.000Z</time>
      </trkpt>
      <trkpt lat="47.26124" lon="-2.34171">
        <ele>3</ele>
        <time>2022-07-28T10:17:25.000Z</time>
      </trkpt>
      <trkpt lat="47.26118" lon="-2.34165">
        <ele>3</ele>
        <time>2022-07-28T10:17:26.000Z</time>
      </trkpt>
      <trkpt lat="47.26092" lon="-2.3415">
        <ele>3</ele>
        <time>2022-07-28T10:17:30.000Z</time>
      </trkpt>
      <trkpt lat="47.26059" lon="-2.34134">
        <ele>3</ele>
        <time>2022-07-28T10:17:35.000Z</time>
      </trkpt>
      <trkpt lat="47.26012" lon="-2.3411">
        <ele>3</ele>
        <time>2022-07-28T10:17:44.000Z</time>
      </trkpt>
      <trkpt lat="47.25965" lon="-2.34088">
        <ele>3</ele>
        <time>2022-07-28T10:17:52.000Z</time>
      </trkpt>
      <trkpt lat="47.25926" lon="-2.34073">
        <ele>3</ele>
        <time>2022-07-28T10:17:59.000Z</time>
      </trkpt>
      <trkpt lat="47.25913" lon="-2.34071">
        <ele>3</ele>
        <time>2022-07-28T10:18:01.000Z</time>
      </trkpt>
      <trkpt lat="47.25903" lon="-2.34063">
        <ele>3</ele>
        <time>2022-07-28T10:18:03.000Z</time>
      </trkpt>
      <trkpt lat="47.25898" lon="-2.34041">
        <ele>3</ele>
        <time>2022-07-28T10:18:06.000Z</time>
      </trkpt>
      <trkpt lat="47.25902" lon="-2.34028">
        <ele>2.5999999046326</ele>
        <time>2022-07-28T10:18:08.000Z</time>
      </trkpt>
      <trkpt lat="47.25904" lon="-2.34021">
        <ele>2.2000000476837</ele>
        <time>2022-07-28T10:18:09.000Z</time>
      </trkpt>
      <trkpt lat="47.25906" lon="-2.34014">
        <ele>1.7999999523163</ele>
        <time>2022-07-28T10:18:10.000Z</time>
      </trkpt>
      <trkpt lat="47.25908" lon="-2.34007">
        <ele>1.3999999761581</ele>
        <time>2022-07-28T10:18:11.000Z</time>
      </trkpt>
      <trkpt lat="47.25909" lon="-2.34">
        <ele>1</ele>
        <time>2022-07-28T10:18:12.000Z</time>
      </trkpt>
      <trkpt lat="47.25913" lon="-2.33985">
        <ele>1</ele>
        <time>2022-07-28T10:18:14.000Z</time>
      </trkpt>
      <trkpt lat="47.25915" lon="-2.33977">
        <ele>1</ele>
        <time>2022-07-28T10:18:15.000Z</time>
      </trkpt>
      <trkpt lat="47.25936" lon="-2.3393">
        <ele>1</ele>
        <time>2022-07-28T10:18:22.000Z</time>
      </trkpt>
      <trkpt lat="47.25943" lon="-2.3392">
        <ele>1</ele>
        <time>2022-07-28T10:18:25.000Z</time>
      </trkpt>
      <trkpt lat="47.25949" lon="-2.33903">
        <ele>1</ele>
        <time>2022-07-28T10:18:30.000Z</time>
      </trkpt>
      <trkpt lat="47.25958" lon="-2.33903">
        <ele>1</ele>
        <time>2022-07-28T10:18:33.000Z</time>
      </trkpt>
      <trkpt lat="47.25968" lon="-2.33901">
        <ele>1</ele>
        <time>2022-07-28T10:18:36.000Z</time>
      </trkpt>
      <trkpt lat="47.25971" lon="-2.33891">
        <ele>1</ele>
        <time>2022-07-28T10:18:38.000Z</time>
      </trkpt>
      <trkpt lat="47.25975" lon="-2.33874">
        <ele>1</ele>
        <time>2022-07-28T10:18:41.000Z</time>
      </trkpt>
      <trkpt lat="47.25989" lon="-2.33838">
        <ele>1</ele>
        <time>2022-07-28T10:18:47.000Z</time>
      </trkpt>
      <trkpt lat="47.25994" lon="-2.33824">
        <ele>1</ele>
        <time>2022-07-28T10:18:49.000Z</time>
      </trkpt>
      <trkpt lat="47.26003" lon="-2.33797">
        <ele>1</ele>
        <time>2022-07-28T10:18:53.000Z</time>
      </trkpt>
      <trkpt lat="47.26024" lon="-2.33736">
        <ele>1</ele>
        <time>2022-07-28T10:19:02.000Z</time>
      </trkpt>
      <trkpt lat="47.26044" lon="-2.33689">
        <ele>1</ele>
        <time>2022-07-28T10:19:09.000Z</time>
      </trkpt>
      <trkpt lat="47.26047" lon="-2.33681">
        <ele>1</ele>
        <time>2022-07-28T10:19:10.000Z</time>
      </trkpt>
      <trkpt lat="47.26056" lon="-2.3365">
        <ele>1</ele>
        <time>2022-07-28T10:19:14.000Z</time>
      </trkpt>
      <trkpt lat="47.26067" lon="-2.33613">
        <ele>1</ele>
        <time>2022-07-28T10:19:19.000Z</time>
      </trkpt>
      <trkpt lat="47.26071" lon="-2.336">
        <ele>1</ele>
        <time>2022-07-28T10:19:21.000Z</time>
      </trkpt>
      <trkpt lat="47.26084" lon="-2.33561">
        <ele>1</ele>
        <time>2022-07-28T10:19:27.000Z</time>
      </trkpt>
      <trkpt lat="47.26101" lon="-2.33512">
        <ele>1</ele>
        <time>2022-07-28T10:19:34.000Z</time>
      </trkpt>
      <trkpt lat="47.26119" lon="-2.33466">
        <ele>1</ele>
        <time>2022-07-28T10:19:41.000Z</time>
      </trkpt>
      <trkpt lat="47.26126" lon="-2.3345">
        <ele>1</ele>
        <time>2022-07-28T10:19:45.000Z</time>
      </trkpt>
      <trkpt lat="47.26131" lon="-2.33432">
        <ele>1</ele>
        <time>2022-07-28T10:19:50.000Z</time>
      </trkpt>
      <trkpt lat="47.26125" lon="-2.33423">
        <ele>1</ele>
        <time>2022-07-28T10:19:53.000Z</time>
      </trkpt>
      <trkpt lat="47.26114" lon="-2.33401">
        <ele>1</ele>
        <time>2022-07-28T10:19:57.000Z</time>
      </trkpt>
      <trkpt lat="47.26087" lon="-2.33362">
        <ele>1</ele>
        <time>2022-07-28T10:20:04.000Z</time>
      </trkpt>
      <trkpt lat="47.26074" lon="-2.33342">
        <ele>1</ele>
        <time>2022-07-28T10:20:07.000Z</time>
      </trkpt>
      <trkpt lat="47.26068" lon="-2.33327">
        <ele>1</ele>
        <time>2022-07-28T10:20:09.000Z</time>
      </trkpt>
      <trkpt lat="47.26059" lon="-2.33304">
        <ele>1</ele>
        <time>2022-07-28T10:20:12.000Z</time>
      </trkpt>
      <trkpt lat="47.2605" lon="-2.3328">
        <ele>1</ele>
        <time>2022-07-28T10:20:15.000Z</time>
      </trkpt>
      <trkpt lat="47.26028" lon="-2.33216">
        <ele>1</ele>
        <time>2022-07-28T10:20:23.000Z</time>
      </trkpt>
      <trkpt lat="47.26007" lon="-2.33156">
        <ele>1</ele>
        <time>2022-07-28T10:20:31.000Z</time>
      </trkpt>
      <trkpt lat="47.25991" lon="-2.33104">
        <ele>1</ele>
        <time>2022-07-28T10:20:38.000Z</time>
      </trkpt>
      <trkpt lat="47.25985" lon="-2.33083">
        <ele>1</ele>
        <time>2022-07-28T10:20:41.000Z</time>
      </trkpt>
      <trkpt lat="47.25982" lon="-2.33077">
        <ele>1</ele>
        <time>2022-07-28T10:20:42.000Z</time>
      </trkpt>
      <trkpt lat="47.25973" lon="-2.33057">
        <ele>1</ele>
        <time>2022-07-28T10:20:45.000Z</time>
      </trkpt>
      <trkpt lat="47.25971" lon="-2.33049">
        <ele>1</ele>
        <time>2022-07-28T10:20:46.000Z</time>
      </trkpt>
      <trkpt lat="47.25953" lon="-2.32996">
        <ele>1</ele>
        <time>2022-07-28T10:20:53.000Z</time>
      </trkpt>
      <trkpt lat="47.25945" lon="-2.32973">
        <ele>1</ele>
        <time>2022-07-28T10:20:56.000Z</time>
      </trkpt>
      <trkpt lat="47.25939" lon="-2.32957">
        <ele>1</ele>
        <time>2022-07-28T10:20:58.000Z</time>
      </trkpt>
      <trkpt lat="47.25931" lon="-2.32933">
        <ele>1</ele>
        <time>2022-07-28T10:21:01.000Z</time>
      </trkpt>
      <trkpt lat="47.25926" lon="-2.32917">
        <ele>1</ele>
        <time>2022-07-28T10:21:03.000Z</time>
      </trkpt>
      <trkpt lat="47.25898" lon="-2.32847">
        <ele>1</ele>
        <time>2022-07-28T10:21:12.000Z</time>
      </trkpt>
      <trkpt lat="47.25882" lon="-2.328">
        <ele>1</ele>
        <time>2022-07-28T10:21:18.000Z</time>
      </trkpt>
      <trkpt lat="47.25867" lon="-2.32754">
        <ele>1</ele>
        <time>2022-07-28T10:21:24.000Z</time>
      </trkpt>
      <trkpt lat="47.25864" lon="-2.32739">
        <ele>1</ele>
        <time>2022-07-28T10:21:26.000Z</time>
      </trkpt>
      <trkpt lat="47.25863" lon="-2.32725">
        <ele>1</ele>
        <time>2022-07-28T10:21:28.000Z</time>
      </trkpt>
      <trkpt lat="47.25855" lon="-2.32705">
        <ele>1</ele>
        <time>2022-07-28T10:21:31.000Z</time>
      </trkpt>
      <trkpt lat="47.25847" lon="-2.32685">
        <ele>1</ele>
        <time>2022-07-28T10:21:34.000Z</time>
      </trkpt>
      <trkpt lat="47.25844" lon="-2.32677">
        <ele>1</ele>
        <time>2022-07-28T10:21:35.000Z</time>
      </trkpt>
      <trkpt lat="47.25825" lon="-2.32605">
        <ele>1</ele>
        <time>2022-07-28T10:21:44.000Z</time>
      </trkpt>
      <trkpt lat="47.25819" lon="-2.32582">
        <ele>1</ele>
        <time>2022-07-28T10:21:47.000Z</time>
      </trkpt>
      <trkpt lat="47.25815" lon="-2.32567">
        <ele>1</ele>
        <time>2022-07-28T10:21:49.000Z</time>
      </trkpt>
      <trkpt lat="47.25813" lon="-2.32558">
        <ele>1</ele>
        <time>2022-07-28T10:21:50.000Z</time>
      </trkpt>
      <trkpt lat="47.25809" lon="-2.32534">
        <ele>1</ele>
        <time>2022-07-28T10:21:53.000Z</time>
      </trkpt>
      <trkpt lat="47.25804" lon="-2.32511">
        <ele>1</ele>
        <time>2022-07-28T10:21:56.000Z</time>
      </trkpt>
      <trkpt lat="47.25797" lon="-2.32483">
        <ele>1</ele>
        <time>2022-07-28T10:22:00.000Z</time>
      </trkpt>
      <trkpt lat="47.25803" lon="-2.3246">
        <ele>1</ele>
        <time>2022-07-28T10:22:04.000Z</time>
      </trkpt>
      <trkpt lat="47.25815" lon="-2.32457">
        <ele>1</ele>
        <time>2022-07-28T10:22:07.000Z</time>
      </trkpt>
      <trkpt lat="47.2584" lon="-2.32469">
        <ele>1</ele>
        <time>2022-07-28T10:22:12.000Z</time>
      </trkpt>
      <trkpt lat="47.25845" lon="-2.3247">
        <ele>1</ele>
        <time>2022-07-28T10:22:13.000Z</time>
      </trkpt>
      <trkpt lat="47.25874" lon="-2.32469">
        <ele>1</ele>
        <time>2022-07-28T10:22:19.000Z</time>
      </trkpt>
      <trkpt lat="47.25884" lon="-2.32468">
        <ele>1</ele>
        <time>2022-07-28T10:22:21.000Z</time>
      </trkpt>
      <trkpt lat="47.25893" lon="-2.32461">
        <ele>1</ele>
        <time>2022-07-28T10:22:23.000Z</time>
      </trkpt>
      <trkpt lat="47.25897" lon="-2.32456">
        <ele>1</ele>
        <time>2022-07-28T10:22:24.000Z</time>
      </trkpt>
      <trkpt lat="47.25914" lon="-2.32437">
        <ele>1</ele>
        <time>2022-07-28T10:22:28.000Z</time>
      </trkpt>
      <trkpt lat="47.25947" lon="-2.32395">
        <ele>1</ele>
        <time>2022-07-28T10:22:36.000Z</time>
      </trkpt>
      <trkpt lat="47.25975" lon="-2.3236">
        <ele>1</ele>
        <time>2022-07-28T10:22:43.000Z</time>
      </trkpt>
      <trkpt lat="47.26007" lon="-2.32318">
        <ele>1</ele>
        <time>2022-07-28T10:22:51.000Z</time>
      </trkpt>
      <trkpt lat="47.26041" lon="-2.3228">
        <ele>1</ele>
        <time>2022-07-28T10:22:59.000Z</time>
      </trkpt>
      <trkpt lat="47.26062" lon="-2.32257">
        <ele>1</ele>
        <time>2022-07-28T10:23:04.000Z</time>
      </trkpt>
      <trkpt lat="47.26065" lon="-2.32252">
        <ele>1</ele>
        <time>2022-07-28T10:23:05.000Z</time>
      </trkpt>
      <trkpt lat="47.26091" lon="-2.32217">
        <ele>1</ele>
        <time>2022-07-28T10:23:12.000Z</time>
      </trkpt>
      <trkpt lat="47.2611" lon="-2.32178">
        <ele>1</ele>
        <time>2022-07-28T10:23:18.000Z</time>
      </trkpt>
      <trkpt lat="47.26128" lon="-2.32129">
        <ele>1</ele>
        <time>2022-07-28T10:23:25.000Z</time>
      </trkpt>
      <trkpt lat="47.2614" lon="-2.3209">
        <ele>1</ele>
        <time>2022-07-28T10:23:31.000Z</time>
      </trkpt>
      <trkpt lat="47.26152" lon="-2.32054">
        <ele>1</ele>
        <time>2022-07-28T10:23:37.000Z</time>
      </trkpt>
      <trkpt lat="47.26163" lon="-2.32024">
        <ele>1</ele>
        <time>2022-07-28T10:23:43.000Z</time>
      </trkpt>
      <trkpt lat="47.26169" lon="-2.32018">
        <ele>1</ele>
        <time>2022-07-28T10:23:45.000Z</time>
      </trkpt>
      <trkpt lat="47.26175" lon="-2.32018">
        <ele>1</ele>
        <time>2022-07-28T10:23:47.000Z</time>
      </trkpt>
      <trkpt lat="47.26184" lon="-2.32021">
        <ele>1</ele>
        <time>2022-07-28T10:23:51.000Z</time>
      </trkpt>
      <trkpt lat="47.26185" lon="-2.32021">
        <ele>1</ele>
        <time>2022-07-28T10:23:52.000Z</time>
      </trkpt>
      <trkpt lat="47.2619" lon="-2.32022">
        <ele>1</ele>
        <time>2022-07-28T10:23:55.000Z</time>
      </trkpt>
      <trkpt lat="47.26191" lon="-2.32021">
        <ele>1</ele>
        <time>2022-07-28T10:23:56.000Z</time>
      </trkpt>
      <trkpt lat="47.26197" lon="-2.32008">
        <ele>1</ele>
        <time>2022-07-28T10:24:00.000Z</time>
      </trkpt>
      <trkpt lat="47.26201" lon="-2.32004">
        <ele>1</ele>
        <time>2022-07-28T10:24:03.000Z</time>
      </trkpt>
      <trkpt lat="47.26207" lon="-2.31995">
        <ele>1</ele>
        <time>2022-07-28T10:24:08.000Z</time>
      </trkpt>
      <trkpt lat="47.26216" lon="-2.31984">
        <ele>1</ele>
        <time>2022-07-28T10:24:12.000Z</time>
      </trkpt>
      <trkpt lat="47.26221" lon="-2.31981">
        <ele>1</ele>
        <time>2022-07-28T10:24:13.000Z</time>
      </trkpt>
      <trkpt lat="47.26228" lon="-2.31981">
        <ele>1</ele>
        <time>2022-07-28T10:24:15.000Z</time>
      </trkpt>
      <trkpt lat="47.26232" lon="-2.31977">
        <ele>1</ele>
        <time>2022-07-28T10:24:17.000Z</time>
      </trkpt>
      <trkpt lat="47.26236" lon="-2.31972">
        <ele>1</ele>
        <time>2022-07-28T10:24:18.000Z</time>
      </trkpt>
      <trkpt lat="47.26249" lon="-2.31943">
        <ele>1</ele>
        <time>2022-07-28T10:24:24.000Z</time>
      </trkpt>
      <trkpt lat="47.26265" lon="-2.31918">
        <ele>1</ele>
        <time>2022-07-28T10:24:29.000Z</time>
      </trkpt>
      <trkpt lat="47.26282" lon="-2.319">
        <ele>1</ele>
        <time>2022-07-28T10:24:33.000Z</time>
      </trkpt>
      <trkpt lat="47.26292" lon="-2.31888">
        <ele>1</ele>
        <time>2022-07-28T10:24:36.000Z</time>
      </trkpt>
      <trkpt lat="47.26294" lon="-2.31882">
        <ele>1</ele>
        <time>2022-07-28T10:24:37.000Z</time>
      </trkpt>
      <trkpt lat="47.26295" lon="-2.31856">
        <ele>1</ele>
        <time>2022-07-28T10:24:41.000Z</time>
      </trkpt>
      <trkpt lat="47.26296" lon="-2.31849">
        <ele>1</ele>
        <time>2022-07-28T10:24:42.000Z</time>
      </trkpt>
      <trkpt lat="47.26297" lon="-2.31829">
        <ele>1</ele>
        <time>2022-07-28T10:24:45.000Z</time>
      </trkpt>
      <trkpt lat="47.26299" lon="-2.31812">
        <ele>1</ele>
        <time>2022-07-28T10:24:48.000Z</time>
      </trkpt>
      <trkpt lat="47.26299" lon="-2.31782">
        <ele>1</ele>
        <time>2022-07-28T10:24:53.000Z</time>
      </trkpt>
      <trkpt lat="47.26292" lon="-2.31749">
        <ele>1</ele>
        <time>2022-07-28T10:24:58.000Z</time>
      </trkpt>
      <trkpt lat="47.26291" lon="-2.31744">
        <ele>1</ele>
        <time>2022-07-28T10:24:59.000Z</time>
      </trkpt>
      <trkpt lat="47.2629" lon="-2.31732">
        <ele>1</ele>
        <time>2022-07-28T10:25:02.000Z</time>
      </trkpt>
      <trkpt lat="47.26291" lon="-2.3173">
        <ele>1</ele>
        <time>2022-07-28T10:25:03.000Z</time>
      </trkpt>
      <trkpt lat="47.26294" lon="-2.31727">
        <ele>1</ele>
        <time>2022-07-28T10:25:05.000Z</time>
      </trkpt>
      <trkpt lat="47.26303" lon="-2.31723">
        <ele>1</ele>
        <time>2022-07-28T10:25:08.000Z</time>
      </trkpt>
      <trkpt lat="47.26306" lon="-2.31721">
        <ele>1</ele>
        <time>2022-07-28T10:25:09.000Z</time>
      </trkpt>
      <trkpt lat="47.26313" lon="-2.31709">
        <ele>1</ele>
        <time>2022-07-28T10:25:12.000Z</time>
      </trkpt>
      <trkpt lat="47.26316" lon="-2.31706">
        <ele>1.3999999761581</ele>
        <time>2022-07-28T10:25:13.000Z</time>
      </trkpt>
      <trkpt lat="47.26319" lon="-2.31704">
        <ele>1.7999999523163</ele>
        <time>2022-07-28T10:25:14.000Z</time>
      </trkpt>
      <trkpt lat="47.26332" lon="-2.31695">
        <ele>2.2000000476837</ele>
        <time>2022-07-28T10:25:15.000Z</time>
      </trkpt>
      <trkpt lat="47.26338" lon="-2.31692">
        <ele>2.5999999046326</ele>
        <time>2022-07-28T10:25:16.000Z</time>
      </trkpt>
      <trkpt lat="47.26343" lon="-2.31689">
        <ele>3.2000000476837</ele>
        <time>2022-07-28T10:25:17.000Z</time>
      </trkpt>
      <trkpt lat="47.26346" lon="-2.31686">
        <ele>3.2000000476837</ele>
        <time>2022-07-28T10:25:18.000Z</time>
      </trkpt>
      <trkpt lat="47.2635" lon="-2.31684">
        <ele>3.2000000476837</ele>
        <time>2022-07-28T10:25:19.000Z</time>
      </trkpt>
      <trkpt lat="47.2637" lon="-2.31673">
        <ele>3.2000000476837</ele>
        <time>2022-07-28T10:25:25.000Z</time>
      </trkpt>
      <trkpt lat="47.26385" lon="-2.31665">
        <ele>3.5999999046326</ele>
        <time>2022-07-28T10:25:30.000Z</time>
      </trkpt>
      <trkpt lat="47.26388" lon="-2.31663">
        <ele>4</ele>
        <time>2022-07-28T10:25:31.000Z</time>
      </trkpt>
      <trkpt lat="47.26391" lon="-2.31661">
        <ele>4.4000000953674</ele>
        <time>2022-07-28T10:25:32.000Z</time>
      </trkpt>
      <trkpt lat="47.26394" lon="-2.3166">
        <ele>4.8000001907349</ele>
        <time>2022-07-28T10:25:33.000Z</time>
      </trkpt>
      <trkpt lat="47.26397" lon="-2.31659">
        <ele>5.1999998092651</ele>
        <time>2022-07-28T10:25:34.000Z</time>
      </trkpt>
      <trkpt lat="47.264" lon="-2.31658">
        <ele>5.1999998092651</ele>
        <time>2022-07-28T10:25:35.000Z</time>
      </trkpt>
      <trkpt lat="47.26408" lon="-2.31649">
        <ele>5.1999998092651</ele>
        <time>2022-07-28T10:25:38.000Z</time>
      </trkpt>
      <trkpt lat="47.26409" lon="-2.31645">
        <ele>5.1999998092651</ele>
        <time>2022-07-28T10:25:39.000Z</time>
      </trkpt>
      <trkpt lat="47.26409" lon="-2.31628">
        <ele>5.1999998092651</ele>
        <time>2022-07-28T10:25:43.000Z</time>
      </trkpt>
      <trkpt lat="47.26409" lon="-2.31602">
        <ele>5.1999998092651</ele>
        <time>2022-07-28T10:25:48.000Z</time>
      </trkpt>
      <trkpt lat="47.2641" lon="-2.31573">
        <ele>5.1999998092651</ele>
        <time>2022-07-28T10:25:54.000Z</time>
      </trkpt>
      <trkpt lat="47.2641" lon="-2.31554">
        <ele>5.1999998092651</ele>
        <time>2022-07-28T10:25:59.000Z</time>
      </trkpt>
      <trkpt lat="47.26412" lon="-2.31552">
        <ele>5.1999998092651</ele>
        <time>2022-07-28T10:26:00.000Z</time>
      </trkpt>
      <trkpt lat="47.26416" lon="-2.31554">
        <ele>5.5999999046326</ele>
        <time>2022-07-28T10:26:03.000Z</time>
      </trkpt>
      <trkpt lat="47.26416" lon="-2.31554">
        <ele>6</ele>
        <time>2022-07-28T10:26:04.000Z</time>
      </trkpt>
    </trkseg>
  </trk>
</gpx>